GFSSGP_sfc_wetblb_036.txt.gz
Wetbulb
62.54 61.83 60.58 55.34 47.26 48.84 46.20 48.48 56.96 55.80 58.31 62.11 62.88 61.53 60.23 61.68 59.15 54.89 68.43 68.94 68.26 67.44 69.32 70.05 70.80 71.33 71.50 71.61 71.42 71.17 70.72 69.86 69.42 68.79 69.01 68.43 68.09 67.50 68.01 67.74 67.37 67.72 65.99 65.50 65.07 65.03 64.86 64.36 63.92
58.93 59.31 55.38 50.39 45.19 43.22 45.80 53.31 54.59 57.95 60.11 61.78 61.04 61.35 60.20 59.22 64.72 65.49 66.69 68.75 69.04 68.42 68.37 69.52 70.80 71.24 71.34 71.08 70.89 70.49 69.74 69.25 68.88 68.35 68.09 67.87 66.88 66.74 67.13 67.65 67.60 67.47 65.95 65.59 64.99 64.46 63.78 63.48 63.45
58.89 57.06 49.65 47.80 46.02 43.84 45.91 55.85 57.34 58.90 61.50 60.45 57.80 59.69 59.19 59.91 64.58 65.83 69.17 69.80 69.66 68.32 68.95 70.05 70.17 70.59 71.08 70.81 70.46 69.98 69.87 69.01 68.20 67.87 67.07 66.18 66.57 66.96 66.90 67.67 67.43 67.26 65.86 65.65 65.56 65.12 64.39 64.09 64.57
54.69 53.64 49.84 45.88 45.12 48.94 52.77 56.33 57.54 57.65 59.50 60.37 60.12 55.76 59.91 65.42 64.36 67.93 69.24 70.23 69.11 68.46 69.51 69.21 69.00 70.31 70.78 70.77 70.24 70.04 69.43 68.22 67.57 67.19 67.16 66.23 66.77 66.95 66.83 67.41 67.01 66.17 65.87 65.74 65.39 65.02 64.95 65.27 64.57
55.16 51.65 44.49 44.60 46.29 49.74 52.10 58.52 58.34 56.86 56.84 58.04 59.10 55.69 55.79 61.95 67.18 68.79 69.15 69.43 68.49 68.68 68.65 68.78 68.46 69.63 70.33 70.12 69.67 69.52 68.90 67.87 67.44 67.04 67.21 66.99 66.22 66.13 66.33 66.99 66.88 66.09 65.29 64.91 64.79 64.52 64.23 64.69 64.25
49.51 50.15 43.87 43.25 46.27 52.09 54.46 59.34 56.62 53.68 56.82 57.01 57.57 56.40 57.25 62.20 63.48 66.41 68.51 68.26 68.43 67.10 67.88 68.24 69.26 69.68 69.39 69.43 69.16 68.76 68.33 67.65 67.19 66.94 66.85 66.81 66.34 66.69 66.49 66.64 66.62 66.16 65.41 64.32 63.86 63.91 63.71 63.74 63.03
48.18 47.14 44.29 45.61 46.73 50.03 54.32 59.54 56.34 56.41 56.05 55.98 58.17 56.10 60.41 60.68 64.33 65.02 66.60 66.45 67.50 67.44 66.67 67.41 68.75 68.97 67.77 67.14 67.32 67.57 67.51 67.38 67.08 66.85 66.73 66.70 66.52 66.60 66.63 66.45 66.12 65.57 64.78 63.83 63.13 63.03 62.98 62.89 62.28
50.10 48.47 45.50 46.77 46.34 50.78 56.13 56.94 56.12 55.36 54.74 61.07 60.99 53.25 57.03 63.02 64.53 62.85 62.08 64.58 64.72 66.18 67.01 66.85 67.87 67.92 66.00 65.91 66.52 66.72 66.58 66.24 65.78 65.72 65.36 64.92 64.87 65.66 66.03 64.86 65.31 65.16 63.76 62.92 62.04 61.59 61.54 62.04 61.33
53.09 45.74 44.28 46.07 49.11 49.48 53.56 54.98 58.45 59.12 56.84 58.76 58.42 60.96 64.54 66.51 64.00 62.06 61.19 63.41 63.79 65.11 65.90 66.49 66.61 66.32 65.27 65.58 66.27 66.33 66.66 65.87 65.15 64.80 64.89 63.87 63.22 64.00 63.49 63.55 64.21 63.84 62.96 61.75 60.98 61.53 60.35 61.95 61.54
49.20 45.93 45.89 52.05 51.64 49.28 52.07 52.60 55.76 55.50 54.43 56.08 60.40 63.42 65.10 63.27 62.01 61.06 61.15 62.16 62.74 62.89 64.83 65.65 66.57 65.28 64.20 63.57 64.36 64.33 64.79 63.69 63.59 63.73 63.69 64.23 65.45 63.63 62.72 62.18 62.91 62.61 61.57 60.86 60.51 60.70 61.69 60.94 56.81
49.87 46.18 49.80 51.66 55.40 53.90 51.94 53.95 56.27 54.78 52.43 56.37 58.16 62.15 63.54 63.66 63.49 63.22 62.26 62.79 62.06 62.67 64.18 65.12 65.10 64.68 62.47 61.97 63.38 64.00 64.12 64.88 65.60 65.64 66.14 66.49 66.32 64.48 62.83 60.33 59.43 60.01 61.25 59.75 58.58 58.91 58.01 57.98 56.98
47.35 50.15 50.32 53.25 56.23 54.84 52.98 56.07 53.52 54.45 54.47 58.04 63.25 63.74 63.57 63.10 62.92 62.98 63.08 63.65 63.50 62.73 63.62 64.12 64.27 64.56 63.06 63.41 63.49 64.88 65.28 64.88 66.27 66.17 66.31 65.87 65.41 64.90 62.88 62.17 62.03 60.40 60.02 58.34 58.89 57.48 57.10 56.34 56.69
48.18 49.99 51.73 55.18 55.25 55.02 55.33 53.79 53.82 53.83 56.42 60.76 63.83 63.25 62.83 62.85 63.51 64.46 64.76 64.44 62.69 62.11 62.63 62.78 63.92 64.28 64.64 64.99 66.02 65.50 65.22 66.16 66.31 65.98 66.12 65.66 64.16 64.01 62.91 61.48 60.81 59.67 58.53 56.04 54.84 54.83 54.71 55.79 55.86
50.75 51.23 53.58 54.25 52.79 54.21 53.73 52.95 53.50 53.61 56.47 61.53 62.47 61.97 61.88 61.59 62.87 63.89 62.44 62.17 62.13 61.79 61.96 62.67 63.04 64.74 65.13 65.74 65.27 64.80 65.84 66.26 65.20 64.84 64.28 63.59 62.63 62.39 62.28 58.20 56.61 56.28 55.21 55.44 54.42 55.11 55.23 54.16 53.95
51.76 48.16 51.00 51.48 52.43 52.59 53.50 50.13 48.76 54.83 60.02 59.42 59.64 60.17 60.26 60.92 61.77 61.21 61.80 61.80 61.44 61.26 62.00 62.16 63.39 64.97 65.72 65.38 64.14 62.42 61.93 61.80 62.55 63.40 63.51 62.95 61.84 59.58 58.32 56.55 55.48 54.81 54.89 55.61 55.29 54.50 53.16 51.59 51.78
48.26 48.64 44.47 49.57 50.86 53.01 51.71 44.63 50.97 55.90 56.99 56.68 57.77 58.29 58.34 59.37 59.94 60.84 61.07 61.17 61.80 61.98 61.54 63.31 64.84 65.46 63.55 62.50 61.73 61.39 61.78 61.37 61.24 61.22 61.00 58.79 57.89 57.72 56.84 55.51 55.35 54.69 55.29 54.17 53.55 51.59 50.16 49.42 48.64
46.87 41.32 43.44 46.03 50.07 50.67 50.34 45.20 51.76 54.94 56.02 55.35 56.42 56.42 56.39 56.75 58.10 59.69 60.81 61.35 62.36 62.64 63.02 63.60 65.15 63.39 61.66 60.88 61.08 61.25 61.00 60.31 59.62 58.38 57.74 56.99 56.88 56.96 55.71 55.20 55.37 55.52 54.65 53.24 51.68 50.32 49.12 46.50 45.72
41.03 42.65 44.65 43.83 46.88 48.42 48.42 47.53 50.73 52.86 55.19 55.88 56.31 56.79 56.96 56.35 56.60 58.48 59.67 61.39 63.16 63.88 64.18 64.41 64.36 62.91 62.30 61.60 61.41 60.65 59.75 59.31 58.96 57.74 57.11 56.32 56.07 57.27 56.69 55.71 54.91 54.19 52.65 51.59 50.51 48.74 47.61 46.00 45.21
46.66 44.92 43.59 46.00 48.53 47.26 48.08 47.71 48.59 51.30 53.03 55.23 56.18 56.86 57.33 57.57 58.93 60.69 61.54 61.69 62.25 64.65 64.12 64.05 62.62 62.07 61.06 61.16 60.13 59.59 58.15 57.63 57.21 57.27 57.28 57.38 56.86 56.43 55.39 55.01 53.94 52.53 51.28 49.95 49.34 47.23 45.68 44.78 45.12
46.68 44.62 43.99 46.70 48.03 47.15 46.79 45.68 48.40 50.57 51.68 54.21 55.68 56.21 57.14 57.59 58.84 60.73 61.30 61.64 62.65 63.84 63.96 63.20 62.63 61.79 62.01 62.34 61.56 60.88 58.95 58.09 57.55 57.57 57.19 56.82 56.14 55.84 55.25 52.75 52.04 51.47 49.79 48.57 47.85 46.55 44.84 43.74 44.26
45.35 44.29 44.81 44.97 46.70 47.04 46.74 43.58 47.06 50.50 52.00 53.23 55.69 57.15 58.00 58.19 58.95 59.90 60.80 62.12 63.43 63.44 63.05 62.76 62.50 62.38 62.55 62.15 61.36 59.87 59.16 58.11 56.12 55.31 54.76 55.56 55.73 55.22 53.22 52.40 50.91 49.92 48.81 46.83 46.84 46.07 44.71 41.36 42.42
43.01 48.47 47.55 46.27 44.62 39.79 47.16 38.18 44.90 48.63 49.99 52.20 53.84 55.21 56.63 58.07 59.93 60.50 60.78 61.22 62.57 63.19 63.29 63.41 62.60 63.03 63.38 61.81 59.52 57.99 56.72 54.82 55.53 54.97 55.52 54.63 54.46 53.64 53.06 51.89 50.49 49.50 49.09 47.58 46.87 46.60 44.99 43.01 40.66
45.68 49.05 47.92 46.48 44.54 44.17 43.18 40.35 43.58 47.95 47.94 51.20 54.15 55.85 56.90 58.10 59.41 60.23 61.07 62.28 62.22 62.06 62.09 62.59 63.19 62.94 61.85 60.62 59.45 58.49 57.57 56.86 56.23 55.39 54.15 54.54 54.05 53.73 52.90 51.50 50.37 49.12 48.79 47.94 47.42 46.56 45.67 44.60 41.74
51.04 48.29 47.67 47.53 45.37 36.19 41.57 41.24 41.93 44.44 47.45 50.04 53.82 55.75 57.33 58.66 60.12 60.99 62.09 62.21 61.93 62.66 62.88 62.87 61.96 60.10 59.93 59.50 59.28 58.45 56.80 55.26 53.95 53.44 52.29 51.40 50.34 49.91 50.34 49.62 48.40 47.85 47.23 46.55 45.96 45.64 44.81 43.01 42.09
48.14 45.23 39.15 34.14 35.00 36.20 44.81 42.19 43.90 48.91 51.27 49.69 53.11 55.15 57.28 59.23 59.50 59.97 59.92 60.39 61.00 61.56 62.15 60.63 59.43 57.86 58.87 58.40 57.91 57.27 56.00 53.48 51.41 50.20 49.11 48.99 48.30 47.09 46.98 47.06 46.14 45.53 45.41 45.38 45.01 44.22 44.34 43.06 41.65
44.98 44.47 40.33 31.51 29.84 37.66 44.66 39.78 44.20 50.93 52.17 54.70 56.14 57.04 58.09 58.66 59.55 59.40 59.46 58.61 58.84 59.80 60.55 59.56 57.98 56.95 57.39 57.43 56.37 55.35 53.06 51.03 49.80 50.18 48.87 47.41 46.01 46.07 46.57 45.14 45.01 44.69 44.54 43.66 43.58 43.21 43.13 43.68 41.38
45.74 42.76 47.57 41.89 42.35 39.34 40.31 42.60 49.67 51.01 50.72 52.46 55.12 55.94 56.83 57.58 58.13 57.33 56.83 56.85 57.21 57.59 58.22 57.95 57.06 56.81 56.77 56.00 53.75 52.05 51.09 49.98 48.40 49.05 48.19 47.12 46.17 45.80 45.05 44.25 43.68 43.48 43.25 43.02 42.43 41.38 41.48 41.98 40.45
47.38 48.81 42.16 43.14 33.90 32.21 38.41 40.35 41.96 46.71 48.04 50.91 53.61 54.56 56.03 57.10 57.04 56.04 55.51 56.24 56.77 57.19 57.52 58.09 57.59 56.28 56.00 53.56 52.21 50.77 50.61 49.39 49.35 47.53 46.99 45.41 44.73 44.52 43.98 43.43 42.72 42.59 42.57 42.53 41.73 41.00 40.85 40.33 39.96
46.01 43.84 44.69 43.78 43.72 36.39 34.16 38.56 47.36 46.84 48.85 50.04 52.82 55.35 55.52 56.31 56.00 55.52 55.61 56.30 56.97 57.41 57.27 57.06 56.63 55.53 52.78 51.51 51.01 50.23 49.40 48.23 47.46 47.12 45.98 44.73 44.26 43.98 43.42 42.67 42.15 41.94 41.67 41.75 40.12 39.92 40.29 38.95 38.33
48.28 46.53 45.89 41.57 38.14 41.65 40.69 38.96 49.01 49.15 49.80 51.62 52.07 54.79 56.04 56.81 56.33 56.05 56.15 56.26 56.53 56.38 56.18 55.89 55.22 53.46 51.84 51.21 50.68 48.80 48.23 47.79 46.91 46.65 46.02 44.73 43.47 43.85 42.69 42.33 41.92 42.20 41.46 40.20 38.94 38.62 39.39 37.53 36.44

GFSSGP_sfc_wetblb_039.txt.gz
Wetbulb
58.00 57.65 55.32 51.07 39.56 38.62 36.71 41.41 53.54 54.31 55.20 59.34 61.88 59.91 58.23 59.40 57.56 53.52 66.37 66.11 68.25 69.51 70.43 70.56 70.69 71.28 71.61 71.60 71.34 70.88 70.48 69.67 68.92 68.65 68.41 68.22 68.15 68.00 68.31 68.15 67.60 67.48 65.78 65.23 64.75 64.49 64.54 64.60 64.59
54.21 56.13 53.15 44.91 36.04 31.77 36.88 49.11 51.90 55.61 58.70 60.13 58.47 58.41 58.99 58.57 63.46 63.59 63.78 66.39 67.89 69.17 69.35 69.75 70.45 70.97 71.29 70.98 70.46 70.26 69.48 69.02 68.70 68.19 67.68 68.39 67.83 67.63 68.19 67.95 67.32 67.16 66.15 65.54 65.17 64.90 64.62 64.41 64.84
56.73 56.04 43.22 38.42 35.09 34.84 37.08 50.37 53.18 57.83 59.79 57.77 54.93 56.84 58.79 59.75 63.90 65.59 66.76 66.77 67.13 67.41 68.82 70.16 70.27 70.38 70.62 70.39 70.05 69.46 68.82 68.52 67.97 67.56 67.78 67.41 67.29 67.34 67.20 67.70 67.13 66.90 65.79 65.49 65.49 65.09 64.21 64.46 64.25
51.72 47.04 43.89 36.49 36.07 42.10 43.73 51.49 55.33 56.15 57.12 58.10 55.93 53.49 57.79 62.82 64.06 66.96 68.12 67.07 66.37 67.67 68.84 68.77 69.28 69.62 70.23 70.24 69.60 68.77 67.96 67.30 67.29 67.51 68.04 67.30 67.27 67.15 66.71 67.23 67.02 66.04 65.46 65.21 64.76 64.10 63.86 64.28 63.81
48.57 45.12 37.24 34.71 39.07 44.67 54.08 54.71 55.43 54.18 54.16 55.71 56.54 52.41 53.98 59.93 66.33 67.74 67.59 68.29 67.15 67.99 68.66 68.49 67.83 68.94 69.83 70.11 69.24 68.17 67.67 67.18 67.33 67.67 67.68 67.53 66.57 66.40 66.29 67.00 66.72 65.73 64.72 64.38 64.13 63.87 64.14 63.96 63.89
44.01 42.62 35.59 34.93 40.44 45.57 54.02 54.12 53.53 53.30 54.17 54.95 55.47 53.91 53.75 61.09 64.37 65.90 67.26 67.28 67.93 67.05 67.20 66.94 68.05 68.63 68.89 69.08 68.20 67.28 67.02 66.99 66.97 67.16 67.15 66.92 66.94 66.94 66.75 66.95 66.64 65.51 64.50 63.84 63.41 63.86 63.88 63.44 63.53
43.23 38.65 36.24 38.73 40.45 48.80 52.94 56.58 53.59 52.69 53.09 54.05 56.90 54.54 56.43 59.05 63.88 65.47 65.39 66.89 66.38 66.25 65.67 66.59 67.75 67.76 67.48 67.35 66.74 66.38 66.58 66.69 66.70 66.72 66.47 66.40 66.41 66.48 66.80 66.68 66.20 64.98 64.61 63.60 62.99 62.49 62.23 62.19 62.07
45.73 41.33 37.51 40.10 41.00 47.18 53.36 54.66 56.09 54.73 52.39 58.46 58.02 52.81 53.21 59.07 60.84 64.34 64.21 64.90 64.91 65.43 65.07 66.92 65.99 65.57 65.45 65.78 65.85 65.69 65.58 65.62 65.67 65.62 65.15 64.96 65.20 65.50 64.99 65.53 65.69 64.92 63.77 62.27 61.46 60.77 61.33 61.46 60.42
46.40 37.88 36.59 39.78 45.85 48.22 54.38 53.21 56.08 57.45 53.97 56.78 59.14 58.98 60.38 60.44 61.35 62.02 62.16 62.22 62.52 64.43 64.75 65.20 64.59 64.13 64.21 64.70 65.41 65.26 65.40 64.82 64.69 64.53 64.27 63.07 62.49 62.94 61.86 63.18 64.05 63.62 62.36 60.98 61.14 60.14 61.34 61.36 60.24
42.26 36.98 40.43 46.33 50.26 49.08 51.54 53.24 53.87 53.29 51.39 55.53 55.35 62.26 61.15 59.93 58.40 59.22 59.81 59.90 59.74 61.76 64.14 64.96 64.30 63.33 63.31 64.56 63.31 63.20 63.40 62.08 61.63 62.03 62.38 61.85 62.00 61.32 60.26 62.43 62.98 62.82 61.73 60.63 60.82 60.08 60.82 58.80 54.68
43.00 41.03 45.31 49.74 53.11 51.86 50.95 50.87 54.37 52.55 48.04 54.30 56.55 58.53 58.47 59.38 58.29 59.80 60.03 59.94 60.09 61.91 63.41 64.32 64.04 62.53 60.91 62.05 62.02 62.13 61.72 60.96 61.58 61.91 61.57 62.02 62.47 60.38 59.31 58.24 59.17 57.52 60.56 56.67 57.39 56.68 55.53 54.03 53.86
40.54 45.60 47.92 52.69 53.72 52.89 50.57 53.04 51.70 49.88 52.43 58.86 60.77 60.66 59.59 59.66 60.16 60.66 60.49 59.42 60.09 61.76 62.63 63.63 63.74 61.22 59.78 61.76 61.73 61.51 61.70 62.52 62.51 63.49 63.61 61.89 62.16 61.63 59.95 57.63 59.29 57.51 56.49 53.99 53.28 52.89 53.10 53.55 54.29
43.90 46.25 52.81 54.69 53.83 52.28 53.93 50.64 50.44 49.45 57.19 62.42 62.33 62.11 61.33 60.92 60.55 62.08 61.57 61.06 59.62 60.66 61.64 61.47 61.53 59.66 60.24 60.87 62.53 63.20 63.11 63.77 63.70 63.66 62.44 60.95 59.82 60.14 58.57 56.75 55.31 54.21 53.94 52.37 51.84 52.63 53.04 51.98 51.83
47.47 47.41 51.76 51.98 52.93 53.00 51.11 51.35 49.72 50.76 54.99 61.01 60.92 59.86 59.47 60.42 60.89 61.12 60.90 60.84 61.01 60.86 60.40 60.11 60.73 60.42 62.88 63.20 63.18 63.35 63.52 62.89 62.36 62.50 61.42 61.33 60.22 57.83 55.43 54.34 53.54 52.69 52.15 52.66 52.51 51.37 50.26 49.26 49.69
49.31 45.37 49.38 49.48 51.25 50.25 50.26 48.22 47.71 54.11 57.14 59.36 59.65 58.99 59.38 60.62 61.90 61.22 61.10 59.42 60.09 60.04 60.23 59.21 60.03 62.38 62.89 61.81 60.18 59.88 59.57 61.02 61.20 61.20 60.42 58.69 58.14 56.05 54.49 53.17 51.61 51.62 52.39 51.92 51.13 49.37 48.77 47.79 48.53
44.82 44.31 41.09 46.86 51.16 51.38 50.31 42.07 49.14 52.33 54.43 56.78 57.22 57.12 57.16 58.54 61.34 60.15 59.97 59.19 59.38 59.55 59.39 59.96 62.94 62.31 60.12 59.32 58.72 59.53 59.60 59.50 59.65 59.27 56.49 55.12 55.45 54.58 53.15 52.48 51.51 51.92 52.24 51.15 49.33 48.03 47.02 45.32 44.03
42.07 37.23 40.61 44.16 50.74 49.58 48.16 43.35 48.28 53.22 55.15 54.28 54.35 53.67 54.15 54.97 57.16 58.80 58.81 58.60 59.15 59.17 59.83 60.41 62.34 60.00 58.76 58.70 59.72 59.60 58.09 57.92 57.52 56.08 54.42 54.41 54.42 54.08 52.29 51.83 51.73 51.66 50.74 49.12 48.90 46.89 45.11 42.87 42.49
38.10 39.39 39.02 41.61 46.42 47.56 45.92 43.42 45.80 49.11 51.64 51.47 50.84 50.46 51.68 52.20 55.14 57.07 58.13 59.09 59.29 59.64 60.94 61.85 60.35 59.38 58.20 58.61 58.67 57.93 56.77 56.57 55.27 54.54 53.71 53.10 53.49 54.20 52.89 52.24 51.20 50.80 49.05 47.68 47.02 45.35 44.55 42.99 42.02
45.37 42.18 41.15 43.04 45.50 45.99 44.83 43.81 45.07 47.42 49.48 49.90 49.56 50.22 50.56 51.72 53.49 56.66 56.46 59.23 59.48 60.13 61.22 61.05 59.61 58.98 58.75 58.01 57.45 56.32 54.73 54.03 53.45 53.86 53.65 53.25 53.75 53.35 52.39 51.77 50.66 48.77 47.56 45.97 45.99 44.11 42.84 42.05 42.00
45.32 42.53 41.00 44.85 45.58 44.97 44.58 43.30 45.11 46.37 47.90 51.43 51.61 51.95 52.11 53.35 54.56 56.05 55.35 57.54 59.82 60.30 61.29 60.65 60.10 59.70 59.05 59.16 58.20 56.85 54.45 53.49 53.29 53.08 53.37 53.50 52.79 52.75 51.33 49.12 48.07 47.39 45.80 45.25 44.44 43.37 42.18 41.29 40.83
44.11 42.80 42.79 42.26 43.21 41.71 41.30 39.69 40.87 46.14 48.28 50.57 53.48 54.44 54.89 54.52 55.10 56.32 57.10 57.42 60.19 59.95 60.58 60.29 59.88 59.45 59.26 59.54 58.37 55.85 54.28 53.38 51.50 51.23 50.98 51.78 52.53 51.78 50.30 49.38 47.55 46.77 45.72 43.95 43.45 42.84 41.92 39.21 40.09
40.94 46.05 46.08 45.24 41.48 35.12 42.34 32.54 40.73 43.63 45.65 48.09 51.59 53.22 54.00 54.43 57.17 57.33 56.92 57.11 59.73 59.68 60.76 61.46 60.83 60.74 59.94 60.21 57.33 54.29 52.41 51.04 50.62 50.72 50.87 50.94 50.95 50.59 50.43 49.01 47.72 46.64 45.99 44.42 43.98 44.80 42.50 40.74 38.49
43.44 47.29 45.50 44.96 41.15 39.84 38.97 35.10 38.89 44.91 44.39 47.13 47.14 49.72 52.00 54.92 56.68 56.82 56.89 57.73 60.22 60.63 61.30 61.54 61.26 61.70 60.27 59.88 57.17 54.40 52.56 51.95 51.58 51.31 50.23 49.82 49.87 50.20 50.13 47.99 46.45 45.16 45.03 43.99 43.43 42.83 43.25 42.31 39.72
48.38 46.34 45.30 43.76 40.45 33.43 40.45 38.61 36.48 41.75 45.17 48.63 50.83 50.83 51.59 52.08 57.21 57.85 58.07 59.78 59.68 61.26 61.35 60.98 59.53 59.48 59.73 57.56 55.56 53.94 52.95 50.77 50.69 50.50 50.53 50.86 48.48 46.26 45.63 45.60 43.76 43.40 42.62 41.86 41.39 41.05 41.22 40.66 39.95
45.69 40.61 33.07 30.82 31.08 30.82 42.44 40.05 39.96 45.60 47.40 48.98 49.60 50.69 51.52 54.18 55.74 56.97 57.73 58.49 58.61 57.66 58.06 59.05 59.13 57.05 56.33 55.57 53.77 52.56 50.71 49.84 48.77 47.17 44.87 44.39 45.13 44.42 42.66 43.20 42.33 41.30 41.28 41.26 40.82 40.10 39.68 40.20 39.56
43.42 41.81 34.12 27.83 29.03 31.55 41.87 36.73 40.77 47.83 49.60 51.08 51.49 50.85 52.72 53.60 54.86 56.57 57.63 57.58 58.38 58.35 58.15 58.61 57.59 55.94 54.01 53.40 52.64 50.39 47.63 45.84 46.02 45.09 43.78 43.37 44.47 44.51 43.43 42.66 41.95 40.77 40.54 40.29 40.22 38.91 38.74 39.11 38.76
44.26 39.41 44.44 37.72 35.39 30.62 35.59 39.56 45.05 47.37 47.94 49.21 48.41 50.61 52.10 53.26 54.12 54.81 54.29 55.56 56.78 57.41 55.51 54.42 54.14 53.59 53.35 52.39 48.84 46.23 46.23 45.60 44.91 44.35 44.02 44.94 43.81 44.45 42.43 41.63 41.76 40.69 40.11 40.60 39.45 38.31 38.06 38.54 38.00
44.61 45.33 36.97 36.32 28.32 27.35 34.44 35.08 37.62 43.61 46.31 48.51 50.04 50.79 51.99 53.08 53.13 52.72 52.23 52.96 53.51 54.03 54.35 53.43 52.45 52.55 52.45 49.16 47.16 46.67 45.51 45.31 45.44 45.56 44.65 44.39 43.57 43.30 41.95 41.66 39.85 39.56 39.93 39.51 38.88 37.67 37.96 37.98 37.42
42.19 40.07 40.81 40.23 37.04 29.00 26.06 31.94 41.70 43.49 45.85 46.33 49.03 51.35 52.10 51.98 51.69 50.98 50.66 52.58 52.88 52.78 53.08 52.67 52.35 51.45 48.54 47.80 46.50 45.83 44.96 46.56 45.41 45.24 44.56 43.69 43.27 43.12 41.03 41.50 39.63 39.41 39.34 39.04 37.34 37.41 38.01 36.75 35.18
44.99 43.66 42.92 31.24 32.63 33.54 29.46 32.25 43.14 43.50 45.83 46.80 47.10 51.89 51.93 53.22 52.03 50.98 50.74 51.98 52.48 52.52 52.78 52.01 51.58 49.49 49.31 48.66 46.81 44.45 44.92 46.31 45.58 45.25 44.26 43.53 42.51 42.63 41.71 40.16 39.69 40.23 39.37 37.71 37.14 36.85 36.13 34.94 34.16

GFSSGP_sfc_wetblb_042.txt.gz
Wetbulb
57.87 56.84 53.17 49.46 38.75 36.21 33.93 38.90 49.14 52.35 53.48 57.13 60.93 59.37 58.22 59.15 56.65 50.85 64.06 65.57 69.12 69.54 70.82 70.59 70.79 71.36 71.42 71.41 70.85 70.14 69.49 68.36 68.02 68.18 68.35 68.30 68.48 67.72 67.92 67.53 67.15 66.97 65.84 65.58 65.47 65.13 65.41 65.31 65.87
53.19 55.19 50.61 42.82 34.18 30.28 33.77 42.09 49.80 53.99 57.49 58.36 56.79 59.35 58.75 58.55 62.86 62.28 63.27 68.32 68.96 69.93 70.11 69.81 70.54 70.76 71.00 70.60 70.18 69.24 68.55 68.06 68.23 68.09 68.40 68.50 68.19 67.14 67.43 67.53 67.12 67.17 66.00 65.42 64.94 64.81 64.80 65.02 65.58
54.83 53.92 43.70 37.18 31.61 32.06 33.79 47.41 52.84 56.04 58.65 56.18 53.45 57.17 59.05 59.65 63.75 63.28 65.87 68.43 68.84 69.00 69.22 69.97 70.06 70.18 70.38 70.02 69.24 68.65 68.34 67.88 68.24 68.47 68.38 67.99 67.28 66.60 66.54 67.28 66.76 66.84 65.55 64.73 64.38 64.33 64.49 64.96 64.50
49.59 45.19 42.14 35.32 34.49 37.99 41.77 47.22 54.42 56.17 55.42 56.03 55.38 52.68 57.90 61.13 63.85 65.42 66.74 68.46 67.93 68.26 69.15 68.94 69.11 69.58 69.78 69.53 68.96 68.22 67.75 67.67 67.94 68.24 68.35 67.58 66.87 66.49 66.52 67.12 66.61 66.12 64.93 64.33 64.03 63.76 64.57 64.12 64.14
45.93 41.41 35.06 32.79 35.53 43.19 52.13 52.98 54.32 52.65 52.82 54.38 54.17 50.81 54.88 60.47 65.95 65.87 66.13 67.41 67.37 68.13 68.65 68.35 67.65 69.05 69.17 68.98 68.46 67.68 67.40 67.63 67.96 68.07 67.96 67.55 66.20 65.96 65.83 66.32 66.08 65.62 64.60 63.71 63.38 64.14 63.90 63.90 63.80
42.83 39.80 33.90 33.66 40.19 50.80 52.44 54.72 53.29 52.92 53.38 54.12 53.06 52.55 53.55 63.80 64.74 65.79 66.88 66.71 67.09 66.30 66.61 67.05 67.65 68.13 67.95 67.96 67.50 66.85 67.05 67.27 67.46 67.38 67.28 67.23 67.00 66.54 66.32 66.01 65.85 65.27 64.85 64.44 64.09 64.11 63.55 63.31 63.37
40.00 37.32 35.32 36.72 39.46 47.19 52.44 55.05 52.28 53.02 52.53 53.85 55.33 52.01 55.23 60.65 64.41 65.87 64.97 65.49 65.32 65.87 65.55 65.20 65.89 67.63 66.99 66.50 66.20 65.96 66.50 66.54 66.60 66.67 66.42 66.38 66.33 66.39 66.55 65.99 65.32 64.76 63.92 63.78 63.43 62.84 62.30 62.60 62.79
43.07 39.48 34.00 35.85 39.20 44.19 52.31 54.18 55.62 54.33 53.33 58.18 58.06 52.07 50.88 59.37 63.71 64.11 63.43 62.92 61.80 62.39 63.57 64.46 64.19 65.35 65.53 65.02 65.48 65.57 65.74 65.85 65.63 65.79 65.50 65.20 65.42 65.78 65.96 65.47 65.00 64.17 63.17 62.79 62.75 62.95 62.87 62.16 61.75
44.45 38.71 36.21 36.94 41.45 47.23 53.29 51.70 53.46 56.87 54.73 58.55 59.83 58.46 59.41 61.73 62.77 62.23 62.16 61.47 60.33 61.72 62.86 64.31 63.46 64.47 64.19 63.93 64.61 65.17 65.67 65.18 64.84 64.77 64.47 63.19 61.86 61.38 62.59 63.15 63.83 63.41 61.97 61.00 61.85 62.65 61.41 60.16 60.22
41.08 37.70 39.12 43.60 48.71 48.12 51.71 51.90 52.90 52.13 54.14 54.82 56.02 58.27 60.18 60.97 60.29 59.59 59.91 59.51 58.86 59.57 61.30 63.78 63.42 63.54 63.63 63.90 62.64 61.73 62.66 61.74 61.44 61.47 61.23 60.69 61.20 60.62 60.45 62.42 63.04 62.59 61.17 60.77 61.63 61.33 59.52 57.05 53.14
41.80 39.86 42.91 48.44 50.71 50.46 49.66 48.81 52.57 51.09 48.11 53.18 54.80 55.35 56.29 58.73 59.44 58.03 59.20 59.30 59.67 60.71 61.62 63.36 63.27 63.12 61.97 61.87 61.22 60.35 59.50 59.12 59.61 60.25 60.35 60.31 61.44 59.39 58.68 58.39 57.92 56.83 58.93 55.12 54.99 53.95 53.25 52.94 51.97
40.49 44.57 44.60 50.64 52.02 50.57 48.84 50.74 50.34 49.50 50.75 56.91 58.82 58.17 56.84 58.09 58.45 57.10 57.41 58.60 59.38 60.59 62.06 63.20 62.33 61.42 59.87 60.73 60.34 59.81 59.51 60.40 59.92 60.94 61.42 60.99 59.32 58.13 56.93 55.87 56.20 56.37 53.67 52.21 51.92 52.06 51.85 50.82 50.39
42.59 44.49 49.30 52.54 52.16 50.40 52.65 50.41 49.13 51.44 58.64 59.98 58.84 58.31 57.05 58.36 58.61 58.05 57.54 58.31 58.10 58.10 59.97 62.05 61.99 59.49 59.26 59.63 60.00 60.45 61.36 61.85 62.10 60.74 60.24 61.61 59.98 58.64 57.30 55.04 53.86 52.48 51.78 51.37 51.37 50.12 49.29 48.97 48.47
47.30 47.67 50.22 51.43 51.28 51.19 50.63 48.94 47.92 50.14 60.00 58.68 58.20 57.43 58.65 58.62 59.93 59.28 58.64 57.91 58.97 59.82 61.12 62.67 61.57 58.66 59.35 60.83 61.61 61.64 62.65 62.22 61.83 60.18 59.85 59.51 58.32 55.60 53.86 52.26 51.59 51.42 51.98 51.43 49.77 48.29 47.44 46.51 46.52
48.66 46.70 48.77 49.86 49.16 48.50 49.79 45.64 46.62 53.32 58.10 58.08 59.05 59.55 60.30 59.89 60.58 59.20 59.36 58.30 58.64 60.36 61.50 60.64 60.21 60.54 61.84 62.05 62.53 60.64 60.97 61.30 60.23 59.51 59.02 58.24 56.13 54.50 52.75 51.06 50.51 50.97 51.00 49.48 48.29 47.18 45.99 44.46 45.14
44.15 46.12 40.47 47.05 49.13 50.38 47.15 41.53 48.90 52.11 55.56 55.48 57.05 58.87 59.09 59.52 60.06 60.51 60.79 59.15 60.46 60.54 59.56 59.75 62.37 61.59 60.74 58.91 58.71 59.18 59.04 58.97 58.47 56.19 54.93 55.46 54.66 53.44 51.77 50.80 50.68 51.13 50.35 48.24 47.09 45.79 43.99 42.94 42.22
40.19 35.54 38.93 43.92 49.17 48.54 46.26 41.72 47.05 50.97 54.30 55.00 55.51 55.82 57.84 58.58 59.53 59.91 60.80 60.79 60.51 59.97 58.91 59.82 61.05 60.02 58.48 58.91 58.62 57.86 57.40 57.17 56.45 54.18 53.27 53.85 53.61 52.84 51.25 51.16 50.63 50.29 48.41 47.57 47.38 44.70 43.46 41.34 41.18
37.28 38.58 37.74 38.75 45.35 46.02 44.38 42.96 44.78 49.96 52.51 54.49 53.43 51.42 55.40 57.54 58.67 60.18 59.07 59.69 59.24 58.30 59.21 61.24 59.78 58.28 57.70 57.70 56.81 56.29 56.27 55.46 55.03 53.71 53.06 53.09 52.77 52.86 52.44 50.81 49.76 48.98 47.43 45.97 45.49 43.52 43.03 41.67 41.00
42.73 41.81 40.52 41.48 45.48 45.17 44.59 42.72 44.28 47.04 51.23 50.79 51.44 49.52 52.48 55.23 58.04 58.68 57.84 58.27 57.68 57.83 59.76 59.79 58.02 57.34 57.52 56.44 55.43 54.64 54.12 53.57 53.50 53.11 53.01 52.28 52.82 53.21 51.25 49.96 48.08 47.05 45.28 44.68 44.79 42.90 41.32 40.58 40.15
44.40 42.52 40.29 42.25 44.80 45.15 42.58 41.88 42.56 44.86 49.17 51.45 51.19 49.61 50.75 52.29 54.48 55.74 56.31 56.87 57.07 58.30 59.92 59.28 58.38 57.56 57.49 57.49 56.03 55.45 54.25 53.26 52.88 52.71 51.73 52.64 51.72 51.00 49.44 47.84 46.58 45.64 44.52 43.87 43.11 42.08 40.85 40.30 39.62
42.77 40.34 40.20 40.26 42.09 40.49 41.70 39.00 40.31 44.74 46.37 50.16 51.55 52.01 51.88 52.13 52.55 53.08 55.52 56.02 57.17 58.44 59.35 59.01 58.67 57.77 57.93 58.06 56.98 54.76 53.10 51.95 50.73 50.05 50.32 50.78 51.53 50.76 49.23 47.75 46.35 45.18 44.55 43.10 42.17 41.52 40.86 38.74 39.11
38.42 44.48 44.43 43.24 39.74 34.07 39.20 31.14 37.61 41.59 43.60 48.90 50.58 50.28 51.10 52.41 53.96 54.06 55.75 55.80 57.03 58.83 59.96 59.65 59.12 58.36 58.20 58.38 56.72 53.89 52.87 51.01 50.40 50.06 49.49 49.87 50.54 49.77 49.38 47.88 46.27 45.15 44.65 43.46 43.15 43.53 41.39 39.66 37.97
42.05 45.79 43.78 43.32 39.63 36.91 36.97 33.40 36.66 41.97 41.82 43.82 47.58 50.71 51.49 52.79 54.15 54.54 56.30 57.37 58.35 59.35 59.46 59.53 59.52 59.21 59.14 58.83 57.11 54.69 52.23 51.60 49.69 49.59 49.07 48.57 48.44 48.62 48.09 46.67 45.12 44.00 43.35 42.41 41.92 41.74 40.20 40.36 38.76
47.25 44.52 42.88 41.67 38.71 31.92 37.23 35.25 35.06 38.05 44.07 46.27 47.24 49.04 50.99 52.20 54.40 55.38 55.94 58.92 58.47 59.43 59.52 59.55 60.04 60.21 60.23 58.85 55.54 54.56 52.45 50.39 49.71 48.73 48.74 47.75 47.37 44.68 44.54 44.07 43.41 42.50 41.23 40.75 40.03 38.76 38.25 38.31 38.53
44.72 39.44 30.66 28.68 29.20 28.77 40.43 36.82 38.37 42.64 45.18 46.55 47.47 47.24 48.98 51.98 54.16 53.94 56.57 58.01 58.67 58.85 59.09 59.73 60.31 59.56 59.32 56.88 54.54 52.93 52.07 50.78 50.59 49.74 47.46 45.11 42.88 42.95 42.51 42.67 42.98 42.49 41.75 40.05 39.29 38.04 37.13 36.96 37.09
41.20 39.13 31.42 27.14 26.55 31.07 39.48 34.37 39.10 45.69 47.67 48.18 47.54 47.91 49.94 50.68 54.73 55.25 56.78 57.90 58.82 59.18 59.31 59.34 59.11 57.69 54.90 53.46 52.67 52.24 50.64 48.30 46.62 46.66 45.63 45.16 44.42 43.60 43.25 42.66 42.64 41.11 40.99 39.76 38.15 38.87 38.12 37.31 37.03
42.16 37.50 42.07 35.31 32.67 28.07 34.58 38.03 43.39 46.26 47.53 47.01 46.85 48.91 50.04 51.27 54.25 55.75 56.67 57.15 57.32 57.26 57.25 57.80 57.66 54.05 53.01 52.40 49.76 47.84 47.88 46.74 45.65 45.32 46.20 44.91 43.93 43.37 42.93 42.22 41.46 41.30 40.62 39.90 39.28 38.10 36.55 36.52 36.47
43.82 43.68 36.00 34.86 27.79 26.62 31.81 33.57 36.10 41.86 45.13 46.54 45.94 46.91 50.36 51.74 52.79 53.68 54.81 55.79 56.28 56.57 54.73 53.99 55.07 53.19 52.82 50.12 48.48 48.14 47.15 46.91 46.89 47.23 45.60 44.19 43.39 43.25 42.65 41.45 40.84 40.61 39.77 38.85 37.34 36.31 36.88 35.86 35.00
40.13 38.36 38.73 38.21 33.64 27.79 25.35 30.49 39.73 43.15 45.57 46.20 46.95 48.84 50.65 51.51 52.12 53.18 53.50 54.63 55.09 54.34 52.62 51.41 53.38 53.08 50.93 48.00 46.64 46.24 47.01 46.52 46.88 46.53 44.87 44.23 42.78 42.93 42.41 41.68 39.53 39.45 37.83 38.38 36.84 36.25 36.93 35.46 34.60
42.20 40.64 39.95 29.40 30.99 31.75 27.94 30.98 42.33 43.12 44.61 47.38 48.73 50.06 50.76 52.60 52.27 52.29 53.23 53.38 52.99 53.38 52.61 51.48 51.76 51.18 48.72 46.69 46.06 45.04 46.12 45.92 45.61 44.73 43.72 43.85 43.06 43.26 41.33 39.59 39.07 39.06 38.96 37.29 36.28 35.47 35.40 34.60 33.74

GFSSGP_sfc_wetblb_045.txt.gz
Wetbulb
57.23 54.99 51.42 47.61 38.20 35.06 32.08 37.38 41.49 50.21 52.24 56.76 59.82 57.94 57.19 58.25 55.00 49.49 63.12 65.63 69.50 69.87 70.73 70.41 70.59 71.12 71.13 70.78 70.04 69.18 68.60 67.38 66.94 67.51 68.42 68.47 68.36 67.92 67.55 67.38 67.32 67.38 67.11 66.28 65.77 65.98 67.88 68.55 68.25
52.77 54.53 47.46 39.66 33.03 29.30 32.86 38.88 41.83 50.34 55.78 56.88 56.28 58.19 58.25 57.53 62.49 62.06 63.48 67.93 70.20 70.13 70.09 69.70 70.41 70.71 70.58 70.04 69.37 68.52 67.80 67.36 67.85 68.50 68.04 67.97 67.12 67.70 67.82 67.39 67.02 66.93 67.28 66.43 65.40 65.24 65.61 66.57 67.55
52.87 50.88 43.25 36.08 30.23 30.43 32.61 39.76 49.34 54.47 56.66 54.96 52.99 57.50 58.66 58.07 62.10 63.10 66.68 68.35 69.89 69.43 69.40 69.50 69.95 69.91 70.04 69.40 68.53 67.86 68.05 68.09 68.12 68.54 67.85 67.70 66.97 67.06 66.78 67.19 66.54 66.45 66.77 66.01 65.42 64.69 64.41 65.31 65.76
48.66 44.41 40.48 33.96 31.50 36.70 37.90 43.05 52.80 54.23 54.27 55.14 54.54 51.31 58.51 62.42 63.78 65.38 67.62 69.21 68.35 68.65 68.83 68.32 68.93 69.17 69.30 69.04 68.50 68.03 68.26 67.90 67.94 67.98 68.14 67.73 66.74 66.39 66.73 66.85 66.28 66.40 66.13 64.86 64.61 64.25 64.55 63.60 64.39
44.28 40.11 34.27 30.58 34.66 40.19 50.06 51.31 53.64 51.70 53.04 53.13 52.94 51.29 55.48 63.36 65.28 67.22 67.25 67.96 67.73 68.05 68.29 68.31 67.75 68.66 68.93 68.69 68.15 68.02 68.00 67.79 68.07 68.02 67.55 67.41 67.05 66.25 66.47 66.42 65.98 65.65 65.23 64.68 64.46 64.89 64.30 63.54 62.78
41.48 38.27 31.67 30.27 37.11 48.21 50.75 53.41 52.79 52.89 53.79 54.17 53.34 52.11 56.58 64.26 64.51 65.53 66.75 66.93 67.81 66.82 67.00 66.96 67.48 67.70 67.82 67.83 67.47 67.53 67.75 67.69 67.70 67.48 67.05 67.15 66.81 66.23 66.03 65.79 65.53 65.16 64.83 64.57 64.15 63.79 63.62 63.21 62.82
39.28 36.26 31.96 33.32 36.75 39.84 50.82 53.94 51.13 52.72 52.49 53.08 55.17 51.34 56.88 61.58 64.18 65.08 64.88 64.81 64.87 64.65 64.40 64.78 64.88 66.01 66.75 66.47 66.48 66.57 67.05 67.22 67.06 66.75 66.48 66.27 65.88 65.60 65.55 65.22 64.66 64.63 64.23 64.05 63.95 63.44 62.81 62.41 62.19
42.14 38.88 33.27 34.57 37.40 37.36 50.13 53.29 54.12 53.20 51.81 58.34 58.44 50.97 53.60 60.69 62.62 61.27 61.11 60.68 61.09 62.76 62.50 62.58 62.64 64.33 64.26 64.07 65.57 65.93 66.12 66.25 66.16 66.31 65.80 65.45 65.69 65.52 65.22 64.67 64.22 63.88 63.81 64.12 63.64 63.31 62.41 62.03 61.74
42.18 36.45 33.17 37.18 38.26 42.57 51.57 50.14 52.29 55.69 56.28 56.68 58.38 57.54 59.47 62.02 61.61 59.72 59.02 59.04 58.71 59.75 61.83 61.49 61.81 63.77 63.96 63.18 64.59 65.63 66.16 65.83 65.12 65.12 64.73 62.83 61.42 61.70 61.03 62.72 63.31 63.11 62.92 63.37 63.25 62.09 60.27 58.78 59.45
41.07 35.09 38.51 41.59 42.66 47.54 50.74 51.42 51.97 52.07 53.65 53.81 55.37 59.54 61.28 61.10 60.43 58.44 57.60 57.16 57.49 58.25 60.22 61.59 61.36 61.96 63.67 63.54 62.83 62.12 63.10 61.89 61.41 61.28 61.08 60.54 59.87 58.27 60.95 62.16 63.02 62.27 62.17 62.65 61.34 60.08 58.80 54.61 50.56
40.04 38.23 42.21 43.12 48.90 48.66 50.03 49.01 50.99 50.03 47.88 53.95 54.93 56.01 58.64 59.13 58.83 58.88 57.96 57.90 57.62 58.75 60.40 62.34 60.78 63.24 62.51 61.14 60.98 60.25 59.72 59.53 59.78 59.88 59.95 60.55 59.93 58.36 58.64 58.05 56.26 55.89 56.86 52.93 53.66 52.64 51.44 49.56 48.70
38.87 43.44 43.81 46.20 50.93 49.56 48.33 49.72 49.01 48.21 50.19 56.15 56.80 58.01 57.37 56.83 57.91 57.70 57.59 57.79 57.46 57.70 59.23 61.89 62.18 62.58 61.22 60.67 60.16 59.36 58.50 58.66 58.65 59.18 59.66 59.78 58.64 56.15 55.46 54.65 55.15 52.84 51.77 51.19 50.83 50.05 49.12 47.99 47.55
40.53 42.38 47.99 51.33 51.16 50.08 51.24 48.86 51.23 53.68 56.15 57.24 56.80 56.97 57.03 57.57 58.03 58.35 58.23 58.58 58.04 57.94 59.18 62.27 62.45 61.22 59.65 59.41 59.13 59.02 58.89 59.64 61.21 61.36 61.58 60.67 58.90 56.65 55.59 54.40 52.90 51.00 51.00 50.15 48.68 48.01 47.44 46.20 45.26
45.63 47.84 49.16 49.65 49.85 50.13 48.33 47.18 49.01 53.67 57.42 56.88 55.79 55.62 57.28 57.34 56.88 56.24 56.90 56.95 57.88 59.76 60.83 61.75 61.55 59.97 58.74 58.70 59.00 59.13 60.92 61.63 60.36 59.19 59.74 59.71 58.29 55.67 53.29 51.16 50.83 50.76 50.44 49.06 48.74 46.69 44.96 43.86 43.62
47.19 46.25 47.74 48.25 48.46 46.66 48.15 43.23 45.90 53.62 57.42 55.37 54.97 55.54 57.44 57.50 57.48 56.31 57.12 56.94 57.68 58.14 59.48 61.08 61.48 57.89 58.41 58.77 60.18 60.99 61.26 61.23 59.35 58.71 58.79 57.25 55.17 53.25 51.57 50.54 50.14 50.43 48.92 47.67 46.55 44.58 43.79 43.07 43.02
42.27 43.93 41.40 46.96 47.95 49.05 46.64 39.80 48.17 55.45 55.73 55.01 54.77 55.39 56.99 58.29 58.13 58.16 58.54 57.80 58.01 58.67 60.05 60.88 62.01 58.58 59.80 60.04 59.14 59.41 59.79 59.25 58.31 56.92 56.44 55.18 54.16 52.57 50.42 49.74 49.66 49.78 48.31 47.08 45.70 43.87 42.36 41.67 41.14
38.78 37.77 37.77 43.89 48.19 46.72 44.32 40.45 47.18 53.93 54.84 53.38 56.42 57.30 57.82 57.64 59.25 59.57 59.35 58.65 58.09 59.35 59.91 59.44 59.62 59.57 59.26 58.42 58.42 58.08 57.94 57.40 55.90 53.92 53.77 53.70 53.10 52.07 50.52 50.43 50.67 49.32 47.57 46.30 45.71 43.29 41.88 40.40 40.02
35.08 35.29 35.02 40.06 43.97 45.69 42.76 42.51 45.00 49.80 54.27 53.27 53.48 55.09 56.72 57.13 58.24 59.72 59.80 59.99 58.71 59.22 58.35 59.76 59.94 58.10 57.84 57.60 56.56 56.36 56.02 55.28 54.26 52.82 52.54 53.02 52.19 51.75 51.05 49.85 48.60 47.75 46.32 45.25 43.86 42.32 41.77 40.49 39.80
40.66 39.28 39.17 41.36 44.41 45.20 43.55 42.25 43.82 46.98 51.61 52.15 52.42 52.27 55.74 56.52 58.71 59.42 59.91 59.64 59.31 56.80 58.28 59.55 57.95 57.14 57.71 56.64 55.32 54.27 53.76 53.20 52.88 52.73 52.82 52.57 51.94 52.19 50.15 48.34 47.73 46.07 44.71 44.20 42.91 41.64 40.37 39.56 38.79
41.43 40.18 38.55 42.51 43.79 44.14 40.58 41.83 41.72 45.62 48.53 52.48 52.29 50.25 52.42 56.21 57.44 58.07 58.32 58.28 56.85 56.48 58.31 57.97 57.99 57.06 57.50 57.02 55.44 55.13 53.80 53.33 52.81 52.44 51.82 51.40 52.09 51.30 49.93 47.34 46.10 44.66 44.12 43.02 42.30 41.22 40.05 39.76 38.72
40.31 39.13 40.89 40.15 41.83 41.33 40.72 38.42 40.18 43.35 45.66 51.38 53.09 53.15 53.03 54.46 55.67 57.50 55.87 56.13 55.96 55.88 57.74 58.18 57.65 57.38 57.44 56.66 55.65 53.33 52.50 51.33 50.53 49.85 49.45 50.71 50.81 50.28 48.77 47.08 45.41 44.24 43.34 42.04 41.18 40.60 40.19 38.38 38.44
37.12 43.19 42.57 41.22 38.52 34.41 39.65 31.18 37.09 39.52 42.75 48.28 51.58 50.61 51.13 53.08 55.76 56.96 55.28 54.96 55.30 56.32 58.18 59.00 58.26 57.51 57.42 57.25 55.52 53.06 51.33 51.12 51.31 49.94 49.55 49.67 50.33 48.97 47.93 46.69 45.29 44.02 43.49 42.53 42.54 42.46 40.37 39.16 38.11
40.84 43.59 42.10 41.01 38.41 35.60 35.07 31.97 35.39 38.99 39.04 43.50 48.43 50.58 50.82 52.01 53.50 54.36 54.66 55.22 55.90 57.01 58.05 58.27 58.30 57.63 57.78 57.41 56.71 54.13 52.15 51.25 49.84 49.22 48.76 48.32 47.73 47.59 47.10 45.70 44.56 43.91 43.37 40.82 40.42 40.51 39.29 39.86 38.54
45.53 42.68 41.02 39.54 36.70 30.27 36.11 34.28 33.89 36.94 41.50 43.95 45.33 49.96 50.20 50.60 52.51 53.33 54.89 55.10 55.38 56.90 58.02 57.66 57.76 57.78 57.65 57.24 57.24 54.83 52.96 50.24 49.76 48.17 47.43 46.23 44.87 43.99 43.97 43.63 42.21 41.66 41.09 40.25 39.04 38.93 38.56 37.70 37.18
42.47 37.74 30.03 27.81 27.59 28.06 38.14 34.46 36.90 41.42 43.33 44.10 44.34 48.47 50.17 50.69 50.85 52.01 54.00 54.55 55.69 56.90 57.66 58.04 58.02 57.88 58.55 58.24 57.37 54.91 53.77 51.06 50.31 48.69 47.90 44.78 42.15 41.13 41.55 42.07 41.13 42.04 41.73 40.90 39.30 38.87 38.37 37.55 37.65
39.85 38.27 30.40 25.86 24.86 28.48 37.52 32.59 37.84 43.75 45.30 45.27 46.02 46.06 47.96 49.51 52.06 52.74 54.57 56.12 56.53 57.27 57.91 58.23 58.47 58.47 59.16 58.90 57.00 53.83 51.97 51.44 50.95 50.03 48.81 45.42 44.06 42.61 42.13 42.64 42.46 42.21 41.74 40.80 40.18 39.61 38.56 38.11 36.61
40.02 36.13 39.77 33.15 31.02 27.38 32.19 36.88 41.67 44.17 45.34 45.49 44.96 45.72 46.68 47.84 52.26 53.44 55.46 56.92 57.23 57.50 57.73 58.11 58.53 59.00 57.89 56.45 52.84 50.91 50.79 48.73 46.88 46.87 47.21 45.78 43.73 43.28 42.99 42.52 41.32 41.43 40.93 41.29 40.35 37.77 36.95 35.75 35.30
42.18 42.71 33.81 33.01 26.92 25.67 30.12 31.30 34.08 40.77 42.47 44.82 44.16 45.27 48.03 49.23 51.80 53.33 55.60 56.61 57.61 58.20 58.32 57.86 57.50 55.65 53.88 50.47 49.31 49.28 49.06 47.60 47.22 46.98 45.46 44.00 43.70 43.46 42.28 41.56 41.42 41.49 41.30 39.92 38.17 35.64 35.74 34.92 35.08
39.21 37.21 37.15 36.71 32.33 26.85 24.85 30.46 37.57 41.47 43.08 44.47 43.97 45.71 48.98 50.36 52.30 53.83 55.05 55.93 56.67 56.00 55.66 56.54 56.18 52.54 50.67 48.14 47.16 46.93 46.93 46.83 46.82 45.83 44.90 44.09 43.42 42.05 42.63 42.80 41.92 40.57 38.70 37.96 36.47 35.82 36.65 36.10 34.90
41.49 39.50 37.71 29.39 29.80 29.93 27.21 30.31 40.00 40.97 43.22 44.83 46.57 47.73 49.40 50.83 52.26 53.27 54.16 54.42 54.38 54.76 54.62 54.36 54.05 52.50 50.93 47.89 46.69 47.18 46.33 46.45 45.12 44.21 43.30 42.56 42.03 43.96 43.02 42.01 39.92 39.24 38.40 37.23 36.69 36.26 36.30 34.42 32.99

GFSSGP_sfc_wetblb_051.txt.gz
Wetbulb
60.17 55.67 55.78 51.37 44.68 43.97 40.52 41.88 44.55 45.69 51.02 59.27 60.72 59.91 58.33 58.31 56.10 52.98 65.61 67.00 70.21 69.45 70.40 70.61 70.19 70.55 70.15 69.71 69.38 69.22 69.39 69.01 68.84 69.12 69.00 68.65 68.62 68.77 68.67 68.59 69.45 70.65 70.30 70.05 68.97 69.73 69.55 68.23 67.17
56.57 55.73 52.40 46.94 42.07 38.72 40.66 42.61 44.08 49.99 55.35 57.35 58.01 58.66 58.32 56.65 61.65 62.47 64.01 67.87 69.97 70.06 70.15 70.30 69.92 69.55 69.48 69.01 68.87 69.07 68.92 68.79 69.10 69.01 68.62 68.53 68.62 68.74 68.64 68.16 68.77 70.31 70.70 70.21 69.52 69.77 68.99 67.29 66.70
54.60 51.49 50.36 44.83 40.21 38.73 40.13 42.68 47.36 55.67 56.88 56.16 56.39 59.66 59.11 57.73 62.46 63.35 66.97 69.50 70.35 69.72 69.90 69.97 69.05 68.80 68.78 68.39 68.37 68.56 68.68 68.66 68.32 68.40 68.75 68.82 68.57 68.67 68.23 67.46 67.43 68.55 69.99 69.94 69.82 69.01 66.96 65.76 66.01
52.48 50.94 45.49 42.10 38.44 40.39 41.59 44.33 52.93 54.30 55.46 57.09 56.30 55.75 60.58 63.95 63.50 66.32 68.88 69.67 69.60 68.91 69.23 68.68 68.11 68.19 68.27 68.42 68.55 68.54 68.27 67.70 67.55 67.82 68.45 68.60 68.45 68.23 67.87 66.83 66.65 67.49 68.47 68.35 68.01 65.58 64.72 65.32 64.90
48.68 46.97 42.74 39.06 38.47 41.34 44.01 52.68 55.01 53.20 54.22 55.25 56.44 54.96 57.49 63.25 66.78 67.42 68.27 69.36 68.06 68.46 68.77 68.68 67.23 67.63 68.13 68.72 68.92 68.46 67.84 67.47 67.44 67.89 68.04 67.87 67.97 67.58 67.22 66.68 66.28 66.06 66.52 66.42 65.65 64.95 64.78 64.11 63.66
47.10 45.35 40.71 38.23 39.56 42.87 49.67 54.94 54.54 54.00 54.43 54.66 55.49 56.35 57.68 64.70 63.94 64.09 65.49 65.41 67.10 66.82 67.81 67.38 67.75 67.69 67.84 68.09 68.01 67.73 67.54 67.57 67.52 67.63 67.68 67.71 67.03 66.55 66.46 66.34 66.05 65.57 65.12 64.83 64.66 64.90 64.77 63.46 62.54
46.22 43.64 39.67 38.91 39.77 41.54 47.98 55.62 53.15 53.51 54.38 53.81 57.44 54.41 58.20 62.35 62.37 62.80 62.38 62.36 63.44 63.18 63.66 66.70 66.23 66.39 66.62 66.89 66.84 66.92 67.12 67.09 67.30 67.21 66.78 66.49 66.02 65.37 65.66 65.52 65.45 65.21 64.80 64.55 63.79 63.26 63.04 62.85 61.34
46.58 45.47 39.47 40.09 39.85 40.93 50.72 54.88 55.30 53.91 54.36 59.80 59.28 53.35 55.03 60.57 61.57 61.36 60.26 59.61 59.76 61.77 60.80 60.67 61.93 61.82 62.80 65.59 66.23 66.45 66.45 66.31 66.36 66.23 65.49 64.97 64.94 65.08 65.00 65.00 65.30 64.56 64.36 63.94 63.62 62.76 61.66 60.16 58.85
45.86 42.97 40.15 40.60 40.52 43.75 53.60 53.09 55.38 58.32 56.27 57.06 58.24 57.79 60.16 60.66 60.50 59.36 57.93 57.17 57.75 58.60 59.94 59.80 59.25 59.90 62.36 64.03 66.36 66.46 66.53 65.96 65.42 64.98 64.58 62.92 62.22 62.04 62.37 63.61 64.27 64.40 63.33 62.84 61.68 60.08 59.00 58.52 57.21
45.89 42.46 41.93 44.54 44.29 44.90 52.14 52.47 54.29 55.02 54.42 54.47 56.85 59.54 60.06 58.94 58.79 57.76 56.52 54.84 55.82 56.14 56.80 57.65 58.78 60.25 61.74 63.83 64.96 65.09 65.13 64.72 64.20 63.59 63.17 62.64 62.79 62.19 61.59 62.79 63.58 63.22 62.19 60.99 59.24 56.86 55.54 55.29 53.31
43.11 42.87 45.04 45.48 45.63 50.63 51.18 52.15 53.64 54.22 52.56 55.16 55.13 57.74 58.38 57.22 56.86 56.89 56.94 55.43 54.64 56.30 57.37 58.47 58.17 58.63 59.92 61.11 62.98 63.91 63.69 63.48 63.35 63.26 62.90 62.29 62.44 62.89 61.18 61.81 60.87 60.63 58.83 55.97 55.65 54.05 52.88 52.47 52.56
43.05 44.97 45.45 45.81 50.07 51.39 51.10 53.16 51.55 54.18 53.78 57.31 59.11 58.91 58.15 56.92 56.23 56.61 56.44 56.81 56.19 56.44 57.18 57.75 58.32 59.77 61.91 62.16 62.89 62.50 62.06 62.22 62.08 62.44 62.98 61.45 61.50 61.71 59.77 59.47 58.22 57.66 56.18 54.81 53.19 53.10 52.94 52.25 51.83
43.29 44.36 47.22 49.67 51.34 51.85 52.88 51.35 51.99 53.75 57.30 58.85 59.13 58.62 57.79 57.63 56.87 57.15 57.02 56.81 55.88 55.23 56.04 57.07 57.25 56.75 60.63 62.19 61.95 61.32 61.75 61.69 62.90 62.70 63.51 61.66 60.91 59.99 58.73 58.56 56.46 55.64 55.27 54.84 53.52 52.86 52.17 51.59 51.01
47.19 50.35 50.47 51.21 51.30 51.62 50.91 52.22 53.11 54.58 57.91 57.10 56.92 56.84 57.80 58.09 57.59 56.98 56.62 55.81 55.81 55.93 57.23 58.54 57.75 59.30 61.92 62.69 61.66 61.96 62.60 62.35 62.72 62.83 63.35 62.61 60.16 59.65 59.01 56.82 56.00 55.53 55.17 54.54 53.67 52.34 51.72 50.69 50.65
48.25 48.38 50.47 50.76 50.71 49.85 52.18 48.19 49.56 55.28 56.96 55.78 56.18 56.06 56.69 57.27 58.34 57.50 57.86 57.13 57.98 58.22 58.49 58.12 58.80 61.20 62.60 62.72 61.79 62.24 61.70 61.59 61.81 62.65 62.19 62.32 61.30 59.49 58.74 56.66 56.41 55.43 54.60 53.36 52.36 50.84 51.35 50.36 49.51
46.34 46.59 44.59 49.40 50.21 49.08 48.00 43.45 51.71 55.84 55.18 54.35 55.43 55.19 55.77 57.22 57.44 58.27 58.74 58.08 58.93 59.10 58.88 60.20 61.07 61.88 62.17 62.21 61.60 61.25 62.04 62.81 62.60 62.72 63.26 63.50 62.61 60.03 58.49 56.46 55.85 53.61 51.27 51.52 50.61 51.46 50.36 50.06 49.83
42.76 40.70 41.76 45.90 50.35 48.14 47.05 44.14 51.85 56.28 54.56 53.86 54.25 55.21 56.17 57.45 57.43 58.74 58.96 58.92 58.36 58.84 59.64 60.31 62.46 62.67 62.15 62.00 61.77 61.93 62.54 62.93 63.32 62.23 61.51 61.04 60.65 59.11 58.19 57.04 54.27 52.27 51.17 51.35 51.72 51.08 51.66 49.71 49.29
39.89 40.46 41.56 42.84 47.11 47.83 46.08 46.25 50.79 55.17 54.77 54.52 54.80 55.22 56.36 56.48 57.39 58.15 59.19 59.57 59.55 59.90 60.67 61.60 62.80 62.95 62.08 61.84 61.39 61.43 61.65 62.30 62.45 61.38 60.39 59.27 58.78 57.66 57.26 56.48 53.86 52.95 53.00 52.21 51.74 51.14 50.37 49.98 49.47
42.61 41.62 40.88 42.86 46.96 45.59 45.19 45.86 47.31 54.08 54.50 54.18 54.05 54.65 55.90 56.79 58.93 58.46 59.00 59.54 59.24 59.70 60.29 61.00 62.18 62.37 61.17 60.36 59.63 59.58 59.66 60.73 60.47 59.11 59.21 58.55 57.42 56.55 56.70 56.01 54.36 54.17 53.08 52.07 51.61 50.02 49.89 49.24 49.20
43.17 41.71 41.28 43.53 45.14 44.81 44.35 44.54 46.21 51.41 54.02 54.50 54.69 54.64 55.50 56.89 58.40 58.96 59.04 59.35 59.14 59.36 60.22 60.77 61.64 62.26 61.56 61.06 60.70 60.70 60.48 60.09 60.66 59.29 57.77 57.78 56.76 55.97 55.68 55.51 53.95 53.49 52.48 50.99 50.57 50.53 49.09 49.14 48.48
42.86 41.71 41.40 41.40 44.22 44.51 43.95 42.59 43.30 46.17 51.79 54.45 55.61 57.00 57.03 57.10 57.99 58.95 59.47 59.55 60.12 59.32 59.79 60.23 61.21 61.86 61.94 61.44 60.44 59.04 59.40 59.04 57.77 57.36 57.42 56.49 56.41 54.83 54.94 55.04 53.73 52.77 52.44 50.44 50.25 50.37 49.65 47.64 47.30
40.25 44.20 43.48 42.30 41.81 38.59 42.57 36.17 40.95 43.38 45.47 49.58 54.55 55.14 56.51 57.35 58.48 59.69 59.97 60.19 60.15 60.40 60.47 60.62 61.12 61.25 61.36 61.10 59.53 58.51 58.72 58.32 58.54 57.69 57.56 56.22 55.89 53.59 52.59 53.88 52.79 51.84 51.24 50.12 50.09 49.61 49.09 47.22 45.65
43.13 44.83 43.77 43.06 41.20 40.37 38.81 37.94 41.45 41.89 41.80 45.65 49.72 54.67 56.28 57.41 58.50 58.91 59.78 60.79 61.54 61.43 60.72 60.94 61.06 60.81 61.07 60.33 60.34 59.72 58.84 60.07 57.32 56.22 56.09 55.67 53.68 52.79 52.04 52.63 51.45 50.80 50.81 50.58 49.54 48.39 47.42 46.52 44.83
46.18 43.93 42.02 41.20 40.29 34.88 38.35 38.26 39.60 42.06 43.96 45.23 47.96 51.28 54.93 56.54 57.09 59.25 60.86 61.14 60.79 61.13 60.72 60.87 60.43 60.43 61.05 60.46 60.20 58.79 58.38 57.82 56.51 56.24 55.60 54.90 53.81 53.17 52.57 51.15 50.94 50.73 49.49 48.15 45.29 44.14 45.15 43.97 42.46
44.32 40.97 35.56 33.91 33.79 33.31 39.17 37.52 41.36 45.29 46.72 46.96 48.03 48.75 52.65 56.32 56.84 57.23 58.68 59.51 59.98 59.10 59.36 59.88 60.10 59.91 60.03 59.76 59.00 58.59 58.58 57.68 55.26 56.08 54.82 51.23 51.66 51.24 50.35 50.20 48.78 46.82 44.56 44.35 43.74 45.97 43.32 41.43 44.32
42.22 41.70 36.25 28.99 30.56 34.02 38.66 35.76 41.60 46.23 47.70 49.16 48.83 48.02 49.06 54.11 55.79 56.30 57.72 59.21 59.61 59.06 59.25 59.59 59.75 59.89 60.05 59.70 59.21 58.99 59.18 58.26 57.58 56.04 54.84 52.40 52.22 51.06 49.40 48.57 45.19 44.36 45.00 46.39 44.21 44.15 42.97 43.47 44.09
41.99 39.71 42.61 35.69 34.00 34.01 37.23 39.96 44.54 45.56 46.78 49.01 49.29 48.66 48.95 50.76 53.18 55.19 56.74 57.97 58.59 58.39 58.74 59.58 59.65 59.62 59.41 59.48 59.89 59.49 59.67 58.39 57.94 56.59 55.07 53.29 50.01 47.68 46.97 46.27 45.28 45.64 44.56 44.22 43.25 42.36 43.27 42.84 43.42
43.69 44.64 37.94 37.09 30.42 28.73 33.44 35.42 38.79 43.03 45.06 46.37 48.41 49.70 50.70 50.89 51.43 52.80 54.40 55.92 57.45 58.39 59.14 59.90 60.32 59.99 60.08 59.90 60.07 59.96 59.24 58.88 58.34 56.05 53.34 50.12 49.16 46.24 46.02 46.67 46.44 43.91 43.79 44.26 42.69 42.23 42.44 42.10 43.85
41.65 40.21 38.82 39.44 36.42 32.33 30.00 35.62 43.13 43.83 45.73 46.26 47.67 49.94 50.71 52.27 52.04 53.19 54.46 56.31 57.31 58.28 58.96 59.25 59.67 60.14 60.25 60.52 60.44 59.39 57.62 56.99 55.90 53.79 51.65 48.99 47.08 45.49 45.76 45.86 44.11 42.37 43.10 42.44 41.66 41.11 41.33 42.29 42.46
43.94 42.48 41.51 37.07 34.05 34.45 33.63 35.31 44.66 44.67 44.58 45.40 47.65 49.62 51.43 52.90 53.64 53.94 55.34 56.58 57.49 57.91 58.59 59.11 59.40 59.55 60.07 59.42 57.73 56.99 55.07 53.51 52.53 51.27 49.63 47.47 46.01 46.50 45.66 43.33 42.75 43.72 42.01 41.37 40.13 41.51 42.45 42.13 41.35

GFSSGP_sfc_wetblb_054.txt.gz
Wetbulb
62.43 60.58 58.74 56.63 47.43 46.85 44.80 45.67 49.27 48.91 52.20 60.14 62.82 60.15 57.50 60.66 59.13 53.66 67.75 70.85 70.84 71.66 70.65 71.62 70.57 70.54 70.52 70.27 69.89 69.82 69.93 69.93 69.62 69.76 69.30 69.45 69.45 69.67 69.87 70.38 70.31 70.48 70.99 70.48 69.68 67.73 67.49 67.06 66.66
59.29 58.43 57.79 54.02 44.81 42.44 43.87 47.81 47.33 52.43 57.21 60.74 61.27 61.62 60.70 57.59 62.92 63.89 65.60 68.55 71.55 71.21 70.95 70.54 70.05 69.84 69.85 69.47 69.55 69.58 69.57 69.54 69.76 69.40 69.35 69.36 69.48 69.48 70.79 70.74 70.67 70.53 71.04 70.46 69.28 67.65 67.04 66.64 66.24
57.80 57.19 53.24 49.21 45.76 42.47 44.09 47.47 49.06 57.01 60.12 59.65 59.97 62.73 61.33 59.28 63.97 64.27 67.76 70.47 70.73 70.39 70.56 70.65 69.50 69.11 69.26 69.12 69.25 69.00 69.23 68.94 68.81 68.84 69.31 69.45 69.16 69.26 69.74 70.11 70.01 70.31 71.05 69.90 68.44 66.84 66.13 65.90 66.26
55.78 55.09 52.53 45.10 43.42 45.71 45.69 48.53 54.20 56.84 58.74 60.26 60.64 58.90 62.87 65.87 64.53 67.31 69.74 70.70 69.82 70.27 70.03 68.43 68.17 68.40 68.99 69.13 69.01 69.03 68.59 68.12 68.20 68.47 68.92 69.33 68.89 68.70 68.65 68.69 70.07 70.60 70.31 68.60 66.26 65.34 65.04 65.22 64.79
55.46 52.52 46.37 44.27 43.93 45.85 47.82 50.57 56.30 56.38 57.26 57.87 59.83 57.96 59.87 65.07 66.70 68.34 69.18 70.88 69.94 70.18 69.51 68.60 67.14 67.61 68.35 69.18 68.95 68.53 67.98 67.82 68.10 68.33 68.50 68.65 68.58 68.02 67.53 67.84 68.70 69.26 68.62 66.63 65.00 64.03 63.77 64.09 63.52
50.63 50.99 43.83 42.57 43.55 46.12 48.79 53.64 56.79 57.10 57.26 57.63 58.08 58.64 60.39 65.79 65.71 64.57 65.76 66.54 68.84 68.24 68.90 68.53 67.60 67.62 67.96 68.10 68.04 67.46 67.14 67.47 67.70 67.66 67.81 67.98 67.78 67.17 66.95 66.41 66.62 66.62 66.53 66.10 65.04 64.34 63.58 62.63 61.59
49.54 47.59 43.75 43.88 43.83 44.74 49.49 57.62 56.19 56.51 56.34 56.62 60.10 56.30 61.26 62.30 63.25 62.91 63.27 63.96 63.94 64.93 66.54 65.85 66.50 67.50 67.05 66.65 66.80 66.66 67.07 67.25 67.18 66.92 66.80 66.69 66.51 66.40 66.12 65.70 65.54 65.23 65.13 65.41 64.75 63.66 62.89 61.37 59.66
51.50 49.24 44.41 44.89 43.54 44.48 51.72 55.36 57.97 57.22 56.16 61.57 61.52 57.17 57.62 60.52 61.35 61.62 60.80 61.87 61.33 62.56 63.98 63.69 63.46 66.56 66.79 66.50 66.30 66.30 66.59 66.65 66.59 66.27 65.85 65.32 65.55 65.55 65.44 64.95 65.16 64.87 64.35 63.82 62.75 62.40 61.40 58.73 57.93
52.04 46.16 44.11 43.67 43.88 46.56 54.05 51.66 58.60 60.35 58.34 59.97 60.51 60.84 60.67 60.87 62.24 61.49 59.49 59.54 59.62 60.00 60.34 59.93 60.53 58.85 61.61 63.49 65.13 66.28 66.47 65.82 65.00 64.85 64.45 63.20 63.35 63.71 63.79 63.81 64.40 64.37 63.92 62.87 61.23 59.97 58.62 57.73 55.99
49.28 46.51 44.69 48.11 48.48 47.79 50.34 52.67 55.28 57.41 57.30 57.66 59.35 60.17 59.96 60.54 59.88 58.45 57.54 56.55 57.53 57.17 58.34 59.32 57.58 56.52 60.37 63.03 62.68 64.60 65.31 64.24 63.26 63.18 63.28 62.50 63.78 63.71 63.64 63.52 63.37 62.94 62.00 60.81 59.21 57.97 58.37 59.68 57.86
49.26 46.14 48.51 49.00 49.74 50.11 50.39 52.30 57.42 56.36 54.39 57.65 57.76 57.32 58.20 58.88 58.33 57.12 57.09 57.46 56.36 56.55 56.99 57.75 58.15 60.17 60.27 60.31 60.00 62.33 65.07 63.77 63.55 64.08 62.92 63.32 63.11 62.94 63.02 62.28 61.27 61.06 60.27 58.43 57.91 58.22 58.13 57.57 57.27
47.24 50.00 50.05 49.90 51.04 51.30 51.05 56.44 55.24 56.79 57.14 59.44 61.13 58.79 58.51 58.43 58.35 57.13 56.19 55.69 55.18 55.71 56.95 57.32 58.14 59.25 58.60 60.16 59.99 60.37 61.64 63.00 62.55 62.55 63.86 63.12 62.38 62.37 63.28 62.48 62.64 61.40 61.02 59.72 58.73 58.02 57.10 55.98 55.89
48.43 49.83 52.72 52.06 52.63 53.63 56.12 54.82 54.59 56.09 59.49 62.01 59.92 59.58 58.53 59.49 59.45 58.95 56.54 56.09 56.25 55.31 56.38 56.37 57.86 57.77 59.84 59.98 59.95 61.98 62.82 62.11 62.55 63.02 63.26 63.11 63.05 62.45 62.31 62.45 61.90 61.16 60.42 59.54 57.93 56.60 56.16 55.85 55.58
50.66 52.92 54.30 53.79 54.10 55.10 53.91 55.03 56.27 57.41 60.55 59.93 59.35 59.37 58.75 58.75 59.07 59.24 57.01 56.59 56.75 56.25 56.32 55.96 56.49 57.11 58.30 59.52 60.91 62.21 62.94 62.53 63.42 63.23 63.68 63.60 63.32 63.13 61.87 61.57 60.96 59.70 59.30 59.34 58.63 58.06 57.14 56.59 55.64
51.23 50.70 53.71 54.27 54.64 53.44 55.62 52.46 52.38 58.96 60.03 58.68 58.70 58.84 58.75 58.35 58.43 58.48 59.98 58.81 58.61 57.37 58.26 55.45 58.44 60.16 60.71 61.85 62.14 63.37 62.64 62.52 62.37 63.68 65.47 64.26 63.31 63.42 62.68 60.78 58.78 59.20 59.63 59.28 58.28 57.27 57.07 55.85 54.83
49.02 51.37 45.95 53.45 54.32 52.81 53.36 46.06 54.27 59.30 58.80 57.54 58.49 58.49 58.13 58.40 58.02 58.29 59.67 60.06 59.90 59.99 58.98 59.32 59.49 60.89 62.09 63.43 63.36 62.54 62.58 62.69 62.97 64.84 65.12 64.85 64.66 63.09 62.45 60.92 60.84 61.01 59.83 57.88 54.02 56.28 57.07 55.96 55.20
48.17 43.44 44.83 48.34 52.78 51.88 51.57 47.96 54.25 58.80 58.10 57.11 57.49 57.80 57.80 57.84 59.05 59.37 60.30 60.46 60.86 61.25 60.93 60.27 61.04 61.40 62.71 64.31 64.25 62.40 63.76 63.19 63.12 64.47 64.93 65.00 65.62 64.79 62.94 61.92 61.69 60.05 55.15 54.47 54.34 57.08 57.09 54.95 54.72
42.82 43.67 45.61 45.71 50.06 51.74 50.06 49.68 52.20 58.11 56.91 56.45 57.75 57.73 58.48 58.14 58.87 60.44 61.22 61.50 61.82 61.78 61.40 60.92 62.21 63.03 64.22 64.55 64.52 62.98 62.29 63.16 64.18 65.01 64.28 64.31 65.15 65.08 63.63 62.82 61.45 57.97 57.06 54.51 54.96 55.18 55.88 55.90 55.18
46.71 45.61 44.35 47.38 49.99 48.35 47.71 48.80 50.36 56.27 56.39 56.24 57.58 57.08 56.68 59.40 61.17 61.27 61.86 61.70 61.36 61.75 61.75 62.26 62.49 63.58 64.52 63.76 62.79 61.98 60.66 62.16 63.50 64.71 65.01 63.45 64.10 63.88 63.64 62.48 60.20 58.16 56.09 55.50 55.44 55.36 54.65 53.47 54.50
47.07 45.38 44.73 47.20 48.80 47.76 47.79 47.81 50.28 54.39 56.07 56.44 57.31 57.96 58.27 59.47 59.80 59.70 61.35 61.51 60.92 60.86 61.98 62.26 62.82 64.05 64.68 64.23 63.54 62.54 61.60 62.47 63.44 64.36 62.39 62.37 62.05 62.17 61.99 61.36 59.42 58.73 57.39 54.21 54.79 55.59 54.16 54.59 54.34
47.08 45.36 44.71 44.67 47.55 48.88 47.75 46.07 47.99 51.54 55.70 57.16 58.58 59.54 58.84 59.07 59.72 60.39 59.99 60.96 61.43 60.70 61.61 62.74 63.71 64.65 65.42 65.16 64.41 62.98 62.89 62.87 62.11 62.12 62.28 60.57 60.60 60.61 60.17 60.83 59.50 59.27 56.16 53.06 54.89 55.77 54.59 52.45 52.68
43.81 48.23 46.96 45.99 45.14 41.13 47.48 39.50 45.48 49.01 50.84 54.33 56.73 58.79 59.46 58.66 60.17 61.49 61.23 60.86 61.23 61.54 62.65 62.88 63.39 63.88 65.26 65.64 63.91 62.00 60.35 59.68 61.66 62.05 61.26 60.57 59.84 59.31 60.46 60.00 58.79 56.82 55.58 55.37 56.04 55.54 54.92 53.69 50.54
45.34 48.20 47.06 46.87 45.43 44.42 43.93 41.65 45.03 47.13 47.18 49.83 53.70 57.14 59.53 61.01 60.21 61.09 62.30 62.73 63.13 62.99 62.66 63.41 63.77 63.77 64.70 65.20 64.92 63.00 61.17 61.45 63.39 62.57 61.64 60.03 59.19 60.44 58.81 57.55 56.47 56.02 57.29 56.69 55.97 54.63 53.98 49.14 45.77
49.68 47.58 46.85 47.09 45.61 38.72 43.10 42.34 43.74 46.10 47.63 49.22 51.46 54.44 57.65 59.95 61.24 61.19 63.03 64.23 64.50 65.32 64.87 64.78 63.85 63.46 64.40 64.74 64.89 64.32 63.05 62.73 62.82 61.89 61.06 60.78 60.27 59.27 57.59 55.02 54.52 56.14 56.36 55.98 55.10 52.75 47.45 46.56 45.89
48.67 45.49 38.86 37.11 37.65 36.46 43.34 41.58 43.97 48.35 50.03 51.36 52.36 54.34 55.56 58.62 60.91 61.21 61.56 62.63 63.87 64.51 65.16 64.85 64.29 63.43 64.23 64.60 64.67 64.50 64.17 63.31 62.77 62.04 60.88 60.11 58.98 56.00 54.51 54.64 55.80 55.96 55.91 52.39 47.01 48.89 50.33 46.65 43.97
46.58 45.75 39.90 31.82 34.41 38.81 42.57 39.11 44.86 50.00 51.71 52.51 54.44 54.32 54.54 56.00 59.09 61.25 61.85 62.84 63.58 64.16 64.93 64.83 64.24 64.03 64.05 64.70 64.53 64.39 63.52 63.26 62.70 62.01 61.27 60.59 57.18 53.84 56.01 54.17 54.88 51.02 48.97 47.43 50.23 48.53 45.22 45.63 43.04
45.72 43.04 47.23 40.48 40.22 38.78 41.63 43.93 48.12 49.61 50.08 51.54 52.39 53.55 53.15 54.75 57.70 59.54 61.53 63.01 63.89 64.48 64.41 64.92 64.76 64.53 64.73 63.22 64.13 63.19 62.85 62.32 62.01 61.49 60.81 59.39 55.78 53.52 51.00 51.05 48.62 49.23 49.95 49.41 44.65 45.23 43.09 43.95 45.94
47.69 49.39 41.21 42.75 33.37 32.29 38.91 39.88 43.13 45.51 46.44 49.06 50.44 52.24 55.02 55.79 56.05 57.72 59.57 61.86 63.44 64.39 64.77 64.98 64.85 64.08 64.83 64.28 63.78 62.90 62.39 62.17 61.77 60.77 59.46 56.64 52.55 49.38 48.38 47.10 47.41 49.68 46.79 44.96 46.76 45.69 43.59 43.58 44.35
45.31 44.24 44.51 44.68 42.09 35.94 34.41 39.86 48.35 47.12 48.56 48.81 51.32 53.25 54.63 56.47 56.87 57.49 58.30 59.73 61.11 62.63 63.21 63.47 63.80 63.93 64.22 64.28 64.11 63.41 63.17 62.95 61.05 59.34 58.02 54.41 51.24 48.60 47.70 47.51 48.06 44.75 44.28 44.93 43.42 42.75 42.94 42.12 45.88
49.26 46.48 46.12 40.35 38.15 41.14 40.19 40.04 49.43 50.16 50.08 50.45 51.46 52.76 55.49 57.58 58.52 58.60 59.19 60.01 60.57 60.87 61.83 62.20 62.88 63.16 63.81 64.16 63.87 63.20 60.82 58.99 57.83 55.59 53.72 51.32 48.19 47.98 49.26 47.90 44.77 43.98 44.97 43.49 42.95 41.82 42.84 45.18 45.68

GFSSGP_sfc_wetblb_057.txt.gz
Wetbulb
62.94 63.27 60.84 56.29 48.41 48.01 44.63 46.82 50.24 49.58 51.45 56.46 59.24 56.75 54.89 55.81 55.74 52.68 67.76 71.23 71.47 70.65 70.91 72.18 71.14 71.78 71.74 71.30 70.83 70.55 70.52 70.45 70.42 70.13 69.94 69.89 70.07 70.22 70.34 70.80 71.07 71.08 70.62 68.29 67.80 67.34 67.17 66.88 66.43
63.79 58.57 57.57 53.59 46.04 42.67 44.52 48.59 47.90 50.44 55.88 59.20 60.12 59.85 59.29 57.21 64.11 65.35 66.09 71.32 72.37 71.25 70.13 71.67 70.55 70.75 70.75 70.50 70.22 70.11 70.16 70.11 70.06 69.82 69.92 70.14 70.24 70.73 70.70 70.61 70.53 70.66 70.33 67.94 67.57 67.46 67.02 66.57 66.03
60.68 58.62 53.73 50.16 46.35 43.05 43.40 48.47 50.16 54.28 58.56 58.40 57.72 62.03 61.56 60.66 64.61 65.76 69.06 69.65 70.84 70.42 69.56 71.09 69.53 69.58 69.93 69.75 69.68 69.56 69.70 69.31 69.35 69.50 70.07 70.14 71.33 71.43 71.25 70.32 70.30 70.44 69.72 67.60 67.36 66.73 66.01 65.50 65.43
57.09 55.53 53.22 46.02 44.30 47.46 47.67 49.48 51.25 54.60 57.75 59.75 59.46 57.96 64.53 66.87 65.74 68.17 69.77 71.04 70.89 71.19 69.48 68.81 68.49 68.77 69.44 69.60 69.47 69.34 68.96 68.52 68.63 69.08 69.65 70.28 70.79 71.13 70.73 70.05 69.91 69.94 68.89 66.85 66.30 65.23 64.40 64.38 64.63
56.42 53.22 46.97 46.11 45.71 47.91 49.25 50.27 52.63 53.89 56.21 57.93 59.42 56.22 61.49 66.29 68.53 68.69 70.46 71.01 71.54 70.97 69.60 70.00 67.49 68.25 69.05 69.46 69.38 68.82 68.41 68.22 68.63 68.76 68.84 69.08 69.37 70.09 70.31 69.68 69.47 68.69 67.32 65.80 64.65 63.87 63.17 62.98 62.92
52.05 51.99 44.97 43.27 44.55 47.36 49.41 52.13 53.77 56.41 57.28 58.41 58.04 58.24 62.04 67.61 65.69 65.57 69.73 69.56 68.82 67.82 67.83 67.59 67.84 67.80 68.02 68.45 68.21 67.81 67.85 68.09 68.20 68.19 68.05 68.27 67.96 68.54 68.94 68.77 67.55 66.96 66.20 65.51 64.18 63.60 62.54 61.79 61.04
50.49 49.16 45.49 45.61 45.16 46.02 48.79 56.68 55.27 55.89 56.04 56.51 60.22 56.41 62.60 63.22 62.97 64.01 66.74 67.43 66.46 67.35 66.26 66.30 66.59 67.46 66.84 66.43 66.32 66.56 67.17 67.51 67.72 67.53 67.34 67.06 66.29 66.22 66.88 67.13 66.84 66.39 65.72 64.58 63.71 62.50 61.73 59.95 59.53
52.12 49.96 45.96 46.18 44.45 45.82 53.10 54.62 57.67 57.42 56.26 62.89 62.55 56.76 58.09 61.31 61.76 61.98 62.97 63.23 63.91 65.24 64.67 64.58 65.05 65.75 65.58 66.12 65.82 66.06 65.74 66.34 66.53 66.46 66.04 65.68 65.41 65.35 65.20 64.94 65.69 65.77 65.09 64.03 62.23 60.99 59.72 58.79 58.33
54.10 46.89 44.26 45.04 45.30 47.37 53.07 52.53 57.86 61.38 58.43 59.28 62.46 62.57 61.86 63.31 62.33 60.82 60.31 61.16 59.72 61.83 63.09 64.51 64.36 64.34 64.74 65.81 65.60 65.07 66.00 65.80 65.14 65.24 64.47 63.32 62.98 62.52 63.39 64.16 64.11 64.15 63.56 62.86 61.13 59.48 58.62 58.12 57.07
50.29 47.16 46.11 49.47 49.70 48.95 50.57 51.82 54.04 57.29 57.78 58.42 60.41 59.92 60.43 61.72 62.46 61.35 59.46 59.02 58.84 57.38 58.35 60.72 62.10 61.77 62.79 61.73 62.72 62.81 63.59 64.58 63.84 63.77 64.43 62.98 63.08 63.68 62.87 63.67 63.82 63.09 62.38 61.48 60.26 59.27 59.01 58.82 57.98
50.84 46.91 49.83 49.54 50.93 51.48 50.96 51.55 55.33 56.47 55.15 54.49 58.79 57.64 58.91 59.04 59.11 59.63 57.97 57.77 57.92 58.25 57.39 56.95 58.37 58.99 60.53 60.24 60.89 61.51 62.44 62.60 62.51 63.94 63.85 64.39 63.93 64.42 63.00 61.68 60.89 60.46 60.06 57.90 57.92 57.69 59.91 59.61 58.61
48.11 50.77 50.56 51.05 51.60 52.30 52.55 55.19 55.55 56.71 58.10 60.75 62.19 60.16 59.33 58.62 58.19 58.31 57.17 56.17 56.15 56.21 56.07 57.54 59.42 59.56 58.87 58.35 57.89 59.38 60.83 62.56 62.75 62.96 64.70 64.93 63.58 64.19 62.99 61.42 61.04 61.30 60.85 59.90 60.88 59.88 59.26 58.33 57.46
49.76 50.30 51.90 53.95 52.74 53.80 55.86 55.58 55.31 56.57 60.71 62.78 61.24 60.54 60.34 60.10 60.15 59.29 57.26 55.89 55.53 55.12 56.33 56.81 57.66 57.76 57.76 56.74 57.99 58.18 57.74 59.17 60.45 62.82 64.05 63.77 62.84 63.61 63.61 63.07 62.44 62.14 61.84 60.93 60.25 59.48 58.27 57.92 57.10
52.21 51.40 53.41 54.33 53.40 54.27 54.28 55.10 55.95 58.27 62.20 60.61 60.40 59.78 59.05 60.01 59.11 57.45 56.11 54.45 55.12 55.12 55.76 56.62 56.88 58.27 58.71 57.28 58.42 58.61 62.39 62.40 62.52 63.19 63.78 65.32 64.57 64.48 63.40 62.88 62.23 61.90 61.66 61.18 60.40 59.92 58.84 57.96 56.98
52.25 49.69 53.03 53.94 53.97 53.76 55.67 49.31 49.85 59.62 61.02 59.42 59.06 59.47 59.50 59.85 60.36 58.94 56.75 55.82 55.92 54.91 55.36 55.79 56.71 58.53 58.31 57.73 58.78 60.69 62.28 62.44 62.16 62.52 65.25 64.50 64.17 64.43 63.52 62.40 62.21 61.63 61.49 61.56 61.08 59.36 59.09 57.82 56.74
49.23 50.40 46.63 47.97 52.66 53.86 53.33 43.15 48.22 59.66 59.08 57.95 58.09 57.58 59.07 59.04 59.86 59.37 58.90 58.10 57.17 56.87 55.10 56.26 57.86 58.37 58.75 58.70 59.58 61.33 62.19 62.62 61.28 63.12 64.18 65.41 64.14 64.45 63.57 62.52 61.87 61.95 61.86 60.35 59.76 58.73 58.53 58.08 56.86
48.62 43.89 46.28 48.09 54.77 52.69 51.72 47.39 54.56 58.77 57.61 56.69 57.76 57.80 58.23 59.63 60.22 60.35 61.23 60.80 59.70 59.43 58.12 57.86 59.02 59.70 60.19 61.43 61.34 62.29 63.65 62.22 62.70 63.18 64.62 65.30 64.82 64.01 63.37 62.48 62.65 63.22 61.09 59.96 57.86 58.43 59.41 57.30 56.12
43.41 44.78 46.67 46.66 48.81 51.04 49.96 50.42 52.42 57.38 57.25 57.01 58.34 58.67 58.43 59.83 59.89 60.62 60.99 61.21 61.31 59.64 59.20 59.67 60.73 61.24 62.66 62.84 62.82 61.72 61.97 62.76 62.79 62.48 64.15 65.15 65.27 65.80 63.84 63.28 63.53 62.66 60.27 58.03 58.12 57.97 57.85 57.78 55.96
47.54 46.41 45.73 48.04 50.48 50.51 48.75 48.81 50.76 55.76 56.69 56.40 57.61 57.78 58.64 59.82 61.08 61.03 60.79 60.84 61.33 61.28 60.61 60.66 60.81 62.72 61.75 61.61 60.78 60.40 59.46 61.15 61.75 63.27 64.81 65.62 64.74 65.37 65.20 64.50 63.70 61.79 59.51 58.82 57.90 56.68 56.66 55.63 55.71
47.06 46.03 45.37 48.19 49.91 49.30 48.60 48.29 50.30 53.85 56.02 56.88 57.39 58.29 57.19 59.55 60.25 60.66 61.10 61.33 61.40 60.94 60.66 60.28 60.59 61.28 62.22 61.77 61.39 61.56 61.57 61.14 62.42 63.40 64.74 65.17 64.60 64.82 64.28 64.57 63.62 61.72 59.76 58.60 57.63 56.52 55.07 55.71 56.01
47.42 46.00 45.96 45.70 48.56 50.12 48.29 46.51 47.66 51.75 55.80 57.06 58.17 59.76 59.19 58.95 59.09 59.30 59.82 60.97 61.65 61.26 61.20 61.04 62.14 62.70 63.00 63.64 63.18 62.56 62.24 61.87 61.12 62.23 63.43 63.96 63.23 60.92 60.54 61.07 62.11 61.42 60.76 58.22 57.21 56.40 55.03 53.73 54.89
44.85 49.06 47.67 46.96 45.71 41.64 48.37 40.20 46.85 49.87 51.88 55.08 56.81 58.17 59.03 59.18 60.48 60.54 60.57 61.25 61.45 61.41 62.61 62.68 62.85 63.23 63.80 64.72 63.44 62.65 60.60 59.14 60.54 62.07 63.09 63.17 60.78 60.03 59.68 58.96 59.94 62.33 61.48 58.37 56.14 55.83 55.97 56.27 53.75
46.40 49.58 47.92 47.67 46.00 45.71 45.68 42.47 45.59 49.12 47.70 51.10 55.10 57.33 59.07 59.41 60.69 60.82 60.96 61.63 62.49 62.78 63.18 63.59 63.84 64.13 64.88 65.10 64.53 63.27 61.98 61.42 62.06 62.59 63.06 62.57 61.72 61.01 59.95 60.01 60.18 61.19 59.06 56.73 55.34 55.77 57.47 56.20 54.39
50.69 48.40 48.02 48.37 46.38 39.38 44.52 43.20 42.50 45.83 47.72 50.02 52.42 55.95 58.27 59.97 59.92 61.56 62.94 63.01 62.80 63.68 64.17 64.48 63.36 63.36 64.23 64.57 65.13 64.82 63.91 62.54 61.37 62.14 62.53 61.60 61.35 61.17 61.18 60.77 58.92 58.24 56.59 55.44 55.67 58.26 56.85 51.74 49.32
49.40 46.22 39.58 37.71 38.33 37.69 45.19 43.29 45.26 48.92 50.53 50.90 51.72 53.79 56.54 59.33 60.55 60.21 61.30 62.59 63.14 63.28 63.90 64.68 63.54 63.25 64.07 64.80 64.86 64.97 64.74 64.64 63.37 62.02 63.15 61.73 61.05 60.65 59.84 60.00 55.68 54.94 54.41 55.72 56.49 52.06 49.44 51.29 49.26
47.44 46.40 40.66 32.96 35.57 39.11 45.38 39.90 45.01 50.83 51.61 52.53 53.29 55.19 56.57 57.52 59.88 61.30 61.47 62.32 63.40 64.75 65.31 64.65 64.41 64.14 64.40 64.59 64.60 64.69 65.38 65.14 64.73 64.29 63.87 63.24 62.42 60.92 59.97 55.42 54.81 53.91 49.83 47.79 48.91 50.25 51.11 47.62 45.68
46.60 44.10 48.79 42.69 43.78 39.66 42.95 45.45 49.59 50.52 50.61 51.45 52.49 54.25 55.45 56.71 58.05 60.01 62.06 62.59 63.52 64.46 66.14 66.95 65.73 65.34 65.28 64.90 64.82 63.84 64.89 65.98 64.77 64.80 64.01 63.01 62.76 59.95 58.29 55.20 53.09 48.63 49.03 49.88 50.15 47.72 45.08 44.89 44.96
48.57 50.68 42.96 43.93 34.13 33.62 40.23 42.25 42.38 46.67 47.76 49.41 50.61 52.28 55.18 56.71 57.16 59.22 60.86 62.50 63.66 64.85 66.54 66.77 66.74 65.64 65.53 64.87 65.14 64.76 65.15 64.30 63.88 63.26 61.66 61.07 60.53 58.08 54.74 51.80 50.10 48.48 48.87 48.83 47.56 45.78 45.52 43.00 44.23
46.54 45.58 46.48 46.34 43.64 36.62 36.01 40.76 49.05 48.40 48.98 49.12 50.61 52.68 53.84 56.49 58.06 58.73 59.90 61.64 63.45 64.76 65.85 66.23 66.19 66.01 65.65 65.35 65.37 64.02 63.27 63.10 63.02 61.37 60.69 59.99 57.62 53.74 51.55 49.76 48.48 47.21 47.26 45.92 44.93 43.65 42.58 42.49 43.12
48.82 47.19 46.98 41.20 40.36 43.21 41.74 42.14 50.65 50.80 51.09 51.54 51.73 52.42 55.12 56.84 57.84 59.66 60.16 60.54 61.75 63.27 64.59 64.99 65.49 65.38 65.90 66.10 65.28 63.81 62.87 60.80 59.93 59.01 57.12 55.08 52.86 50.71 49.06 49.09 47.93 46.78 44.82 44.67 44.30 42.27 41.99 41.87 41.49

GFSSGP_sfc_wetblb_060.txt.gz
Wetbulb
62.90 59.36 60.32 57.36 46.21 46.18 42.69 44.25 48.52 47.86 51.83 56.76 58.08 55.26 53.71 55.63 54.59 52.38 63.47 62.83 62.90 67.29 70.88 72.10 71.39 71.89 72.10 71.85 71.39 71.07 70.94 71.00 70.80 70.53 70.50 70.61 70.88 71.52 71.55 70.89 69.82 69.71 68.95 67.97 67.65 67.13 66.95 66.15 65.76
62.89 61.62 59.26 51.66 43.71 40.68 42.40 47.27 47.27 50.32 55.63 57.75 56.27 55.96 53.01 51.09 63.26 64.58 63.48 63.57 62.46 68.60 70.33 71.51 71.17 71.44 71.50 71.09 70.77 70.56 70.67 70.46 70.34 70.37 70.35 70.45 70.79 71.20 71.28 70.52 69.43 69.11 68.99 67.95 67.52 67.00 66.36 65.58 65.53
60.54 60.04 51.90 48.25 45.09 40.98 42.58 47.57 48.82 51.27 56.09 56.75 55.69 57.24 57.61 58.25 64.71 66.09 69.14 69.29 70.50 69.23 69.96 71.23 70.60 70.46 70.71 70.33 70.15 69.98 69.98 69.62 69.58 69.78 70.30 70.47 70.81 71.28 71.17 70.14 68.87 69.01 68.36 67.50 66.96 66.18 65.13 64.71 65.16
56.96 54.46 51.86 44.52 42.29 46.03 46.52 48.73 50.24 50.85 54.38 57.38 56.56 54.09 55.87 57.53 64.63 67.83 70.07 69.88 70.17 68.98 70.20 69.14 69.27 69.75 70.13 70.07 69.87 69.72 69.16 68.94 68.95 69.53 70.73 71.30 71.25 71.12 70.66 69.67 68.70 68.75 67.65 66.41 65.43 64.67 63.93 63.90 63.90
56.74 51.98 45.75 44.23 44.57 47.12 48.90 50.28 50.37 49.34 54.25 53.96 55.77 51.82 52.96 56.75 66.57 67.28 68.94 69.21 69.57 67.56 68.88 68.92 68.11 69.07 69.69 69.84 69.78 69.15 68.82 68.66 68.90 69.89 70.49 70.76 71.26 70.54 69.94 69.14 68.03 67.62 66.83 64.88 64.22 63.24 62.72 62.52 62.71
51.29 51.21 43.53 41.69 44.21 47.91 49.59 50.89 51.25 51.81 53.47 53.61 52.98 51.70 53.29 63.66 63.40 65.54 66.12 67.08 69.39 67.48 67.30 67.75 68.31 68.08 68.48 68.69 68.60 68.06 68.07 68.56 68.57 69.07 69.45 70.31 70.03 69.67 69.44 67.80 67.18 66.58 65.74 64.79 63.12 62.54 61.51 61.34 61.31
49.11 47.37 44.15 44.32 44.52 46.36 49.90 53.88 52.40 54.19 51.79 52.55 54.19 50.40 58.69 60.41 61.81 63.58 63.96 65.92 67.28 66.48 64.43 64.88 65.45 66.18 66.57 66.57 66.69 67.13 67.59 67.79 67.72 67.52 67.89 68.21 68.28 67.95 67.49 66.97 66.44 65.70 65.04 63.97 62.38 61.43 61.28 60.20 59.78
51.19 48.27 44.56 45.32 44.29 45.23 51.76 53.07 54.43 53.70 51.51 56.05 56.32 53.30 52.11 58.17 61.70 62.30 62.14 64.15 65.31 64.96 64.40 63.85 63.81 63.95 63.94 63.33 63.91 64.98 66.18 66.54 66.58 66.28 65.90 65.64 66.03 66.52 66.37 65.78 65.48 65.00 64.33 62.93 61.04 60.48 60.59 59.49 58.40
52.90 45.40 43.27 45.50 46.09 46.94 51.76 50.16 52.58 55.00 55.36 56.18 60.10 59.97 60.91 61.89 62.26 61.86 60.58 61.07 62.54 63.22 63.47 63.48 63.27 62.84 62.67 62.32 63.26 63.84 65.25 65.67 65.38 64.94 64.56 63.45 63.30 63.03 63.22 64.70 64.56 64.35 63.54 62.34 60.77 60.06 59.48 57.71 56.61
49.10 45.25 45.53 49.35 49.19 48.15 50.37 50.70 51.99 53.77 54.31 51.36 56.86 59.56 61.18 62.33 61.75 59.79 59.13 57.39 57.63 57.33 61.32 62.95 62.79 60.84 61.34 59.27 59.22 60.96 63.24 63.11 62.97 62.11 61.17 60.74 61.06 61.12 62.54 63.18 63.24 63.19 62.58 61.63 60.92 59.98 58.87 57.88 52.19
49.55 45.76 48.87 49.36 50.62 50.88 49.74 50.25 52.24 51.54 47.17 49.18 51.98 57.10 59.15 59.67 59.51 58.09 57.86 58.38 56.59 56.53 57.57 59.20 60.72 60.26 60.25 60.91 61.05 61.09 60.97 61.41 61.66 63.12 61.96 62.15 60.84 60.74 60.63 59.23 59.03 58.60 59.43 55.31 56.68 56.72 55.28 56.39 54.73
47.55 49.69 50.02 50.22 51.32 50.49 49.94 53.02 53.32 52.80 50.70 52.30 55.56 59.24 58.93 58.49 58.43 56.81 55.89 55.75 55.53 55.53 56.82 58.14 59.07 58.60 59.20 59.01 59.00 59.37 60.20 60.20 60.82 61.78 62.88 62.04 61.23 59.85 58.99 58.94 58.56 57.31 57.07 55.14 56.52 57.03 56.28 55.01 54.59
48.84 50.06 50.44 51.66 52.38 51.41 52.24 52.03 52.67 53.20 56.09 57.87 60.00 59.86 58.89 59.19 57.20 56.87 56.40 55.79 55.37 55.08 56.69 57.23 57.42 56.87 56.94 56.80 58.27 57.76 58.53 59.80 60.91 61.35 62.85 62.34 61.61 61.02 59.88 59.27 58.65 58.03 59.15 58.33 57.64 56.23 55.54 54.54 54.00
51.07 50.80 50.52 53.20 53.89 53.93 51.12 52.36 51.11 52.11 54.16 59.54 59.49 58.95 59.07 58.11 56.19 55.26 54.72 54.07 54.78 55.20 55.33 56.59 56.27 55.99 56.24 55.55 56.29 56.82 58.56 58.04 59.37 62.00 62.15 62.33 61.70 62.52 60.23 61.02 60.02 59.67 59.47 58.76 57.74 56.18 55.61 54.83 53.22
51.55 47.98 49.88 51.05 51.41 50.91 54.58 49.05 47.96 52.13 53.79 56.57 58.26 58.17 58.53 58.11 56.78 55.36 54.80 53.96 54.50 54.78 55.51 56.17 56.41 56.23 55.87 55.73 55.79 56.56 57.87 58.35 59.67 61.93 62.42 62.05 62.42 62.57 61.33 60.79 60.59 59.95 59.21 58.53 57.94 56.92 55.92 54.29 54.38
48.43 48.29 44.16 50.03 51.02 52.00 52.56 44.95 50.36 53.12 52.79 55.77 56.79 57.35 57.96 58.03 57.65 56.53 56.02 55.50 55.15 55.09 54.43 56.44 57.41 56.31 55.88 55.70 55.38 57.29 57.80 59.56 59.89 61.37 62.07 62.11 63.12 62.88 61.75 60.23 60.34 59.92 59.25 58.33 56.89 55.53 55.00 54.78 53.31
46.71 42.14 44.88 47.32 51.61 51.66 51.10 47.43 50.44 52.78 53.16 55.02 55.15 55.62 57.83 57.77 58.03 58.17 57.40 56.25 55.00 55.48 54.71 55.74 56.99 56.26 55.78 56.62 57.26 57.43 59.34 59.97 60.14 60.00 61.87 62.69 62.62 62.71 61.49 60.98 60.27 60.75 58.66 57.37 56.88 55.00 56.33 54.42 52.54
42.61 43.16 45.52 45.47 50.20 51.22 49.07 48.69 51.70 53.29 53.69 55.75 55.37 54.09 57.42 57.13 57.45 58.74 58.10 57.83 57.07 56.61 56.63 57.05 57.28 56.86 56.82 56.61 56.91 58.60 59.57 60.13 60.87 60.44 62.00 63.23 63.01 62.08 61.72 61.06 60.99 60.76 58.79 56.47 55.11 55.03 55.42 55.13 54.21
47.47 45.24 44.31 48.19 50.55 48.99 48.77 48.55 50.96 53.41 51.74 54.70 56.02 55.36 56.47 58.55 59.19 59.62 59.27 58.83 58.21 57.48 56.90 57.13 57.42 58.57 58.12 57.11 56.96 57.95 58.27 59.78 60.31 60.23 61.57 63.27 63.26 63.48 62.74 61.41 61.35 60.63 58.60 55.71 55.59 55.03 53.65 53.42 53.21
46.85 43.84 43.73 47.52 50.48 49.44 47.81 47.21 50.26 52.69 52.45 54.93 55.73 56.50 56.67 58.12 58.47 58.47 58.51 58.85 57.11 56.62 57.30 57.95 58.47 58.67 58.98 59.31 59.49 60.02 59.17 59.53 60.30 60.42 61.29 63.29 63.80 63.20 62.87 62.26 61.53 60.35 58.32 56.76 55.01 54.66 52.49 53.35 53.65
45.90 44.61 44.51 44.88 47.61 49.38 47.46 45.11 47.51 51.02 53.90 55.01 57.08 58.49 57.38 58.44 57.78 57.89 57.94 58.28 57.40 56.48 57.44 58.59 58.95 58.77 59.40 61.02 60.71 60.14 59.61 59.11 58.42 59.49 59.97 62.50 62.72 61.92 62.07 62.46 61.29 59.81 59.66 56.39 55.64 54.33 53.29 51.49 52.99
44.04 48.64 47.28 45.65 44.91 40.29 47.69 38.25 46.06 49.06 50.34 53.05 55.00 57.48 56.78 57.66 59.13 58.37 58.19 58.10 59.10 58.66 59.53 59.45 59.38 59.70 60.13 60.76 59.91 58.68 58.16 57.00 58.18 59.35 60.48 62.31 62.53 61.23 60.43 60.07 59.36 58.99 58.43 57.60 56.71 55.33 53.63 52.99 50.35
45.92 49.77 47.90 46.93 44.10 43.83 43.98 40.82 44.36 48.69 47.47 50.64 53.91 55.77 57.82 57.70 59.15 58.97 58.75 58.98 60.08 60.61 59.83 59.46 59.60 60.08 61.23 61.11 61.71 59.89 59.39 58.75 59.32 59.42 59.87 61.48 60.99 60.57 60.11 59.74 59.04 59.00 58.83 58.37 55.68 54.31 53.16 53.24 52.18
50.37 48.08 47.43 46.94 44.33 38.06 42.97 42.03 42.45 45.51 47.79 50.04 53.38 55.06 57.43 58.06 59.57 59.95 60.42 60.73 60.27 60.81 61.09 60.90 61.12 61.35 61.92 61.63 61.65 62.28 61.33 60.38 59.09 59.38 59.41 60.61 60.48 60.04 60.07 59.94 58.79 58.80 57.43 55.22 54.26 53.93 53.03 51.94 49.17
48.24 45.14 38.12 36.52 36.93 36.46 44.61 42.28 44.40 47.92 49.60 51.88 52.12 54.00 56.69 58.47 58.63 59.64 59.83 59.89 60.66 60.37 60.44 61.28 61.38 61.28 62.31 62.77 63.23 62.93 62.06 62.70 60.11 60.07 60.61 60.09 59.91 59.23 59.31 59.36 58.60 56.76 55.28 54.61 54.17 52.65 49.29 49.44 47.60
45.98 45.07 39.48 31.99 32.34 37.45 44.67 39.77 43.71 50.93 52.40 52.75 52.85 54.36 56.03 57.37 58.91 58.99 60.20 60.49 60.57 61.15 61.33 61.23 61.20 61.15 62.11 62.45 62.71 63.53 62.51 62.29 62.15 61.75 61.45 60.95 60.46 59.99 59.71 59.47 56.66 55.02 53.56 51.58 49.71 48.91 49.32 48.04 45.40
45.22 43.13 47.84 42.17 41.07 37.31 41.70 44.57 48.94 50.53 50.04 51.09 51.68 53.64 54.88 55.87 57.84 59.60 59.87 61.48 61.67 61.69 62.00 62.08 62.06 61.83 62.28 62.33 62.68 62.16 62.23 62.31 62.44 62.07 63.00 61.42 60.99 59.36 58.50 56.62 54.00 51.60 50.04 49.80 49.94 49.11 44.93 43.49 43.57
46.59 48.07 42.42 43.26 33.77 32.38 39.36 40.81 40.71 45.92 47.67 48.97 50.19 52.60 55.21 57.51 57.00 57.80 60.26 60.81 62.57 63.05 63.30 63.47 63.32 63.02 63.41 64.01 63.13 62.67 62.38 62.74 62.71 63.05 62.14 60.26 59.15 57.46 56.96 54.64 51.36 49.43 49.49 49.20 46.81 44.46 44.55 43.72 43.81
44.42 43.50 45.93 45.61 42.87 36.47 34.63 38.55 46.05 48.03 48.86 49.11 51.55 52.54 54.43 57.58 57.67 58.17 59.33 61.34 62.19 63.62 64.07 64.33 64.78 64.68 64.68 64.72 63.69 62.89 63.26 63.40 61.66 61.25 60.28 59.66 56.81 55.18 54.38 51.58 49.09 48.55 47.69 46.31 45.11 44.05 42.87 41.93 42.52
47.53 45.74 45.51 40.72 38.93 42.20 40.91 40.45 50.70 51.62 50.99 51.86 51.89 52.45 55.30 56.92 57.52 58.52 59.10 60.09 61.63 62.38 63.26 64.51 65.08 64.99 64.87 64.60 64.00 62.63 61.76 61.34 59.58 58.57 57.63 55.99 53.45 52.40 50.69 49.08 47.87 47.19 45.28 44.87 43.26 42.21 41.98 42.06 41.76

GFSSGP_sfc_wetblb_066.txt.gz
Wetbulb
56.94 55.26 51.34 50.76 38.93 34.35 31.22 36.73 41.20 42.01 47.07 53.13 55.56 51.82 52.38 55.37 53.87 49.95 62.30 63.26 64.22 65.94 70.81 71.31 71.32 71.97 71.99 71.53 71.41 71.28 71.40 71.29 71.21 71.70 71.68 71.32 70.79 70.36 69.87 69.46 68.88 68.67 68.25 67.68 68.08 67.85 67.62 67.35 67.10
55.35 56.87 52.19 44.70 34.36 28.24 31.42 38.68 39.88 42.75 50.52 55.59 55.01 54.66 55.53 54.29 57.36 59.27 60.05 62.93 64.17 63.62 63.60 69.03 70.82 70.97 70.86 70.31 71.05 71.16 71.19 70.99 71.08 71.61 71.54 70.94 70.53 69.89 69.63 68.99 68.36 68.38 67.96 67.09 67.53 67.35 66.57 65.14 65.04
55.15 56.97 46.51 39.48 31.80 29.79 32.15 39.73 41.79 50.14 54.05 53.48 51.31 54.53 55.95 53.88 59.91 60.62 65.46 68.03 63.85 62.69 63.08 64.77 70.03 70.12 70.28 70.19 70.40 70.69 70.65 70.34 70.75 71.30 71.40 70.69 70.28 69.77 69.26 68.57 67.88 67.83 67.51 66.68 66.87 66.07 64.52 63.84 65.27
51.67 46.64 43.42 35.84 33.59 38.27 39.51 44.06 45.47 50.02 53.07 53.34 54.20 51.31 54.99 60.58 63.15 64.91 66.33 67.55 64.61 63.57 65.67 67.48 69.00 69.52 70.04 68.21 70.16 70.35 70.13 69.67 70.41 70.73 70.74 70.50 69.94 69.59 69.02 68.05 67.59 67.37 66.59 65.35 65.10 64.03 63.08 63.83 65.26
50.00 42.68 35.46 32.68 35.38 39.36 43.93 45.31 51.95 50.94 51.49 51.91 53.32 50.20 52.49 61.15 62.67 63.79 64.33 67.14 66.58 67.41 68.22 67.81 67.62 66.93 69.43 70.07 70.28 69.70 69.36 69.23 70.30 70.38 69.96 69.63 69.44 69.23 68.35 67.51 66.83 66.43 65.51 63.57 62.75 62.40 63.18 63.21 64.53
44.86 41.31 33.83 31.67 36.97 42.04 43.69 49.41 53.25 51.99 51.88 52.44 51.50 50.93 52.37 59.64 60.16 61.62 64.16 66.78 66.84 64.57 63.54 63.19 64.11 62.44 62.95 69.10 69.12 68.09 68.40 68.96 69.79 69.99 69.31 69.30 68.77 68.32 67.68 66.77 66.27 65.51 64.45 63.11 61.98 62.49 62.86 62.67 63.47
42.04 37.38 33.30 33.77 37.92 39.66 44.34 51.95 50.39 49.41 49.41 50.31 53.37 49.25 52.50 55.22 59.91 62.52 64.26 64.82 64.34 64.18 62.56 63.09 62.24 62.29 62.79 62.40 67.03 67.37 68.27 68.49 68.84 68.60 68.42 68.06 67.38 66.99 66.66 66.10 65.57 64.50 63.63 62.75 61.83 61.87 61.93 61.78 61.40
43.09 39.53 33.37 35.45 36.98 38.31 45.37 50.73 53.48 50.38 49.97 55.65 55.26 50.02 51.29 55.99 59.64 62.39 64.22 63.41 62.83 62.41 63.02 63.04 61.71 61.15 60.99 60.81 62.09 62.70 65.46 67.72 67.58 67.30 67.08 66.46 66.30 65.97 65.76 64.88 64.51 64.15 63.09 62.30 61.81 61.50 61.21 60.70 61.14
44.02 36.54 33.43 36.12 37.95 41.41 46.34 46.45 51.54 54.23 53.08 54.89 56.71 56.57 57.82 60.37 60.49 61.02 61.58 62.08 61.84 62.04 61.79 62.05 61.26 60.78 60.63 61.42 60.87 60.44 62.31 65.82 66.34 65.96 65.82 64.32 63.57 62.80 61.94 63.50 63.66 63.28 62.47 61.70 61.25 60.54 59.57 57.73 59.38
40.86 34.45 37.43 42.09 41.76 43.21 48.89 49.62 51.99 50.52 48.44 50.70 52.75 58.10 59.28 59.62 60.18 58.57 58.47 58.26 59.50 60.26 60.70 60.81 60.30 60.09 60.52 61.44 61.10 60.08 63.20 62.98 63.13 63.40 62.58 62.48 61.71 61.13 61.64 62.77 62.76 62.59 61.84 60.93 60.19 59.44 58.42 54.81 49.42
40.41 38.72 44.80 44.93 44.65 44.96 47.65 48.16 51.06 48.13 44.53 48.67 49.30 55.33 58.24 59.65 59.22 58.31 57.98 56.63 56.51 58.98 60.56 59.65 59.37 59.75 59.79 59.50 59.86 61.00 61.77 61.26 60.85 60.53 61.47 61.47 61.47 60.76 59.82 59.30 58.63 57.63 58.04 54.70 54.28 53.31 52.14 50.46 48.73
40.06 44.99 45.43 45.68 48.71 47.44 46.98 49.89 49.39 47.74 49.90 54.24 51.77 57.66 57.87 57.29 57.23 56.96 56.51 55.97 56.57 57.45 59.78 59.53 59.29 59.13 59.01 59.66 59.39 59.45 60.24 59.69 59.74 60.41 60.84 59.89 58.84 57.58 56.78 56.14 55.05 53.83 52.19 52.95 52.80 52.03 50.44 49.59 49.02
42.66 44.68 46.36 47.04 48.73 48.92 51.60 50.20 49.12 49.24 53.83 55.51 57.38 57.79 57.29 57.22 56.56 56.74 56.08 55.65 56.51 56.49 57.95 57.98 58.20 58.04 57.64 57.35 57.39 58.66 59.42 60.06 59.87 59.52 59.64 58.88 57.51 56.04 55.45 53.96 53.52 52.70 51.71 52.88 52.75 51.37 50.42 49.42 48.79
46.19 46.28 46.48 46.36 48.29 48.93 48.24 48.02 48.72 50.18 53.01 55.01 57.31 55.97 55.99 54.88 54.02 54.26 54.70 54.84 55.49 55.73 55.91 58.11 57.72 58.11 58.52 58.00 58.11 58.99 59.50 59.97 60.16 59.36 58.51 57.87 56.85 56.16 54.93 53.19 52.81 52.89 52.92 54.27 52.81 52.02 50.55 49.13 47.78
47.17 43.52 44.70 44.61 46.07 45.98 49.40 44.58 45.59 51.17 54.69 54.97 56.68 56.64 54.35 53.84 53.66 53.25 55.03 54.57 55.34 55.33 55.73 56.61 57.15 57.86 57.78 57.98 57.76 58.15 58.70 59.96 59.56 59.59 59.36 58.55 57.47 56.43 55.23 53.70 53.34 53.67 54.90 54.18 52.52 51.84 51.47 49.20 48.77
43.19 41.99 36.92 43.14 45.56 47.77 46.43 38.41 47.52 50.10 52.83 52.54 53.47 55.37 54.27 53.15 53.00 52.79 54.96 55.05 55.69 55.26 55.20 56.57 57.43 56.86 56.57 56.45 56.03 56.64 55.70 56.68 58.29 59.66 59.82 59.49 58.76 57.32 55.95 55.57 55.16 55.96 55.30 54.29 52.91 52.47 51.35 49.29 48.36
38.76 34.30 37.60 41.09 46.25 46.62 44.69 40.05 47.61 49.70 50.30 51.39 51.49 53.29 52.47 52.07 51.90 52.49 54.02 54.97 55.45 55.27 55.45 55.75 55.76 55.51 55.79 55.66 55.80 55.36 54.88 55.16 55.49 59.00 58.68 58.70 58.96 58.77 57.18 57.37 57.31 56.45 55.51 54.01 53.60 51.79 51.76 50.01 48.81
34.31 36.13 35.23 37.13 43.01 45.15 42.48 41.87 45.94 48.86 49.79 50.08 48.05 49.90 51.89 51.73 51.40 52.38 52.76 53.34 54.77 55.51 55.78 55.67 55.30 54.97 54.67 54.81 54.80 54.23 55.20 56.01 56.45 56.55 57.78 57.60 57.61 59.43 58.33 57.76 57.24 55.96 55.39 53.66 53.14 52.09 51.85 52.20 50.73
41.13 39.45 38.07 40.96 45.42 44.60 43.44 42.57 45.39 47.85 47.71 49.11 48.76 49.24 51.65 51.63 52.89 52.89 52.85 52.83 53.08 54.39 54.70 55.12 54.74 53.92 53.26 52.67 53.17 53.19 52.36 54.09 55.63 55.17 56.38 58.24 58.22 59.93 58.17 57.41 57.57 56.48 55.11 54.47 53.02 51.79 51.18 50.82 50.66
41.55 40.10 39.43 41.60 46.29 44.96 42.82 41.35 44.29 46.99 47.76 49.85 50.48 49.22 51.54 52.09 52.04 52.77 51.88 51.59 51.74 52.67 53.59 53.40 53.29 53.28 53.64 53.72 53.50 52.93 51.20 52.95 54.60 55.20 55.95 57.58 58.91 59.17 59.31 58.97 58.08 57.46 55.67 54.02 52.89 51.94 50.62 50.66 51.35
41.31 39.96 40.21 39.86 42.04 42.87 40.60 38.54 42.82 47.43 48.95 50.03 50.94 51.78 53.35 52.58 51.38 51.95 51.40 51.26 50.96 51.55 52.63 53.27 53.16 53.26 53.63 53.66 52.84 52.21 52.93 54.15 54.23 55.19 55.64 56.34 59.01 59.71 59.04 58.53 58.82 59.02 57.40 54.88 53.88 53.45 51.62 50.00 51.83
38.30 44.37 44.05 42.82 39.55 34.30 40.27 31.01 39.68 45.62 46.83 48.11 49.55 51.66 53.40 53.09 53.22 52.70 51.75 50.77 50.83 51.21 53.24 53.82 53.59 53.31 53.74 53.81 52.56 51.80 52.07 51.84 53.83 54.56 55.61 55.39 58.60 59.21 59.98 59.53 58.92 58.40 58.47 56.01 54.31 54.17 52.56 51.87 50.36
41.92 46.07 44.21 43.99 39.56 35.69 36.88 32.56 36.59 43.66 44.51 46.44 48.60 50.74 53.75 53.37 53.69 52.83 52.54 51.89 52.21 52.44 52.75 53.97 53.91 53.51 53.80 53.20 53.00 52.27 52.83 54.14 55.65 55.81 55.29 55.04 57.46 59.51 59.77 59.75 59.29 59.35 58.74 57.07 56.17 53.34 52.86 52.83 51.20
46.93 43.93 43.07 41.86 37.62 30.73 36.84 34.91 33.51 38.24 43.18 46.23 49.77 51.12 53.11 53.79 54.14 54.42 54.16 53.75 52.86 53.14 53.16 53.76 53.66 53.60 53.80 53.57 53.15 53.01 53.35 54.72 55.10 54.60 54.38 55.18 56.79 58.97 59.37 59.30 58.60 57.51 57.03 55.71 55.13 54.21 53.15 51.50 51.72
43.41 38.73 30.75 29.72 29.13 29.01 39.02 36.85 37.76 42.77 45.10 47.58 50.74 51.84 52.92 54.24 53.82 53.70 53.28 52.23 52.42 52.11 52.49 53.12 53.61 53.64 54.37 53.90 54.54 54.89 55.42 55.67 54.85 54.46 54.57 54.66 56.11 57.46 58.74 57.69 57.31 57.07 57.09 56.29 53.56 52.44 52.05 51.56 51.07
40.69 39.72 31.37 27.96 25.99 30.24 39.81 34.62 39.39 46.06 47.15 48.12 53.45 53.77 53.71 54.35 54.76 53.62 53.50 52.85 52.64 52.25 52.86 53.30 53.79 53.81 54.65 54.37 54.48 55.83 56.56 56.55 56.27 56.02 56.18 55.97 56.57 57.94 59.65 58.52 57.77 57.29 55.63 54.00 52.24 52.18 51.91 50.34 48.71
41.22 36.73 43.46 35.98 35.36 30.15 34.66 39.65 44.28 45.70 45.43 45.42 47.84 52.87 52.30 52.73 54.64 54.68 54.52 53.73 53.57 52.78 52.93 53.71 54.42 54.42 54.69 54.70 55.19 55.91 56.64 56.68 57.36 57.87 55.85 56.62 57.81 57.25 57.09 57.75 56.99 56.09 54.88 51.35 50.75 50.65 48.90 48.60 47.81
43.67 44.65 35.73 36.06 29.93 27.65 33.24 34.71 36.73 42.36 43.45 44.27 43.87 48.23 50.22 52.66 53.14 55.54 55.68 55.29 55.47 55.13 54.57 54.66 55.24 54.94 54.88 55.29 55.68 56.14 56.74 57.17 57.91 56.55 57.05 57.81 58.29 58.13 57.37 56.87 56.53 54.16 52.11 51.20 50.39 48.80 47.59 46.19 44.99
40.03 38.10 38.52 39.24 37.11 29.60 26.75 31.92 41.70 43.61 45.61 45.19 44.18 47.26 48.06 51.49 53.38 54.92 56.47 56.92 56.75 56.98 56.58 55.63 55.59 56.03 56.00 56.44 56.62 56.46 57.61 58.70 58.32 58.33 58.43 57.93 57.73 58.76 57.85 55.69 53.20 51.37 51.03 49.47 48.39 46.42 45.05 44.53 43.95
43.54 41.41 39.94 32.88 33.29 34.71 31.54 34.58 44.45 45.05 46.19 45.36 44.97 47.21 48.59 51.22 54.11 55.12 56.47 57.19 57.17 57.12 57.28 57.07 57.03 56.66 57.37 58.40 58.27 57.78 58.33 59.05 59.17 59.33 58.44 57.82 57.09 55.13 54.64 53.28 51.60 50.10 48.77 47.47 46.08 44.50 44.44 43.39 43.14

GFSSGP_sfc_wetblb_069.txt.gz
Wetbulb
56.16 54.86 50.17 48.63 37.45 34.27 30.29 34.84 38.88 40.79 41.55 50.77 53.72 50.55 51.62 53.38 52.93 47.58 61.86 63.49 64.90 70.03 70.44 71.20 71.17 71.55 71.30 71.30 71.36 71.27 71.58 72.06 71.78 71.46 71.04 70.73 70.44 70.08 69.60 69.09 68.82 69.60 69.59 68.82 68.53 67.81 68.23 67.32 66.69
54.51 53.76 50.35 41.50 33.25 27.45 30.28 36.47 37.90 40.99 47.47 53.45 53.87 54.07 54.53 52.31 57.41 59.29 60.20 63.76 63.38 65.59 69.46 70.50 71.00 71.02 70.65 70.40 70.42 70.64 71.21 71.81 71.56 71.27 70.83 70.54 70.15 69.79 69.14 68.48 68.38 69.12 69.31 68.24 67.88 67.55 67.22 67.09 67.69
53.52 53.87 44.76 37.38 29.85 29.41 31.33 38.21 39.92 48.57 52.54 52.61 50.43 54.28 54.69 53.67 59.20 60.04 62.72 66.32 65.73 63.57 63.22 69.59 70.41 69.93 69.98 69.19 69.12 68.86 69.56 71.05 70.93 70.67 70.63 70.18 69.89 69.47 68.87 67.80 67.83 68.82 68.87 67.42 66.55 64.92 65.39 66.08 67.07
49.72 46.04 41.42 35.52 31.48 36.39 38.01 42.96 43.66 46.02 51.92 52.07 52.66 49.48 53.89 59.86 62.51 64.17 65.14 65.72 65.98 64.36 63.10 64.85 68.36 68.60 68.83 68.83 69.05 69.40 69.32 69.73 70.47 70.14 70.14 70.11 69.79 69.35 68.50 67.24 67.56 68.46 68.16 65.81 64.23 64.75 66.05 65.63 65.09
48.14 41.37 34.65 31.15 33.50 37.83 41.21 43.07 44.58 48.96 49.49 50.57 52.23 48.62 51.68 59.79 61.74 62.45 63.27 65.52 66.09 63.62 65.14 65.50 64.73 63.43 63.82 63.89 67.44 69.40 68.55 69.40 69.96 69.92 69.57 69.53 69.36 68.73 67.79 66.81 66.71 66.90 66.45 64.31 64.29 66.02 65.65 64.79 64.35
42.65 39.51 33.00 29.69 34.52 39.98 41.87 47.21 51.67 51.07 50.48 51.86 50.05 50.37 52.21 58.19 58.05 60.82 63.73 66.14 65.54 64.03 65.29 63.66 63.40 62.33 62.92 62.84 64.73 67.41 66.91 69.01 69.32 69.07 68.82 68.99 68.60 67.73 67.14 66.40 65.66 65.07 64.50 63.81 64.11 65.18 65.10 64.21 63.53
40.64 36.96 31.82 31.80 35.84 38.34 41.33 50.57 48.69 48.82 48.13 49.25 51.99 48.75 52.05 55.13 58.57 61.79 63.02 63.79 63.09 62.84 62.46 61.97 61.70 61.88 62.04 62.61 62.60 66.48 65.40 67.63 68.45 68.15 68.00 67.78 67.10 66.35 66.13 65.47 64.85 64.12 63.08 63.15 62.68 63.30 64.42 63.64 62.97
41.78 38.48 32.52 34.06 35.75 36.49 42.65 50.76 51.20 49.26 48.56 55.13 53.95 49.51 49.26 53.98 60.48 62.99 62.26 62.45 62.29 62.55 61.75 61.41 61.49 60.63 60.51 60.82 62.09 64.02 64.59 67.41 67.47 67.58 67.26 66.47 65.83 65.62 65.05 64.10 63.69 62.75 62.59 62.63 62.25 62.39 62.75 63.32 62.20
41.33 35.71 32.22 35.10 35.58 38.86 45.34 46.02 50.29 52.55 51.74 53.69 56.22 55.18 55.91 59.12 61.34 61.37 61.19 61.23 60.87 61.45 62.11 61.33 60.48 60.09 60.62 60.62 60.93 60.29 61.59 66.77 66.54 66.86 65.99 64.22 63.23 62.20 60.31 62.36 62.73 62.22 62.20 61.56 61.24 60.81 62.50 62.20 61.66
39.30 33.50 36.28 40.86 40.59 41.86 47.10 48.02 50.77 48.81 47.41 49.88 51.95 55.47 57.59 60.13 58.02 56.73 57.68 58.62 59.60 59.10 60.23 60.87 60.38 60.03 60.22 61.14 60.62 58.68 60.48 62.96 64.49 64.30 63.38 62.11 60.45 59.58 60.80 62.06 62.24 61.58 61.09 61.32 60.89 59.14 58.97 59.13 57.02
39.18 37.49 41.32 44.06 44.24 42.96 46.54 47.05 50.44 47.67 44.85 47.88 48.88 51.49 56.87 57.28 57.07 56.13 56.03 57.27 57.56 59.58 59.36 59.62 59.68 59.87 59.85 58.82 59.34 59.76 61.17 61.96 62.11 62.14 61.79 60.21 60.72 60.44 59.11 57.54 56.49 55.82 56.05 53.46 53.38 51.28 49.58 48.71 50.99
38.07 42.75 43.00 44.18 44.70 45.06 45.85 48.26 47.92 46.38 48.86 51.97 50.14 55.52 56.91 56.69 55.51 55.61 55.18 56.45 57.12 58.88 58.54 59.01 59.78 59.66 59.62 58.69 57.87 58.53 60.93 61.49 61.39 61.72 60.98 59.85 58.67 57.45 56.17 55.16 53.41 52.45 52.74 52.66 50.98 49.34 47.80 47.40 49.25
41.08 42.87 44.48 45.59 45.93 46.08 50.47 48.90 47.98 48.00 52.35 54.07 54.24 57.56 55.91 55.91 55.12 55.16 54.55 55.83 56.95 57.62 58.42 58.39 58.91 59.07 58.65 58.32 58.39 59.66 59.31 59.88 60.98 61.34 60.02 58.58 57.17 55.92 54.57 52.34 51.69 52.04 52.15 52.14 50.49 48.74 48.19 46.86 47.15
43.58 44.70 44.85 45.31 45.53 49.12 47.90 46.89 47.35 49.22 52.26 53.76 56.44 55.56 55.24 54.44 53.39 53.79 54.45 54.43 55.85 56.41 57.54 58.29 58.50 58.53 58.36 57.78 57.61 59.35 59.54 59.57 60.28 59.94 58.65 58.03 56.78 55.26 53.64 51.57 51.16 52.00 52.32 52.03 50.55 49.06 48.31 46.64 46.48
45.03 41.62 43.01 43.37 43.79 45.24 48.02 43.16 44.67 49.24 51.85 51.70 55.61 55.22 54.36 53.80 53.20 52.02 53.24 54.57 55.44 55.68 56.65 57.26 57.65 58.47 57.54 57.38 58.02 58.65 59.64 60.17 59.12 58.51 57.70 56.94 56.44 54.67 52.94 51.98 51.96 51.98 52.61 52.24 50.99 49.71 48.32 46.72 46.62
40.92 39.67 35.63 41.91 43.31 45.39 45.25 38.07 44.98 49.07 50.48 51.63 53.60 54.84 53.93 52.48 52.73 51.16 53.36 55.20 55.40 55.32 56.11 57.43 58.42 57.81 57.77 57.01 57.41 57.51 57.42 59.00 58.74 58.34 57.42 56.65 56.38 55.41 53.37 52.52 53.19 53.37 53.64 52.45 51.05 50.33 49.05 47.21 46.25
36.69 31.71 35.30 39.41 42.70 43.63 42.71 39.52 44.68 48.35 50.60 51.20 51.32 52.83 52.79 51.04 50.92 51.63 54.86 55.06 55.20 55.34 56.06 56.55 57.19 57.07 57.08 56.80 56.81 55.54 55.62 56.81 58.51 58.63 57.41 56.61 56.65 56.71 54.98 54.51 54.14 54.66 54.02 52.89 52.31 50.98 50.33 48.11 46.84
32.24 33.83 32.84 35.20 40.18 42.79 41.62 42.14 45.05 47.24 47.74 48.27 49.36 50.36 50.45 50.32 50.45 51.95 52.23 54.91 55.41 55.29 56.02 55.91 56.45 56.43 56.03 56.05 55.92 54.69 55.14 54.90 56.60 58.01 57.96 58.10 57.12 57.65 56.66 56.19 55.84 55.53 54.57 53.03 52.35 51.57 50.79 49.51 48.58
38.82 36.79 35.23 39.04 42.61 41.86 41.55 42.31 43.85 45.32 46.04 46.65 46.61 48.58 50.10 50.92 51.52 51.87 51.83 53.02 54.27 55.04 54.96 54.94 55.06 55.24 55.20 55.10 55.23 53.97 52.58 53.55 55.19 55.94 57.49 57.64 58.13 58.78 56.93 56.85 56.25 55.32 54.51 53.62 53.07 51.37 50.45 50.26 49.90
39.09 36.57 36.15 39.84 42.86 42.32 40.67 41.12 43.07 45.28 46.16 47.01 47.36 46.86 49.72 50.28 50.30 51.13 50.61 51.46 52.53 54.57 54.67 54.49 54.17 54.24 54.86 54.69 54.72 54.96 53.23 53.25 54.67 55.41 55.67 57.12 57.47 57.63 57.47 56.63 56.63 55.32 54.35 53.79 52.52 51.54 50.24 50.39 50.35
38.51 36.72 36.80 37.43 40.90 42.40 38.96 37.55 40.94 44.93 47.01 48.17 49.92 49.66 51.16 50.95 50.09 50.71 50.79 50.96 51.58 53.07 54.04 53.04 53.71 52.85 52.98 52.33 53.74 52.74 52.98 53.28 53.47 54.06 54.58 54.77 56.45 57.54 58.00 57.90 57.64 56.53 55.18 54.10 52.96 52.43 51.91 50.83 51.70
35.86 41.34 41.44 40.16 37.16 32.96 38.70 29.77 36.97 42.06 44.37 47.05 48.15 48.97 50.68 51.62 52.17 51.45 50.64 50.08 50.48 50.94 52.49 52.51 52.60 52.25 52.21 51.92 50.81 50.88 51.47 50.31 50.69 50.67 51.97 52.72 55.79 57.31 57.97 57.82 57.95 57.79 57.36 56.05 54.85 54.53 52.17 51.77 50.31
39.48 43.49 41.79 40.77 37.39 34.17 34.63 31.01 34.78 40.99 42.50 44.73 47.32 48.84 50.31 52.31 52.35 51.59 51.07 50.65 50.62 50.93 51.46 52.43 52.91 52.74 52.91 52.25 51.35 50.36 49.51 50.52 50.80 51.26 52.08 52.80 54.24 56.45 58.02 58.32 57.27 57.35 57.53 57.17 55.36 52.87 52.61 52.77 50.64
45.10 42.02 40.87 38.96 36.03 29.54 35.08 33.43 32.47 36.49 42.56 44.73 48.37 48.91 50.71 52.62 53.20 52.93 52.66 51.32 50.84 50.37 51.09 52.30 52.44 52.73 53.09 52.51 51.96 50.76 50.58 50.77 51.22 52.26 53.05 54.23 53.92 55.54 57.19 58.10 58.18 57.75 57.15 56.17 55.90 54.98 52.66 51.95 50.10
41.41 36.94 29.20 27.48 27.37 28.80 36.85 33.34 35.24 40.83 42.85 45.98 46.49 48.84 50.46 52.98 52.98 52.62 51.98 50.93 50.71 50.05 50.36 51.81 52.45 52.13 52.78 52.66 52.29 51.58 51.14 51.60 52.12 53.03 53.69 53.50 53.73 53.99 56.35 58.16 58.14 57.17 57.27 56.15 54.13 52.97 52.94 51.10 50.70
38.56 37.64 29.93 26.60 25.48 29.00 36.91 32.81 37.95 44.43 46.27 46.94 46.73 49.74 51.06 52.43 53.08 53.13 53.04 52.58 51.72 51.40 51.14 51.59 52.37 52.18 52.56 52.58 52.38 52.61 52.20 52.30 53.58 54.14 54.78 54.04 54.25 55.16 56.75 57.61 58.53 57.41 56.17 55.83 54.22 54.02 52.36 51.56 51.29
39.16 35.07 41.13 33.39 33.04 29.54 32.93 37.19 41.95 44.66 44.71 44.93 47.10 48.79 49.61 51.18 52.90 53.14 54.08 53.51 52.69 51.97 51.85 51.95 52.27 52.50 52.79 52.59 52.75 52.74 52.67 53.09 54.25 55.09 55.88 55.72 55.28 55.55 55.58 56.43 56.77 56.83 56.59 56.57 55.13 53.92 51.27 50.45 49.31
41.45 43.03 34.31 33.69 27.30 26.56 30.62 32.47 34.13 41.07 42.64 43.91 43.61 48.43 50.09 51.80 53.00 53.81 53.90 54.16 53.61 53.24 52.87 52.93 52.95 52.65 53.04 53.35 53.18 53.16 53.38 54.48 55.22 55.90 54.74 55.46 55.93 57.43 57.37 56.87 56.63 56.05 56.09 53.40 52.66 51.28 49.22 48.82 46.94
38.04 38.18 37.57 37.81 33.68 28.40 26.60 30.39 39.72 41.89 43.79 43.12 42.62 46.64 50.41 51.29 52.98 54.21 54.37 54.48 54.32 53.93 52.86 52.69 52.86 52.98 52.88 53.45 53.47 53.44 53.67 54.99 55.90 56.23 56.20 55.98 57.70 57.78 57.67 57.68 56.65 55.79 53.82 53.20 51.17 48.88 47.25 46.45 45.33
41.95 39.50 38.76 31.29 30.94 32.98 30.14 33.57 42.56 43.59 44.40 44.80 44.84 45.74 46.13 50.91 52.40 53.35 55.10 55.18 53.98 53.56 53.51 52.76 53.71 53.90 54.77 54.62 54.55 54.43 54.88 55.40 55.95 56.43 56.91 57.83 58.41 58.39 57.86 57.26 55.63 52.62 51.51 50.43 49.31 46.47 46.47 45.38 44.52

GFSSGP_sfc_wetblb_072.txt.gz
Wetbulb
54.80 52.04 49.85 46.18 36.22 32.87 28.70 33.43 37.01 38.51 39.11 47.83 53.29 49.78 48.79 51.40 50.95 44.52 60.83 63.48 65.64 69.69 70.33 70.65 70.80 71.32 71.60 71.55 71.63 71.71 71.81 71.97 71.89 71.73 71.38 71.23 70.95 70.62 70.14 69.90 69.68 69.80 69.76 68.60 68.23 67.75 67.52 67.37 66.85
53.41 52.25 48.65 40.12 32.06 26.94 30.44 34.97 36.78 40.13 44.04 51.18 53.60 53.34 52.95 51.58 56.22 58.59 60.44 64.31 64.52 67.25 68.67 69.75 70.62 70.88 71.27 71.20 71.40 71.66 71.86 71.70 71.48 71.31 71.07 70.72 70.56 70.09 69.68 69.60 69.14 69.29 69.47 68.28 67.70 68.06 67.36 66.54 66.13
52.82 52.44 43.42 35.31 28.85 28.89 30.81 36.98 39.44 43.15 50.83 51.11 49.31 53.61 54.12 52.65 58.38 59.14 63.54 65.41 66.47 64.67 64.94 68.82 70.17 69.71 70.24 70.70 71.10 71.28 71.15 70.97 70.90 70.64 70.72 70.51 69.98 69.60 69.46 69.06 68.67 69.26 69.50 68.94 68.59 68.34 67.18 66.26 65.91
48.16 45.03 40.14 34.80 30.74 35.61 36.62 40.04 41.48 41.99 48.27 50.93 51.36 48.69 53.17 58.92 61.69 62.42 63.69 64.50 64.65 65.63 64.27 65.39 66.44 66.41 67.92 68.60 67.46 68.80 70.56 70.23 70.08 70.14 70.36 70.06 69.55 69.21 69.16 68.54 68.62 68.80 68.38 67.27 67.22 67.24 67.36 65.82 64.92
45.58 40.36 33.54 30.67 32.19 36.57 39.50 41.23 46.26 45.76 47.68 48.95 51.10 46.63 50.65 58.73 61.06 61.42 62.21 64.11 64.57 64.98 64.04 64.52 64.72 64.41 64.62 65.34 65.54 64.53 68.57 69.40 69.60 69.70 69.55 69.27 69.13 68.70 68.27 68.22 67.86 67.17 66.42 66.08 66.86 66.51 65.59 64.99 64.13
41.87 38.75 31.88 29.17 33.01 38.12 40.41 41.77 50.23 49.82 48.58 50.46 48.74 48.34 50.27 57.26 57.87 60.79 63.29 64.84 64.88 64.55 64.03 62.33 64.31 64.13 64.11 63.78 63.01 64.72 67.12 68.58 69.03 69.00 68.95 68.88 68.38 67.57 67.74 67.58 66.58 65.48 66.26 66.97 66.41 65.73 64.74 63.93 63.45
40.10 35.60 31.49 30.44 34.24 36.88 40.30 48.25 47.90 48.13 46.24 47.78 50.68 47.85 49.69 52.23 57.39 62.59 63.36 62.89 62.99 62.90 61.06 60.86 62.26 62.78 63.23 62.33 62.79 65.15 66.72 67.50 68.01 67.86 68.14 67.65 67.07 66.43 66.38 66.08 65.39 64.91 66.21 66.59 65.69 64.59 63.87 63.58 62.80
40.66 37.67 31.84 32.26 33.86 35.48 41.22 49.44 50.21 47.67 46.67 53.71 52.54 46.86 47.56 53.12 60.84 62.72 62.56 61.94 61.53 61.49 61.22 61.20 61.59 60.45 60.62 61.07 61.97 63.62 65.99 66.96 66.78 67.08 66.83 66.50 65.96 65.70 65.07 64.31 63.97 64.04 65.05 65.56 65.00 63.93 63.41 63.09 62.20
39.97 34.85 31.14 33.76 34.63 38.54 43.32 45.09 48.85 50.86 50.37 52.01 54.28 54.04 54.47 57.82 61.19 61.60 60.63 60.65 60.60 60.62 60.60 60.92 60.58 59.84 59.72 60.03 60.71 63.27 65.81 66.26 66.02 66.28 66.03 64.46 63.49 62.22 60.06 61.20 62.87 62.88 63.33 64.39 64.63 63.68 62.68 61.83 61.51
38.80 33.27 35.61 39.79 39.02 40.83 42.87 46.09 48.16 47.64 47.02 48.33 50.71 53.62 57.80 59.07 60.10 59.52 59.18 58.88 59.14 59.63 60.05 60.79 60.10 59.78 59.08 60.40 58.62 62.61 63.94 63.75 63.89 64.06 63.05 62.46 60.38 58.35 60.10 61.20 61.97 62.22 61.97 63.09 63.68 63.23 62.07 59.95 57.66
37.48 36.24 39.61 41.88 42.42 41.69 39.85 44.71 50.45 47.47 44.00 46.66 47.80 49.94 56.37 58.51 58.35 57.81 58.57 59.19 58.78 59.62 60.13 60.31 59.61 59.90 59.48 58.65 57.88 60.43 61.91 63.37 63.22 62.11 61.35 59.58 59.57 59.33 58.51 57.40 56.70 56.31 57.39 55.57 58.62 56.96 53.56 54.35 54.19
36.62 41.08 41.50 42.82 42.48 42.10 42.59 46.29 47.65 46.66 47.45 51.45 48.19 53.81 55.65 56.92 56.85 56.37 56.39 57.21 57.94 58.84 59.14 59.62 59.42 59.32 59.08 59.39 57.40 59.21 61.27 62.05 61.25 61.36 59.77 59.15 58.13 56.64 55.12 53.74 51.30 51.53 50.69 49.28 50.89 51.73 50.21 50.67 52.02
38.86 41.14 42.46 44.19 44.55 43.12 46.97 46.87 47.11 46.98 50.91 53.74 52.66 56.37 55.29 55.74 56.59 56.44 56.33 56.89 57.95 58.17 58.44 59.14 59.41 59.46 58.51 58.23 58.01 59.09 60.76 61.37 61.69 60.23 59.44 58.11 56.26 54.93 53.79 51.57 51.77 51.51 50.97 49.83 48.88 49.50 50.20 50.01 50.53
41.89 42.40 43.06 43.57 44.06 44.92 46.62 44.97 46.77 47.78 51.27 54.08 53.76 54.62 54.60 54.79 55.38 54.34 54.76 55.10 56.57 58.20 58.26 58.84 58.99 58.98 58.58 57.13 57.56 59.10 60.40 61.14 61.37 59.98 58.30 56.86 55.67 54.32 52.89 51.59 51.49 51.53 51.42 50.41 49.44 48.12 47.99 47.25 48.13
42.96 39.91 40.60 40.62 41.28 41.99 47.05 42.43 44.13 48.98 51.56 52.17 54.46 54.47 54.42 53.91 52.81 53.81 54.53 54.37 56.01 56.87 57.99 58.18 58.51 58.90 58.42 56.93 57.72 58.52 59.48 60.70 60.50 59.17 57.64 56.24 55.25 54.09 52.61 51.71 51.52 52.20 52.24 51.11 49.64 47.80 45.89 45.08 46.13
38.90 37.84 33.48 39.51 41.61 43.15 44.73 37.07 41.97 46.40 49.31 49.06 52.23 53.86 53.84 52.77 52.45 51.28 53.72 54.06 55.18 56.05 57.01 57.69 58.87 58.05 57.61 57.09 58.08 58.80 59.46 59.52 59.09 57.87 56.89 56.05 55.29 54.05 52.69 52.25 52.27 53.03 53.29 51.22 50.17 48.22 46.34 45.76 44.81
35.24 30.37 32.90 37.18 41.20 41.98 40.75 38.73 41.34 47.07 48.39 48.45 50.53 52.51 52.76 53.46 52.22 51.11 53.70 54.54 55.02 56.01 56.87 57.21 57.97 57.56 57.17 57.37 57.26 57.05 58.25 58.83 58.81 57.70 56.52 55.87 55.46 54.61 53.27 53.11 53.29 53.73 53.42 52.03 51.47 50.25 49.24 47.13 46.15
31.82 32.13 31.32 33.44 37.24 38.79 38.13 40.25 44.84 45.67 47.67 48.90 49.44 49.72 53.52 52.66 50.96 51.26 52.79 53.65 54.81 55.73 56.80 57.09 57.51 57.19 57.03 56.71 55.66 56.33 56.65 58.08 58.53 57.33 56.14 55.86 55.88 55.29 54.29 54.28 54.42 54.49 53.57 52.62 52.05 50.86 50.66 49.56 48.07
36.57 35.09 33.59 35.61 39.73 38.24 38.64 38.21 42.16 43.12 45.03 45.17 46.33 48.14 49.40 50.29 50.92 51.15 52.42 54.27 54.21 54.32 55.32 56.01 56.01 56.13 56.09 55.34 53.83 54.64 54.88 56.25 57.15 57.48 56.97 56.36 56.57 56.11 55.52 55.47 55.69 55.22 53.92 53.15 52.18 51.53 51.01 50.65 49.66
37.47 35.28 34.54 37.87 40.84 39.29 38.24 38.54 42.88 43.09 44.41 45.40 45.95 46.04 48.56 49.59 49.58 50.59 52.06 52.41 54.18 53.73 54.83 54.91 55.38 55.49 56.04 55.80 55.83 56.13 53.87 54.37 55.39 56.21 57.40 57.62 57.59 57.56 56.96 56.66 56.67 56.11 54.63 53.00 52.46 51.91 50.14 50.41 49.72
36.72 36.08 34.66 35.93 37.92 39.09 37.26 36.65 39.11 42.08 44.54 46.05 47.01 47.31 48.17 50.09 49.63 49.62 50.06 50.71 52.65 53.32 54.04 54.16 54.64 55.00 55.60 56.21 55.32 53.75 53.57 54.04 53.67 54.40 54.64 56.21 57.37 57.59 58.22 57.14 56.47 55.68 54.28 53.64 52.51 51.84 51.56 50.26 50.87
33.78 39.38 39.09 37.28 35.01 30.72 37.06 28.61 35.71 39.61 41.51 45.29 46.51 47.53 47.77 49.87 50.88 50.20 50.25 49.80 51.09 53.08 53.25 54.25 54.04 54.16 53.04 52.10 53.09 52.90 52.80 52.35 53.37 53.80 53.46 54.81 56.38 56.68 57.15 56.75 56.63 56.13 55.28 54.03 53.70 53.04 52.81 52.63 50.00
37.48 41.07 38.90 38.14 34.93 32.38 33.06 29.47 33.97 38.18 40.29 42.15 44.74 47.03 48.24 50.14 51.10 50.18 50.30 50.65 51.18 50.94 53.09 52.27 52.16 51.93 51.54 51.34 52.37 51.53 51.09 53.02 50.67 51.58 51.97 52.15 53.15 55.00 55.54 56.21 56.45 56.77 56.79 55.78 55.06 53.81 52.84 53.39 51.86
43.13 39.59 38.83 37.06 34.28 27.96 33.91 32.32 31.18 34.82 40.50 42.17 44.98 46.51 48.31 49.46 51.31 51.39 51.14 50.86 50.60 51.30 51.24 51.93 51.64 51.79 51.83 51.50 50.61 50.81 50.09 49.60 49.27 49.29 49.74 50.85 51.83 52.93 54.31 55.48 56.04 56.57 56.37 56.13 56.27 56.01 54.14 53.71 53.26
39.65 35.54 28.18 26.67 26.93 27.46 34.95 31.35 35.65 39.60 42.05 43.03 44.14 45.58 47.48 49.09 51.15 50.89 49.97 49.83 49.38 49.55 50.78 51.93 51.69 51.73 51.94 51.46 51.28 50.70 50.35 50.11 50.21 49.86 50.22 50.18 50.62 51.46 52.63 54.40 55.40 55.87 56.83 56.73 56.23 55.38 54.08 52.17 51.33
37.75 35.99 28.81 25.84 24.83 28.35 35.22 30.66 36.75 42.82 44.77 45.12 44.85 45.29 46.59 48.39 51.47 51.52 51.05 50.48 50.01 49.60 50.14 51.23 51.84 51.80 52.22 52.07 51.65 51.73 50.96 50.87 50.95 50.67 51.01 51.61 51.88 51.38 53.22 54.27 55.22 54.94 55.44 54.35 54.09 52.84 53.82 53.79 53.57
37.32 32.99 39.07 31.66 31.09 29.07 32.31 36.08 40.68 42.87 43.55 43.89 43.50 45.47 45.02 47.39 50.81 51.95 52.27 51.43 50.64 50.30 50.08 50.59 51.69 52.02 52.35 52.29 52.41 51.67 51.43 50.64 50.85 51.52 52.12 52.92 52.92 53.36 53.09 53.60 54.60 55.58 55.77 55.47 54.93 55.15 53.62 52.17 51.84
39.97 40.87 32.61 31.70 26.28 25.92 29.67 30.99 33.36 39.50 41.52 42.88 42.23 45.81 46.60 47.38 50.44 51.61 52.53 52.70 52.16 51.71 51.32 51.22 51.76 51.91 52.18 52.35 52.37 52.22 51.75 51.61 51.64 51.98 52.87 53.96 54.43 53.83 54.03 54.43 54.26 54.81 54.91 55.61 55.91 56.53 54.65 53.08 50.32
36.43 35.74 35.54 35.77 31.66 27.04 25.80 29.64 38.59 40.51 41.86 42.67 42.84 42.49 47.14 48.24 49.19 51.79 52.51 53.56 53.29 52.62 52.07 51.40 51.76 52.49 52.02 52.31 52.10 52.22 52.12 52.53 53.13 53.47 54.26 54.63 54.90 54.84 55.62 56.05 56.31 56.39 56.53 55.29 53.74 53.42 50.92 50.65 48.32
39.26 37.65 37.40 31.30 29.57 31.35 29.32 32.54 41.92 42.52 42.80 43.41 44.63 44.82 44.18 49.34 49.65 51.05 52.12 52.44 53.03 52.34 51.99 51.86 52.19 52.66 53.16 52.85 52.53 52.41 52.78 53.16 53.28 53.91 54.30 55.08 55.28 55.93 56.72 56.82 56.59 56.33 55.49 52.49 51.91 49.94 49.35 49.49 47.56

GFSSGP_sfc_wetblb_078.txt.gz
Wetbulb
60.48 59.40 60.54 57.93 48.46 46.83 43.95 44.37 48.69 47.67 48.54 51.72 55.04 54.45 55.28 58.04 54.42 52.20 67.80 69.24 69.69 72.11 72.61 72.27 71.73 71.88 72.33 72.95 72.60 72.35 72.83 72.74 72.35 71.86 71.93 72.13 72.35 72.32 72.20 71.52 71.11 70.85 70.67 70.56 70.14 69.54 68.98 68.52 68.28
59.93 59.65 59.57 55.13 46.31 43.20 44.45 47.48 46.93 49.32 50.91 53.38 55.33 58.00 57.33 55.06 61.72 63.86 66.53 68.75 69.51 71.22 72.95 72.43 71.17 71.41 71.96 72.32 72.36 72.40 72.79 72.60 71.95 72.15 72.10 72.30 72.18 72.08 71.77 71.16 70.59 70.50 70.43 69.84 69.55 69.19 68.52 67.55 67.35
61.17 60.51 54.93 50.69 48.08 44.14 46.08 47.81 49.35 50.86 51.66 52.47 55.43 59.05 58.79 57.24 62.72 64.97 68.53 68.43 69.81 68.68 73.27 71.96 70.63 70.84 71.27 71.12 71.96 72.00 72.08 71.64 71.68 71.77 71.95 71.93 71.71 71.40 70.96 70.00 69.44 69.67 70.08 69.21 69.00 68.52 67.59 66.69 66.58
58.46 56.23 54.12 47.37 44.78 46.84 47.10 49.46 50.68 51.23 51.75 55.06 56.88 55.12 60.21 63.95 64.17 66.63 68.23 68.18 68.35 66.51 70.67 69.41 69.43 69.75 70.24 70.34 70.93 69.81 71.21 71.00 70.86 71.12 71.36 71.64 71.37 71.11 70.17 69.14 69.03 69.18 69.34 68.93 67.86 67.52 66.69 66.24 65.84
58.12 55.36 47.82 45.35 45.62 47.41 49.56 50.48 50.89 52.57 52.67 55.10 57.35 53.50 56.62 62.31 66.55 66.67 67.08 67.70 68.03 69.20 68.95 70.08 67.93 68.18 68.49 69.43 69.80 69.06 69.61 69.62 70.28 70.61 70.61 70.80 70.86 70.34 69.57 68.90 68.52 68.62 68.59 68.21 66.99 66.53 65.49 65.34 64.93
53.18 53.68 45.41 43.53 45.74 47.48 49.52 51.42 52.62 53.32 54.53 55.49 55.16 55.16 57.06 63.08 64.30 65.79 66.87 67.27 67.94 68.47 68.69 70.00 68.12 68.17 68.12 68.37 67.54 67.52 68.99 68.47 69.31 68.73 69.66 70.20 69.81 69.39 69.03 68.54 68.37 68.61 67.82 67.31 66.57 65.61 64.91 64.64 64.33
51.59 48.95 45.69 44.96 45.59 46.44 48.25 53.07 52.44 51.66 52.74 54.00 57.38 53.48 57.82 60.49 63.42 65.54 64.27 64.97 66.33 67.45 68.25 68.58 70.07 66.88 65.53 64.93 65.57 66.33 67.02 68.19 68.17 67.96 67.81 68.38 68.17 68.24 68.38 68.18 68.48 68.13 68.05 66.75 65.75 65.06 64.60 64.14 63.46
52.97 50.64 45.66 46.10 45.22 45.84 49.52 51.31 54.10 53.20 51.92 58.24 58.15 52.39 54.81 60.20 64.28 65.38 65.48 64.85 64.71 64.47 65.03 65.86 68.19 66.95 67.39 67.67 63.15 64.91 66.78 66.17 66.79 67.20 67.08 66.71 66.73 67.14 67.01 66.68 67.61 67.83 67.46 66.26 64.97 64.56 63.97 63.53 62.75
53.57 47.01 45.06 45.50 45.71 47.54 50.22 49.65 53.63 56.70 54.63 56.80 58.27 57.95 61.10 62.69 64.54 64.02 63.39 62.43 62.61 61.91 62.65 63.60 63.56 65.73 66.08 65.55 65.28 64.22 65.41 66.02 65.97 66.59 66.39 65.55 67.00 65.89 66.16 66.08 66.65 66.92 66.23 65.38 64.45 64.06 63.19 62.36 62.01
49.99 46.69 46.83 48.84 49.89 48.64 49.87 49.78 51.12 52.53 53.05 54.77 57.21 60.21 61.96 62.92 63.13 61.70 61.43 60.17 61.59 61.25 61.88 62.12 62.88 63.30 64.30 64.07 64.87 66.41 66.83 67.01 66.16 66.34 65.46 65.41 65.04 63.88 65.75 66.53 65.86 65.61 64.83 64.13 63.82 63.15 62.25 61.75 61.80
49.70 46.45 49.36 49.20 50.48 50.75 49.95 50.37 52.65 52.17 50.56 53.07 53.66 56.36 61.18 61.83 62.16 62.04 62.04 62.46 61.69 63.27 61.79 62.63 62.77 63.49 62.59 62.88 63.67 64.41 65.88 65.61 65.33 64.80 63.57 64.38 64.00 65.06 66.01 66.60 66.21 65.44 63.48 62.62 62.55 62.07 61.61 61.69 61.32
46.49 49.20 49.53 50.15 50.70 50.25 49.39 51.86 51.46 52.57 53.47 57.11 57.05 58.48 60.54 60.62 61.29 61.87 61.94 62.53 62.50 63.83 63.73 63.76 62.23 63.01 62.49 61.45 62.01 63.93 64.52 65.17 64.95 63.05 62.27 61.23 62.21 63.01 64.57 65.63 65.17 64.38 64.07 62.98 62.29 61.88 62.34 61.95 61.58
47.76 48.63 50.27 50.86 50.75 50.19 51.11 49.87 50.59 51.53 54.82 57.91 57.66 58.65 59.50 60.47 61.42 62.34 62.68 62.22 62.74 62.55 64.43 64.28 64.28 63.50 63.60 63.73 63.45 62.80 62.52 63.44 61.12 61.06 60.97 60.34 59.63 59.94 61.47 64.02 64.47 64.01 64.33 63.70 62.80 62.78 61.59 60.90 60.70
49.28 49.50 49.47 49.95 49.85 50.52 48.83 49.52 51.62 52.42 55.82 56.96 57.79 58.42 59.76 60.36 61.47 61.98 62.14 60.60 59.74 62.91 62.15 63.41 62.75 62.36 62.43 61.90 62.51 61.91 61.21 60.61 60.07 59.70 58.52 58.92 58.61 58.76 59.21 59.62 60.18 62.87 64.11 63.82 62.87 62.15 60.37 59.59 59.92
49.29 46.34 48.11 48.67 49.48 48.62 50.04 47.39 48.89 53.84 55.85 55.63 56.91 58.23 59.46 60.57 61.98 61.63 61.98 61.58 61.66 62.25 61.92 61.77 62.62 61.94 61.05 61.38 60.98 60.85 61.71 60.35 58.66 57.79 58.11 58.39 59.02 59.20 58.14 57.82 57.94 59.16 61.99 62.37 62.17 61.48 60.53 58.86 59.33
46.51 47.25 43.80 47.56 48.10 48.60 50.42 44.99 51.11 53.68 55.10 54.73 57.21 57.90 59.29 60.25 61.33 61.97 61.36 61.13 60.45 60.92 61.78 61.46 62.50 60.73 61.06 60.88 61.87 60.82 60.36 59.92 58.81 57.26 56.64 57.28 57.66 58.37 57.44 56.80 56.70 57.92 58.82 59.67 60.02 60.31 58.57 58.69 58.50
46.04 42.56 44.07 45.26 48.89 49.19 49.85 46.51 51.41 54.27 53.64 53.55 56.17 57.97 59.15 60.21 60.92 61.74 61.54 61.47 61.57 60.84 61.17 61.08 60.52 59.45 58.87 60.24 60.49 60.46 59.49 58.85 58.96 57.57 56.70 57.30 57.85 58.16 57.84 57.74 58.39 58.71 57.51 56.93 57.81 58.36 58.11 57.14 57.40
42.37 42.82 44.84 43.76 46.79 47.59 47.65 47.69 49.74 52.32 52.34 53.56 55.70 57.46 58.84 59.57 60.20 61.26 61.47 61.49 60.25 59.95 60.65 61.10 59.49 58.66 58.81 59.53 59.80 59.60 58.92 58.38 58.31 57.41 56.54 57.24 57.61 60.10 59.98 58.81 59.14 58.78 57.26 56.82 56.86 56.79 57.13 57.08 56.67
46.14 44.46 43.80 45.85 46.75 45.50 45.77 46.34 48.10 50.78 52.26 53.32 55.19 56.51 57.62 59.20 61.63 61.05 61.29 61.14 59.33 59.18 59.43 59.16 57.67 58.18 58.50 58.65 59.08 57.95 57.17 57.22 57.00 57.50 58.04 58.08 57.66 59.45 58.89 59.44 59.45 59.25 57.87 58.34 57.89 57.56 57.14 56.49 56.53
45.14 43.04 43.17 45.90 46.81 45.46 45.41 44.90 47.91 50.06 51.68 53.47 54.12 56.01 57.27 58.99 60.30 59.25 59.37 59.83 58.66 57.71 58.09 58.01 57.82 58.02 58.97 59.86 60.52 59.42 58.15 58.51 57.41 56.98 57.13 56.88 57.03 57.11 57.82 59.06 59.39 59.99 58.91 57.33 57.68 58.63 57.86 58.52 56.83
44.39 42.84 43.31 43.04 45.71 46.61 45.30 43.58 45.24 48.69 52.19 53.49 54.94 55.97 57.11 58.50 59.09 58.81 57.53 58.25 59.09 56.92 57.64 57.18 58.07 57.69 58.28 59.57 60.01 59.16 58.66 58.57 56.76 56.43 56.11 56.95 57.02 57.67 57.42 57.93 59.16 58.35 59.48 58.51 58.69 58.26 57.53 56.69 57.21
41.35 46.08 44.66 43.52 42.61 39.33 45.06 38.06 44.45 47.76 49.29 51.13 52.69 55.41 56.51 57.68 59.57 59.61 58.19 58.38 58.75 58.61 57.66 57.52 58.40 57.84 57.97 58.95 58.63 58.90 57.90 55.25 57.00 56.03 56.47 56.59 57.12 57.01 58.40 58.69 60.15 59.81 60.16 60.32 60.30 59.76 59.59 59.88 57.20
42.87 46.42 44.33 44.27 42.89 42.48 42.57 39.33 44.03 47.19 46.93 49.55 51.94 53.70 56.53 57.78 59.23 59.24 58.89 59.09 59.31 59.62 56.17 57.84 58.88 58.05 57.92 57.88 59.11 58.72 57.39 57.92 58.56 56.81 56.28 56.27 57.27 58.39 57.42 58.55 58.89 59.81 61.16 61.02 61.61 60.97 60.27 60.30 59.49
46.73 44.18 43.74 43.89 42.37 36.02 41.17 40.46 42.08 44.88 47.65 49.60 51.15 52.52 55.16 57.73 58.79 59.82 60.23 59.86 59.37 59.98 58.72 58.24 57.94 57.91 59.11 57.81 58.05 58.31 57.14 56.20 56.22 56.18 55.85 56.10 55.78 55.91 57.49 57.74 59.89 60.31 61.21 61.32 62.02 62.45 61.82 61.26 60.78
44.81 42.59 37.23 35.19 35.04 34.76 42.44 40.75 43.23 47.87 50.09 51.03 51.37 52.68 54.97 57.61 58.64 59.23 59.08 58.91 58.87 58.64 58.84 57.66 58.42 57.24 57.97 58.71 58.12 58.73 58.03 56.28 56.32 56.88 56.76 55.44 55.66 55.93 56.49 56.95 58.01 59.87 61.22 62.36 62.51 62.41 62.61 61.76 61.03
41.77 42.65 38.09 31.21 34.15 37.97 42.17 38.23 44.07 49.63 51.64 52.62 53.49 53.98 54.99 56.35 58.50 58.97 59.62 59.53 59.38 58.55 58.31 56.68 58.54 58.86 59.11 58.37 58.89 59.24 58.60 58.32 59.42 60.53 60.24 58.60 56.96 57.54 56.99 57.61 58.28 59.92 61.00 61.88 61.89 62.69 62.46 62.60 62.14
41.15 38.65 44.46 39.22 40.42 36.72 41.15 43.82 47.81 49.80 50.24 51.24 52.15 53.68 54.50 55.88 57.88 58.94 59.70 60.10 59.91 59.11 58.56 57.58 57.92 59.49 59.94 59.72 60.30 60.30 60.74 59.93 59.97 60.32 61.21 60.27 60.04 60.01 59.20 61.10 60.84 61.82 61.95 61.59 61.71 61.00 61.28 61.73 61.91
45.71 47.28 38.76 40.05 31.53 31.38 38.54 40.19 42.36 45.70 47.91 50.13 51.38 53.07 53.78 55.81 56.84 58.75 59.57 59.92 60.34 60.04 59.61 58.48 58.47 59.01 59.77 60.07 60.48 60.04 60.15 60.41 60.58 61.25 60.93 61.19 61.23 61.15 61.42 61.38 61.79 61.39 61.02 61.09 60.92 60.91 61.23 60.85 62.24
42.69 41.63 42.97 43.30 40.82 34.85 34.04 39.78 47.75 47.31 49.48 49.95 51.50 52.83 54.30 55.71 57.25 58.18 59.26 60.17 60.69 61.01 60.06 59.05 58.58 58.61 59.58 60.05 60.24 59.64 60.05 60.59 60.79 60.86 60.77 60.74 61.18 60.64 60.18 60.33 60.15 59.78 59.69 60.40 61.05 60.73 60.75 60.28 60.16
44.48 42.61 43.21 38.07 36.96 39.74 39.25 39.90 49.21 50.27 51.44 52.09 52.50 53.28 54.38 55.32 57.33 59.33 59.69 59.80 60.10 60.22 60.30 59.55 59.12 58.86 59.51 60.00 60.22 60.26 60.35 59.63 60.65 61.02 61.38 61.82 61.12 61.22 60.27 60.27 59.76 59.73 59.86 60.31 60.59 59.95 59.11 57.88 57.85

GFSSGP_sfc_wetblb_081.txt.gz
Wetbulb
61.63 60.23 59.81 58.04 49.77 49.17 46.35 46.31 49.99 48.99 49.81 53.16 55.23 54.71 54.91 56.61 53.37 52.60 69.40 70.82 71.58 72.18 72.32 72.32 71.84 72.44 73.26 73.42 72.90 72.62 72.88 72.95 72.73 72.29 71.92 72.17 72.31 72.63 72.32 71.94 71.52 71.35 71.35 70.98 70.76 70.22 69.75 69.10 68.78
61.40 58.58 59.07 55.64 47.07 45.77 47.58 49.48 48.05 50.44 52.06 53.69 55.50 55.90 55.08 54.14 60.46 63.42 67.49 70.67 71.31 72.27 72.46 72.84 71.34 72.14 72.72 72.81 72.50 72.53 72.90 72.78 72.36 72.05 72.22 72.34 72.46 72.66 72.07 71.17 70.76 70.76 70.64 70.49 70.19 69.73 69.08 68.36 68.22
61.85 60.63 55.96 52.07 49.11 46.07 47.14 49.49 50.20 52.07 53.15 52.80 54.39 57.93 57.35 56.41 63.42 65.56 70.02 70.27 71.48 71.97 72.54 72.70 70.83 71.19 71.95 72.45 72.24 72.34 72.05 71.90 71.66 71.72 72.34 72.42 72.56 71.87 71.60 70.49 69.96 70.24 70.32 69.94 69.75 69.08 68.01 67.29 67.30
59.29 57.52 54.81 47.15 47.14 49.75 49.15 50.65 51.92 51.76 52.99 54.54 55.13 53.07 59.30 64.53 64.86 67.84 69.99 69.94 70.46 70.96 72.44 70.37 69.61 70.54 71.36 71.99 71.51 71.25 70.64 70.11 70.98 71.41 72.22 72.34 72.32 71.97 71.13 70.19 69.74 70.15 70.35 69.58 68.86 67.82 66.51 66.61 65.97
59.41 55.80 49.20 48.16 48.06 49.68 51.00 51.48 52.52 51.82 52.81 54.12 55.73 53.06 55.17 63.86 67.88 68.18 68.60 69.24 69.09 70.63 71.65 72.50 68.33 69.71 70.09 70.51 69.64 69.01 68.82 68.93 70.03 71.32 71.43 71.55 71.65 70.91 69.87 69.34 69.43 69.10 69.49 69.19 67.72 66.41 65.89 65.85 65.31
53.40 53.83 47.96 46.27 48.20 50.01 51.20 52.37 52.61 53.02 53.82 54.61 54.14 53.95 55.65 65.71 65.49 67.47 68.38 68.52 69.36 69.75 71.16 71.64 68.92 68.32 68.12 67.59 66.50 67.37 67.65 63.46 68.32 69.97 69.60 70.21 70.26 69.69 69.16 68.81 68.65 68.45 68.21 67.83 67.05 66.09 65.49 65.35 64.77
51.99 51.67 48.00 48.31 47.94 48.83 50.38 53.36 53.07 52.64 52.56 53.28 56.70 53.02 57.22 62.21 65.52 67.39 66.64 67.64 68.28 70.02 70.72 71.26 70.85 68.88 66.67 64.97 64.71 66.38 65.88 64.36 67.42 68.21 68.48 68.27 68.35 68.44 68.37 68.17 68.26 67.91 67.12 66.70 66.26 65.56 65.05 64.67 64.03
53.90 52.13 48.02 49.03 47.40 47.54 51.96 51.94 53.95 53.34 52.17 58.59 56.75 51.65 53.92 62.90 65.85 67.05 66.72 66.87 67.34 67.44 68.54 70.25 69.34 68.48 67.71 66.67 65.38 65.38 66.42 66.62 66.73 67.59 67.24 67.12 67.09 67.61 67.49 67.18 67.44 67.29 66.77 66.17 65.54 64.97 64.51 63.61 63.03
55.47 48.09 46.50 48.32 48.46 49.15 52.55 50.68 54.18 55.61 53.94 55.10 57.03 57.79 60.74 63.95 65.83 65.56 65.05 63.03 65.14 63.93 64.47 65.89 67.66 67.62 67.05 67.39 65.38 64.12 64.13 66.33 66.62 67.02 66.56 65.64 66.49 65.76 66.96 66.24 66.69 66.47 65.98 65.28 64.80 64.36 63.41 62.54 62.12
51.35 47.80 48.12 51.75 51.04 49.94 51.16 51.23 52.35 52.06 52.55 53.94 56.34 60.27 63.28 63.45 64.25 63.75 63.73 61.72 62.48 63.63 63.38 64.23 66.21 65.51 65.52 65.77 66.92 67.50 67.53 68.11 67.46 67.64 67.52 66.15 66.39 65.59 66.38 66.42 65.95 65.73 64.89 64.38 64.07 63.28 62.38 61.63 61.08
51.72 47.69 51.04 51.37 51.40 52.06 51.30 51.55 53.15 51.67 50.76 53.26 54.39 55.71 59.59 62.92 63.31 63.27 63.75 63.92 62.92 64.19 64.33 64.36 62.78 65.47 66.11 65.13 65.90 66.18 67.80 68.90 68.73 67.70 66.48 64.45 65.42 65.08 64.26 66.29 66.10 65.74 63.88 62.10 62.11 61.42 60.61 61.00 60.27
48.73 51.21 51.32 51.76 51.75 51.03 50.43 52.36 51.15 52.45 52.93 55.58 56.89 57.97 58.90 61.35 61.92 62.38 62.88 63.87 63.82 63.97 64.09 63.72 63.48 64.34 65.46 65.88 65.20 66.10 66.00 67.17 66.79 67.17 64.83 64.19 63.57 63.09 63.65 64.47 64.70 64.85 62.46 61.50 60.84 60.84 63.01 61.76 60.84
49.58 50.24 51.16 51.89 51.53 51.33 51.81 50.33 50.87 51.55 54.41 55.73 57.24 58.42 59.00 60.39 61.51 62.80 63.69 64.13 64.44 63.98 64.33 64.18 64.45 62.58 63.08 64.30 64.71 63.55 65.89 66.24 66.74 66.11 65.46 63.69 62.36 62.94 62.61 62.92 65.06 63.74 63.34 62.63 61.22 62.08 61.49 61.43 61.19
51.48 50.87 51.11 51.58 51.48 51.33 49.56 49.86 50.87 51.82 54.77 55.45 57.32 58.47 59.74 60.49 61.47 62.60 63.44 63.54 63.69 64.08 64.40 64.28 63.71 63.52 64.09 64.35 64.92 64.20 64.01 65.08 65.19 63.24 63.93 62.64 61.96 61.57 61.17 61.94 62.52 63.99 63.85 63.22 62.44 62.21 61.22 60.86 60.98
51.02 48.02 49.80 50.49 50.93 50.16 51.08 47.86 48.59 52.58 54.27 54.94 57.05 58.94 59.71 60.95 62.25 62.27 63.50 63.68 63.90 64.09 64.50 63.41 64.09 62.69 63.02 62.11 62.20 61.61 61.41 60.66 59.23 59.47 60.24 59.60 60.13 60.92 62.41 61.62 62.27 63.64 64.19 64.54 63.05 62.15 61.05 60.00 60.09
48.06 48.46 44.60 49.99 51.02 51.18 50.07 44.58 50.51 53.12 55.66 54.93 56.54 58.21 59.15 60.93 62.00 63.11 63.86 64.02 64.39 63.73 62.98 63.12 63.13 63.14 62.50 61.86 61.11 60.63 59.42 58.44 58.16 58.04 57.95 58.16 57.97 59.14 58.68 60.48 61.82 63.71 63.61 62.98 61.81 60.33 58.98 59.05 59.24
46.98 42.91 45.35 47.58 50.77 49.81 48.70 46.35 51.87 55.08 54.68 54.50 55.56 57.72 59.08 60.50 61.97 63.20 63.90 63.95 63.65 63.19 62.86 62.26 63.14 62.69 62.40 62.34 61.16 60.12 58.79 57.76 57.78 57.16 56.64 57.23 57.71 57.73 57.76 58.75 60.21 61.69 60.72 60.66 60.53 60.48 60.03 58.35 58.51
40.65 43.33 45.88 46.02 50.17 49.11 48.43 48.44 51.48 53.89 53.41 53.67 54.78 56.65 58.50 59.98 61.39 63.11 63.79 63.80 63.81 63.48 62.72 61.85 62.22 60.70 60.91 59.96 60.46 59.21 58.65 58.01 57.44 57.20 56.06 56.61 56.75 57.52 57.65 57.67 58.13 58.42 57.77 58.58 59.43 59.50 59.93 59.00 58.39
45.99 46.18 46.34 48.88 50.06 48.10 47.94 47.61 49.72 52.45 52.29 52.54 53.68 54.78 57.23 59.22 61.87 63.61 63.77 63.79 63.37 62.65 61.55 60.78 60.41 59.51 59.20 58.82 58.10 57.20 56.10 56.36 55.64 55.46 55.45 55.97 57.22 57.75 57.69 58.31 58.77 58.82 57.09 57.93 59.80 58.97 58.65 57.68 59.11
45.81 44.80 45.57 48.19 49.57 47.36 47.53 47.22 49.68 50.71 50.99 51.96 53.36 54.15 56.40 58.06 60.48 62.59 62.99 63.19 62.51 61.52 61.05 60.13 60.20 59.35 59.06 59.10 58.98 57.83 57.24 56.52 55.99 55.49 54.32 55.49 57.11 57.02 59.54 60.18 59.67 58.70 57.71 59.44 59.29 58.79 57.91 57.64 58.70
45.36 44.61 45.24 45.44 48.65 48.19 47.14 45.85 48.10 50.85 51.65 52.22 53.76 54.98 55.64 57.35 59.07 61.80 61.70 62.42 62.36 61.29 60.52 59.69 59.27 59.13 59.70 59.72 59.25 57.73 56.86 56.46 55.47 55.09 53.83 55.60 57.32 59.06 60.46 60.74 59.78 59.03 61.04 59.83 61.18 61.13 60.32 57.85 58.18
41.92 47.66 46.76 46.06 44.80 40.96 48.47 40.08 47.47 49.38 49.42 50.45 53.28 54.34 55.39 56.34 59.21 61.73 61.70 61.57 61.88 61.60 61.23 59.20 58.87 58.76 59.27 59.90 58.61 56.67 54.85 53.50 55.13 54.74 55.60 56.22 58.32 58.74 59.49 60.28 60.14 60.49 60.58 60.83 60.36 60.81 60.60 59.83 57.03
43.74 47.89 46.91 46.47 44.46 43.92 44.35 41.77 45.25 49.66 48.08 49.85 52.36 53.91 55.28 57.20 58.61 60.89 61.80 61.67 62.14 62.21 61.10 59.44 59.01 58.42 59.40 59.55 58.89 58.55 56.50 55.70 56.26 56.22 55.35 55.31 56.26 57.11 57.82 58.64 59.50 58.89 59.39 61.65 60.90 60.73 59.93 60.36 59.81
47.41 45.71 45.68 45.75 44.17 37.64 42.98 42.82 43.53 46.80 48.77 50.79 52.83 53.68 54.82 56.91 58.53 61.04 62.55 62.31 62.05 62.59 60.92 60.43 59.67 58.88 58.96 59.77 59.19 59.29 57.62 56.75 55.69 54.88 54.76 55.40 55.09 56.20 57.85 58.79 57.81 58.50 58.76 60.38 61.48 61.74 60.81 60.55 60.69
45.34 43.28 37.28 36.05 36.40 35.38 45.08 42.45 44.53 48.77 50.47 51.56 52.04 53.55 54.68 56.46 58.35 59.97 61.25 61.24 61.40 61.23 60.19 59.88 59.92 58.20 59.26 59.06 59.07 59.65 59.97 58.61 56.35 55.25 54.85 54.75 54.50 54.74 56.01 56.68 58.29 58.29 59.03 61.38 62.15 61.41 61.51 61.30 60.58
43.20 42.85 37.73 31.53 34.47 38.26 45.53 39.28 44.61 50.38 52.53 52.90 53.22 54.05 55.47 56.34 58.39 59.23 61.29 61.67 61.35 61.29 60.75 59.92 59.64 59.48 58.70 58.59 58.85 60.24 60.55 59.97 59.49 57.40 56.00 55.95 55.15 54.87 55.57 55.90 56.18 57.40 58.19 59.39 62.40 61.57 61.66 63.22 61.88
41.45 39.08 44.87 38.91 41.60 38.34 41.87 45.52 49.19 50.15 50.09 52.04 52.74 53.90 54.40 55.67 57.08 59.00 60.87 62.00 61.70 61.41 61.13 60.16 60.28 60.62 60.30 59.26 58.95 59.77 61.01 60.47 59.88 59.93 59.84 58.18 57.68 56.94 57.51 57.05 57.37 57.87 59.51 59.30 61.65 61.04 60.46 61.83 59.93
43.46 45.66 37.03 38.83 32.03 31.58 39.06 41.41 42.87 47.13 47.84 50.93 52.19 53.70 54.76 55.89 57.40 59.24 60.48 61.73 62.20 62.28 61.91 61.34 60.35 60.84 61.24 60.91 60.29 60.26 60.44 60.89 61.51 61.45 60.96 60.84 61.34 61.17 60.34 60.34 58.96 58.59 58.26 60.38 60.64 60.68 61.37 61.12 61.32
41.43 40.08 41.39 42.86 40.49 35.33 34.42 39.50 49.54 48.66 48.92 50.20 52.85 53.81 54.79 56.12 57.43 58.98 60.70 61.77 62.53 62.79 62.24 61.47 60.15 60.18 61.16 61.61 61.37 61.63 61.60 61.39 61.55 62.48 62.46 62.19 62.36 61.51 60.49 60.51 59.97 59.82 60.30 61.00 60.73 60.92 61.33 60.85 60.89
45.30 42.44 42.56 36.87 36.63 40.53 39.30 39.10 50.32 50.86 50.83 51.64 53.58 53.62 55.01 55.80 56.90 59.45 60.27 61.48 61.75 62.10 61.96 61.64 60.69 59.87 61.83 62.08 62.22 62.43 62.99 62.48 61.84 61.96 62.78 63.18 62.19 61.79 60.83 61.10 60.62 60.73 60.89 61.41 60.79 60.57 60.47 60.31 60.18

GFSSGP_sfc_wetblb_084.txt.gz
Wetbulb
62.15 59.18 58.45 56.24 48.10 48.20 45.31 46.91 49.47 48.56 49.25 52.97 53.85 53.08 52.63 54.12 51.49 52.80 68.59 70.84 71.67 72.36 71.00 71.44 71.73 72.78 73.14 73.19 72.69 72.53 72.86 73.15 72.73 72.19 72.21 72.44 72.58 72.37 72.06 71.70 71.59 71.86 72.03 71.49 71.07 70.50 70.16 70.07 70.40
59.97 58.41 56.88 53.19 46.63 42.96 45.68 49.08 47.87 50.08 52.38 53.62 53.48 53.47 52.80 51.91 60.15 64.35 67.71 70.29 71.52 72.49 72.60 71.63 71.34 72.34 73.18 73.00 72.43 72.44 72.92 72.98 72.53 72.29 72.32 72.56 72.68 72.39 71.98 71.60 70.96 70.75 71.89 71.02 70.65 70.07 69.58 69.39 69.79
59.75 60.20 52.99 50.74 47.87 44.01 45.94 49.58 50.03 51.85 53.38 52.10 51.90 56.15 55.28 56.77 62.92 65.11 68.99 70.24 71.21 71.87 72.60 72.22 70.66 71.45 72.72 72.54 72.17 71.99 72.35 72.12 72.03 71.45 72.30 72.67 72.72 72.08 71.49 70.96 70.26 70.66 71.59 70.80 70.24 69.50 68.70 68.51 68.09
58.06 56.52 54.20 46.94 44.81 48.05 49.58 50.78 51.74 51.44 52.70 53.11 53.31 51.24 58.26 63.35 63.14 67.42 69.50 69.72 70.32 70.51 72.47 69.36 69.65 70.48 71.59 71.88 72.17 71.60 71.35 70.95 71.25 71.13 71.97 72.64 72.43 72.11 71.00 70.05 69.55 70.15 70.65 70.61 69.59 68.39 67.33 66.97 66.79
57.36 54.71 47.87 46.49 46.97 49.95 51.30 51.61 51.99 50.97 52.17 53.16 54.14 52.07 55.66 63.76 67.68 68.26 68.52 69.09 69.50 70.82 72.55 70.72 68.37 69.79 70.78 71.00 71.10 68.64 67.93 66.71 64.51 68.24 71.17 71.96 71.78 71.04 70.23 69.56 69.36 69.08 69.88 69.51 67.92 66.91 66.62 66.29 65.89
52.09 52.61 45.14 44.28 47.59 50.57 51.58 52.68 51.82 51.92 52.87 54.05 53.39 53.05 56.90 65.53 65.57 67.31 68.66 68.69 70.44 70.85 71.82 71.97 68.88 68.97 68.66 68.31 66.92 65.53 65.05 65.49 64.03 62.99 66.56 70.68 70.84 70.25 69.58 69.10 68.91 68.79 68.70 67.95 67.10 66.58 66.20 65.78 65.39
50.70 48.99 46.00 47.14 47.76 48.82 50.76 53.51 51.59 52.10 52.50 52.10 55.90 52.27 57.87 62.40 66.27 67.65 67.36 68.14 69.31 70.76 70.74 69.57 70.71 68.23 65.98 65.58 65.49 66.20 65.89 64.77 63.94 63.35 62.98 69.32 68.84 68.77 68.65 68.15 68.65 68.24 67.85 67.06 66.23 65.99 65.46 65.21 64.17
51.93 50.10 46.32 47.47 46.67 47.55 51.95 52.50 53.26 52.61 51.83 57.33 56.10 50.09 53.89 62.67 66.24 66.33 66.48 66.85 67.55 67.55 68.45 68.66 69.16 68.67 67.63 65.45 65.24 66.27 65.75 65.36 64.84 64.26 66.12 66.97 67.35 67.31 67.05 67.39 67.46 67.36 67.03 66.18 65.51 65.11 64.57 63.86 63.03
54.01 46.62 44.49 46.61 47.47 49.37 52.47 50.53 53.10 54.71 53.00 53.81 55.41 55.26 57.86 64.53 65.52 64.88 64.24 64.26 64.65 64.09 64.74 67.39 67.27 67.40 66.95 66.46 65.39 65.16 66.38 66.36 65.97 64.84 65.00 65.44 66.45 66.04 66.04 66.69 66.28 66.48 66.04 65.68 65.02 64.29 63.48 62.67 61.95
49.88 46.84 46.74 50.09 51.08 49.92 51.41 51.56 51.49 51.29 51.77 52.34 54.34 57.87 61.82 62.62 63.50 62.70 63.75 63.01 62.26 62.93 62.93 65.28 66.87 65.58 66.59 66.69 65.14 65.55 65.88 66.38 65.96 63.75 65.76 65.78 65.71 65.02 65.02 65.71 65.53 65.57 65.11 64.69 64.29 63.33 62.49 61.37 58.16
49.94 46.96 50.15 50.85 52.04 51.84 50.43 50.92 52.73 50.70 49.27 51.95 52.79 55.56 58.87 61.87 61.89 62.01 62.77 64.16 62.91 63.36 63.93 64.04 64.95 65.80 64.44 64.23 66.06 66.60 66.00 66.33 66.42 65.50 65.17 65.09 65.12 65.03 64.25 64.38 64.39 63.79 63.83 62.17 61.80 60.69 58.89 57.42 57.19
47.63 50.28 50.81 51.56 51.98 51.22 49.57 51.32 50.60 50.94 52.08 55.28 54.70 56.16 57.19 57.03 60.72 61.17 62.04 63.46 63.35 63.46 63.24 63.81 64.15 64.74 65.84 65.33 64.69 65.58 65.60 65.42 65.60 65.40 64.84 64.57 63.75 63.54 62.96 63.19 63.41 62.06 61.04 59.72 58.97 58.14 57.65 57.12 57.44
48.47 49.70 50.94 51.80 51.76 50.95 51.38 49.71 49.72 50.57 54.62 54.48 54.56 56.31 57.03 57.48 59.71 61.87 62.85 64.23 64.06 62.95 63.24 63.67 64.10 63.94 64.21 64.55 64.97 64.52 65.13 65.17 64.93 65.19 64.63 64.13 63.36 62.72 63.45 63.49 62.65 60.90 59.24 58.68 57.28 57.63 57.92 57.44 56.97
50.38 49.99 50.18 51.15 50.87 50.89 49.78 49.52 50.43 50.97 52.83 53.11 54.22 55.62 57.17 58.36 59.74 61.07 62.19 62.61 63.81 63.76 64.17 64.33 63.93 63.96 63.62 63.61 64.00 64.03 64.33 65.27 64.99 64.93 65.20 64.51 63.59 61.66 62.75 62.09 61.89 59.81 58.86 58.12 57.59 58.68 58.31 57.41 57.42
50.49 47.29 49.23 50.07 50.37 49.91 51.34 47.83 47.99 52.05 53.17 51.76 53.76 55.88 58.10 59.24 60.44 60.74 62.60 62.86 63.36 63.38 64.48 63.76 63.59 62.91 62.65 63.51 63.02 62.97 62.93 63.51 64.20 64.43 64.51 63.26 62.90 61.80 61.66 61.25 60.64 60.05 59.98 58.31 59.59 59.30 58.33 57.45 57.88
47.77 47.62 43.18 48.67 49.64 50.32 49.80 43.55 50.12 52.71 52.01 51.19 53.11 55.69 57.81 58.97 60.14 61.75 62.86 63.26 63.60 63.30 63.48 63.59 63.28 62.21 62.30 62.04 61.83 59.90 59.18 59.08 59.52 60.02 63.74 62.30 61.91 61.25 60.34 60.07 60.10 61.50 61.44 59.99 59.48 57.77 56.39 56.31 56.36
45.62 40.62 43.13 45.22 50.12 49.80 49.35 45.86 50.37 52.74 51.98 52.53 54.40 55.17 56.89 58.21 60.12 61.74 63.16 63.29 63.51 63.38 62.87 62.57 62.41 61.82 61.71 61.52 60.67 58.52 58.03 57.74 57.84 58.05 58.23 60.40 59.75 59.67 59.39 59.90 59.90 60.41 59.69 59.66 58.32 57.76 56.07 55.38 55.98
41.01 41.59 43.58 43.71 48.34 49.89 47.48 46.45 49.64 52.19 53.03 53.36 53.81 54.58 55.80 57.70 59.35 62.03 62.98 63.33 63.36 62.93 62.96 62.41 62.15 61.75 61.77 61.18 59.49 58.07 57.50 57.13 56.85 56.55 56.37 57.07 57.60 58.40 57.96 57.73 58.42 58.45 57.88 57.76 57.34 55.80 56.25 55.28 55.24
45.25 43.30 42.71 45.78 49.59 48.75 47.39 46.92 48.73 51.60 52.21 52.50 52.99 53.81 54.34 56.87 60.23 62.47 63.09 63.20 62.90 62.88 61.65 61.03 60.67 60.73 60.53 59.40 57.41 56.55 55.63 55.75 55.14 55.86 56.05 56.18 56.13 56.84 56.92 56.91 57.31 57.49 56.32 56.23 56.58 55.60 54.88 53.81 55.26
44.53 41.72 42.29 46.59 49.06 48.37 46.85 46.13 49.06 50.70 51.00 52.01 52.11 52.63 54.06 55.95 58.27 61.56 62.39 62.48 62.23 61.53 60.92 60.51 60.14 59.91 59.37 59.09 58.34 57.18 56.27 55.83 55.02 55.24 55.14 55.39 55.30 55.94 56.07 56.24 56.09 56.11 55.54 55.73 56.02 55.30 54.14 53.90 55.74
42.66 42.00 42.90 43.17 47.05 48.74 46.92 44.41 46.77 50.07 51.77 52.52 52.77 52.95 54.21 55.18 56.96 60.85 61.56 61.80 61.83 60.62 60.14 60.04 59.38 59.27 59.14 59.13 58.25 57.00 56.32 55.20 53.63 53.34 53.77 54.84 55.52 55.78 55.60 55.94 55.55 55.79 55.45 55.16 55.61 55.36 54.37 53.31 54.30
39.03 45.80 45.25 44.51 43.41 40.08 47.43 37.78 45.61 48.66 49.89 51.61 52.32 52.65 53.57 54.95 57.49 60.77 61.39 61.31 61.33 60.78 60.79 59.70 58.89 58.81 59.08 59.52 57.19 55.86 53.72 51.92 52.92 52.37 53.27 53.67 55.45 55.92 55.22 55.60 56.10 56.77 56.43 56.03 55.47 57.34 55.89 56.51 53.47
41.32 46.37 44.96 44.58 42.87 42.80 42.77 39.95 43.45 48.39 47.22 49.57 51.13 52.15 54.66 55.67 56.58 59.39 61.44 61.57 62.15 61.55 60.05 59.58 58.27 58.79 59.27 59.23 57.22 55.67 54.21 53.25 53.65 52.41 51.62 52.70 55.30 56.83 57.44 57.35 57.47 56.52 58.58 58.06 58.08 57.90 57.32 57.85 56.79
46.39 44.29 43.45 43.84 42.61 36.14 41.54 40.56 41.24 44.92 48.00 49.88 51.84 53.35 54.82 55.32 56.58 58.44 62.24 62.04 61.50 61.46 59.96 58.43 57.72 57.89 59.06 58.91 57.28 56.10 54.84 53.77 53.13 52.21 51.11 52.47 54.47 55.74 56.73 58.06 58.37 58.56 58.07 58.56 58.36 57.96 57.71 57.23 57.14
43.89 40.32 31.92 30.71 33.14 33.28 42.64 40.65 42.77 48.18 50.49 51.50 52.09 53.08 54.87 56.56 57.01 57.92 60.69 60.49 60.67 60.29 59.53 58.19 57.55 56.83 58.20 58.86 58.10 57.16 55.69 54.90 53.94 53.25 52.59 52.50 53.17 53.74 55.27 56.95 57.51 57.61 57.61 59.00 58.66 58.14 58.28 58.21 57.14
41.24 40.45 33.66 28.74 31.42 35.18 42.97 38.17 43.58 50.44 51.85 52.65 53.27 54.92 56.65 55.39 57.60 58.11 60.47 60.68 60.57 60.43 59.26 58.49 57.98 57.42 57.68 58.47 58.25 58.95 57.20 56.07 55.45 55.05 54.39 53.58 53.63 53.67 55.45 56.50 56.79 56.67 57.55 57.87 58.28 57.49 57.41 57.78 57.62
40.04 37.29 43.03 36.44 37.18 34.09 40.63 44.36 48.55 50.15 50.26 51.28 51.77 53.46 53.87 55.25 56.41 57.37 59.91 61.01 60.77 60.41 59.56 58.35 58.53 58.61 57.76 57.76 58.54 58.76 58.56 57.28 56.51 55.78 55.49 54.74 54.69 54.76 54.72 55.96 56.21 56.24 56.87 57.08 57.13 57.74 56.72 57.41 58.00
42.25 44.77 35.11 36.25 29.49 30.08 37.67 40.35 41.65 46.25 47.76 50.23 51.51 53.57 55.14 56.40 56.17 56.81 58.13 60.95 61.22 61.04 60.77 59.19 59.42 59.17 58.52 58.10 58.53 58.59 59.04 58.68 57.89 57.69 56.05 55.07 55.22 55.22 55.06 55.19 55.35 55.75 56.09 56.41 56.48 56.79 57.64 57.15 57.63
39.44 37.75 38.88 39.34 37.42 33.12 32.78 37.52 47.70 47.96 50.04 50.74 52.54 53.60 54.65 56.48 57.57 58.21 58.66 61.44 61.64 61.73 61.19 59.89 59.47 59.21 59.47 58.59 58.23 58.06 58.91 59.66 59.19 58.61 58.04 56.50 55.64 55.68 55.32 55.01 55.26 55.55 55.41 55.87 55.95 55.97 56.02 56.92 56.44
44.08 40.92 39.44 34.83 35.35 37.71 36.07 36.94 49.93 50.99 50.84 51.58 51.81 52.49 54.71 56.18 57.32 59.03 59.67 60.29 61.21 61.39 61.24 60.31 59.57 59.00 60.08 60.07 59.12 58.42 58.76 58.82 59.04 58.85 59.14 58.46 56.75 56.53 56.28 56.08 55.47 55.67 55.81 56.05 55.37 55.24 55.51 55.40 55.73

GFSSGP_sfc_wetblb_087.txt.gz
Wetbulb
59.73 57.42 53.15 49.69 40.89 38.52 35.81 40.66 43.48 43.44 45.36 48.54 51.86 50.45 48.11 49.32 51.77 51.30 66.44 69.41 70.09 69.50 70.70 71.20 71.64 73.01 72.77 72.83 72.70 72.73 73.10 73.00 72.52 72.60 72.66 72.53 72.28 72.04 71.77 71.58 71.30 71.84 72.34 71.71 70.92 70.39 70.70 70.39 70.78
56.11 56.35 50.19 45.71 37.84 33.20 37.85 44.25 42.33 46.99 49.86 51.36 51.65 51.86 50.31 54.04 62.99 64.46 65.24 69.48 70.80 69.61 69.85 70.47 71.22 72.14 72.95 72.40 72.42 72.40 72.98 72.98 72.26 72.50 72.67 72.61 72.40 72.16 71.87 71.53 71.24 71.35 71.79 71.42 71.03 70.81 70.34 70.46 69.80
56.54 56.81 45.40 41.58 37.85 36.21 36.71 44.21 45.59 48.52 50.71 49.65 48.37 50.93 52.62 56.99 62.76 65.06 67.27 69.59 69.75 69.69 70.09 70.36 70.42 71.48 72.62 72.28 72.01 72.17 72.32 72.35 71.92 72.05 72.81 72.84 72.58 72.36 71.91 71.06 70.55 70.79 71.47 70.97 70.93 70.32 70.17 69.64 68.74
53.07 50.31 47.01 39.28 38.12 43.35 44.87 45.48 47.43 49.02 49.38 50.34 49.59 48.77 57.75 62.23 63.56 66.38 68.00 69.67 68.63 69.20 69.61 69.00 69.41 70.64 72.38 72.33 72.21 72.08 71.98 71.43 69.50 68.67 71.17 72.85 72.53 72.28 71.42 70.42 70.12 70.50 71.03 70.83 70.00 69.72 69.39 68.56 68.28
49.16 46.39 39.34 37.24 40.05 45.17 47.85 48.00 49.08 48.45 49.63 50.00 50.91 49.40 56.09 63.52 66.29 66.57 66.52 67.94 67.63 68.48 68.73 68.72 68.63 69.78 71.46 72.30 72.27 71.71 70.67 66.85 64.59 64.24 63.83 67.67 71.54 71.46 70.72 69.90 69.77 69.70 70.12 70.24 69.19 68.64 67.91 67.28 67.08
44.42 45.13 35.90 34.49 41.04 46.30 47.87 48.96 50.52 50.91 50.25 52.28 50.65 50.49 56.17 63.73 64.16 65.20 66.09 66.25 67.11 67.99 68.83 68.56 69.33 69.35 69.79 70.44 70.07 68.61 66.49 66.06 66.62 64.86 63.82 64.91 68.36 70.16 69.86 69.47 69.21 68.91 69.13 68.52 68.04 67.27 67.24 66.24 65.71
42.45 39.95 36.95 38.86 42.02 45.20 47.93 49.05 48.67 49.36 48.91 50.26 52.25 49.60 57.15 60.94 64.44 65.06 64.29 64.50 65.07 65.93 66.87 68.24 68.06 67.60 67.52 66.73 66.27 65.82 66.24 65.81 65.46 64.70 63.19 63.39 64.03 68.37 69.19 69.01 68.88 68.65 68.08 67.68 67.12 66.53 66.12 65.33 64.46
46.24 42.17 38.84 41.94 41.75 42.67 48.06 50.09 51.41 49.63 49.63 55.65 52.76 47.04 52.84 60.52 63.70 63.55 63.30 63.04 62.79 63.17 66.04 67.73 67.16 65.17 62.87 63.68 65.53 65.60 65.62 65.11 64.56 65.14 64.07 63.59 63.61 67.19 67.61 67.67 68.02 67.60 67.36 66.80 66.46 65.69 65.05 64.20 63.31
46.72 39.97 38.26 40.20 42.50 45.16 48.69 46.88 48.26 50.79 49.42 50.28 52.92 51.19 57.33 63.27 63.22 61.81 60.74 60.79 60.61 61.79 61.80 65.60 66.71 65.43 63.79 63.06 64.82 66.15 65.91 65.20 65.13 64.96 64.31 63.29 65.79 66.51 66.22 66.84 66.88 67.08 66.50 65.99 65.46 64.77 63.73 62.79 62.29
43.86 39.32 41.06 45.80 47.19 45.95 48.77 48.60 49.00 47.14 47.92 49.73 51.38 54.99 62.10 62.90 61.67 60.73 60.08 58.94 59.25 59.18 60.77 64.42 65.77 64.75 63.83 65.19 63.60 63.30 64.64 64.86 64.38 62.88 64.71 63.52 65.75 65.43 65.93 65.69 65.78 66.06 65.60 65.15 64.40 63.65 62.82 60.49 57.19
45.21 41.48 45.25 47.07 48.96 48.46 46.93 46.22 47.70 46.54 43.20 47.32 48.54 52.50 59.14 60.27 59.48 59.62 61.25 60.50 59.34 60.58 60.79 63.54 64.28 64.38 64.87 64.21 62.50 63.31 63.51 63.92 63.78 62.86 64.73 64.95 64.86 64.83 64.65 64.57 64.01 63.57 64.07 62.40 61.58 60.95 57.91 56.49 56.79
42.69 46.21 47.11 47.80 49.58 48.69 45.37 46.28 46.02 44.64 48.12 52.02 48.15 51.45 56.16 56.99 58.12 58.63 57.85 60.30 59.99 60.24 61.05 61.43 63.20 62.84 63.71 63.93 63.61 63.20 63.34 63.76 64.80 62.61 64.70 64.12 64.13 63.33 63.78 63.15 62.77 61.83 61.40 59.36 58.55 56.39 55.32 55.05 56.84
44.96 46.19 48.10 48.91 49.19 48.65 48.60 45.95 46.56 47.18 50.93 51.28 51.25 52.04 52.58 53.09 55.76 57.50 59.56 61.00 60.60 60.02 60.63 61.30 61.68 62.09 63.51 62.27 61.57 61.96 62.14 62.84 63.83 64.26 64.43 64.18 63.40 62.63 62.30 63.00 62.20 60.85 59.61 58.39 56.28 55.50 55.04 54.94 56.34
47.80 47.45 47.57 48.27 47.76 48.16 47.34 45.67 45.31 47.61 49.88 50.55 51.08 49.33 52.28 53.17 54.15 56.23 60.19 60.05 60.38 61.25 60.61 60.77 61.41 60.73 60.85 60.59 60.80 60.75 61.95 62.48 62.87 63.87 63.85 63.41 63.05 62.37 61.91 62.75 61.11 59.28 58.71 56.98 55.93 55.35 55.20 54.61 55.51
48.87 44.49 46.36 47.04 46.42 45.76 47.48 43.85 45.27 48.74 50.53 49.22 49.30 50.51 52.80 54.41 54.88 55.76 57.96 60.03 60.16 61.62 61.85 61.22 60.98 61.49 60.98 61.05 60.77 60.99 60.52 61.52 61.96 63.34 63.49 63.46 63.02 62.28 62.15 62.07 60.17 58.35 58.10 56.31 55.83 55.68 55.67 54.67 56.89
44.55 44.24 39.38 45.36 46.61 47.15 43.94 40.44 47.23 49.09 47.92 47.89 47.92 49.64 53.66 54.49 55.32 55.73 58.14 59.65 58.90 61.58 61.54 61.68 62.22 60.35 61.59 60.94 59.43 58.17 58.09 58.07 60.80 62.51 64.10 63.30 63.02 62.06 62.22 61.32 59.75 57.99 58.07 55.54 56.55 57.10 55.98 54.95 54.87
40.43 35.63 38.41 41.52 46.84 46.08 44.88 42.18 47.57 49.43 48.79 48.40 47.85 48.95 51.74 53.26 54.44 56.61 58.64 59.80 59.21 60.84 61.60 60.58 59.76 58.87 59.91 60.45 59.21 58.35 58.17 57.97 58.85 59.40 62.79 62.83 62.86 61.67 61.74 60.88 59.86 58.71 58.10 56.74 57.28 55.01 55.62 54.66 54.70
35.61 36.84 37.41 38.44 44.29 46.31 43.61 42.99 47.26 47.60 47.87 48.50 48.56 49.25 49.78 53.06 53.97 57.07 58.70 60.00 59.10 60.88 60.94 60.20 59.38 59.05 59.79 59.39 57.95 57.67 57.21 56.79 57.23 57.19 60.31 61.72 61.81 61.71 61.32 60.02 59.49 59.35 58.69 57.25 56.78 54.91 54.84 55.34 55.31
42.75 41.08 40.01 41.78 46.44 45.42 44.88 44.88 45.82 46.18 45.96 47.27 47.69 48.34 49.82 52.40 55.35 57.94 59.12 59.14 58.73 58.93 59.75 59.29 58.49 58.05 59.39 57.91 56.28 55.80 54.94 55.28 55.72 56.24 57.54 59.86 59.60 59.32 59.07 58.44 57.88 57.61 57.59 55.93 55.14 54.47 53.97 53.39 53.81
40.67 39.01 38.00 43.10 46.27 45.15 43.70 43.86 44.47 46.08 46.05 46.89 48.93 47.90 49.13 49.23 54.94 57.47 58.23 58.57 58.25 58.34 59.06 58.41 58.29 57.98 58.79 58.11 57.28 56.76 55.63 55.39 55.33 55.57 56.20 57.85 58.37 58.53 58.44 57.70 57.42 57.06 55.91 54.97 53.53 53.06 52.53 52.23 53.60
37.08 36.64 36.89 39.61 43.83 45.43 43.84 41.90 45.05 47.20 47.72 48.54 48.54 48.81 50.23 49.33 54.14 57.24 57.66 57.51 57.15 56.87 57.73 57.72 57.42 57.49 58.62 58.69 57.53 56.38 55.29 54.38 53.72 53.80 54.15 55.92 57.82 58.48 57.49 57.04 57.16 56.20 55.39 54.23 52.83 52.86 52.78 52.05 52.97
34.22 41.48 42.35 41.60 38.91 34.02 43.00 33.58 42.59 45.42 46.23 47.92 49.16 47.73 46.88 48.30 55.36 57.93 57.51 57.01 56.68 56.58 58.05 57.70 57.37 57.56 58.32 58.74 56.58 54.76 53.32 52.38 53.02 53.29 54.02 54.26 55.96 56.65 56.57 56.07 56.05 55.58 55.60 54.09 53.86 54.31 53.47 53.43 51.52
37.34 43.47 42.39 40.94 38.86 38.75 38.83 36.03 40.43 45.71 44.56 46.09 48.27 49.72 47.64 48.33 56.90 57.39 57.68 58.00 57.53 57.15 57.08 57.30 57.58 58.01 58.41 58.15 56.85 55.03 53.48 53.92 52.96 52.92 52.98 53.76 54.04 54.24 54.39 55.25 54.67 54.88 55.12 55.02 54.69 54.57 54.66 54.81 53.17
43.37 41.20 41.74 40.85 38.83 32.68 37.14 36.07 37.06 41.71 44.59 46.92 48.77 49.16 49.36 49.05 56.59 58.21 58.79 58.64 57.53 57.19 56.14 56.30 56.51 57.60 58.51 57.94 56.77 55.27 53.80 52.71 51.37 51.16 51.63 52.40 53.54 53.85 53.83 54.39 54.19 55.43 55.95 55.81 55.02 55.17 55.12 55.96 55.63
42.24 38.55 32.46 30.44 30.54 28.39 39.40 36.05 38.56 44.79 47.65 48.51 48.75 48.88 49.48 50.47 53.50 57.34 57.33 57.63 57.16 56.23 55.58 55.75 56.16 56.97 58.26 57.91 56.63 55.78 54.57 53.33 52.22 50.99 51.40 51.71 52.87 52.64 53.25 54.69 54.11 55.18 56.25 57.18 56.77 56.29 56.28 56.18 56.42
39.45 38.57 32.97 26.09 27.28 31.41 40.30 34.14 39.07 47.25 49.32 50.02 49.58 48.95 49.47 49.91 55.57 57.53 57.75 57.79 57.14 56.15 55.37 55.62 55.74 56.30 57.60 57.79 56.79 56.48 55.46 53.91 53.44 52.21 51.66 52.26 52.91 53.32 53.41 55.34 56.18 55.99 56.28 56.84 57.22 57.34 56.48 57.00 56.30
38.11 35.09 40.52 34.17 35.48 32.40 35.53 40.65 45.74 47.27 48.10 48.47 47.71 48.57 48.30 49.97 55.41 57.20 57.85 57.85 57.40 56.32 55.43 55.14 55.38 55.98 56.98 57.96 57.30 56.61 55.94 54.22 53.80 52.67 52.51 52.56 53.00 53.94 53.69 54.95 56.20 55.91 56.57 56.48 57.04 56.34 55.91 56.35 55.98
39.81 42.65 34.50 34.82 27.32 27.55 34.46 37.08 38.25 44.15 45.15 47.56 47.75 48.33 49.85 49.79 51.38 56.97 57.83 57.73 58.14 57.43 56.55 55.69 55.98 55.90 56.47 57.67 58.09 57.76 56.49 55.35 54.62 53.95 53.36 52.61 52.71 53.91 53.91 54.10 55.59 55.92 56.10 56.22 56.42 56.55 56.15 55.90 55.93
37.21 36.07 38.25 37.58 36.16 31.65 30.31 35.50 45.17 45.01 47.03 47.70 47.52 48.52 50.11 52.11 52.32 51.90 57.97 58.18 58.35 57.89 56.64 56.19 56.30 56.47 56.10 56.37 58.02 58.00 58.05 56.53 55.42 54.72 54.34 53.78 53.37 53.53 53.61 53.51 54.66 55.15 55.16 55.54 55.35 55.33 55.82 55.80 55.61
40.39 37.51 38.90 34.50 31.80 36.20 35.50 35.19 47.64 47.29 48.56 47.75 47.11 48.97 50.45 50.31 52.40 53.18 57.51 57.78 57.61 57.60 56.83 56.18 56.58 56.94 56.66 56.71 56.82 57.37 58.03 58.12 56.91 56.39 55.47 55.36 53.88 53.81 53.54 53.52 53.92 54.71 55.00 55.27 54.87 54.64 54.95 54.81 55.16

GFSSGP_sfc_wetblb_090.txt.gz
Wetbulb
58.26 54.76 51.29 48.50 39.77 36.57 33.51 37.86 42.42 42.93 43.54 47.48 49.82 48.69 48.19 50.79 49.85 46.20 64.61 68.57 69.27 69.47 70.81 72.16 71.91 72.19 72.49 72.44 72.32 72.58 72.64 72.37 72.78 72.59 72.30 72.04 72.00 72.11 71.89 71.65 71.69 71.97 72.47 71.72 71.38 71.31 71.31 70.89 71.10
54.64 54.65 48.45 42.90 35.74 31.12 34.85 41.20 42.17 44.70 48.53 49.54 50.48 50.30 54.08 55.89 62.69 64.01 65.15 68.90 69.24 69.59 70.09 70.92 71.71 71.96 72.35 72.31 72.25 72.58 72.69 72.31 72.70 72.47 72.27 72.10 72.11 71.86 71.89 71.48 71.12 71.55 72.17 71.38 70.35 71.14 70.55 70.60 70.12
54.37 54.91 45.03 38.86 33.86 32.47 35.79 41.92 43.11 46.44 49.23 48.40 47.41 49.43 54.42 56.50 64.13 64.97 66.54 69.32 69.31 68.55 69.43 69.80 70.96 71.56 72.16 71.97 71.93 72.18 72.33 71.99 72.06 72.13 72.22 72.15 72.09 71.95 71.55 71.25 71.21 71.61 71.75 71.37 70.48 70.59 70.03 69.61 69.13
51.37 48.51 45.03 37.67 36.43 40.00 41.26 44.62 46.48 47.18 47.22 48.10 48.11 50.84 57.08 61.81 64.99 65.75 68.44 69.82 68.57 68.16 69.25 69.02 69.48 71.02 72.04 72.02 71.86 71.97 71.89 71.25 71.48 71.82 72.26 72.15 72.15 71.80 71.43 70.64 70.81 71.14 71.16 71.23 70.96 70.60 69.39 68.50 68.12
46.81 43.48 37.22 34.11 37.05 41.34 44.49 46.36 47.29 47.03 47.60 48.23 49.85 48.74 56.41 63.01 65.51 66.68 67.69 68.31 68.17 67.81 68.08 68.58 68.45 70.34 71.85 72.22 72.10 71.62 71.41 69.97 68.55 67.89 67.70 66.73 67.28 69.49 70.51 70.22 70.37 70.28 70.60 70.31 69.91 69.09 68.50 67.89 67.50
42.56 42.16 34.16 32.41 38.72 43.91 45.01 47.84 48.53 49.11 48.81 50.06 48.76 52.91 56.00 63.55 64.07 64.39 65.98 66.83 68.45 67.34 67.43 68.03 69.24 69.63 70.66 71.54 71.38 70.72 68.79 67.08 66.62 65.73 65.37 65.25 65.19 67.76 68.69 69.09 69.77 69.67 69.39 69.05 68.72 68.41 68.16 67.44 65.92
40.83 37.81 34.35 35.56 39.01 42.36 45.99 48.45 46.71 47.95 47.35 48.62 50.61 50.23 57.38 60.35 63.40 64.14 63.89 64.27 65.35 66.98 66.77 68.43 68.79 68.45 68.59 68.75 68.64 67.70 67.31 66.19 65.95 66.00 65.06 65.01 64.79 63.53 65.86 68.08 68.61 68.61 68.39 68.25 67.95 67.29 66.82 65.75 64.67
42.70 39.93 35.83 37.30 38.56 39.77 45.68 48.30 49.84 47.63 48.17 54.78 51.51 51.83 53.76 59.25 63.30 63.04 62.82 62.60 62.65 63.68 64.58 65.23 66.68 65.97 64.46 64.15 66.35 66.04 66.09 65.91 65.62 65.84 64.91 64.33 64.31 63.20 61.61 66.78 67.77 68.18 67.98 67.57 67.16 66.14 65.25 64.50 63.59
44.92 36.67 33.78 38.13 39.54 42.20 46.65 45.80 48.07 48.38 48.34 49.72 51.93 53.08 56.64 62.81 62.45 61.22 60.01 58.89 59.66 60.91 61.86 64.82 63.81 64.38 63.37 62.99 64.56 65.51 65.73 65.60 65.09 64.98 64.16 63.27 62.67 62.80 62.74 66.22 66.85 67.32 66.88 66.51 66.08 65.14 63.95 62.99 63.16
41.66 35.24 38.46 43.09 43.97 43.59 46.97 46.16 48.07 46.55 46.22 47.91 49.93 59.55 62.13 61.87 61.16 59.79 59.03 58.21 57.93 58.58 59.72 63.19 64.26 63.94 63.01 63.68 62.93 63.12 64.25 63.78 63.03 63.43 63.50 62.39 62.05 62.61 64.12 65.93 66.06 66.35 65.84 65.46 65.02 64.12 63.23 60.75 60.10
40.69 40.70 42.78 44.70 45.44 45.62 45.58 45.65 45.81 45.14 42.22 46.69 48.06 56.60 59.85 60.41 59.82 59.18 59.28 59.59 58.78 59.14 59.83 61.96 63.16 64.43 64.36 62.56 61.52 61.20 62.28 63.65 62.74 63.25 63.53 63.76 63.48 65.09 64.97 64.65 64.52 64.09 64.18 62.64 62.10 61.56 57.72 56.15 56.28
40.40 43.87 44.26 45.68 47.17 45.42 44.56 46.88 45.04 44.07 46.98 50.16 47.09 58.55 59.48 58.70 59.08 59.66 59.46 59.18 58.83 58.95 59.80 60.88 62.85 63.71 64.05 64.05 61.89 60.89 61.72 63.78 62.08 63.21 63.10 63.69 64.07 63.52 63.84 63.81 63.55 62.69 61.15 59.09 57.27 56.91 55.35 54.72 55.69
42.36 44.70 46.68 47.18 47.12 46.70 47.26 46.01 46.25 45.61 49.55 49.72 49.90 56.84 58.26 58.46 58.79 59.34 60.13 59.92 59.86 59.19 59.64 59.96 61.18 62.74 61.90 63.60 63.37 61.90 61.48 63.35 62.70 63.14 63.40 64.25 63.85 62.90 63.41 62.83 62.55 61.60 60.19 58.48 55.84 54.46 54.34 53.72 55.23
45.85 45.74 45.98 46.63 46.26 46.55 45.34 45.56 44.05 46.27 48.29 48.91 49.53 48.45 55.22 56.18 56.81 55.26 58.96 59.03 59.70 60.24 59.98 59.87 60.32 60.97 61.50 60.10 60.47 60.56 60.79 62.10 63.40 62.96 63.53 64.11 63.67 63.07 62.71 62.21 61.49 60.49 59.90 58.33 56.17 53.91 52.72 53.05 54.65
46.74 42.81 45.17 45.64 44.44 43.78 45.50 43.60 42.19 47.52 49.08 47.69 48.00 48.29 49.29 51.28 53.10 57.50 59.34 59.31 59.92 60.19 60.63 60.17 59.85 59.87 60.19 60.25 59.65 59.22 59.42 61.93 63.40 63.58 63.81 63.79 63.31 62.70 62.67 61.72 59.89 59.19 58.39 57.29 55.63 53.51 52.62 52.81 54.65
42.68 41.49 36.73 44.12 44.63 44.83 43.68 39.66 45.13 47.33 46.77 46.32 46.64 46.80 48.81 50.90 52.60 57.60 59.74 60.02 60.32 60.23 59.92 60.40 61.17 59.87 58.93 59.31 60.50 60.18 58.32 58.70 62.08 63.50 63.76 63.15 62.64 62.01 62.37 61.42 59.06 58.19 57.21 56.26 55.55 54.10 53.18 52.31 54.04
38.45 34.40 36.99 39.85 44.12 43.33 41.75 40.71 44.29 46.83 46.44 46.08 46.83 45.64 47.53 50.34 51.98 55.65 59.62 59.87 60.21 60.59 60.24 60.07 60.14 58.98 58.50 59.08 59.24 58.42 58.26 57.24 59.18 61.76 63.21 62.71 62.62 61.94 62.26 61.39 59.02 57.10 55.79 54.73 55.55 53.50 54.07 53.22 53.35
33.99 34.37 34.06 34.50 39.57 43.26 41.44 41.05 43.50 46.83 46.16 45.83 47.46 45.36 46.79 50.93 52.35 55.23 58.90 59.64 60.45 60.85 60.91 60.52 59.67 58.14 59.00 58.28 57.86 57.72 57.40 57.22 57.46 57.04 60.96 62.95 62.67 62.27 61.82 61.52 58.98 57.32 54.56 54.80 56.20 54.66 54.01 53.98 54.27
39.12 37.96 36.55 38.85 43.84 41.96 41.65 41.32 43.47 46.17 47.40 46.36 46.19 45.65 46.98 50.64 53.87 56.49 58.58 58.62 60.13 60.25 60.07 59.31 57.88 58.22 58.15 56.70 56.29 55.69 54.99 55.51 56.03 56.13 58.11 61.53 62.40 61.53 61.43 60.01 59.03 57.60 54.05 55.61 56.24 55.38 54.55 53.74 53.40
38.02 35.61 35.83 40.05 43.95 43.05 41.57 40.78 44.17 46.47 46.82 46.37 46.46 46.40 48.42 48.87 51.42 56.09 57.33 57.06 59.02 59.01 59.15 58.29 57.95 58.28 57.83 56.62 57.05 56.65 55.62 55.40 55.38 56.00 57.44 60.68 60.50 61.53 61.14 59.95 58.68 58.28 55.28 55.96 55.53 54.80 52.85 53.13 54.22
35.84 34.50 34.78 36.03 41.76 42.78 39.76 37.81 41.35 46.15 46.90 46.83 47.18 49.11 49.45 48.97 50.92 55.29 56.13 56.28 57.71 57.95 58.03 57.73 57.91 57.47 57.60 57.19 57.10 56.14 55.00 54.47 53.80 54.02 55.67 58.42 59.71 59.68 59.85 59.21 58.13 57.48 56.37 55.21 54.99 54.79 54.17 53.24 51.93
32.95 39.16 38.93 38.67 37.29 31.60 41.97 31.33 39.22 43.21 44.79 47.48 46.29 45.57 47.51 48.09 52.08 55.97 56.20 55.17 56.98 57.53 58.06 57.65 57.49 56.90 57.53 57.31 56.25 54.62 53.42 52.70 53.58 53.73 54.41 56.90 58.54 58.58 58.63 58.43 57.92 57.01 55.69 54.32 54.36 54.97 54.41 54.45 52.10
36.37 40.65 39.20 39.18 37.54 36.35 37.39 34.28 37.02 43.26 42.61 45.74 48.29 47.70 47.23 45.99 52.15 55.43 56.10 56.15 56.69 57.38 57.27 57.15 56.83 56.47 57.19 57.13 56.36 54.71 53.69 54.08 53.81 53.34 53.49 54.22 56.20 57.37 57.78 57.61 57.19 56.44 56.35 54.95 54.24 53.12 53.59 54.05 52.02
42.88 39.66 39.81 39.49 38.23 30.15 35.39 35.14 34.92 39.44 43.26 46.35 48.42 47.78 48.39 47.53 52.54 56.30 57.21 57.01 55.66 56.79 56.45 56.34 55.98 55.68 56.97 56.93 56.24 54.88 53.83 52.85 52.24 52.24 53.00 53.14 53.59 54.06 55.46 55.92 56.54 56.50 55.70 55.00 54.83 54.41 54.03 53.79 53.18
40.53 37.42 30.77 28.73 29.58 26.58 38.45 35.95 36.91 44.03 46.52 47.53 48.12 48.29 48.81 48.91 54.11 55.75 55.48 54.91 55.10 55.26 55.62 56.00 55.74 55.40 56.65 56.66 56.03 55.34 54.56 52.62 52.45 51.81 52.70 52.58 52.76 52.58 53.01 54.36 53.80 55.24 55.67 55.80 55.08 55.11 54.28 54.89 54.41
36.17 37.47 32.73 24.32 25.98 29.01 37.97 32.24 37.04 45.97 48.28 49.53 50.19 49.00 49.03 48.80 55.08 55.85 55.84 55.35 55.01 55.08 55.18 55.72 55.42 55.48 56.63 56.80 55.77 55.69 55.01 52.48 51.86 52.39 52.95 53.11 53.39 53.71 53.80 53.45 52.79 53.24 55.27 55.52 55.59 54.95 55.06 54.28 55.46
36.16 34.11 39.44 33.81 35.06 30.89 32.95 37.92 44.29 47.30 47.65 48.96 48.66 47.37 44.99 50.02 55.04 55.72 56.32 56.01 55.42 54.75 54.98 55.20 55.34 55.77 56.59 56.58 56.21 55.67 55.18 53.24 52.58 52.43 53.12 53.48 53.97 53.92 53.70 53.65 53.45 53.38 54.51 56.14 55.95 54.99 53.36 53.81 54.13
38.75 41.52 34.02 34.71 26.56 26.39 32.36 34.72 37.79 43.08 44.84 46.43 46.51 47.15 46.35 51.58 55.23 56.16 56.68 56.58 56.37 55.65 55.49 55.45 55.51 55.22 56.72 57.08 56.72 56.27 55.84 54.67 54.26 53.23 50.54 51.59 52.66 54.05 53.69 53.79 54.99 55.31 54.90 55.39 55.58 55.68 55.28 54.87 54.98
37.17 36.26 36.13 37.09 34.84 29.09 28.75 35.23 44.55 44.20 46.23 46.10 47.56 48.15 48.15 50.30 53.40 55.99 56.89 57.24 56.72 56.03 55.15 55.04 54.85 54.94 55.33 56.84 56.77 56.53 56.20 55.38 54.41 52.62 51.49 51.09 51.64 52.31 52.55 54.06 54.60 55.70 55.57 55.28 55.19 55.45 55.24 54.77 54.85
40.36 37.93 37.25 33.69 30.82 34.71 34.76 34.06 47.36 46.57 46.92 47.63 47.85 49.08 48.90 47.69 48.86 54.08 56.51 56.87 56.13 55.39 54.90 54.76 54.93 55.02 55.43 56.33 57.09 57.08 56.83 56.07 54.61 53.26 52.64 52.52 51.47 52.09 52.66 52.81 53.46 54.14 54.73 55.60 54.76 54.08 54.62 54.26 54.00

GFSSGP_sfc_wetblb_093.txt.gz
Wetbulb
58.20 52.99 49.35 47.08 39.13 35.63 32.16 36.77 38.97 41.48 42.27 46.29 48.56 47.16 46.74 49.60 47.18 42.81 62.45 67.27 68.69 69.63 71.06 71.34 71.44 72.19 72.45 72.19 72.05 72.22 72.68 72.90 72.73 72.50 72.42 72.52 72.78 72.66 72.55 72.35 72.15 72.47 71.92 71.56 72.08 72.31 71.67 71.37 71.10
52.82 52.44 46.93 41.25 34.55 29.76 32.97 39.39 40.69 43.06 46.69 48.27 49.51 52.71 53.16 53.42 61.31 62.34 64.70 68.40 68.82 69.77 70.98 70.84 71.28 71.88 72.19 72.03 72.18 72.23 72.39 72.48 72.46 72.25 72.38 72.43 72.40 72.31 72.14 71.77 71.65 71.86 71.79 71.78 71.80 71.56 71.29 70.72 70.43
53.43 52.23 44.20 37.76 31.64 30.62 34.19 40.58 41.13 45.46 47.26 46.82 46.25 49.66 55.65 55.37 62.93 63.93 66.10 68.44 68.59 68.83 70.05 70.95 70.85 71.19 71.99 72.03 71.96 72.02 72.01 72.09 72.12 71.96 72.19 72.19 72.14 72.02 71.99 71.24 71.17 71.60 71.93 72.06 71.54 71.25 70.43 69.77 69.00
49.36 47.81 43.53 36.32 33.65 37.21 39.43 42.15 45.06 46.48 47.43 46.48 47.82 49.76 56.52 62.04 64.38 65.61 68.25 68.79 67.75 67.65 68.56 69.15 70.08 70.59 71.61 71.98 71.95 72.20 71.79 71.42 71.46 71.34 71.95 72.02 71.99 71.95 71.54 70.90 71.00 71.40 71.22 71.41 71.54 70.51 69.49 68.47 67.93
45.30 42.61 35.71 32.49 34.82 38.68 42.93 45.26 45.47 45.65 45.96 47.32 48.73 49.66 54.98 62.31 65.14 66.91 68.25 68.70 66.99 66.71 67.40 68.10 68.84 70.33 71.53 72.05 71.87 71.88 71.37 71.01 71.38 71.44 71.13 71.39 71.23 70.82 70.76 70.10 70.27 70.47 70.58 70.51 70.22 69.38 68.80 68.00 67.22
40.97 40.63 33.09 32.00 36.66 40.57 43.55 46.01 46.48 47.19 47.33 48.02 47.33 54.03 56.11 62.53 64.59 65.21 66.77 67.49 67.70 66.77 66.77 67.43 69.18 70.14 70.85 71.22 71.12 70.75 70.50 69.72 69.55 68.88 67.76 68.37 68.55 67.88 67.80 68.10 69.41 69.12 69.38 68.80 68.62 68.18 68.11 67.34 66.60
39.18 36.46 33.68 32.84 35.85 39.70 43.82 46.44 44.67 45.98 45.68 47.42 50.47 51.86 56.26 60.11 62.42 64.51 65.05 66.37 66.50 66.32 65.92 66.28 67.22 68.48 69.56 69.36 69.48 68.84 68.17 67.69 67.23 66.64 67.20 67.86 66.73 66.62 66.88 67.30 68.23 68.28 68.35 68.02 67.77 67.47 67.00 66.35 65.56
41.40 39.11 33.81 35.71 36.66 38.58 44.38 45.86 47.07 45.68 46.26 52.22 56.25 52.03 53.98 59.62 62.86 62.96 63.25 63.44 64.29 65.07 65.13 65.33 66.00 66.25 66.00 65.93 67.74 67.45 66.51 65.76 65.79 65.95 65.68 66.26 66.55 66.89 67.07 66.64 66.77 67.67 67.85 67.93 67.33 66.90 65.62 64.62 64.71
42.14 34.88 32.53 38.12 37.74 40.24 44.37 43.97 44.92 46.74 45.99 49.34 50.83 56.32 56.87 62.04 62.10 60.83 59.46 59.26 59.67 61.26 62.84 63.43 63.27 63.36 63.59 64.83 66.88 66.71 66.10 66.22 66.15 66.13 65.10 64.18 63.36 62.46 64.15 65.53 66.13 66.62 66.84 66.74 66.87 65.80 64.04 63.96 63.72
40.68 33.84 35.73 41.38 42.30 41.96 44.08 44.39 45.70 45.07 45.31 46.76 48.67 58.66 60.88 61.82 60.92 60.07 59.22 58.68 58.10 58.93 60.32 64.52 62.07 61.26 61.94 64.51 64.82 63.46 64.78 64.47 63.77 63.26 63.08 62.42 62.90 62.05 63.02 64.22 64.93 66.46 66.13 65.81 65.50 64.18 63.52 63.01 60.95
40.73 38.90 41.14 43.21 44.46 43.69 42.40 42.97 43.95 43.13 41.89 45.29 46.82 54.24 59.01 60.08 59.63 59.08 58.79 58.38 58.69 58.89 59.55 62.26 62.01 61.20 60.95 61.52 62.31 62.92 62.10 61.29 61.39 61.92 62.56 62.01 61.90 62.31 62.70 63.74 64.76 65.22 65.73 63.98 62.95 60.75 59.57 59.21 59.08
38.71 41.80 45.31 44.52 45.39 42.78 41.87 43.67 42.71 42.07 46.20 48.67 47.81 55.31 58.72 58.58 58.88 58.61 58.52 58.28 57.68 57.70 58.87 60.63 61.81 62.33 61.87 63.04 60.57 60.34 61.35 62.50 61.76 61.73 62.46 62.95 61.66 61.82 63.31 63.57 64.19 63.26 62.83 61.53 61.05 56.89 57.69 56.38 57.00
41.32 42.83 44.66 45.05 45.03 43.74 44.59 43.47 43.51 45.43 48.10 48.90 48.25 57.84 58.24 58.72 59.18 59.61 58.84 58.54 57.90 57.76 58.60 59.91 60.82 61.27 62.33 63.11 61.47 59.84 60.50 62.57 62.42 61.61 62.32 63.66 62.75 61.69 63.24 62.93 63.01 62.40 60.83 59.98 57.83 55.43 55.86 55.90 56.41
43.99 44.55 44.96 45.00 45.03 44.44 43.94 44.25 42.37 45.31 47.18 47.23 47.94 54.69 57.14 58.10 58.93 57.57 57.98 57.95 58.48 59.15 58.93 59.53 60.11 60.04 60.76 60.36 62.60 62.00 61.63 63.15 62.36 61.57 62.95 63.64 62.95 62.63 62.44 62.89 62.33 61.11 60.05 59.15 58.01 54.96 54.21 54.73 55.95
45.16 41.98 43.33 42.68 43.07 42.89 44.47 41.66 40.62 45.96 47.42 45.84 46.33 47.41 54.93 57.44 57.95 57.06 58.44 58.54 59.35 59.65 59.92 59.32 59.84 59.73 60.25 59.49 59.29 61.23 61.66 63.17 62.59 61.52 62.22 63.44 63.37 62.56 62.46 62.27 61.77 60.73 59.79 57.84 56.20 53.15 53.57 54.14 55.56
41.69 40.38 35.05 42.53 43.92 44.61 42.95 38.83 43.82 46.13 45.31 44.79 45.25 45.67 47.35 52.77 55.28 57.40 57.92 59.31 59.82 59.69 59.35 59.52 61.06 59.49 59.57 58.83 58.53 59.27 59.60 62.01 63.03 62.61 63.23 63.31 63.29 62.84 62.45 61.76 60.54 59.32 58.05 56.58 55.14 53.58 52.57 52.84 54.89
36.57 32.51 34.45 38.36 43.71 42.87 40.27 39.59 42.11 44.15 44.47 43.99 44.43 44.86 44.98 44.75 48.87 53.80 57.35 59.38 59.63 59.74 59.54 59.23 59.43 58.93 58.59 57.97 57.59 57.75 58.73 59.78 61.29 62.78 63.26 63.15 62.98 62.73 62.41 61.25 59.79 58.14 57.18 56.12 55.02 51.84 52.97 52.79 54.37
32.16 32.53 30.45 34.06 38.56 41.02 39.48 39.23 40.65 43.74 43.26 43.78 43.25 44.26 43.94 44.61 48.87 53.37 57.90 59.08 59.86 59.59 59.74 59.53 59.25 58.77 58.47 58.43 57.43 56.28 55.88 57.99 57.67 58.93 61.49 62.67 62.66 62.44 62.43 61.16 58.47 56.99 55.57 53.88 54.44 53.15 52.71 52.53 54.68
37.70 35.55 33.86 35.70 41.95 41.08 39.26 38.54 41.84 43.48 44.36 44.24 44.91 45.59 45.67 45.88 48.33 53.22 58.17 58.45 59.45 59.11 59.28 59.40 58.59 58.96 58.87 57.59 55.66 55.60 55.76 55.72 55.72 55.52 56.16 60.68 62.42 61.86 62.13 60.78 58.04 56.97 54.17 54.51 54.93 53.31 53.46 52.90 53.95
35.84 33.80 33.44 37.92 42.10 40.38 38.05 37.99 41.66 43.91 43.49 45.22 45.94 45.98 46.63 47.28 49.26 53.33 57.14 57.30 58.89 59.42 59.81 59.26 58.82 58.66 57.87 57.77 56.39 55.75 55.25 55.76 55.82 56.10 55.92 57.27 61.58 61.96 61.48 61.02 58.33 56.72 53.73 54.29 55.29 53.88 52.30 52.34 55.01
32.09 31.79 32.96 34.54 38.63 39.56 37.76 36.87 39.77 44.76 45.30 46.20 47.03 47.71 47.99 47.90 48.99 53.89 55.84 56.49 58.53 59.04 59.09 58.72 58.57 58.10 57.73 55.81 55.02 54.54 54.40 54.50 54.06 54.38 55.76 57.37 60.41 61.39 61.13 60.58 58.68 57.35 53.81 54.86 55.24 54.15 53.68 52.26 51.08
32.13 37.81 37.36 36.06 34.83 28.79 38.44 28.56 37.76 41.55 42.97 45.18 46.76 46.50 48.04 46.99 50.32 54.61 55.45 55.99 57.70 58.20 58.78 58.06 58.64 57.81 57.19 55.60 54.16 53.98 53.28 51.89 53.53 53.98 54.87 57.35 59.58 60.54 60.68 60.21 58.73 57.48 54.56 55.57 55.43 55.19 54.70 54.21 51.83
35.75 39.95 37.67 36.20 34.51 33.55 34.54 31.18 35.00 40.88 40.40 43.16 45.95 47.76 47.93 48.30 49.61 53.89 55.20 56.10 57.68 57.88 57.73 58.08 57.55 56.98 56.27 55.15 54.77 53.56 52.76 52.63 52.58 53.55 54.17 56.06 57.57 58.71 59.51 59.40 58.93 57.54 55.34 55.55 54.95 54.05 54.52 54.69 53.56
42.19 38.41 37.88 37.45 35.43 28.03 32.37 32.57 32.60 36.98 40.23 43.72 47.03 48.78 49.84 47.21 46.47 54.08 56.09 56.24 56.90 57.26 57.48 57.34 56.30 56.18 56.12 54.95 54.27 53.84 53.61 53.20 52.05 52.74 53.04 53.89 54.89 55.92 57.61 58.22 57.48 56.34 55.19 54.99 54.51 53.62 54.72 54.29 54.03
39.31 35.20 24.22 27.09 27.02 25.29 35.57 32.44 34.64 41.18 43.55 45.63 47.12 48.61 49.80 47.81 45.96 52.67 54.24 54.49 55.55 56.18 56.36 56.41 55.80 55.31 56.14 54.97 54.21 54.58 54.15 53.12 51.05 52.84 53.35 53.03 53.12 54.10 55.20 57.14 55.95 55.27 54.73 55.77 55.29 54.52 54.25 53.95 53.85
35.89 35.84 28.97 22.73 24.33 27.88 35.44 29.15 35.62 44.79 47.20 47.34 48.92 48.27 49.32 48.63 48.13 53.18 54.84 54.48 55.31 55.77 55.94 56.02 55.33 55.17 55.72 55.41 54.19 55.19 54.92 52.55 52.52 52.47 54.07 53.86 53.91 54.42 54.36 55.05 56.30 55.93 56.28 56.02 55.23 54.84 54.37 54.56 53.67
35.19 33.01 39.03 33.31 34.22 29.80 31.79 35.75 42.30 46.40 46.57 47.69 48.07 47.44 45.62 47.51 47.68 53.83 54.97 54.43 55.31 55.25 55.29 55.41 55.51 55.60 55.41 55.22 54.85 55.28 55.08 53.83 51.76 52.18 54.09 53.30 53.78 54.30 53.60 53.89 53.72 55.27 55.42 55.70 55.51 54.52 53.93 53.93 54.14
37.83 40.72 33.16 34.29 26.69 25.93 30.31 31.67 35.94 41.67 43.50 45.88 46.39 45.20 45.41 47.85 50.90 54.43 54.95 54.70 55.46 55.54 55.57 55.43 55.53 55.37 55.50 55.45 55.46 54.62 53.85 53.47 52.41 51.49 52.16 51.82 52.15 52.90 52.49 52.72 52.52 52.88 54.22 55.11 55.45 55.41 54.59 53.99 54.05
35.65 35.17 35.66 36.01 34.22 28.83 27.41 32.66 44.84 43.37 44.37 45.15 46.34 47.37 47.06 46.64 52.14 54.06 55.15 55.07 55.11 55.38 55.15 55.03 55.03 55.37 55.57 55.70 55.40 54.74 54.03 53.07 52.58 51.80 51.18 51.30 51.88 52.39 52.44 52.87 52.86 52.57 52.54 53.68 54.09 54.30 54.65 53.89 53.52
38.54 36.50 37.14 31.26 31.36 33.42 33.49 31.06 46.85 46.30 45.96 45.42 46.47 48.16 48.41 48.88 50.41 54.35 55.52 55.48 54.62 54.46 54.44 54.44 54.64 54.82 55.81 55.89 55.67 55.18 55.07 54.32 53.17 52.41 51.16 50.58 51.21 51.79 52.21 52.69 52.88 53.19 53.54 53.31 53.17 53.38 54.27 53.44 52.84

GFSSGP_sfc_wetblb_096.txt.gz
Wetbulb
59.35 50.45 48.20 45.98 38.50 35.03 31.18 35.75 37.44 39.52 40.44 44.47 46.85 46.60 45.65 48.05 48.99 42.04 60.23 66.71 68.20 68.52 70.06 70.82 71.49 72.10 72.14 72.12 72.15 72.28 72.78 73.17 73.55 73.30 73.15 73.08 72.98 72.84 72.74 72.72 72.42 72.46 72.93 72.67 73.13 72.68 72.43 71.59 71.28
53.66 49.98 45.86 40.38 33.96 28.69 31.63 37.25 39.08 41.83 45.09 47.20 50.75 52.87 50.22 50.47 59.70 60.66 63.64 66.81 68.45 68.83 70.09 70.28 71.33 71.84 72.18 72.08 72.09 72.42 72.72 72.95 73.00 73.02 73.15 73.03 72.96 72.69 72.73 72.36 71.84 71.89 72.56 72.56 71.92 71.95 71.82 71.14 70.61
52.27 50.35 43.01 37.15 30.33 29.92 32.27 39.31 40.91 43.59 46.21 45.52 44.21 48.55 53.23 53.11 61.39 62.05 65.35 67.94 68.36 68.78 69.92 69.79 70.88 71.19 71.88 71.85 71.86 72.08 72.24 72.23 72.18 72.26 72.85 72.83 72.91 72.59 72.41 71.94 71.33 71.25 71.89 72.46 71.73 71.28 71.19 70.37 69.56
48.59 46.20 41.79 35.23 31.70 35.58 37.27 41.69 42.96 45.23 45.93 45.89 46.05 46.83 54.99 60.96 62.84 64.54 67.26 68.00 67.58 67.40 69.59 69.69 69.83 70.77 71.64 71.94 71.98 71.92 71.91 71.53 71.52 71.85 72.30 72.52 72.34 72.54 71.95 71.09 71.05 71.29 71.37 71.74 71.37 70.73 70.18 69.06 68.56
44.13 41.51 34.45 30.99 32.68 37.10 40.95 43.23 44.21 44.43 44.63 46.16 48.97 47.73 52.42 60.50 64.31 66.46 67.08 67.39 66.40 66.25 66.93 68.50 68.93 70.05 71.37 71.92 72.05 71.79 71.48 71.08 71.19 71.34 71.18 70.98 69.64 69.21 69.73 69.75 69.83 69.61 70.35 70.77 70.44 69.91 69.06 68.30 67.79
40.26 39.51 32.01 31.34 33.54 38.43 41.27 44.37 45.15 46.04 46.06 46.78 45.81 50.66 53.92 61.37 64.17 65.68 67.16 66.42 66.46 65.83 66.39 67.02 69.68 70.08 70.55 71.01 71.12 70.66 69.85 70.28 70.66 70.72 70.58 69.88 68.45 68.16 68.71 69.28 68.25 68.63 68.68 69.00 69.49 68.86 68.23 67.54 67.10
37.22 35.89 32.75 31.43 34.28 37.18 40.97 44.64 43.35 44.75 44.26 44.98 49.79 50.20 54.38 59.61 62.85 65.23 65.76 65.78 65.72 65.58 65.67 66.00 67.15 69.25 69.90 69.23 69.52 69.05 69.31 69.56 69.39 68.83 69.10 68.40 67.99 67.61 67.94 67.87 67.60 67.37 68.22 68.48 68.79 68.08 67.37 66.79 66.01
40.26 38.07 31.97 33.91 37.75 35.91 43.11 44.32 45.48 44.30 44.31 50.75 53.76 49.29 50.68 59.22 62.91 63.38 64.22 64.30 64.26 64.28 64.59 64.87 65.57 66.32 66.94 67.39 67.98 68.23 67.96 67.60 67.11 67.42 67.49 65.98 65.73 66.23 65.68 65.63 66.43 67.23 67.64 67.86 68.23 67.28 66.57 65.77 64.75
40.30 33.65 30.47 34.73 35.52 38.08 42.33 41.61 43.15 45.01 43.61 45.56 50.22 52.12 55.66 61.44 62.36 61.35 60.54 62.63 63.62 63.46 63.20 63.54 63.96 63.76 63.72 64.82 67.49 67.74 67.02 66.23 65.97 66.12 66.08 64.68 64.07 64.36 64.40 64.71 65.65 67.27 66.82 66.78 67.41 66.37 65.33 64.49 63.71
38.75 32.28 34.08 39.43 40.01 40.18 42.42 42.39 43.92 43.45 42.80 44.49 46.58 56.87 60.37 61.52 61.63 61.18 60.43 61.47 62.13 62.43 62.03 64.22 61.98 61.86 62.29 64.34 66.40 66.09 65.74 65.65 65.25 64.78 64.43 64.02 63.18 62.03 64.33 64.91 65.99 66.34 66.25 66.36 66.08 64.84 64.51 63.25 61.36
39.78 37.05 38.66 41.15 42.20 42.30 40.51 41.99 44.17 41.10 40.89 43.69 44.55 46.55 57.53 59.35 59.99 60.29 60.67 60.96 61.38 60.98 60.05 64.21 61.90 60.73 61.16 62.03 64.12 64.54 65.20 64.17 63.81 63.53 63.52 63.05 62.64 62.59 61.85 62.80 64.03 64.72 65.54 65.03 64.16 62.60 61.94 60.39 59.72
37.14 40.23 42.49 42.07 43.73 42.25 41.52 41.63 41.21 41.51 44.87 47.74 46.19 47.04 57.70 57.91 59.33 59.53 59.78 59.32 57.89 57.76 59.83 62.67 62.84 60.39 59.97 60.14 61.46 63.10 63.01 62.12 61.78 61.68 61.82 61.84 61.75 61.79 61.60 62.01 62.69 63.90 64.48 63.65 60.76 59.94 59.36 58.86 57.46
39.66 40.92 42.85 44.05 44.06 43.06 43.67 42.06 42.35 42.26 46.49 48.10 46.69 52.17 56.36 58.16 59.14 59.86 59.92 58.71 57.22 56.77 58.25 60.19 62.76 62.60 61.31 60.35 60.07 61.23 61.88 62.08 61.48 60.62 61.28 62.08 61.27 60.91 61.70 61.85 62.86 62.91 63.99 62.89 58.42 57.60 57.36 57.09 56.62
41.82 42.44 43.46 43.99 44.17 44.13 43.19 43.77 41.17 42.75 45.60 46.17 46.18 47.88 53.83 57.38 58.34 58.12 56.87 57.62 57.41 58.20 57.76 58.74 62.22 62.57 62.45 61.48 60.03 59.83 60.30 62.19 62.15 61.97 62.07 62.01 62.83 62.03 61.83 62.15 62.41 61.66 62.19 60.89 57.87 56.86 56.43 56.35 56.50
42.37 38.32 40.45 41.12 42.16 41.76 42.61 39.80 39.22 45.08 46.20 44.91 45.42 45.06 50.03 56.12 57.19 58.03 58.53 58.46 58.77 58.85 58.60 58.32 59.83 59.95 60.80 59.53 60.15 61.01 61.72 62.44 61.95 61.88 62.00 63.41 62.81 61.72 61.78 61.62 61.39 60.99 60.71 59.96 57.21 55.62 55.52 54.91 55.80
39.14 38.32 33.57 40.70 42.22 43.64 42.95 37.26 43.35 45.24 43.58 43.12 43.51 43.94 45.63 52.62 56.20 57.90 58.52 58.97 58.52 58.65 58.40 58.95 60.81 60.21 59.19 58.63 58.63 59.11 61.70 63.04 62.64 62.01 61.91 62.95 62.33 61.99 62.14 61.70 61.03 60.61 59.28 57.61 55.42 54.88 54.71 54.83 54.82
34.96 30.22 33.15 36.56 41.98 41.45 39.55 37.76 40.48 42.84 42.72 42.82 42.43 42.67 42.53 43.83 49.69 55.40 57.66 57.08 58.55 59.11 58.86 58.37 60.21 60.29 58.65 57.62 56.96 57.14 58.22 61.97 62.94 62.25 62.26 62.75 62.89 61.91 61.58 61.88 60.81 59.30 58.21 56.73 55.41 52.99 54.43 54.13 54.16
30.27 31.39 29.74 32.90 38.13 39.83 37.91 38.26 40.17 43.32 42.15 42.41 43.39 43.44 43.40 43.19 43.87 48.22 54.41 56.83 58.62 59.11 59.29 58.71 59.98 58.93 57.62 57.80 57.10 56.94 57.14 57.26 59.27 62.13 62.56 62.61 62.96 62.57 62.06 61.64 59.58 59.28 57.24 55.67 55.02 52.90 53.92 54.75 54.61
35.38 34.15 32.90 34.50 40.52 39.68 37.97 38.04 39.20 42.25 42.42 41.21 42.95 43.00 43.93 45.11 46.59 46.24 49.83 54.59 57.71 58.37 58.39 58.46 59.10 59.10 59.36 58.30 57.60 56.84 56.82 56.70 55.51 55.71 59.66 61.97 62.80 62.33 62.27 60.88 58.30 58.46 57.22 55.72 54.79 53.03 53.09 53.97 55.45
33.63 31.75 30.82 35.29 39.67 38.97 36.43 37.48 40.38 41.01 42.32 43.90 44.31 45.30 44.11 43.88 45.64 46.58 49.83 56.39 57.83 57.75 58.54 58.37 59.17 59.17 59.56 59.07 58.25 56.24 56.75 55.76 53.85 54.11 56.44 57.28 60.13 62.13 62.04 60.40 58.37 57.49 56.12 55.08 53.48 53.70 52.84 53.24 55.44
30.31 29.34 29.83 31.58 36.04 36.83 35.72 34.10 37.45 42.21 43.77 44.36 45.14 46.03 45.64 45.84 45.87 47.18 52.92 56.03 57.60 57.30 58.11 58.56 59.00 59.10 59.20 58.46 56.61 55.34 54.95 54.47 53.49 54.18 53.28 54.39 56.94 60.41 61.88 60.09 58.68 57.35 55.88 54.75 54.20 53.86 53.84 52.84 53.95
29.28 35.66 35.29 34.26 31.72 26.20 36.00 25.83 35.16 38.55 40.47 42.39 44.46 44.84 45.81 45.98 46.30 47.63 52.88 55.43 57.21 57.69 58.83 59.04 58.99 58.75 58.42 57.19 55.58 54.00 53.72 51.79 52.16 52.13 53.75 56.44 55.94 59.56 60.60 60.37 58.68 57.83 56.10 55.40 55.16 54.32 54.08 54.19 52.90
34.65 39.13 36.82 35.45 30.89 31.83 32.92 28.53 30.63 37.82 36.66 40.00 43.50 45.41 45.04 46.05 46.20 49.30 53.72 55.72 57.34 58.06 59.08 59.19 58.64 58.39 57.77 56.04 54.73 53.33 50.61 53.47 54.06 51.95 54.42 56.34 57.16 57.90 60.71 60.04 58.86 57.47 55.03 55.61 55.67 54.08 54.00 54.78 54.25
40.95 37.02 36.27 35.83 33.51 25.40 30.84 29.86 28.86 32.65 36.91 40.18 43.84 45.94 46.87 46.91 46.23 50.33 54.94 55.64 56.44 58.88 58.60 58.30 57.97 57.67 56.77 55.92 53.78 52.74 51.27 52.38 52.04 53.04 53.70 55.20 56.80 58.12 59.45 59.68 58.95 57.95 55.15 55.05 55.38 54.84 54.50 54.74 54.19
38.03 32.51 21.40 24.08 26.02 23.24 32.96 30.35 32.19 38.78 41.92 43.35 44.41 45.30 45.83 46.39 45.90 46.91 53.00 54.49 55.92 57.35 57.36 57.45 56.95 56.41 56.20 55.44 53.56 52.54 52.43 52.21 52.93 52.85 53.81 53.79 54.37 55.37 57.32 58.52 58.04 57.38 55.62 55.78 55.36 54.75 54.71 54.33 54.22
34.90 32.60 24.38 21.89 23.65 26.79 33.92 28.18 32.76 43.00 46.34 47.75 47.87 46.26 45.47 44.71 45.44 45.47 51.90 54.63 55.56 56.62 57.07 56.92 56.06 55.96 55.82 55.40 53.66 52.98 52.31 52.09 53.26 51.70 54.26 54.45 54.86 55.18 56.88 57.20 56.40 56.02 55.38 55.84 55.44 54.46 54.77 54.74 54.39
34.25 31.83 36.84 32.18 30.63 28.34 30.12 33.63 38.73 44.89 44.96 45.81 45.88 47.23 47.44 47.68 46.32 46.11 51.43 54.49 55.07 56.22 56.40 56.51 55.63 56.12 55.83 55.28 54.07 52.84 52.81 51.85 51.89 51.39 52.14 54.65 54.87 55.30 54.43 55.96 55.19 54.16 54.71 55.34 55.21 54.71 54.06 54.81 54.49
36.31 39.80 31.88 33.16 24.93 22.15 28.03 29.53 32.31 40.72 42.63 44.03 44.09 45.05 47.18 48.63 48.41 49.56 52.12 54.25 55.22 55.99 56.64 56.69 56.28 55.68 55.82 55.95 54.69 53.59 53.01 52.64 51.51 51.81 51.54 51.93 54.36 54.63 54.30 54.00 54.30 54.71 54.04 55.50 55.13 54.49 54.55 53.71 54.03
33.84 33.29 34.76 35.82 33.31 28.44 25.28 28.15 44.67 43.44 44.01 43.21 44.53 45.50 47.24 49.02 49.06 52.95 53.87 54.69 55.29 55.99 55.69 55.36 55.26 55.46 55.38 55.52 55.52 53.34 52.22 52.38 51.52 50.98 50.81 51.23 51.48 52.05 53.47 53.71 53.58 54.06 54.48 55.30 55.13 54.81 54.49 53.29 53.40
37.55 35.15 35.56 31.21 29.20 32.89 32.32 29.30 44.89 45.72 46.46 45.83 44.82 46.24 48.82 50.37 53.28 53.74 53.78 54.22 53.87 54.57 54.63 54.30 55.01 55.36 55.48 55.76 55.36 54.97 53.02 51.93 50.96 50.51 50.25 50.57 51.14 51.41 51.78 52.36 52.72 52.76 53.11 54.10 54.79 54.69 55.24 54.53 53.46

GFSSGP_sfc_wetblb_099.txt.gz
Wetbulb
61.47 55.30 54.10 52.90 46.06 45.55 41.37 42.94 44.72 44.89 46.12 49.38 51.05 51.45 53.00 54.57 54.85 50.12 64.75 69.96 70.42 71.03 71.83 71.88 71.21 72.12 72.40 72.20 72.27 72.87 73.74 74.02 73.65 73.49 73.54 73.44 73.30 73.15 72.77 72.82 72.81 72.95 73.40 73.42 72.92 72.63 72.65 71.98 71.57
57.87 52.65 52.25 48.74 42.87 39.21 41.01 44.11 44.38 47.18 49.16 50.39 53.95 56.32 55.08 53.05 60.66 61.90 66.19 69.77 70.72 71.24 71.40 71.95 71.32 71.59 72.19 71.79 71.99 72.76 73.46 73.66 73.56 73.39 73.44 73.35 73.36 73.09 72.96 72.74 72.50 72.67 73.00 73.67 72.72 72.42 72.08 71.60 71.01
55.61 53.43 49.99 46.89 41.75 39.24 40.42 43.64 47.79 48.57 49.91 49.40 50.17 54.00 56.12 56.29 63.26 63.53 68.61 70.07 70.56 70.63 71.21 71.85 70.92 71.25 71.82 71.81 71.80 72.27 72.76 71.94 72.96 73.05 73.42 73.40 73.23 73.09 72.74 71.61 71.02 72.10 72.68 72.75 72.57 72.08 71.65 70.82 70.04
54.08 53.29 48.33 42.76 40.18 42.47 43.09 46.94 48.11 48.38 49.62 50.03 50.60 50.16 58.58 63.43 64.92 66.91 69.26 70.39 70.58 70.40 71.23 70.55 69.94 70.81 71.60 71.87 72.06 72.09 72.06 71.67 71.28 72.37 72.97 73.20 73.01 72.94 72.05 70.31 70.10 71.85 72.11 72.21 71.93 71.36 70.77 69.69 68.92
51.33 48.89 42.52 40.37 40.47 42.85 45.65 46.80 48.25 48.15 48.96 49.67 52.18 50.38 56.37 64.03 66.73 68.15 69.39 70.10 70.28 70.42 70.45 70.72 69.02 70.41 71.35 71.83 72.13 71.80 71.38 71.27 71.49 71.93 72.30 72.08 70.89 70.64 68.93 68.28 69.12 69.96 70.62 71.09 70.67 70.27 69.58 68.90 68.37
46.83 47.05 40.10 37.72 40.58 42.83 46.14 48.42 48.38 48.26 49.66 49.98 49.59 51.57 56.81 64.34 66.77 68.44 69.68 69.98 70.66 70.40 71.14 71.60 70.05 70.09 70.74 71.01 70.96 70.68 70.63 70.67 70.56 70.90 70.61 70.32 70.08 69.21 68.61 68.57 69.12 69.38 69.17 69.14 69.16 68.90 68.44 68.37 67.88
45.86 43.96 40.01 39.68 40.21 41.61 44.56 49.28 47.53 48.46 48.26 48.73 51.88 50.63 57.82 62.71 67.12 68.94 69.37 69.92 69.82 70.15 70.27 71.24 72.05 71.02 69.58 69.42 69.33 69.10 69.28 69.80 69.69 69.45 69.20 69.12 68.49 68.11 68.18 68.52 69.06 68.99 68.37 68.83 68.52 68.53 67.46 67.75 66.90
45.96 45.75 39.57 40.50 40.49 41.26 46.73 47.90 49.58 48.64 48.10 53.11 57.28 51.43 53.47 61.61 66.96 68.58 69.14 69.28 69.25 69.13 69.94 69.87 71.61 72.17 72.09 72.25 68.46 68.39 68.84 68.77 68.90 68.45 67.84 67.66 67.34 67.60 67.86 68.28 68.01 67.81 68.00 68.27 67.72 67.35 66.64 66.46 65.66
46.16 40.73 38.43 40.05 40.97 43.02 47.21 46.07 48.80 49.97 48.85 49.69 52.53 55.95 60.05 63.54 66.47 66.93 65.61 66.04 66.93 67.53 69.11 69.56 69.89 70.63 71.50 71.98 70.64 68.82 68.57 68.09 67.51 68.00 67.53 66.59 68.43 68.04 68.43 66.75 66.75 67.48 67.22 67.26 67.41 66.79 65.61 64.63 64.41
44.68 40.25 40.32 43.60 45.24 44.62 46.40 46.12 47.36 47.68 47.64 48.69 49.81 59.03 62.14 63.89 65.32 65.08 64.35 64.32 64.95 66.01 66.95 68.92 69.08 69.21 69.62 69.48 69.12 69.18 68.47 66.93 66.75 68.17 68.30 69.06 67.66 67.62 66.52 65.37 64.99 66.31 66.38 66.85 66.93 65.74 64.69 64.70 65.05
44.18 40.75 42.30 43.65 46.03 46.34 45.95 46.10 47.78 47.14 45.89 48.99 49.12 50.37 59.70 62.69 64.24 64.55 64.99 65.26 65.17 65.53 65.57 66.96 67.14 68.26 68.16 67.16 66.97 66.90 66.86 66.25 65.73 66.70 66.41 65.79 64.79 65.20 65.79 66.41 66.42 67.41 66.11 65.90 65.56 64.66 66.00 66.25 65.79
41.83 43.65 44.99 45.52 46.80 46.51 45.45 47.90 46.49 47.57 48.50 51.81 51.62 50.86 55.96 60.03 62.69 63.87 64.34 65.01 64.98 64.46 65.59 65.09 65.70 66.84 67.33 67.40 65.12 65.79 66.23 66.79 65.05 64.85 64.88 64.22 64.18 64.01 64.19 65.70 66.25 65.92 66.24 64.38 63.70 64.69 66.00 64.81 64.53
42.58 44.00 45.24 46.49 47.12 46.55 47.20 45.67 45.83 47.24 49.53 51.43 50.58 50.20 52.70 56.23 60.31 63.70 64.99 65.19 65.03 64.04 65.49 65.41 64.84 65.76 66.56 66.25 66.48 66.47 65.81 65.22 64.55 63.93 64.08 64.35 64.45 64.61 65.50 64.83 64.28 64.04 64.89 62.71 61.58 61.35 61.65 62.64 63.17
44.00 44.54 45.11 46.23 46.55 46.74 45.14 45.98 46.00 47.27 49.92 49.11 49.59 50.46 51.86 55.16 58.54 61.64 63.12 63.48 63.50 64.05 64.39 65.44 63.95 64.64 65.50 65.58 65.92 65.63 65.86 64.94 63.96 63.50 63.82 64.53 63.53 63.34 62.72 63.57 62.48 63.52 64.16 62.07 60.37 60.40 61.56 62.07 62.89
43.75 40.81 42.48 42.61 44.52 44.37 46.05 43.18 43.56 48.84 50.06 48.93 49.75 50.01 50.94 52.11 57.17 60.00 61.92 62.89 63.79 64.25 63.94 63.70 63.60 64.17 63.91 63.78 65.08 64.96 65.03 64.84 63.26 63.15 63.80 64.17 63.95 64.11 63.33 62.12 61.74 62.59 63.13 59.83 59.80 59.37 59.41 61.48 61.86
42.75 42.35 38.50 43.73 44.05 44.97 44.81 39.64 46.45 49.29 47.86 47.86 48.61 48.77 49.20 50.98 55.09 59.10 61.58 62.60 63.54 63.90 62.51 62.90 63.97 62.62 62.73 62.70 64.33 64.28 63.66 63.60 63.91 64.22 65.00 64.06 65.18 64.39 63.43 61.85 61.92 61.89 60.47 58.58 58.07 57.97 57.17 58.94 60.06
38.75 35.99 36.81 39.95 44.70 44.57 43.44 41.41 46.14 47.49 46.99 47.09 48.58 49.06 48.81 50.27 51.41 54.00 60.13 62.35 63.05 63.17 62.93 62.21 63.69 62.20 62.49 64.50 64.68 64.59 63.31 62.69 62.80 64.09 63.58 63.91 63.77 64.87 63.69 63.13 61.69 60.83 58.70 57.75 57.16 57.04 57.36 57.10 59.18
33.78 35.15 37.32 37.95 42.74 43.50 42.67 41.94 45.11 47.39 47.48 48.00 49.20 50.25 50.80 50.86 52.16 54.15 54.14 59.15 62.31 63.04 63.13 62.95 63.10 62.39 62.11 63.59 63.62 63.37 62.62 62.24 63.31 63.77 63.48 63.50 64.26 63.98 63.39 62.25 61.35 60.17 58.20 56.30 56.52 56.10 57.09 57.35 59.02
38.32 37.15 36.60 39.27 43.54 41.80 42.03 42.25 44.51 46.55 47.55 47.29 47.89 48.92 50.19 51.62 53.90 54.32 54.67 54.98 59.72 62.02 62.10 62.24 62.33 60.95 60.75 61.27 59.80 59.78 60.04 61.27 61.32 61.54 63.43 63.11 63.42 62.77 62.45 61.18 60.37 60.61 58.22 56.75 55.98 56.24 55.94 57.16 58.66
37.25 35.18 34.96 38.11 40.83 40.37 40.13 39.67 43.39 44.92 45.90 47.35 47.73 48.67 49.02 50.83 52.29 52.87 53.37 53.91 57.39 60.23 61.84 61.90 62.02 60.48 61.52 61.47 61.31 60.94 59.88 59.42 60.38 60.58 59.87 62.31 63.91 63.16 62.16 60.62 59.81 59.42 59.08 57.26 55.69 56.04 55.81 57.14 57.38
34.82 34.01 33.79 34.36 37.83 40.23 38.72 37.39 40.26 43.41 44.58 45.83 47.36 48.91 49.95 50.46 51.24 53.05 53.38 54.67 57.43 59.28 60.92 61.32 62.11 60.94 61.81 61.30 60.33 58.34 57.35 56.89 56.78 57.84 59.15 58.78 60.08 61.44 62.91 60.92 60.31 59.30 58.26 56.82 56.48 56.38 56.81 55.10 57.43
31.70 36.79 36.04 35.43 35.17 30.84 39.42 29.99 38.18 41.46 42.21 44.29 46.17 47.72 48.78 50.24 51.26 52.54 53.82 55.03 57.53 59.49 61.28 61.71 62.11 60.99 61.09 60.58 58.66 58.05 57.49 55.61 55.85 58.08 58.48 59.96 60.23 61.63 61.14 61.35 59.99 58.82 58.30 56.67 56.20 56.66 57.27 56.79 55.80
35.64 40.62 37.92 37.70 35.87 34.78 35.13 31.72 35.77 40.97 40.35 43.39 45.93 48.32 49.97 50.45 50.85 51.75 53.29 54.98 58.30 59.96 60.51 61.50 61.65 60.79 60.42 59.44 59.46 57.81 56.46 56.90 58.09 58.04 58.32 59.37 59.73 60.27 61.68 60.90 59.88 58.23 57.81 57.17 55.88 55.25 57.29 57.16 56.84
42.27 39.18 38.24 38.31 36.15 28.10 33.39 32.96 34.01 38.06 40.31 43.87 47.45 49.68 49.75 50.36 51.54 52.44 54.11 55.84 58.38 60.16 60.58 61.05 60.44 59.79 59.57 58.43 57.97 56.65 56.61 57.53 56.58 55.91 57.09 57.77 58.04 59.02 60.70 61.20 60.81 58.35 58.05 57.83 56.65 56.56 55.31 55.64 56.39
39.62 34.88 28.10 26.27 26.56 26.48 34.94 32.21 35.50 41.25 44.38 47.00 46.81 48.52 50.57 51.97 52.08 51.38 52.27 56.09 58.34 58.97 59.99 60.64 59.99 58.15 58.30 58.42 56.52 56.55 58.35 57.77 55.77 56.25 56.95 56.49 56.33 57.45 59.36 60.04 60.03 58.46 59.05 58.25 56.98 55.48 55.07 55.71 56.69
36.20 34.59 28.99 22.60 25.14 29.27 35.73 30.76 36.94 46.49 47.94 48.78 49.22 49.45 50.65 51.88 52.83 53.13 51.97 56.52 58.05 58.96 59.82 59.28 58.82 57.96 57.88 57.49 55.84 57.83 58.26 57.58 57.60 57.29 57.11 56.83 55.90 56.43 58.78 60.24 58.99 58.34 57.85 57.81 56.28 55.76 55.56 55.65 55.73
35.61 32.54 37.81 30.24 31.79 28.87 32.21 37.13 40.97 46.78 47.05 48.30 48.16 49.00 49.95 51.71 53.54 54.44 54.15 54.39 57.80 58.77 59.37 59.08 58.39 58.28 57.45 56.70 56.07 57.62 57.87 57.43 57.03 57.00 57.26 57.25 57.37 57.08 58.03 57.89 57.73 57.41 56.76 56.41 56.11 55.09 54.55 55.16 55.30
38.60 40.46 31.64 32.52 24.27 23.28 31.14 33.07 35.86 42.16 44.44 46.96 46.94 46.93 48.91 51.58 54.15 54.34 54.78 53.45 57.25 58.66 59.24 59.22 57.69 57.21 56.76 56.65 56.17 57.58 57.53 57.45 57.56 57.43 56.95 56.89 56.55 56.63 56.68 57.29 55.93 55.38 55.72 55.88 55.66 54.89 54.41 53.85 54.97
36.11 34.81 34.38 34.05 32.18 26.77 26.88 32.76 44.41 43.96 46.17 46.14 46.76 47.00 48.70 48.74 53.09 54.63 55.30 56.14 57.31 58.37 58.54 57.48 56.85 56.69 56.18 56.12 56.01 57.49 57.15 56.83 56.74 56.81 57.11 57.31 56.43 56.20 55.79 55.85 56.41 55.27 55.29 56.17 55.40 54.67 55.12 54.39 54.15
38.66 35.96 35.67 30.44 29.39 31.57 30.93 31.25 46.04 46.39 47.38 48.42 47.97 48.25 48.27 48.04 50.35 54.56 54.85 55.62 55.94 56.31 56.19 55.72 56.23 55.89 56.43 56.68 56.81 57.26 57.24 56.68 55.84 56.03 56.17 57.18 56.74 55.46 56.74 55.97 55.28 55.49 55.23 56.28 56.19 54.99 54.88 54.64 54.03

GFSSGP_sfc_wetblb_102.txt.gz
Wetbulb
61.90 62.25 59.21 56.92 48.81 48.00 45.86 46.36 50.91 49.77 50.10 53.31 54.63 55.16 55.10 56.55 54.68 51.66 67.19 72.68 73.61 73.60 73.88 72.35 70.69 72.53 72.60 72.72 73.12 73.67 73.73 73.89 73.89 73.63 73.55 73.57 73.65 73.69 73.32 73.27 73.28 73.55 73.78 73.22 73.05 72.98 72.98 72.31 72.13
61.86 57.86 56.68 55.01 45.63 43.67 45.39 49.02 49.00 51.27 52.85 54.02 54.25 55.09 54.76 53.61 60.22 62.41 68.11 72.17 73.49 73.31 73.91 73.41 70.64 71.93 72.31 72.56 73.02 73.55 74.10 74.09 73.88 73.70 73.77 73.70 73.66 73.29 73.17 72.99 72.75 73.08 73.60 73.30 72.83 72.88 72.36 72.09 71.59
60.12 57.03 52.58 49.12 46.47 43.49 45.09 48.20 50.14 52.20 53.32 53.00 54.16 57.68 56.21 55.66 62.25 63.91 69.14 72.22 72.92 72.83 73.55 73.83 70.81 71.36 71.91 71.94 72.56 73.15 73.47 73.40 73.28 73.31 73.73 73.60 73.41 73.21 72.51 72.21 72.17 72.28 72.29 72.66 72.23 72.24 71.65 71.37 70.30
56.72 54.58 52.84 45.99 44.41 47.12 47.35 49.65 52.06 51.87 53.00 53.72 54.09 53.07 59.06 64.24 63.52 66.63 70.78 72.27 72.34 72.63 73.13 71.28 70.25 71.01 71.93 71.85 72.13 72.72 72.66 72.15 72.56 72.81 73.32 73.41 73.07 72.10 71.61 70.87 70.91 70.49 71.10 71.55 72.07 71.70 71.24 69.89 69.31
56.81 53.60 46.40 44.75 44.96 47.63 49.85 50.97 52.85 51.30 51.33 52.52 53.39 52.79 56.26 64.66 68.30 68.84 70.61 72.13 72.03 72.71 73.59 73.41 69.45 70.63 71.58 72.14 72.15 72.08 72.05 71.43 71.81 72.43 72.91 72.81 71.98 71.38 70.10 69.84 70.03 70.07 70.17 70.54 70.78 70.27 69.95 69.27 68.73
50.71 51.92 44.29 42.68 45.00 47.22 49.34 51.28 52.08 51.81 51.74 52.19 52.27 53.27 55.88 66.20 68.43 69.33 71.16 72.08 73.53 73.41 73.75 73.77 70.76 70.43 70.73 71.29 71.54 70.95 70.85 71.04 70.87 71.77 71.64 70.86 70.62 69.79 69.52 69.12 68.79 68.19 68.48 69.51 69.50 69.15 68.89 68.54 68.00
49.50 47.72 44.13 44.71 44.89 45.85 47.48 51.38 50.25 50.52 50.52 51.55 54.21 52.07 57.00 63.59 68.70 70.77 71.33 72.54 73.50 74.25 73.99 73.96 73.34 72.32 69.79 69.46 69.64 69.57 69.93 70.42 70.40 70.50 69.82 69.11 69.39 68.97 69.04 68.76 68.71 67.98 68.78 68.99 69.50 68.81 68.01 67.69 66.71
51.16 48.78 45.07 45.45 43.92 44.51 49.17 50.11 51.35 50.96 50.77 55.21 55.75 52.46 54.66 63.00 69.32 70.95 71.20 71.83 72.81 73.48 73.61 73.61 73.72 73.53 73.49 73.16 68.61 68.55 68.97 69.11 69.25 69.24 68.29 67.33 67.78 68.33 68.46 68.14 68.45 69.22 68.60 68.27 68.49 68.00 67.51 66.98 65.77
52.68 45.48 43.59 44.87 44.50 45.21 49.20 49.02 52.21 53.53 52.25 52.86 54.47 55.49 61.10 64.86 68.89 69.84 69.49 69.72 70.99 71.69 72.51 73.20 73.09 72.81 72.33 72.62 71.47 69.24 69.04 68.82 68.55 69.14 67.85 67.15 70.68 70.18 69.28 67.73 67.83 68.11 68.01 67.76 67.85 67.09 65.92 65.33 64.83
49.16 45.96 45.79 49.27 48.37 46.31 48.32 49.05 50.57 50.37 51.10 51.81 52.77 59.14 61.67 63.56 66.32 67.70 67.61 67.12 68.80 70.03 71.39 72.30 72.67 72.64 72.50 71.15 72.36 72.98 72.65 71.77 71.11 71.07 70.85 70.44 70.41 70.27 68.62 67.46 66.57 67.29 66.95 66.89 66.11 65.66 65.29 65.05 67.05
48.91 45.52 49.51 48.81 49.07 49.10 48.37 49.02 50.94 49.51 47.88 51.43 51.51 53.16 54.97 58.65 62.08 65.11 67.43 67.04 67.80 69.51 70.56 71.59 72.40 72.57 72.10 71.65 70.20 70.33 71.06 70.68 71.07 69.73 70.79 70.98 70.19 69.46 68.60 68.84 68.06 68.01 66.55 68.26 65.90 64.66 64.98 65.08 67.81
46.16 49.07 49.36 49.62 49.51 48.38 47.93 49.98 48.67 49.78 50.21 52.68 53.31 54.19 54.75 54.84 58.02 61.88 64.46 67.44 68.16 68.71 69.45 70.38 71.39 71.61 71.83 70.98 70.04 69.87 67.94 68.86 69.03 69.02 68.09 68.34 68.31 67.61 67.19 67.04 66.36 66.62 66.84 67.13 65.39 64.20 64.26 66.45 67.64
47.23 48.83 49.46 49.85 49.22 48.62 49.24 48.04 48.15 49.04 51.81 53.22 53.47 53.68 53.93 54.37 56.22 59.63 62.91 65.67 68.05 68.46 69.19 69.63 70.45 71.01 70.74 70.57 69.65 68.24 67.33 67.70 68.34 68.09 67.08 67.48 67.42 66.35 65.27 65.68 66.27 67.57 68.01 65.48 64.54 64.48 64.04 66.99 66.41
48.96 49.05 49.05 49.28 48.86 49.12 47.22 48.35 49.44 50.66 52.89 52.67 53.05 53.34 54.04 54.31 55.85 58.22 60.83 63.69 66.47 68.34 68.85 70.51 69.64 70.08 70.22 69.79 69.71 69.22 69.24 67.86 67.21 67.08 66.57 66.48 67.19 66.33 65.99 65.98 66.09 67.04 67.92 66.40 64.31 63.53 63.74 66.50 66.56
47.82 44.50 46.43 47.18 48.02 47.34 48.89 46.36 47.54 52.18 52.79 51.96 52.40 53.39 53.78 54.27 55.63 57.37 60.33 62.72 65.63 67.45 68.86 69.43 69.58 69.61 69.61 69.41 69.52 68.87 68.37 68.72 66.89 65.94 66.19 66.80 66.21 66.47 65.63 65.19 65.30 66.84 66.50 62.62 62.44 61.87 62.36 62.47 65.18
44.51 45.55 42.16 47.47 48.03 47.89 47.22 42.91 49.87 51.50 51.36 51.30 52.72 53.49 53.87 54.65 55.13 57.25 60.20 62.45 64.31 66.13 67.55 69.11 68.55 68.53 67.44 68.85 68.97 68.33 67.55 67.90 67.68 66.69 65.80 65.99 66.47 66.64 66.21 65.26 64.77 65.37 64.01 62.01 60.68 60.38 60.65 61.68 63.43
44.25 40.94 42.36 44.49 48.96 47.96 46.63 44.66 50.00 51.41 50.76 50.39 51.69 53.03 53.72 54.38 55.64 57.08 58.90 61.69 63.85 65.45 66.95 67.96 68.63 67.69 66.14 66.43 68.32 68.22 66.50 65.46 66.75 66.55 66.14 66.24 67.08 66.60 66.03 64.91 63.56 63.60 60.41 60.76 60.21 59.66 59.82 60.46 62.61
39.50 39.65 42.41 42.55 47.16 47.24 46.05 46.10 49.28 50.75 50.38 51.02 52.31 53.28 54.07 54.63 55.71 57.54 58.89 59.67 61.53 64.98 66.69 67.49 67.56 67.70 65.29 65.05 67.92 67.15 64.96 64.42 64.90 64.55 66.29 66.87 65.66 66.26 65.96 65.32 61.46 60.16 58.82 58.00 58.94 58.34 58.99 59.61 62.23
41.49 40.83 40.80 44.12 46.37 44.92 44.77 45.56 47.75 50.46 50.67 50.93 51.55 52.42 53.14 54.39 56.61 57.79 59.04 60.24 60.52 62.96 65.50 66.47 66.57 67.53 64.08 64.34 64.30 63.69 62.22 62.74 64.75 64.35 64.99 65.84 65.87 65.30 64.72 63.76 61.37 59.71 58.10 57.60 57.67 57.54 57.33 57.90 60.09
40.17 39.17 39.90 42.86 44.30 43.57 43.51 43.48 46.69 48.27 49.17 50.23 51.15 52.19 53.23 54.47 55.49 56.48 57.86 59.21 60.29 61.32 64.16 65.53 66.11 66.96 65.75 66.18 66.09 65.24 63.81 62.87 63.83 63.75 65.21 66.16 65.74 64.92 64.28 62.47 61.87 60.17 58.72 57.98 57.37 57.24 56.46 57.29 59.21
39.51 38.46 39.27 38.99 42.14 43.34 42.36 41.51 44.25 47.28 49.00 49.53 50.46 51.16 51.99 52.66 53.54 55.33 56.53 57.97 59.72 60.80 63.10 64.42 65.72 66.79 66.04 66.71 66.19 64.89 64.25 62.74 62.55 62.70 61.55 63.96 65.59 64.40 63.02 62.63 61.26 59.97 59.21 58.11 58.52 58.58 58.52 56.65 57.98
36.18 42.13 40.57 39.32 37.70 35.38 42.57 35.61 42.16 44.66 45.43 47.23 48.90 50.87 51.46 52.44 53.60 54.33 55.38 56.90 58.80 60.59 63.24 64.27 65.21 66.26 65.97 66.54 65.05 63.07 61.74 60.57 62.49 62.42 61.21 61.38 64.30 63.60 63.07 62.32 61.75 60.24 58.89 57.63 58.96 59.60 58.55 58.63 56.52
38.59 41.63 40.17 39.84 39.06 39.39 39.95 36.84 41.55 43.64 43.13 46.20 51.15 52.64 54.13 55.62 55.88 55.90 56.14 56.53 58.04 60.15 62.64 64.27 64.78 65.63 65.58 66.05 65.06 63.50 63.35 63.65 63.62 62.42 60.92 61.69 63.11 63.98 63.02 61.42 61.98 61.18 59.52 58.73 57.90 59.47 59.44 58.92 58.45
44.23 41.81 41.30 41.24 39.38 33.07 38.65 37.94 40.02 43.34 43.87 47.34 50.87 52.62 54.07 55.44 56.52 57.31 57.67 57.87 57.95 59.45 62.49 64.19 64.05 64.63 65.07 64.66 64.60 64.05 63.69 62.87 61.79 61.53 61.48 61.46 60.87 62.00 62.35 63.25 61.09 60.23 60.16 59.15 58.13 57.05 59.01 59.09 59.81
42.62 39.29 32.44 30.35 29.59 31.86 38.69 37.23 41.44 45.11 48.65 49.27 50.35 52.46 54.60 56.26 57.15 57.93 57.80 57.48 57.83 59.14 62.81 63.48 63.73 63.63 63.44 62.21 63.39 63.91 63.02 63.29 62.15 61.69 61.44 61.11 59.08 59.79 61.31 62.10 61.96 59.89 59.31 59.32 57.49 56.51 56.82 57.60 57.30
39.79 38.98 34.50 26.71 29.44 34.00 39.45 35.01 41.95 48.95 50.82 51.55 52.57 53.50 54.79 55.37 56.99 58.33 59.22 59.07 57.97 60.84 62.82 63.11 63.07 62.75 61.01 60.51 62.23 63.25 62.69 63.51 62.58 61.62 61.63 61.46 60.47 60.43 60.79 61.15 61.73 61.13 60.03 58.65 57.93 56.38 56.57 57.15 57.04
38.68 35.73 40.94 33.76 35.79 33.56 37.53 40.41 45.21 48.16 49.12 50.71 51.83 52.65 53.22 53.93 53.91 56.58 60.00 60.04 58.55 61.45 62.58 62.97 62.06 61.57 60.06 59.23 60.01 60.25 63.61 63.00 62.01 61.89 61.99 60.64 60.07 59.03 59.06 60.24 59.43 59.40 59.63 60.01 59.08 58.88 57.12 56.33 56.63
41.06 43.22 33.63 36.30 27.85 26.83 34.66 36.76 40.28 44.38 46.53 49.60 50.67 51.39 52.32 52.71 50.80 51.54 59.41 59.69 58.73 61.80 62.96 61.93 61.13 60.14 58.90 59.26 59.25 61.10 62.92 62.69 62.25 61.60 60.54 60.69 60.43 59.67 59.50 58.41 59.62 58.41 58.05 57.95 58.07 56.83 56.00 55.46 55.64
38.62 37.04 37.70 38.38 35.56 30.24 31.62 36.48 45.98 45.06 46.41 47.42 49.41 51.44 51.15 50.42 47.96 48.20 53.97 59.72 59.59 61.14 62.09 59.86 59.67 59.01 58.24 58.07 59.03 61.39 62.33 62.26 61.71 61.09 60.89 60.08 60.32 59.10 58.90 58.61 59.39 57.16 56.31 56.22 55.82 55.34 55.10 54.51 54.79
41.17 38.62 38.34 34.40 30.01 34.24 34.47 35.76 47.54 46.42 47.10 49.05 49.77 50.62 50.42 49.42 45.20 45.07 48.22 54.54 57.87 59.55 59.12 58.13 58.50 57.89 57.71 57.75 58.52 60.61 61.76 61.51 60.88 60.76 60.77 60.18 58.91 59.28 58.41 58.23 58.99 57.46 57.81 57.76 57.13 55.91 55.65 54.55 54.00

GFSSGP_sfc_wetblb_105.txt.gz
Wetbulb
63.19 63.16 61.03 56.77 49.32 49.38 46.36 48.75 51.89 51.12 51.64 54.89 56.14 56.12 55.52 57.02 55.68 54.01 67.60 72.82 73.73 73.34 73.78 72.39 71.95 72.67 72.88 73.04 73.43 73.80 74.18 74.07 74.05 73.76 73.70 73.75 73.78 73.91 73.77 73.94 73.86 73.84 74.21 73.41 72.97 72.64 72.87 72.40 72.29
62.09 61.66 57.99 53.68 47.06 44.48 46.87 51.00 49.49 52.15 54.90 55.77 55.74 55.81 55.19 54.77 59.86 63.67 67.43 72.04 71.81 71.78 73.83 73.53 71.52 72.27 72.84 73.07 73.64 73.87 74.22 74.20 73.93 73.76 73.76 73.37 73.77 73.79 73.62 73.43 73.05 72.64 72.97 73.09 73.01 72.79 72.43 72.15 71.67
62.26 59.74 52.99 49.53 47.29 44.33 46.57 50.80 51.15 53.30 55.21 54.86 54.83 57.17 56.67 55.93 60.83 63.01 69.14 70.29 70.70 71.10 73.37 73.88 70.78 71.55 72.29 72.78 73.25 73.69 73.75 73.64 73.62 73.40 73.79 73.74 73.73 73.34 72.69 72.82 72.42 71.91 72.92 72.22 71.90 71.73 71.75 71.47 70.67
59.42 56.44 53.61 47.53 45.97 48.67 49.78 51.62 51.69 52.63 54.78 55.71 55.74 54.42 58.26 62.93 62.86 65.46 68.99 69.90 70.46 70.95 72.40 70.23 70.25 71.31 71.76 72.55 73.03 73.38 73.48 72.89 72.81 72.94 73.34 73.77 73.18 72.22 72.31 71.51 72.03 72.20 72.08 72.47 72.27 71.41 70.78 70.26 69.70
58.79 53.92 46.93 45.57 45.66 48.51 51.53 51.87 53.65 52.53 53.13 53.99 55.07 53.85 55.90 62.91 65.38 67.67 69.29 70.27 70.50 71.41 72.89 73.41 69.67 70.80 71.67 72.13 72.68 73.00 72.59 72.27 72.35 72.67 72.80 72.98 72.39 72.16 71.46 71.06 70.98 71.30 71.63 71.56 71.55 71.07 70.34 69.61 69.14
52.47 52.18 45.56 44.11 46.07 49.30 51.31 52.86 52.46 53.37 53.82 53.73 53.65 54.05 56.07 63.80 66.35 68.03 70.35 70.61 72.00 72.74 73.58 74.22 70.89 70.74 71.04 71.47 71.62 71.47 71.31 71.26 71.45 72.08 72.13 71.78 71.38 71.27 70.67 70.40 70.34 70.43 70.36 70.12 70.46 69.89 69.69 69.12 68.01
50.83 48.85 45.18 46.07 46.53 48.11 50.37 53.10 51.11 52.14 52.80 52.99 55.46 52.98 57.17 61.94 66.13 68.63 70.29 71.83 73.40 74.04 74.39 74.57 73.20 72.05 70.12 70.13 70.00 69.91 70.61 70.66 70.63 71.21 71.07 70.63 69.98 69.36 69.61 69.25 69.09 69.19 69.31 69.93 69.73 69.00 68.41 68.08 67.31
52.81 50.17 46.34 47.19 45.81 46.40 51.18 51.54 52.44 51.55 51.35 56.32 56.20 52.42 54.71 64.29 67.69 70.61 70.34 71.41 73.17 74.02 74.36 74.16 74.02 73.29 72.80 72.36 69.24 69.04 69.31 69.53 69.86 69.72 69.33 68.60 68.60 68.65 68.87 68.43 68.40 68.21 67.94 69.20 69.12 68.25 67.34 66.66 66.10
55.27 47.27 44.85 46.40 46.98 48.24 51.25 49.53 53.01 54.20 52.18 54.09 56.13 56.81 61.37 62.85 66.24 69.59 69.22 70.06 71.24 72.55 73.34 74.01 73.58 73.38 73.49 72.11 71.39 69.14 69.27 69.33 68.97 69.46 67.78 68.02 71.40 70.85 69.84 68.23 67.60 68.26 68.36 68.40 68.48 67.31 66.14 65.38 65.11
51.72 47.64 47.42 50.82 51.21 49.98 50.30 50.24 51.81 51.41 51.61 52.31 54.06 57.17 59.99 61.82 64.50 67.12 67.46 67.74 68.68 70.16 71.74 72.53 72.96 72.89 72.91 71.09 72.58 72.14 71.55 71.87 71.63 71.17 71.24 71.35 70.81 70.87 70.14 68.56 67.67 67.84 67.57 67.30 67.00 66.01 65.45 65.19 65.27
51.35 48.07 51.63 52.14 52.94 52.11 50.49 50.17 52.13 50.43 49.57 52.03 52.53 54.80 58.48 58.67 61.27 64.52 66.50 67.63 67.69 69.34 70.61 71.60 72.46 73.12 72.81 72.26 72.27 72.31 72.58 72.16 72.08 71.89 71.80 71.49 71.15 71.35 70.30 70.35 68.38 68.74 67.15 67.95 66.71 65.81 66.08 63.91 63.94
48.61 51.46 51.79 52.37 53.64 51.32 49.74 51.62 50.31 51.24 51.57 54.06 54.06 55.62 55.69 56.44 57.15 60.08 63.32 66.37 67.48 68.41 69.94 71.23 72.14 72.61 72.90 72.00 71.99 70.69 71.17 71.94 71.33 71.05 71.50 70.99 70.55 70.66 70.26 69.65 68.93 68.89 69.20 67.82 68.13 66.93 64.84 63.40 64.04
49.60 50.75 52.15 53.08 52.63 52.30 51.82 50.38 50.28 51.06 53.53 54.11 54.34 54.21 54.19 55.23 56.52 57.92 60.94 64.20 66.39 67.30 69.36 71.09 71.67 72.33 72.13 71.92 71.31 70.77 70.48 70.36 70.73 70.67 70.34 70.46 69.66 69.16 69.44 68.91 68.40 68.01 68.89 68.01 66.72 66.12 63.31 63.17 63.09
51.73 51.30 51.65 52.22 52.23 51.60 50.06 50.13 50.58 51.56 54.10 53.61 53.43 53.82 54.02 54.33 56.14 57.09 59.06 61.10 63.67 66.45 68.75 71.07 71.21 71.88 71.86 71.17 70.90 70.20 69.78 68.65 69.91 69.67 69.56 70.13 69.94 69.38 68.53 67.60 66.97 66.44 68.37 67.65 67.59 65.37 63.54 63.04 62.89
51.06 47.89 50.23 50.35 51.41 50.49 51.45 47.92 48.70 52.69 53.73 52.97 53.35 54.51 54.88 55.14 55.81 56.62 58.65 60.11 62.41 64.32 67.58 70.62 71.15 71.63 71.28 70.99 70.78 70.58 69.76 69.19 67.90 67.63 69.17 68.93 69.12 68.84 67.84 66.52 65.85 66.41 68.59 67.26 66.61 65.42 63.42 63.34 64.39
46.64 47.50 43.14 48.97 49.51 50.10 49.38 43.90 50.45 53.66 53.01 52.86 53.51 54.33 54.91 55.72 55.87 56.42 57.96 59.17 61.32 63.25 65.96 69.86 70.84 71.02 70.75 70.51 70.47 70.03 69.34 69.08 68.37 67.58 68.59 68.55 68.38 68.52 68.01 67.01 66.82 67.38 66.96 65.71 64.69 63.24 61.86 62.18 62.59
45.42 40.85 42.76 44.98 50.26 49.79 48.50 45.40 49.47 52.36 52.83 51.93 53.07 54.34 54.90 55.49 56.55 56.74 57.27 58.73 60.64 62.30 64.80 68.03 70.68 70.41 70.25 70.24 70.37 70.27 69.72 68.52 67.98 67.41 67.57 68.11 67.57 68.08 67.31 66.65 66.80 67.54 66.12 63.63 62.64 61.88 61.39 61.18 61.22
41.32 41.68 44.05 44.65 49.00 49.79 47.88 47.55 50.12 51.82 51.91 51.77 52.48 53.61 54.10 54.69 55.41 57.18 57.28 58.65 60.44 62.24 64.91 67.15 69.75 70.50 70.11 69.39 69.65 69.54 68.73 67.35 67.46 67.46 67.12 67.22 67.80 67.92 67.29 66.43 66.22 66.05 64.02 62.42 61.07 60.43 61.31 61.16 61.06
44.91 43.85 43.98 46.41 49.16 48.25 47.59 47.57 49.40 51.58 51.98 51.82 52.10 52.95 53.65 54.64 56.94 58.52 59.09 59.26 59.97 61.76 64.45 66.47 68.69 69.55 68.73 66.03 66.90 67.69 66.30 64.12 64.90 65.23 66.58 67.69 67.52 67.26 66.60 66.01 63.24 61.97 60.19 59.81 59.81 59.77 59.30 59.80 60.84
43.04 41.97 41.94 44.39 46.91 46.57 46.05 45.71 48.03 49.38 50.08 51.48 51.93 52.68 53.92 54.94 56.21 57.27 58.64 59.61 60.80 61.30 62.53 65.73 67.17 68.43 68.79 66.82 67.20 67.94 66.33 64.19 66.19 65.71 66.20 66.36 66.48 66.78 66.39 64.93 62.42 60.34 58.64 58.15 58.63 58.37 58.37 58.46 60.43
41.17 39.92 40.54 40.38 44.14 45.87 44.20 42.47 44.44 47.63 49.43 50.22 51.39 52.63 53.39 54.01 54.67 56.11 57.51 58.84 60.21 60.58 62.36 63.21 65.96 67.36 68.58 67.33 67.62 67.81 66.84 64.69 63.93 64.05 64.95 65.36 65.99 66.35 66.20 65.22 62.69 60.58 59.25 57.76 57.77 58.25 58.21 56.81 58.42
36.40 42.77 41.16 40.23 40.27 36.78 44.33 36.19 44.43 46.71 47.26 48.73 49.62 50.21 52.42 53.62 54.50 55.01 55.90 57.02 59.05 61.63 63.73 62.65 65.12 66.49 67.93 67.74 67.22 66.73 64.82 62.95 63.96 64.19 63.52 64.91 65.55 65.17 65.47 64.44 61.79 61.11 59.05 57.98 58.37 59.14 58.69 58.06 56.39
38.62 41.89 40.71 40.85 39.50 38.89 39.70 37.94 41.99 45.40 44.36 47.69 51.02 53.57 55.06 56.46 57.35 57.58 58.26 58.58 58.05 60.26 63.10 64.40 64.14 65.61 67.20 67.92 67.90 67.44 65.25 65.15 65.06 64.78 64.00 63.42 64.80 64.66 64.49 63.61 63.61 61.08 60.46 59.23 59.49 59.68 60.27 59.43 57.51
42.42 41.26 40.72 40.39 39.08 33.29 39.31 39.33 40.68 43.46 45.76 47.99 51.86 53.26 54.72 56.54 57.93 58.95 59.86 60.27 59.23 59.94 61.43 63.92 63.91 64.43 66.78 67.23 67.90 67.56 65.10 65.08 64.37 64.14 62.64 61.64 62.98 63.46 64.54 63.65 62.29 61.75 60.74 60.09 59.45 60.18 60.24 59.89 59.35
41.24 38.56 32.21 30.65 32.01 31.63 41.34 39.02 41.42 47.44 50.24 50.25 51.05 52.95 55.19 56.67 57.60 58.55 59.22 60.82 60.24 59.59 60.91 63.48 63.46 63.47 65.81 66.79 67.19 66.60 65.62 65.86 64.95 63.66 62.71 62.53 61.27 61.92 63.50 64.03 63.12 60.95 60.34 60.90 59.12 59.29 58.89 59.27 58.29
39.45 38.52 32.50 25.49 29.30 33.55 41.18 35.77 41.73 50.03 51.89 52.39 53.35 53.01 54.20 55.35 56.53 56.70 58.68 61.04 61.60 60.94 60.10 61.28 62.10 63.61 64.67 65.99 66.32 66.72 66.34 65.81 64.98 64.25 63.30 63.05 61.89 61.47 62.29 62.50 63.20 62.51 61.52 59.92 59.16 58.86 58.46 59.01 58.77
38.46 35.71 41.79 35.70 38.32 35.36 39.03 42.41 47.86 49.72 49.30 50.64 51.05 52.76 53.62 54.47 54.37 54.29 55.68 56.53 61.46 61.80 60.29 62.17 63.37 64.00 64.57 65.20 65.59 65.60 66.11 65.41 64.83 64.38 63.85 63.30 63.58 61.53 61.86 62.41 62.36 61.26 61.28 60.18 58.42 57.46 56.43 57.07 57.59
41.72 44.09 34.68 36.73 28.34 27.95 35.71 38.12 39.91 43.07 45.42 47.85 48.74 51.62 53.06 53.45 52.53 51.18 51.14 52.61 56.52 61.55 62.05 64.43 64.57 63.94 64.53 62.25 62.15 63.88 64.53 65.52 64.90 63.93 62.98 63.03 61.89 60.82 61.10 61.08 61.22 61.85 60.95 60.04 58.96 57.64 57.29 57.28 57.41
39.32 37.60 39.11 39.73 37.85 32.21 32.21 36.89 46.32 44.96 46.29 47.00 49.39 51.27 51.78 51.41 50.70 47.21 46.62 46.91 52.03 57.02 63.17 63.71 63.63 63.86 60.89 59.74 60.17 62.44 63.31 64.76 64.35 63.02 62.67 61.54 60.64 60.55 60.22 60.72 59.57 58.28 57.88 58.32 58.84 58.74 57.98 56.78 56.19
42.77 40.31 40.43 34.75 32.78 37.04 35.87 36.72 47.18 47.24 47.73 48.84 49.68 50.06 50.67 49.82 48.20 46.12 42.97 42.70 45.82 48.66 60.70 60.06 60.82 59.93 60.29 58.92 59.20 61.74 63.11 63.43 62.92 62.20 62.05 61.47 59.48 60.08 60.01 60.55 58.79 59.14 58.32 57.79 57.04 55.53 55.55 55.13 54.49

GFSSGP_sfc_wetblb_108.txt.gz
Wetbulb
62.87 61.87 60.93 57.09 46.87 47.12 43.97 46.21 50.71 50.32 51.25 54.90 55.74 54.22 54.20 56.51 56.13 53.90 69.55 72.04 73.59 71.64 71.52 72.05 72.10 72.89 73.40 73.46 73.78 73.95 74.24 74.05 74.10 73.77 73.78 73.86 74.02 74.22 74.17 74.06 73.93 73.95 73.37 73.57 73.22 73.24 73.04 72.40 72.47
60.35 60.02 58.80 52.86 44.23 41.46 43.77 49.21 48.20 51.62 54.43 55.93 55.33 55.50 54.99 54.43 61.51 63.67 67.45 71.31 72.77 71.89 71.57 71.74 71.75 72.35 73.02 73.13 73.75 74.07 74.40 74.13 73.90 73.83 73.89 73.92 73.96 73.74 73.88 73.71 73.30 72.97 73.24 73.04 72.51 72.74 72.57 72.34 71.72
58.93 59.93 53.29 47.98 44.59 42.24 44.25 49.06 51.29 53.10 55.31 54.85 53.91 55.99 55.46 54.96 60.60 64.19 69.53 69.88 70.85 71.64 72.08 71.88 71.21 71.89 72.77 73.03 73.58 73.71 73.69 73.46 73.55 73.52 73.87 73.88 73.75 73.29 73.41 72.97 72.81 72.59 73.19 73.52 72.30 72.28 72.24 71.45 70.63
56.37 57.12 53.60 44.65 43.25 46.47 47.16 50.00 51.94 52.34 54.34 55.07 54.93 53.23 57.63 63.36 62.58 66.66 68.40 68.71 69.49 71.05 72.86 69.76 70.35 71.22 72.41 73.10 73.49 73.73 73.41 72.90 72.86 73.04 73.42 73.74 73.34 72.91 72.90 72.22 72.27 72.59 72.72 73.02 72.82 72.69 71.63 70.14 69.73
57.42 53.95 45.78 43.76 43.74 47.02 50.36 51.72 52.40 51.35 52.32 53.61 54.22 52.60 56.10 62.41 64.14 67.20 67.54 69.06 69.62 72.33 72.03 70.68 69.88 70.89 71.87 72.77 73.42 73.27 72.96 72.64 72.48 72.83 73.15 73.17 72.86 72.79 71.96 71.57 71.63 71.71 71.95 72.56 72.29 71.50 70.40 69.76 69.45
51.11 52.00 43.91 42.06 44.25 47.48 49.73 51.41 51.83 52.63 53.51 53.53 53.13 53.13 56.85 63.24 64.56 67.19 68.86 70.06 72.25 73.33 73.21 71.01 70.73 70.70 71.06 71.76 72.23 71.95 71.84 71.96 71.70 71.69 72.20 72.63 72.08 71.65 71.23 71.10 71.10 71.02 70.98 71.05 70.80 70.27 69.92 69.36 68.82
50.91 48.24 44.02 44.13 44.71 46.82 49.28 52.86 51.05 51.21 51.87 52.46 54.78 51.68 56.62 61.79 65.51 67.89 69.68 71.96 73.03 74.11 73.83 72.01 71.25 70.89 70.36 69.98 70.01 70.27 70.62 70.80 70.71 71.09 71.47 71.32 70.17 70.56 70.66 70.41 70.49 70.41 70.21 69.88 70.04 69.52 68.69 67.91 67.87
52.74 49.63 44.85 45.93 44.56 44.88 50.37 51.72 52.83 51.49 50.60 56.39 56.16 51.10 54.87 62.38 66.18 67.30 69.68 71.46 73.32 73.83 74.08 72.25 71.93 71.22 71.08 70.68 69.16 69.37 69.77 69.74 70.02 70.46 69.94 68.71 69.07 68.92 69.30 68.96 69.08 69.15 69.30 69.30 68.66 68.14 67.33 66.95 66.23
55.18 46.95 43.86 45.01 45.52 47.29 51.37 50.12 52.67 53.61 51.66 52.47 55.43 54.98 60.73 63.69 67.74 67.35 67.47 69.16 71.47 72.40 72.97 73.50 72.24 71.53 71.46 71.06 70.26 68.97 69.59 69.28 69.23 69.87 68.52 67.30 69.95 68.91 68.67 67.97 67.73 68.06 67.43 68.46 68.37 67.42 66.45 65.58 65.58
50.89 47.16 46.12 50.14 50.49 49.27 50.72 51.14 50.86 50.39 50.52 50.84 52.99 57.69 60.86 62.29 64.13 66.07 65.77 66.08 68.92 70.38 71.73 72.46 72.27 71.72 71.83 70.53 70.76 70.30 70.43 70.00 69.97 70.43 70.09 70.25 69.81 69.67 68.78 67.72 67.60 67.45 67.29 67.68 67.22 66.38 65.42 65.05 65.05
50.31 46.99 50.69 51.30 52.27 52.71 51.43 51.21 51.85 49.63 48.83 51.40 52.06 53.89 56.03 58.43 60.44 63.42 65.35 66.56 68.28 69.72 70.51 71.11 72.16 72.29 71.75 69.99 71.26 70.67 70.26 70.15 69.97 70.04 70.36 70.08 69.37 69.25 68.14 68.22 66.46 66.92 67.32 67.14 65.79 64.87 64.35 63.80 64.12
47.38 50.70 51.35 51.78 52.92 52.37 51.45 53.10 50.03 50.33 51.12 54.07 54.09 55.26 55.42 57.20 57.32 59.95 62.86 65.42 66.75 68.16 69.26 70.49 71.45 72.26 71.24 70.60 71.22 71.12 70.29 70.75 70.34 70.38 69.93 69.13 68.35 67.98 67.72 67.73 67.25 66.58 66.26 65.58 64.55 64.04 64.04 63.08 62.80
47.86 49.81 51.25 52.30 52.19 52.30 52.76 51.37 50.65 51.03 54.01 54.22 54.26 54.51 53.84 54.35 55.92 56.97 59.52 63.15 65.93 66.75 68.53 69.59 70.91 71.30 71.76 71.97 70.65 70.13 70.24 70.11 70.18 69.87 69.86 69.27 68.32 67.39 67.61 66.98 67.20 66.57 66.86 65.72 64.65 64.06 63.38 62.59 62.68
49.11 49.71 50.54 51.74 51.66 52.18 50.51 50.62 51.34 51.62 53.91 53.41 53.79 53.04 53.50 53.91 54.01 55.47 56.88 58.17 62.28 65.57 67.74 69.64 70.10 71.23 71.64 70.36 71.01 69.76 69.82 69.61 69.16 69.01 68.57 69.15 68.53 67.68 66.97 66.41 66.12 65.91 66.50 65.94 65.29 64.13 62.99 62.32 62.57
48.41 45.68 49.15 50.33 50.89 50.34 51.79 48.09 48.14 52.60 53.80 52.49 52.80 53.68 53.97 54.14 54.69 53.84 55.79 57.43 60.47 62.83 67.16 69.47 69.61 71.54 70.63 70.19 70.49 69.50 68.91 68.28 67.52 67.83 68.04 68.41 68.63 67.55 66.40 66.08 65.63 65.56 66.07 65.67 64.59 63.94 63.58 62.38 62.67
45.44 46.15 42.03 48.30 49.94 50.95 50.10 43.90 50.25 52.38 52.04 51.72 52.69 53.52 54.06 54.96 55.24 55.83 56.37 57.12 58.65 61.10 63.07 69.91 69.97 70.27 70.59 69.95 69.78 69.10 69.25 68.04 67.11 67.24 67.86 67.08 67.81 67.65 66.69 65.83 65.37 64.99 65.40 64.27 64.20 63.52 62.95 62.05 61.62
43.58 39.58 41.65 43.90 49.82 49.47 47.98 45.10 50.05 52.36 51.76 51.36 52.67 53.35 53.68 54.46 55.65 56.69 57.03 56.65 57.73 59.61 62.75 69.18 69.34 69.63 69.48 69.98 69.46 69.26 69.17 67.98 67.49 66.72 66.65 66.73 67.08 67.25 66.32 65.39 65.25 65.21 64.53 64.08 63.61 63.28 62.51 61.25 61.14
37.77 39.60 41.53 42.12 46.63 48.00 46.32 46.10 48.76 50.84 51.16 51.26 51.56 53.09 53.77 54.34 55.07 56.94 57.94 56.97 57.14 58.89 61.55 68.64 69.51 69.53 69.40 69.42 69.08 68.81 68.13 67.09 67.04 66.32 66.45 66.71 66.27 66.60 66.41 65.34 64.79 64.86 64.08 63.01 62.66 61.75 62.27 61.17 61.05
42.06 41.34 41.24 44.41 47.41 46.37 45.81 46.08 48.42 51.00 51.23 50.71 51.73 52.45 52.78 53.95 55.96 57.03 58.82 58.77 58.41 58.65 61.08 65.82 68.73 69.15 68.77 68.02 67.34 66.90 66.03 65.90 65.45 65.66 65.91 65.68 65.94 66.29 66.01 64.99 64.24 63.77 62.84 62.55 61.24 61.27 60.69 60.41 61.31
39.44 39.80 40.79 45.03 47.98 46.63 46.21 46.34 49.08 50.50 50.73 51.66 51.85 52.06 52.40 53.54 54.59 56.33 57.88 58.73 58.89 58.71 61.52 64.34 68.30 69.13 68.38 68.12 67.57 67.42 66.72 65.45 64.93 64.59 64.70 65.77 65.81 65.92 65.45 64.08 62.50 61.15 60.33 60.25 60.23 59.82 59.10 58.93 60.80
38.90 38.73 40.77 41.12 45.10 45.80 44.28 42.75 45.26 48.56 49.63 50.39 51.34 52.43 53.24 53.68 53.97 55.36 56.53 57.64 60.65 60.17 62.03 61.91 64.88 68.54 68.21 67.54 66.87 66.56 65.67 64.01 63.24 63.91 63.81 64.36 64.85 64.78 64.97 63.90 61.57 60.20 59.41 58.55 59.02 58.95 58.54 56.93 59.55
35.54 42.42 42.93 41.57 39.63 34.40 43.30 33.88 42.06 45.51 46.40 48.08 49.31 50.53 51.55 53.63 55.00 55.29 55.72 56.71 58.74 60.77 62.68 61.28 63.01 66.42 68.04 66.90 65.33 64.62 63.55 61.74 62.30 63.25 63.16 63.58 64.18 64.24 64.52 63.77 61.54 59.62 59.18 58.39 58.49 59.02 58.68 58.26 56.61
38.26 43.48 41.92 40.84 37.97 37.23 38.14 36.02 40.92 45.50 44.57 46.40 49.31 53.29 54.57 55.88 56.65 56.69 57.57 58.47 58.88 59.24 59.75 62.63 61.76 64.45 67.05 66.89 65.49 64.85 64.59 63.76 62.84 63.37 62.65 62.66 63.94 63.95 64.45 63.58 61.86 59.50 58.90 58.46 58.40 58.37 58.38 58.68 57.61
42.75 40.47 39.91 38.81 37.00 30.08 36.37 36.63 37.40 41.00 44.28 47.04 51.86 52.95 54.40 55.68 56.63 57.30 58.44 59.97 60.04 60.14 60.09 60.44 62.23 62.63 65.08 66.85 65.62 65.35 64.72 63.81 62.70 62.76 61.65 61.83 62.07 62.98 63.34 63.25 61.74 60.14 58.90 58.32 58.46 58.84 58.88 58.26 58.22
40.44 36.39 28.41 27.08 27.35 27.17 38.16 35.77 38.68 45.76 49.02 50.44 50.65 52.37 53.94 55.07 55.02 54.94 55.71 56.71 58.85 59.84 61.32 60.05 59.93 60.97 63.48 66.11 65.62 65.62 65.73 64.60 63.16 62.65 62.03 60.70 60.89 61.18 62.09 62.72 62.10 61.21 59.54 58.99 59.32 59.25 59.13 58.79 58.17
37.18 36.11 29.98 23.76 25.16 29.68 37.86 33.80 38.74 47.76 51.19 52.06 52.87 53.26 53.72 53.31 53.52 53.02 53.07 53.98 55.00 57.08 58.82 56.55 59.29 59.99 62.55 65.07 65.77 65.50 66.45 64.68 64.57 63.76 62.28 60.87 60.73 60.81 61.55 62.61 61.90 61.26 60.55 59.42 59.28 58.83 58.77 58.84 58.56
37.03 33.17 40.07 32.82 36.20 32.41 35.14 40.88 44.92 48.34 49.43 50.69 51.04 51.97 51.74 51.29 51.56 50.09 49.87 50.54 49.78 52.87 54.41 56.09 57.79 59.80 61.70 63.72 65.34 64.96 65.55 64.43 64.57 63.26 62.78 62.14 61.41 60.87 60.57 61.42 62.02 60.90 60.70 59.88 59.25 58.30 58.25 58.75 58.32
40.19 41.82 32.96 33.75 28.12 27.13 32.95 35.64 37.55 41.86 44.86 47.94 48.99 49.46 49.84 49.61 48.78 47.76 46.92 45.71 46.38 50.12 51.91 53.32 60.78 59.62 62.36 64.28 64.71 64.97 64.83 65.09 64.43 63.20 62.17 61.76 61.41 60.48 59.88 59.81 60.59 61.27 60.39 59.47 58.68 57.83 57.81 57.25 57.36
36.81 35.90 37.36 37.55 35.18 29.35 29.19 34.57 42.70 41.86 43.82 46.60 47.55 48.08 47.63 47.03 46.76 45.91 44.04 42.97 42.90 46.18 47.76 50.36 61.90 62.55 63.52 63.93 63.57 63.89 63.53 63.49 63.50 62.60 61.81 61.70 60.01 59.41 58.97 59.38 59.59 59.87 59.58 59.16 57.87 57.31 56.79 56.35 56.43
40.27 37.94 37.82 33.07 31.86 35.49 33.23 32.53 43.60 45.94 46.95 47.12 45.70 45.62 45.38 44.59 44.92 44.57 42.21 40.50 39.82 42.70 44.70 46.86 55.52 59.95 61.16 62.09 61.28 61.78 62.18 62.55 62.06 61.53 61.65 60.16 58.95 59.32 59.35 59.27 58.91 58.80 58.82 58.92 57.89 57.07 56.83 55.97 55.87

GFSSGP_sfc_wetblb_111.txt.gz
Wetbulb
58.25 58.03 55.38 51.44 40.30 36.51 33.18 39.03 45.44 45.55 44.90 49.26 51.92 52.87 50.14 53.33 55.29 52.21 67.24 68.56 69.21 69.73 71.31 71.79 71.92 72.58 72.99 73.28 73.66 73.55 73.88 73.94 73.96 73.75 73.63 73.73 73.89 74.07 73.83 73.75 73.93 74.29 74.63 73.69 73.15 73.10 72.73 72.60 72.20
55.71 57.20 52.40 47.24 35.22 29.72 33.69 43.86 43.68 46.58 50.57 53.00 52.95 53.34 52.60 54.98 61.92 65.01 66.67 69.28 69.68 69.66 70.62 71.06 71.52 72.16 72.80 72.88 73.13 73.58 73.98 73.94 73.76 73.72 73.78 73.73 73.91 73.87 73.80 73.43 73.16 73.12 73.89 73.82 73.17 73.22 72.72 72.17 71.69
54.98 56.13 46.94 40.95 35.24 34.98 34.62 44.04 44.87 49.07 52.25 51.69 49.85 52.06 52.76 55.56 63.64 64.33 69.57 69.79 69.35 68.92 70.29 71.01 70.98 71.43 72.42 72.74 73.09 73.28 73.58 73.38 73.26 73.26 73.91 74.02 73.78 73.72 73.59 72.83 72.43 72.78 73.44 73.77 72.89 73.15 72.45 71.38 70.67
50.96 50.28 48.67 37.24 35.49 39.03 42.25 45.55 46.88 47.62 50.53 50.80 51.07 49.56 56.61 60.80 63.67 66.55 69.25 69.92 68.64 69.09 70.53 69.59 70.05 70.99 72.21 72.82 73.07 73.12 72.18 72.30 72.44 72.86 73.60 73.85 73.59 73.68 73.11 72.12 72.17 72.71 73.31 73.17 73.05 72.51 71.67 70.25 69.77
50.42 47.03 38.41 34.33 36.88 41.43 45.44 47.55 48.26 47.51 49.55 51.18 50.75 49.83 55.24 60.30 66.16 66.30 66.63 69.24 68.17 69.14 69.33 69.58 69.23 70.43 71.87 73.03 73.07 72.85 71.95 71.85 72.13 72.53 72.95 73.13 73.10 73.14 72.19 71.67 71.56 71.77 72.55 72.61 72.61 71.92 70.47 69.69 69.19
44.15 44.69 35.01 36.59 39.66 43.66 45.83 48.15 48.73 48.39 50.31 51.54 49.88 50.15 54.49 62.05 63.70 64.06 66.49 69.98 70.02 68.43 68.95 69.38 70.22 70.36 71.02 72.11 72.07 71.55 71.39 71.57 71.61 72.01 72.17 72.69 72.12 71.75 71.48 71.33 71.16 70.91 71.33 71.32 71.06 70.41 69.80 69.20 68.99
43.52 39.04 37.24 38.28 40.62 42.84 46.01 49.27 47.68 48.00 49.47 49.77 51.41 48.87 53.47 59.51 63.50 65.27 67.87 70.38 70.42 69.70 68.46 68.81 69.32 70.04 69.92 70.00 70.19 70.25 70.68 70.61 70.40 70.66 71.44 71.16 70.56 70.12 70.63 70.79 70.90 70.67 70.37 70.38 70.11 69.45 68.98 68.84 68.31
47.55 43.96 40.67 41.93 40.41 41.03 46.85 48.81 50.02 47.85 48.56 54.43 52.69 47.00 51.28 56.88 64.06 66.40 68.45 69.92 70.80 69.79 68.83 68.27 68.41 68.32 67.82 68.00 69.03 69.17 69.67 69.27 69.23 69.67 69.60 69.35 69.07 69.57 69.34 69.53 69.81 69.99 69.82 69.67 69.53 68.58 68.00 67.64 67.13
47.32 41.18 39.91 41.60 41.67 43.44 47.98 47.28 49.45 49.50 46.99 49.04 53.78 51.79 58.34 63.50 63.86 65.59 67.41 67.74 69.50 69.99 68.87 68.67 68.38 68.25 67.73 67.33 68.49 68.99 69.37 69.03 68.85 69.40 68.81 67.14 68.47 68.47 68.65 67.72 68.11 68.42 68.58 68.55 68.38 67.62 66.70 66.18 65.78
43.24 39.74 42.05 45.17 46.48 45.96 48.53 48.61 49.48 45.86 45.96 47.83 50.26 57.89 59.74 61.10 62.93 62.42 64.29 65.87 67.12 68.26 69.15 69.26 68.49 68.16 68.11 69.07 67.46 67.05 68.11 67.68 67.73 68.23 67.46 67.62 67.53 67.12 67.78 67.17 67.27 67.28 67.12 67.41 67.48 66.74 65.75 64.69 63.52
44.99 41.14 46.15 47.97 49.47 49.95 48.65 48.28 50.34 45.10 43.06 46.42 47.91 53.34 56.07 57.69 57.75 61.95 63.97 66.32 67.51 68.58 69.72 69.51 69.09 69.02 68.72 68.27 67.28 67.66 67.46 67.07 67.19 67.30 67.12 67.14 67.66 67.30 66.50 65.50 66.05 65.26 65.94 65.83 66.01 65.20 63.35 62.78 62.89
40.47 46.34 47.08 48.19 50.30 49.73 48.09 48.15 48.17 45.03 47.16 50.89 48.05 51.60 51.52 53.78 55.35 58.15 61.22 64.21 67.04 68.24 68.72 69.59 69.34 69.31 68.78 68.07 67.93 67.88 67.82 67.44 67.15 66.95 67.12 67.37 65.60 65.43 65.77 65.06 63.99 64.47 65.03 64.14 63.66 62.94 62.04 61.49 62.31
40.08 43.86 47.28 49.28 49.80 49.85 50.51 48.43 48.25 48.74 50.76 51.57 51.33 51.24 49.64 51.47 52.87 55.73 59.21 62.58 66.52 67.26 68.31 68.76 69.33 69.23 68.07 67.61 68.90 67.94 67.52 67.83 67.84 67.69 67.13 66.58 65.36 64.42 64.89 64.87 64.35 64.28 64.23 64.11 62.88 62.39 61.76 60.52 60.92
43.64 43.80 44.24 47.48 48.64 49.48 48.26 48.26 47.67 49.84 50.54 50.97 51.34 49.53 48.57 48.53 50.21 49.48 51.36 56.22 61.42 66.90 67.39 68.21 68.81 69.30 68.79 67.68 68.45 67.62 66.99 68.23 67.21 67.10 67.32 66.36 65.64 64.80 64.42 63.92 64.26 63.63 64.24 63.52 63.26 62.49 61.32 60.28 60.66
46.03 41.90 44.00 44.64 45.97 46.82 48.91 44.96 46.20 49.87 51.07 49.40 49.87 50.17 50.03 50.21 50.10 49.66 49.58 51.09 53.25 61.57 66.96 67.17 68.18 69.33 68.64 68.33 68.16 67.40 66.91 66.79 65.38 65.64 66.05 67.04 66.23 64.94 64.20 63.58 63.22 63.47 63.94 62.78 62.72 61.63 60.61 60.29 61.10
39.45 40.77 36.66 43.45 45.03 46.19 47.00 40.48 47.74 49.44 48.51 48.07 48.54 49.34 50.18 50.16 51.06 50.19 50.80 50.37 51.95 55.08 65.33 67.30 68.83 68.61 68.94 68.19 67.59 67.17 66.62 65.10 64.75 64.68 64.86 66.99 67.29 65.34 63.84 63.54 63.14 63.08 63.19 63.58 62.59 62.17 61.52 60.91 61.04
36.85 32.54 35.88 39.59 45.29 44.79 45.29 42.41 46.91 49.06 48.72 48.63 49.06 49.44 50.04 50.16 50.52 51.36 51.92 51.93 52.49 52.86 58.43 66.52 67.81 68.13 68.11 67.53 67.36 66.27 65.74 64.90 64.45 64.74 64.63 64.92 66.96 65.74 64.64 63.86 63.45 64.48 63.04 61.77 61.73 61.65 62.13 60.66 61.07
30.89 33.61 35.38 36.47 41.82 44.98 43.06 42.74 45.13 47.52 49.01 48.83 46.61 47.21 48.71 50.69 50.96 52.84 52.73 53.29 52.58 52.32 55.86 66.75 67.03 68.23 67.85 67.34 66.98 66.26 65.36 65.10 65.10 64.67 64.60 64.41 65.70 65.12 64.07 63.48 62.81 63.03 62.48 62.70 61.87 61.66 61.29 61.50 61.25
35.39 35.99 35.90 39.58 43.86 43.08 42.08 43.00 45.39 46.64 47.93 46.76 47.14 46.51 48.44 48.45 50.84 52.94 52.77 53.24 52.69 51.23 55.13 66.24 66.24 67.19 67.28 66.78 65.69 65.39 64.13 64.36 64.53 64.38 64.48 64.54 64.32 64.78 63.62 63.39 62.68 62.90 62.33 62.85 62.73 61.48 61.09 60.31 60.52
34.18 32.49 32.54 37.56 42.46 43.65 42.96 41.44 45.12 47.18 46.92 47.51 47.04 46.35 46.65 48.23 50.36 52.04 51.59 50.77 52.31 53.04 53.80 66.06 66.37 67.08 67.19 67.23 66.68 65.31 63.34 62.05 62.20 62.46 63.74 64.24 63.86 64.09 63.75 62.75 61.68 62.51 61.70 61.29 61.18 60.84 59.34 59.85 60.91
32.86 31.86 33.13 34.34 39.05 43.89 41.00 39.88 42.98 47.95 48.12 47.81 47.66 47.41 48.11 48.08 48.74 50.49 51.55 49.89 51.93 52.64 52.72 65.31 66.85 67.22 67.00 66.76 64.83 63.72 63.19 62.49 61.08 60.41 60.72 62.31 63.47 63.74 64.04 62.01 60.97 61.00 60.40 60.03 60.46 59.89 58.71 57.57 59.84
29.40 36.09 36.73 36.39 36.00 33.08 40.73 29.15 38.69 44.24 45.37 45.99 47.18 46.00 45.99 49.63 51.50 52.60 53.16 53.58 53.03 53.10 55.92 58.27 67.17 66.97 66.76 66.01 65.37 63.88 62.53 61.31 61.31 60.81 60.77 61.53 62.34 62.77 62.70 61.29 59.93 58.71 58.31 58.62 59.22 59.77 59.54 58.73 57.89
32.66 37.24 36.66 38.60 35.51 34.07 35.56 31.01 34.02 40.31 41.23 43.78 46.09 49.23 49.27 51.44 52.39 52.85 53.42 54.57 55.38 56.70 56.78 58.06 57.50 66.56 66.45 65.81 65.07 63.73 61.92 61.80 60.30 60.45 60.18 61.03 61.43 61.69 62.36 60.66 58.93 58.67 57.87 58.10 58.04 58.28 58.93 59.09 57.83
38.84 37.56 38.03 37.36 35.13 26.13 33.32 30.59 31.08 35.68 40.96 47.11 49.22 50.71 51.46 50.79 50.87 51.15 51.71 52.31 52.25 52.43 53.55 55.43 57.33 58.20 65.55 64.91 64.14 63.45 62.44 61.33 60.37 60.41 60.37 60.63 61.35 61.38 62.01 60.91 59.50 59.02 57.98 58.01 57.90 58.53 58.59 58.28 58.50
37.11 34.37 24.85 24.49 22.70 22.77 35.09 32.08 33.43 42.49 48.28 49.05 48.34 48.80 49.19 49.00 48.07 47.47 47.43 47.46 47.46 47.30 49.83 52.21 53.82 55.04 57.52 64.19 63.21 62.94 62.48 62.11 60.30 60.23 60.29 60.19 59.46 61.14 60.94 60.81 59.33 59.02 58.48 58.13 57.75 57.78 58.17 58.17 57.89
34.72 32.93 24.76 20.89 22.44 25.40 35.38 29.74 33.71 44.43 49.32 49.93 49.22 48.00 47.48 46.52 46.24 45.35 45.26 44.40 43.92 45.12 47.01 48.38 49.16 51.41 54.02 63.68 63.63 63.12 63.31 62.74 61.87 61.31 61.01 60.37 60.25 59.44 60.62 60.96 60.26 59.35 58.76 58.25 57.93 58.05 58.45 57.87 57.97
33.40 30.37 36.62 30.89 33.51 28.58 30.69 37.17 42.88 46.32 47.91 48.09 46.69 45.28 44.07 44.58 44.38 43.08 42.98 42.28 42.51 42.97 44.53 45.95 47.97 50.09 55.73 59.87 63.98 62.89 63.44 62.83 62.25 62.30 61.33 60.60 59.99 59.47 59.93 60.44 60.30 60.33 58.89 58.70 58.58 58.28 58.09 57.79 57.05
36.20 39.46 30.38 32.65 25.41 24.87 31.66 33.50 35.84 37.65 42.99 43.78 42.12 41.05 42.36 42.93 42.27 41.47 40.83 40.65 41.43 42.47 43.88 45.16 47.98 50.28 59.73 58.57 63.84 63.06 62.72 62.98 62.43 62.47 60.81 59.65 59.46 59.86 58.59 60.18 59.80 59.41 59.31 59.07 58.32 57.58 58.27 57.95 57.71
35.39 33.98 35.52 36.04 33.61 27.14 27.40 31.90 40.02 37.32 41.51 39.86 40.04 39.35 38.87 38.81 38.96 39.60 39.55 39.53 39.78 41.75 42.27 43.16 44.92 47.86 58.14 59.40 62.28 62.46 62.39 62.02 61.43 61.74 61.28 60.53 59.36 58.32 58.14 58.23 59.62 59.42 59.49 59.16 58.45 57.89 57.86 57.25 57.43
38.91 37.16 36.66 31.04 29.82 32.34 32.31 28.67 40.97 38.40 38.71 39.04 38.06 38.26 38.03 38.15 37.81 37.84 38.42 38.19 38.60 39.82 40.37 40.82 42.48 44.69 48.70 58.19 58.09 59.45 60.40 61.06 60.96 60.73 59.72 59.43 57.88 58.02 57.21 57.27 57.92 59.32 59.33 58.79 58.03 56.97 56.91 56.75 55.99

GFSSGP_sfc_wetblb_114.txt.gz
Wetbulb
56.43 55.81 53.70 49.68 38.62 33.92 29.67 36.50 40.47 41.87 43.59 46.63 50.38 50.86 50.27 53.24 53.50 49.94 65.78 68.42 69.38 69.67 70.80 71.67 71.91 73.02 73.24 73.18 73.04 73.19 73.58 73.65 73.44 73.42 73.44 73.62 73.81 73.71 73.76 73.90 73.99 74.29 74.12 73.45 73.40 73.10 72.92 72.51 72.19
53.47 55.50 50.52 44.19 34.46 27.31 30.47 38.92 40.67 43.41 47.62 50.20 51.40 52.42 52.07 55.66 62.95 64.82 64.49 68.70 69.78 70.24 70.71 70.97 71.57 72.18 72.86 73.01 72.87 73.21 73.73 73.63 73.66 73.54 73.46 73.62 73.63 73.66 73.76 73.57 73.31 73.88 74.11 73.23 73.18 73.16 72.72 72.01 71.72
53.15 54.45 45.32 40.43 32.44 29.17 31.83 40.01 41.00 44.98 47.92 48.26 49.46 50.19 53.73 56.91 65.55 65.48 67.30 68.76 69.65 69.72 70.53 70.99 70.97 71.35 72.20 72.42 72.89 73.01 73.43 73.02 73.20 73.08 73.64 73.70 73.76 73.66 73.49 72.76 72.24 73.19 74.08 73.63 73.33 73.03 72.09 71.27 70.58
48.76 49.32 46.02 37.64 34.20 35.99 38.76 42.80 44.21 45.47 47.87 48.70 49.91 47.42 56.56 62.93 65.94 67.49 68.41 68.39 68.04 68.92 69.74 69.68 69.95 70.89 71.95 72.43 72.76 72.81 72.73 72.18 72.34 72.76 73.27 73.65 73.66 73.66 72.93 72.06 71.75 73.00 73.56 73.62 73.47 72.58 71.43 70.16 69.60
48.04 44.42 37.37 33.85 36.19 38.23 43.72 45.45 46.59 45.54 46.40 47.82 49.09 48.40 54.66 61.24 67.53 68.36 67.53 67.62 67.29 68.40 69.18 69.43 69.12 70.46 72.03 72.73 72.92 72.42 71.34 71.51 72.00 72.67 72.84 73.00 73.36 73.19 72.19 71.68 71.68 72.23 72.89 72.90 72.87 71.76 70.43 69.62 69.20
43.05 42.50 33.21 34.09 38.22 41.09 42.76 45.48 47.02 46.83 47.23 47.86 48.57 51.07 54.24 63.08 67.08 67.44 67.18 66.86 68.60 67.91 68.62 68.98 69.83 70.60 71.28 71.87 71.96 70.90 70.42 70.84 71.35 71.89 72.24 72.56 72.32 72.14 71.56 71.35 71.15 71.25 71.61 71.50 71.16 70.23 69.76 69.24 69.10
41.05 36.57 34.63 35.47 36.68 39.50 43.62 47.08 46.23 47.33 46.30 46.26 50.17 48.28 54.03 61.45 65.59 66.86 67.41 68.41 68.02 67.99 67.84 68.02 68.70 70.18 69.96 69.72 69.92 69.53 70.05 70.41 70.82 71.06 71.17 71.07 70.48 70.41 70.84 70.92 70.82 70.64 70.76 70.69 70.23 69.56 68.98 68.89 68.57
44.41 40.63 35.91 38.28 38.68 39.13 44.71 47.51 48.09 47.00 46.60 52.52 51.17 47.03 53.34 58.13 63.93 68.39 68.32 67.60 66.90 67.06 67.42 67.30 67.48 68.18 68.97 69.69 68.90 68.90 69.22 69.03 68.99 70.00 69.94 69.22 69.32 69.36 69.75 69.82 70.14 69.94 70.19 70.11 69.72 68.78 68.31 68.22 67.10
45.75 36.99 37.72 39.23 39.95 42.23 46.86 44.84 46.66 47.55 46.97 47.56 52.13 51.50 58.49 62.29 66.97 67.50 67.75 67.53 66.89 66.83 66.61 67.12 67.21 66.56 66.40 67.37 69.42 69.17 69.65 68.73 68.14 68.51 68.45 67.66 68.54 68.59 68.80 68.45 68.82 69.18 68.93 69.02 68.96 68.18 67.53 66.72 65.82
41.34 37.28 40.93 44.07 46.13 45.48 47.22 47.27 48.46 45.62 45.44 46.49 54.06 57.95 61.37 64.55 65.36 65.26 65.76 66.18 66.38 65.92 66.12 66.99 66.76 66.45 66.01 68.05 67.78 67.61 69.15 68.56 67.82 67.84 67.80 67.57 67.03 67.14 68.15 67.51 67.48 68.02 67.76 67.96 67.78 67.21 66.56 65.35 63.15
40.88 40.58 45.62 46.27 45.81 46.63 46.48 46.58 48.20 45.79 45.41 45.14 50.42 55.22 59.47 62.63 63.62 64.30 65.30 66.79 67.15 67.50 67.10 67.37 66.81 66.65 66.43 66.70 66.35 66.66 67.36 67.16 67.09 66.94 66.62 66.46 66.56 66.28 65.86 65.18 66.14 65.30 66.72 66.15 65.90 65.76 63.50 62.03 61.89
34.85 41.75 45.20 46.39 47.64 46.67 46.18 45.91 47.06 44.22 46.96 49.72 46.32 55.22 57.33 59.33 61.60 63.51 64.46 65.61 66.56 68.05 67.97 67.69 67.37 67.24 66.94 67.10 66.08 66.15 66.37 66.17 66.57 66.82 66.33 66.39 66.10 65.29 64.32 64.43 64.19 63.79 63.25 65.15 65.28 64.15 61.68 61.24 61.85
37.49 39.34 41.43 43.35 45.73 47.25 48.32 46.69 47.13 48.14 50.51 51.42 50.22 50.95 50.81 53.48 58.24 62.81 65.03 66.32 67.15 67.76 68.78 68.22 68.13 67.52 67.80 67.21 66.54 66.24 66.11 66.13 65.95 65.95 66.56 66.71 65.78 65.54 64.89 63.83 63.80 63.60 63.64 63.59 63.05 61.37 61.20 60.45 60.97
43.20 42.41 41.31 42.28 42.30 43.57 45.41 46.45 47.31 48.99 49.75 50.30 50.19 47.93 47.62 48.55 51.46 51.43 56.48 63.65 66.16 67.78 68.35 68.92 68.48 68.25 68.15 67.52 67.28 66.77 66.79 66.56 66.20 66.11 66.48 66.47 65.79 64.98 64.53 64.07 63.62 63.28 63.67 63.15 62.44 61.74 60.82 59.99 59.79
40.77 38.90 42.53 43.35 43.65 42.15 44.05 41.50 44.14 49.43 49.86 48.98 49.41 48.46 48.25 48.24 48.46 48.57 49.98 53.03 64.89 67.15 68.22 68.48 68.76 68.49 67.82 67.11 67.63 67.45 66.99 67.31 66.81 66.56 66.23 66.36 65.56 64.32 63.96 63.92 63.55 63.85 63.64 62.32 61.76 60.54 59.32 58.77 59.43
34.80 35.53 31.67 40.56 42.35 44.15 41.33 36.36 44.32 48.47 48.51 47.39 47.55 47.94 48.70 48.55 49.01 48.47 48.85 48.51 54.06 65.94 66.60 67.83 69.31 68.32 67.78 67.36 67.69 67.76 66.89 67.30 66.70 66.42 66.63 66.16 65.85 64.89 63.77 63.43 63.20 62.74 63.17 62.82 61.64 61.62 60.78 59.83 60.41
30.65 27.04 30.66 34.84 41.79 41.84 39.90 38.32 44.20 47.06 47.87 48.11 47.36 47.14 47.61 47.92 48.15 48.91 49.81 49.10 49.72 54.71 65.34 66.57 67.93 67.83 67.67 67.59 67.39 67.54 66.49 66.68 66.01 65.33 65.98 66.16 66.01 65.22 64.20 63.47 62.64 62.75 62.31 62.40 62.12 61.82 61.62 60.42 60.03
25.94 27.54 30.37 31.87 37.01 40.73 39.23 39.49 43.76 45.49 46.73 48.02 48.30 45.81 46.65 47.08 48.41 50.12 49.91 50.39 50.48 50.56 59.21 65.86 67.07 67.25 67.98 67.50 66.50 66.03 65.05 64.58 65.28 64.97 64.71 64.58 65.83 65.22 63.82 63.00 62.57 63.50 63.45 62.08 61.81 61.63 61.71 61.20 60.17
31.60 29.42 28.83 33.40 39.09 38.25 38.48 39.52 42.64 44.45 46.05 46.54 46.89 46.35 45.44 46.99 49.69 51.37 51.71 52.73 49.86 49.49 52.36 64.02 65.54 66.79 67.64 66.50 64.96 64.27 64.25 63.66 63.75 64.37 64.38 63.67 63.91 65.02 63.87 63.05 62.35 62.25 62.95 62.72 62.42 61.85 61.00 60.22 61.11
31.86 28.85 28.34 33.36 37.59 37.12 37.48 38.95 41.82 44.49 45.03 45.03 46.86 45.47 45.97 45.38 46.70 48.99 49.24 49.77 50.17 50.43 52.19 62.66 65.13 66.59 67.18 66.97 66.54 65.26 64.43 62.74 63.51 63.26 63.57 64.01 63.29 63.50 63.35 62.83 62.18 61.88 62.00 61.70 62.41 61.47 60.26 60.38 61.04
32.30 29.22 29.05 29.19 33.90 36.14 37.42 36.02 39.78 44.47 46.49 48.10 48.27 47.47 47.19 48.13 46.97 51.15 52.78 53.10 53.87 54.41 54.93 60.10 64.40 66.59 67.18 67.23 65.47 62.75 61.62 61.34 60.22 61.74 62.77 62.90 63.41 63.46 63.63 62.71 62.14 61.29 61.74 61.62 61.30 61.32 60.37 58.63 59.88
29.86 35.59 33.49 31.86 30.31 25.13 39.42 27.71 36.14 39.53 41.54 46.08 45.64 45.07 47.38 50.42 51.34 51.50 51.10 50.49 50.19 50.94 54.34 56.02 59.35 65.34 66.81 66.89 64.91 63.57 62.99 61.49 62.54 62.50 62.69 62.44 63.03 63.01 63.02 62.43 61.42 61.34 61.54 61.13 60.51 60.91 60.09 58.72 57.26
32.18 36.69 34.11 32.45 29.57 32.89 33.87 31.51 32.65 37.26 38.12 42.38 46.21 48.92 48.25 47.78 47.35 46.82 47.11 47.35 46.81 47.90 49.36 52.16 54.13 57.05 64.52 65.29 65.50 64.26 63.84 63.86 60.56 61.22 60.78 62.07 62.25 62.48 62.68 61.58 60.35 59.17 58.29 57.84 58.79 59.32 59.06 59.03 57.91
38.69 35.76 36.26 34.50 32.52 25.37 31.68 31.23 29.01 35.27 40.25 44.99 46.83 46.38 45.44 44.42 43.94 43.82 44.28 44.79 44.46 45.09 46.23 48.17 49.39 51.67 55.33 59.43 64.16 63.90 63.20 61.99 60.55 60.61 60.54 60.86 61.21 60.58 61.72 61.18 59.92 58.84 57.36 56.56 57.24 58.64 58.85 58.56 58.74
35.98 31.03 19.77 22.12 23.17 22.47 33.65 31.70 33.30 42.78 45.03 43.97 42.64 42.31 42.53 41.97 41.00 40.48 39.97 40.44 41.63 42.29 43.63 46.28 46.49 47.79 50.99 52.90 58.82 63.68 63.92 61.94 61.07 61.06 61.08 60.50 60.14 60.23 60.97 60.76 59.69 57.85 57.70 57.60 57.54 57.64 58.12 58.54 58.38
33.04 31.21 22.92 18.32 20.84 24.40 34.79 27.06 33.48 45.05 44.64 43.89 42.53 40.93 40.61 39.72 39.47 39.21 39.29 39.15 39.43 41.49 42.22 43.64 45.28 46.97 50.22 50.86 53.58 62.90 63.52 62.37 61.98 61.20 61.25 60.64 60.62 60.55 60.75 60.95 59.97 58.04 57.44 58.15 57.30 56.94 57.84 58.46 58.36
32.69 28.58 34.38 28.73 30.93 25.53 27.54 35.22 40.05 40.85 40.20 39.63 39.25 38.87 37.33 37.64 37.98 37.82 38.52 38.41 38.77 39.86 41.06 42.84 44.11 45.66 48.71 52.86 57.88 59.45 62.81 62.35 61.47 61.09 60.96 60.70 60.67 60.88 60.58 61.28 59.58 57.76 57.46 57.95 57.36 56.70 57.04 57.66 57.98
36.63 37.28 26.68 28.19 19.45 16.97 27.65 30.42 30.83 35.18 34.99 36.96 36.66 36.46 36.77 36.58 36.53 36.84 37.49 38.29 39.02 39.60 40.71 42.46 43.13 43.70 46.54 49.56 57.21 59.60 62.24 62.55 61.92 61.02 60.27 60.20 60.15 59.84 59.94 60.42 59.78 59.16 58.45 58.09 57.66 56.80 57.53 57.28 57.08
33.05 32.81 33.51 32.29 30.03 21.71 26.28 25.63 33.78 32.15 34.67 32.69 35.81 35.48 35.89 36.01 35.99 36.60 37.28 38.15 39.27 39.44 40.42 40.76 41.63 42.15 43.93 46.99 54.44 60.20 62.09 62.33 61.38 61.15 60.84 60.22 59.60 59.50 59.55 59.78 60.08 59.36 58.21 58.23 57.70 57.47 57.31 57.50 57.14
37.58 35.19 35.01 24.82 26.99 32.39 29.94 25.25 34.32 32.15 34.31 34.32 34.27 34.81 35.30 35.75 35.82 35.95 36.59 37.22 37.54 38.61 39.16 39.25 40.32 40.80 42.47 45.11 49.47 58.38 59.37 59.64 60.82 60.76 60.48 60.18 59.52 59.77 59.33 59.39 59.43 59.41 58.85 58.44 57.50 57.14 57.30 56.98 56.94

GFSSGP_sfc_wetblb_120.txt.gz
Wetbulb
53.58 52.12 50.35 45.93 36.35 31.95 26.59 32.93 35.61 37.05 37.53 42.05 44.35 44.02 44.55 48.53 53.25 48.36 63.81 66.93 68.27 69.25 70.63 71.50 72.15 72.64 72.74 72.78 72.83 72.74 73.22 73.62 73.72 73.52 73.57 73.69 73.91 73.96 74.13 73.95 73.83 73.84 73.98 73.48 73.53 73.13 72.96 72.71 72.60
50.68 52.35 47.84 40.52 31.06 25.22 27.87 34.67 35.73 38.96 42.27 44.50 45.78 46.64 47.83 50.40 60.03 62.66 64.03 67.35 68.64 69.79 70.46 71.00 71.92 72.15 72.50 72.33 72.53 72.69 73.24 73.25 73.46 73.44 73.66 73.81 73.93 74.00 73.87 73.71 73.20 73.47 73.82 73.41 73.33 73.06 72.76 72.48 71.92
50.87 50.85 42.83 37.78 28.43 27.82 29.55 34.74 37.22 40.83 43.53 42.72 43.15 45.47 47.41 53.89 62.75 63.44 65.78 67.91 68.84 69.42 70.34 70.76 71.33 71.73 72.33 72.24 72.34 72.62 72.49 72.43 72.75 73.05 73.73 73.88 73.93 74.00 73.88 73.08 72.86 73.38 73.79 73.26 72.43 72.36 72.10 71.41 70.71
47.59 46.74 42.58 34.72 31.04 33.57 34.19 37.96 39.69 41.82 43.94 43.61 43.24 42.58 47.70 59.75 63.77 65.04 67.63 68.27 68.35 69.39 70.08 70.15 70.37 71.11 72.02 72.35 72.44 72.56 72.09 71.78 71.84 72.36 73.30 73.76 73.86 73.84 73.49 72.71 72.67 73.16 73.59 72.41 71.82 71.57 71.30 69.95 69.89
45.59 41.96 32.66 30.04 32.60 36.29 38.78 41.42 41.75 42.11 42.67 43.83 43.95 43.02 45.89 60.94 65.83 67.28 67.46 68.05 67.56 68.49 69.03 70.00 69.48 70.80 71.68 72.39 72.51 72.11 71.46 71.21 71.61 72.27 72.70 73.14 73.37 73.25 72.53 72.04 72.51 72.75 72.87 72.73 72.24 71.36 70.12 69.57 69.31
38.79 40.08 31.17 28.74 31.82 37.30 40.03 43.26 43.80 43.93 43.75 45.12 43.43 42.70 50.18 62.55 64.46 66.07 67.43 66.72 67.63 67.81 68.22 69.45 70.22 70.53 70.86 71.41 71.51 71.03 70.64 70.61 71.15 71.54 72.00 72.64 72.56 71.97 71.50 71.25 71.64 71.90 71.98 71.91 70.95 70.06 69.61 69.23 68.94
36.52 35.53 30.39 30.66 32.79 36.26 40.36 43.35 41.89 43.34 42.66 43.07 45.00 42.37 46.89 59.40 64.40 65.21 64.76 65.44 66.42 67.05 67.52 67.88 69.18 70.06 69.88 69.75 69.66 69.39 69.82 70.06 70.48 70.73 70.93 71.36 70.71 70.56 70.75 70.74 71.12 71.33 71.22 70.98 70.00 69.32 68.84 68.79 68.39
41.13 37.05 30.29 31.47 33.43 34.56 42.56 43.91 45.30 43.57 43.86 48.45 46.35 42.63 44.02 56.16 63.88 64.63 64.85 64.23 64.88 66.07 66.78 67.48 67.68 68.49 68.47 69.66 68.69 68.76 69.05 69.12 69.37 69.77 69.72 69.36 69.50 69.81 70.14 69.95 70.28 70.55 70.64 70.23 69.64 68.63 68.37 68.08 67.28
42.62 34.81 31.38 33.06 35.89 36.85 43.13 42.51 45.34 45.22 44.41 45.24 47.48 47.36 51.70 59.94 64.80 63.65 62.94 62.64 64.15 65.17 65.85 67.18 68.04 68.72 69.28 69.16 69.30 68.53 69.21 68.92 68.76 69.30 68.90 67.81 68.94 69.07 69.45 68.98 68.95 69.80 69.58 69.33 69.00 68.35 67.54 66.73 66.31
38.11 31.75 35.97 40.54 40.85 39.62 43.82 44.13 45.15 44.43 44.59 45.09 46.74 49.68 57.97 64.19 63.09 61.85 61.64 61.37 62.25 63.51 65.22 66.78 67.61 67.55 68.18 68.48 69.10 68.98 69.29 69.28 69.17 69.48 68.35 67.34 66.68 67.20 68.40 68.35 68.06 68.64 68.60 68.40 68.20 67.52 66.67 65.34 65.06
37.65 35.32 39.06 40.35 42.42 42.73 40.21 42.16 44.11 42.99 41.40 44.29 45.41 46.43 56.62 61.00 62.39 61.31 61.19 61.40 61.82 63.42 64.79 66.13 66.49 66.80 66.98 67.45 67.84 68.40 68.52 68.29 66.88 67.18 67.29 67.22 65.80 65.91 66.32 66.18 67.43 66.46 67.73 66.32 66.32 66.09 65.24 62.92 62.40
31.19 35.61 37.83 38.26 39.00 37.79 36.39 40.77 41.14 41.53 42.77 48.02 47.80 49.05 50.31 57.47 60.61 62.63 61.91 61.40 60.86 62.53 63.76 65.14 65.95 65.94 66.72 67.56 67.20 66.96 67.46 67.96 67.21 65.89 65.71 67.63 66.95 65.64 64.05 65.28 65.12 64.81 65.05 64.31 64.23 65.50 62.72 61.95 61.84
34.49 34.98 37.19 37.57 37.79 37.89 40.39 38.48 38.47 40.41 44.64 46.72 48.52 49.32 49.12 48.29 57.43 62.53 64.17 63.49 63.32 61.61 63.14 64.23 65.37 65.41 65.74 65.70 66.38 66.29 66.33 67.32 67.45 66.60 66.12 67.86 67.43 66.20 64.19 63.26 64.01 63.85 63.42 63.88 63.79 64.25 61.27 60.88 60.78
35.67 34.83 35.16 36.03 35.80 36.69 36.92 38.16 39.74 41.65 42.75 44.45 46.20 46.97 48.20 48.45 48.64 58.50 62.44 62.33 63.80 64.25 62.83 64.00 64.76 64.86 65.03 64.86 65.04 65.40 65.81 66.30 66.28 66.72 66.89 67.52 67.10 66.11 65.24 63.29 62.88 62.38 64.06 65.52 64.89 63.54 60.73 60.26 60.47
35.60 31.83 34.52 34.58 33.26 33.96 38.23 35.08 36.58 42.04 44.12 43.51 44.01 45.46 47.95 49.19 47.96 52.54 60.87 62.26 63.85 65.48 64.98 64.24 64.40 64.65 64.49 64.65 64.31 64.45 65.00 65.36 64.83 65.36 66.33 66.09 66.56 66.00 65.25 64.29 62.52 62.43 62.30 63.32 63.08 61.37 59.42 59.20 59.62
31.11 29.85 25.60 32.68 34.14 34.76 32.54 29.01 37.55 42.16 41.91 42.16 43.53 44.56 46.23 48.06 47.72 48.42 57.45 61.13 63.15 65.49 65.76 65.74 65.42 64.55 64.27 64.42 64.12 64.02 64.09 64.34 64.18 64.26 65.18 65.74 65.45 65.42 64.08 64.23 63.00 61.80 61.75 61.35 60.55 60.58 60.36 58.40 58.22
25.96 22.80 24.96 28.94 33.55 33.36 31.97 29.81 36.36 39.46 41.14 41.62 43.06 43.72 43.89 46.86 46.38 47.17 48.17 56.51 62.38 64.56 65.73 66.69 66.13 64.84 64.35 64.49 64.65 63.95 63.33 63.75 63.75 63.66 64.16 65.04 65.32 64.50 64.65 64.36 63.32 61.89 62.23 61.83 61.16 61.42 61.14 59.82 59.12
21.81 22.37 22.57 24.66 29.63 33.55 31.29 30.49 34.62 36.97 37.43 38.85 40.37 42.76 43.11 44.80 47.15 49.41 47.61 47.00 54.64 62.30 65.44 66.77 67.35 66.67 65.34 64.91 64.87 64.79 64.40 64.29 64.45 64.52 64.44 64.03 64.96 64.23 63.89 63.52 62.27 62.73 63.01 62.59 62.05 61.71 61.56 60.95 60.44
28.45 26.97 25.49 29.21 33.88 32.31 31.24 30.69 32.87 36.36 36.91 36.16 39.85 40.42 42.35 43.86 48.30 48.47 51.98 51.48 47.11 48.04 47.09 62.21 66.23 66.85 66.43 66.03 64.57 64.68 63.90 64.81 64.93 64.80 64.92 64.55 64.72 64.23 63.48 63.26 61.85 62.89 63.11 62.35 61.75 61.84 60.77 60.13 60.77
27.47 24.92 24.68 29.49 33.30 32.29 31.32 31.11 33.35 35.38 35.57 36.42 38.56 39.67 42.55 43.76 46.11 49.48 48.26 48.06 47.21 47.25 48.49 50.83 60.48 65.48 66.27 66.56 65.93 65.38 65.16 65.47 65.40 65.48 64.98 65.14 64.98 64.23 63.90 63.61 62.44 62.81 62.86 62.81 61.98 61.72 60.23 60.45 60.68
28.04 25.95 26.06 25.50 29.81 31.72 31.29 28.81 30.60 35.08 36.27 37.01 38.57 42.23 43.63 44.00 45.34 45.59 45.20 44.69 43.85 43.95 44.74 47.79 51.05 61.55 65.98 66.77 66.34 62.98 63.07 61.68 62.58 62.86 63.84 64.66 65.32 64.56 64.33 63.43 62.97 62.90 63.24 62.79 62.40 62.14 61.03 59.32 59.98
24.57 31.43 30.61 28.83 26.34 21.47 30.99 21.44 29.13 32.58 34.50 39.15 39.15 38.23 37.90 37.92 39.45 40.35 41.23 42.62 41.42 42.02 44.16 46.19 49.05 52.76 60.25 65.42 65.33 64.02 63.75 62.93 63.79 64.18 64.26 64.43 65.04 65.01 64.38 63.41 62.64 63.05 63.29 62.93 62.44 62.55 61.82 60.48 58.03
28.64 33.89 31.49 30.04 27.36 27.70 27.00 21.52 24.79 32.57 35.68 36.21 36.69 37.44 37.23 37.20 36.94 37.15 38.03 39.78 41.35 41.43 42.60 44.84 49.01 51.36 53.57 56.01 64.06 63.23 63.24 63.18 60.97 62.01 62.81 64.07 62.76 63.18 63.62 62.76 62.21 62.63 62.66 62.65 61.61 61.85 61.70 61.17 59.81
34.51 31.28 30.93 30.31 28.52 21.28 26.16 22.94 21.89 32.04 35.92 35.80 36.68 36.18 36.58 36.85 37.26 38.43 39.19 39.64 40.00 41.55 41.99 43.88 46.35 48.42 50.82 53.25 54.66 58.60 62.44 60.15 60.02 60.58 61.66 62.37 62.15 62.06 62.23 62.28 61.81 61.83 62.31 62.24 62.26 61.87 60.93 60.06 60.08
30.97 26.38 17.73 15.92 15.58 19.61 29.54 22.64 26.52 32.85 35.85 36.06 35.52 35.75 36.42 36.62 36.94 37.27 37.81 38.62 39.70 40.06 41.03 42.89 44.22 45.65 47.24 49.36 50.85 53.02 55.22 59.19 60.88 61.13 62.01 61.40 61.42 61.45 61.58 62.14 62.01 61.88 62.05 62.37 61.95 61.01 60.27 60.21 59.57
27.55 26.75 20.40 16.02 18.75 22.48 31.17 23.27 28.25 34.59 35.68 35.61 36.48 36.45 36.33 36.18 36.75 36.98 37.63 38.05 38.54 39.48 40.34 40.95 41.92 42.92 44.41 46.05 47.40 49.86 52.36 55.81 59.42 62.37 61.42 61.73 61.52 61.77 62.35 62.58 62.65 62.48 61.85 61.27 60.57 60.26 59.96 59.99 59.41
28.20 25.40 30.93 25.68 26.89 23.37 28.37 29.57 32.96 33.45 32.35 32.59 33.19 34.24 35.25 34.92 35.72 36.02 37.22 37.56 38.02 38.43 39.09 39.89 40.46 41.50 42.55 43.70 45.70 48.04 50.02 52.90 56.33 60.47 61.63 61.30 60.96 59.73 60.21 62.18 62.20 61.66 61.05 59.90 59.38 59.81 59.04 58.53 58.31
32.86 36.51 26.88 25.88 19.54 18.40 25.93 24.35 23.17 27.41 28.96 30.68 30.46 31.37 33.46 35.15 34.82 35.47 36.13 36.78 37.76 38.23 38.64 38.97 39.72 40.05 40.97 42.19 43.61 45.64 47.33 49.40 51.61 57.42 62.40 60.68 60.74 60.35 60.91 61.36 61.53 61.09 60.23 59.63 59.33 59.01 58.38 57.61 57.27
31.71 29.72 31.42 31.59 28.80 22.55 20.69 21.90 30.94 28.28 30.23 28.54 30.18 31.59 31.83 32.94 33.46 34.67 35.31 36.40 37.00 37.53 37.59 37.66 37.70 38.32 39.28 40.59 42.06 43.41 44.67 46.66 49.22 57.96 60.87 61.21 59.83 60.06 59.84 60.91 60.76 60.64 59.52 59.13 58.59 58.17 57.21 56.61 55.91
37.36 31.92 31.49 23.04 22.44 27.92 21.70 19.96 32.97 30.97 31.12 31.24 30.90 31.82 32.23 32.39 32.00 32.98 33.64 34.67 35.06 35.63 36.06 36.34 36.65 36.89 38.13 39.67 40.60 41.54 42.72 44.13 45.68 47.91 53.05 60.11 59.75 59.63 59.14 59.68 60.52 59.86 59.11 58.71 58.01 56.85 56.37 55.75 55.25

GFSSGP_sfc_wetblb_123.txt.gz
Wetbulb
57.86 56.49 56.41 52.38 43.88 42.59 37.89 39.82 42.16 42.77 44.56 47.38 47.95 47.65 47.79 51.31 56.09 51.84 67.78 69.13 69.93 71.46 72.55 73.11 72.18 72.53 72.77 72.77 72.67 72.95 73.80 74.19 74.15 73.92 73.58 73.63 73.82 74.09 74.11 73.92 73.94 74.09 74.26 73.53 73.21 73.36 73.05 72.59 72.86
55.29 55.35 53.93 48.23 40.32 36.86 38.29 41.18 41.44 44.20 46.27 47.44 48.24 48.84 49.71 50.73 57.93 63.45 66.95 69.58 70.76 71.74 72.45 72.94 71.79 72.22 72.57 72.46 72.64 73.07 73.70 73.76 73.70 73.63 73.65 73.80 73.97 74.01 73.89 73.59 73.37 73.76 74.10 73.54 73.24 73.11 72.89 72.57 71.83
55.37 53.96 50.03 46.19 38.85 37.48 38.60 39.83 43.52 44.81 46.42 46.36 47.02 49.52 49.27 53.28 63.79 67.15 69.10 70.02 71.08 71.60 72.26 72.75 71.52 71.61 72.33 72.28 72.45 72.66 72.90 72.72 72.92 73.19 73.88 73.82 73.94 74.09 73.91 73.12 72.90 73.45 74.10 73.51 73.24 73.06 72.36 71.52 70.87
53.64 53.87 48.89 41.86 38.80 40.55 39.85 43.11 43.66 45.67 47.70 47.50 47.72 46.99 51.07 58.18 65.23 68.18 69.67 70.30 70.90 71.35 72.23 71.24 70.68 71.26 71.96 72.45 72.32 72.29 72.16 72.10 72.23 72.72 73.47 73.75 73.85 73.84 73.45 72.42 72.78 73.30 73.70 72.71 72.51 72.51 71.57 70.29 70.19
52.02 49.02 41.06 39.77 39.62 41.62 44.36 45.13 46.49 45.82 46.68 47.45 47.89 46.52 48.75 55.26 68.07 69.10 69.58 70.38 70.49 71.23 71.98 72.37 69.67 70.81 71.82 72.45 72.55 71.88 71.36 71.30 71.89 72.60 72.91 73.30 73.50 73.41 72.61 72.09 72.23 72.49 72.77 72.37 71.93 71.70 70.46 69.85 69.52
46.08 47.43 39.39 37.20 38.36 42.28 44.90 47.30 46.57 46.49 47.62 48.38 47.07 46.65 50.71 62.03 67.06 68.78 69.83 69.93 71.13 71.23 71.88 72.27 70.79 70.63 71.19 71.78 71.72 70.69 70.50 70.77 71.31 71.99 72.30 72.90 72.77 72.42 72.19 72.00 71.94 71.91 71.79 71.65 71.29 70.18 69.69 69.52 69.18
42.81 43.20 38.54 38.23 39.27 41.55 45.01 48.62 46.91 47.88 47.27 47.56 49.16 46.97 51.70 57.22 66.34 68.63 68.69 69.81 70.52 70.96 71.59 72.00 72.46 71.94 69.92 69.60 69.90 69.44 69.61 70.06 70.46 70.92 71.17 71.37 71.11 70.74 71.33 71.51 71.73 71.64 71.51 70.91 69.98 69.49 68.94 69.11 68.58
46.83 45.17 38.60 39.60 40.24 41.60 45.76 46.99 48.31 47.14 47.50 51.16 50.64 47.24 49.40 55.44 63.79 67.34 68.40 68.66 69.69 70.22 70.99 71.27 71.88 72.61 72.61 72.56 68.75 68.48 68.81 68.90 69.42 69.84 69.89 69.54 69.51 69.86 69.98 70.14 70.79 70.92 70.84 70.32 69.53 68.87 68.33 68.29 67.60
47.85 42.62 39.21 40.62 41.26 43.53 46.69 46.29 49.43 50.87 49.67 50.16 51.46 51.92 54.01 65.20 66.05 65.93 66.51 66.83 68.02 68.52 69.83 70.68 71.11 71.51 71.98 71.58 71.38 69.17 69.17 68.99 68.70 69.56 69.13 68.81 72.47 72.38 71.75 70.04 69.32 70.04 69.95 69.48 68.95 68.24 67.62 66.95 66.66
44.86 40.59 40.79 44.97 45.47 44.69 46.59 45.76 45.94 46.89 47.77 48.01 50.77 52.67 54.65 59.95 65.28 64.35 64.85 65.62 66.12 66.91 67.88 69.51 70.47 70.47 70.91 70.20 70.49 71.68 71.85 71.48 71.58 71.83 72.00 72.27 72.44 72.43 71.52 70.06 68.34 69.01 68.85 68.58 68.22 67.62 66.58 67.17 69.19
42.71 39.66 42.98 44.38 45.22 42.00 41.69 42.04 45.62 43.69 43.17 48.00 47.25 49.47 51.89 52.87 55.61 61.40 64.44 65.05 65.26 66.79 67.81 68.53 69.26 70.10 69.61 69.25 69.49 70.27 70.64 70.00 70.46 71.10 71.64 72.07 71.55 71.76 71.73 72.09 71.19 71.81 69.08 70.76 69.42 69.17 69.42 67.67 67.23
35.80 38.35 39.72 40.19 40.53 39.49 38.78 41.57 41.39 42.75 43.45 46.83 47.22 48.23 48.91 49.60 51.04 53.71 61.14 65.75 65.13 64.95 66.59 68.08 68.70 68.78 68.90 69.27 68.66 68.79 68.69 68.68 68.65 69.03 69.67 69.43 69.59 70.65 71.11 71.08 71.17 71.03 70.91 70.67 69.95 69.31 67.46 69.10 68.35
38.73 39.42 38.83 39.73 39.49 39.70 40.24 38.87 39.39 40.46 44.24 46.57 47.76 48.06 48.26 49.79 52.02 54.41 58.32 63.24 66.84 65.17 65.60 67.11 67.21 67.48 67.17 68.03 68.27 68.22 67.68 68.14 68.48 68.20 69.09 69.18 68.97 68.64 69.95 70.60 70.39 70.71 70.99 70.15 69.18 68.41 68.78 68.53 67.90
37.88 37.87 38.16 39.20 39.02 39.30 37.81 38.77 39.00 41.50 44.46 45.34 46.12 46.46 47.97 48.88 50.47 51.94 53.92 59.39 65.94 66.71 65.94 66.82 67.26 68.02 67.59 67.24 67.88 67.23 67.60 68.14 68.19 68.32 68.82 69.29 69.52 68.46 68.33 68.90 69.45 68.96 70.05 69.80 69.02 67.77 68.01 68.15 67.68
38.47 35.02 37.55 38.21 37.86 37.63 39.01 35.97 36.94 42.70 43.09 43.71 45.34 47.03 48.67 49.53 50.66 51.58 53.39 55.04 61.67 66.33 67.78 66.08 67.24 68.06 68.05 67.43 67.53 67.03 67.09 67.26 67.18 67.66 68.55 68.75 68.70 68.61 67.62 67.10 68.13 68.92 68.78 68.65 67.72 66.36 65.63 67.26 66.30
35.18 35.22 29.94 35.55 37.37 37.70 37.54 31.17 38.26 41.18 41.17 40.86 42.21 44.55 46.88 48.08 49.77 51.68 53.35 54.69 58.20 63.88 67.76 66.91 66.63 67.29 67.55 67.65 67.55 66.71 66.82 66.53 66.11 66.69 66.75 67.06 67.67 68.00 66.86 65.79 66.71 68.20 67.13 66.14 64.84 63.68 63.73 66.13 65.98
31.64 28.90 30.23 32.69 37.85 37.46 35.89 32.53 38.22 41.53 40.71 40.44 41.73 42.27 43.09 47.15 48.88 50.98 52.99 54.33 56.68 63.46 67.33 67.75 67.06 66.82 67.19 67.82 67.69 67.68 67.22 65.93 65.33 65.80 65.88 66.14 66.97 67.19 65.92 65.81 66.32 67.34 66.85 65.81 63.92 63.02 63.86 62.53 63.02
28.10 28.36 30.58 29.71 34.89 35.98 33.73 33.33 37.88 40.00 40.14 40.50 41.49 42.31 42.86 43.55 46.73 50.91 52.53 53.91 54.11 59.40 66.74 68.44 68.17 67.67 67.44 67.09 67.20 67.05 66.84 66.92 67.17 66.53 67.14 66.87 65.95 66.14 66.50 66.38 65.83 66.23 65.41 65.12 64.77 64.24 63.45 63.47 63.29
32.40 30.29 28.72 32.00 35.59 33.46 32.51 33.06 35.71 38.84 39.77 39.91 41.65 41.76 42.15 43.03 47.32 51.95 53.71 53.76 52.94 54.73 59.83 67.45 67.98 67.93 67.11 65.95 65.55 65.50 64.83 65.95 66.20 66.65 67.35 67.58 67.83 65.91 66.76 66.14 65.35 65.06 64.97 64.49 64.40 63.88 62.30 62.29 62.82
31.02 28.26 28.55 32.44 35.27 34.38 33.17 32.24 36.04 37.86 38.70 41.32 41.19 41.20 41.76 42.92 45.59 50.33 49.83 49.64 50.03 50.78 52.44 55.33 63.01 68.38 67.62 67.25 66.91 67.16 66.94 66.95 67.08 66.98 66.75 67.36 67.26 67.53 67.49 66.40 65.19 64.83 64.68 64.43 63.92 62.94 61.51 62.10 62.25
30.60 28.88 29.44 29.04 33.40 35.21 33.33 31.40 34.74 39.21 41.07 41.89 41.46 41.53 41.25 41.39 42.46 43.71 45.34 46.33 47.27 47.83 49.21 52.04 54.75 59.04 67.83 68.76 68.15 67.22 67.74 66.96 65.79 65.68 65.32 65.67 67.12 67.26 67.43 66.81 65.72 64.84 65.17 63.48 62.97 62.72 62.74 60.75 62.18
27.73 33.60 32.23 30.67 29.49 24.51 33.38 22.56 32.24 36.79 38.68 39.22 37.74 37.81 38.25 38.69 40.96 41.81 42.53 43.77 44.49 45.41 47.94 51.32 55.15 57.65 60.57 65.83 67.53 66.03 65.25 64.23 65.54 65.13 65.23 65.37 66.79 67.30 67.47 66.49 65.60 64.95 65.10 64.94 63.93 64.57 64.99 64.08 60.91
30.88 35.05 32.78 32.24 29.78 29.01 29.59 26.11 30.91 35.44 32.00 34.96 36.56 36.28 37.05 37.98 39.13 39.63 40.90 42.18 43.18 44.17 45.71 49.48 53.12 54.09 55.07 59.65 63.23 66.23 65.50 67.18 67.60 66.82 65.34 65.26 65.76 66.91 66.72 66.12 65.37 65.12 65.15 64.95 63.94 63.91 64.92 64.06 63.03
35.87 33.09 33.29 33.05 30.06 22.40 29.15 27.24 28.03 28.35 30.45 33.23 34.85 36.14 36.66 37.28 38.17 39.00 40.15 40.94 41.26 42.84 44.85 47.23 48.93 49.34 51.54 53.25 54.15 56.70 63.90 65.67 64.81 66.01 65.23 64.85 65.39 65.29 65.24 64.96 64.98 64.62 64.26 64.56 64.01 64.88 65.29 64.04 63.16
33.56 29.71 23.31 22.28 22.91 22.02 31.67 27.82 27.89 32.17 32.76 33.08 32.58 34.01 35.99 37.16 37.44 38.02 37.77 38.60 39.22 40.05 41.53 43.45 44.65 44.76 47.81 48.75 50.01 51.35 53.16 55.57 59.84 65.35 65.12 64.70 64.22 63.48 63.96 64.14 64.00 64.04 64.00 63.87 64.10 63.68 64.99 64.24 63.57
31.36 30.55 24.19 16.13 19.78 22.77 31.00 26.07 27.40 33.72 34.81 34.06 32.85 33.99 34.01 35.43 36.45 36.99 37.87 37.76 38.12 38.94 39.57 40.73 42.07 42.89 44.58 45.64 47.12 49.18 51.16 52.96 55.17 57.80 61.72 64.17 63.56 64.24 64.22 64.02 64.63 64.57 63.76 63.67 63.92 63.37 63.36 63.32 63.30
30.49 27.95 33.32 26.27 27.46 23.08 27.69 29.00 33.16 32.22 31.31 31.90 31.78 32.44 31.70 32.63 34.31 35.57 36.81 37.98 38.74 39.50 39.90 39.84 40.48 41.45 43.29 43.58 46.05 46.85 48.76 49.36 50.22 52.81 56.16 61.38 64.44 64.99 65.39 64.52 63.78 64.44 64.35 63.32 62.97 62.31 62.11 61.63 61.34
35.61 37.12 28.33 28.76 20.15 20.26 25.67 24.26 22.68 26.52 27.79 30.06 29.87 29.80 31.16 32.01 32.32 33.49 35.19 35.90 37.57 38.41 39.27 39.47 39.93 38.56 40.10 41.32 42.90 44.13 45.06 46.44 48.06 50.44 54.32 58.59 62.45 63.81 64.13 64.24 64.67 64.59 64.12 62.45 61.60 60.68 61.14 60.48 60.84
33.35 31.87 32.78 32.64 30.03 23.85 22.00 21.93 29.95 28.22 29.43 28.89 29.68 30.42 30.46 31.20 31.44 31.94 33.34 34.82 35.51 36.60 37.26 37.33 37.50 38.00 38.09 39.22 40.79 42.03 42.29 43.70 45.34 46.83 47.91 51.00 60.15 62.40 62.38 63.11 63.17 63.15 62.49 61.34 60.13 59.77 60.71 59.86 59.88
37.97 34.69 34.24 27.95 26.23 29.55 26.99 21.26 31.89 30.86 30.52 30.71 29.65 30.34 30.97 31.06 31.39 31.71 31.98 32.58 33.58 33.99 35.00 35.87 36.21 37.03 37.91 38.32 39.12 39.84 40.94 41.51 42.43 43.45 44.82 46.27 49.00 61.82 61.51 61.87 62.13 62.81 62.24 60.90 59.44 59.16 59.57 58.96 58.46

GFSSGP_sfc_wetblb_126.txt.gz
Wetbulb
60.69 59.48 60.73 56.36 47.24 46.39 43.83 44.33 47.65 46.74 47.98 51.56 51.90 49.90 48.97 52.27 51.48 53.83 70.42 72.04 72.47 73.28 74.88 74.02 72.09 72.66 72.95 73.15 73.44 73.89 74.43 74.66 74.13 73.85 73.87 73.99 74.13 74.18 74.28 74.23 74.04 74.34 74.80 74.02 73.49 73.39 73.08 72.96 73.27
58.53 58.18 57.64 53.73 44.98 43.12 45.58 47.30 45.60 47.69 49.03 50.89 50.80 50.78 51.04 51.25 58.07 62.03 67.17 71.97 72.76 73.86 75.02 74.42 71.72 72.30 72.59 72.73 73.03 73.66 74.44 74.37 74.11 73.91 73.87 74.06 74.23 74.33 74.20 73.90 73.62 74.06 74.50 73.98 73.44 73.16 72.96 72.58 72.51
58.51 58.17 53.07 49.63 46.94 44.83 46.57 45.66 47.33 48.28 49.55 49.61 49.26 51.87 51.53 52.25 58.61 63.79 71.66 72.33 72.85 73.83 74.77 74.48 71.43 71.62 72.26 72.38 72.72 73.29 73.66 73.77 73.58 73.58 74.09 74.25 74.35 74.30 74.04 73.31 73.23 73.79 74.32 73.81 73.42 73.30 72.77 71.90 71.44
56.74 55.45 52.49 46.60 45.92 47.66 45.74 47.65 47.90 48.18 50.90 50.88 50.68 49.32 52.60 56.22 63.09 68.78 72.30 72.22 72.72 73.65 74.49 71.79 70.41 71.43 72.12 72.45 72.60 72.79 72.88 72.48 72.68 73.13 73.87 74.28 74.37 74.15 73.56 72.74 73.06 73.89 74.09 74.08 73.53 72.89 71.80 70.80 70.59
56.24 53.78 48.56 46.37 47.34 48.90 49.48 50.39 50.38 49.36 50.38 51.05 51.85 50.75 52.03 58.71 65.10 68.14 72.28 71.97 72.39 73.70 74.71 74.13 69.68 71.03 71.73 72.58 72.64 72.37 71.95 71.84 72.27 73.03 73.29 73.53 73.89 73.81 72.99 72.40 72.68 73.02 73.26 72.84 72.97 72.07 70.93 70.19 70.02
51.32 52.41 46.40 45.66 47.64 48.31 49.91 52.14 50.92 50.43 51.77 52.69 51.40 51.39 52.84 59.99 62.37 66.54 71.52 72.48 73.53 73.89 74.73 74.45 71.15 70.83 71.18 71.75 71.66 70.97 70.90 71.13 71.72 72.35 72.69 73.28 73.02 72.69 72.32 72.08 72.09 72.26 71.79 71.45 71.63 70.67 70.23 69.95 69.66
49.30 48.05 46.44 47.02 46.31 47.21 49.62 53.30 51.22 51.59 52.04 51.71 53.06 50.24 54.79 57.33 64.71 68.58 70.78 72.81 73.69 74.56 74.74 75.02 74.06 72.80 70.22 70.03 70.01 69.40 69.86 70.42 70.99 71.31 71.60 72.01 71.41 71.20 71.74 71.73 71.83 71.90 71.36 71.25 70.75 69.65 69.28 69.44 69.08
52.51 49.57 45.85 46.68 45.18 46.64 50.56 51.00 52.43 51.65 50.85 54.72 53.74 51.40 52.21 59.10 65.40 67.39 70.68 71.78 73.07 73.99 74.44 74.83 74.50 74.16 74.01 73.68 68.89 68.68 69.08 69.40 69.97 70.55 70.53 70.20 70.26 70.71 71.08 70.83 71.11 71.49 71.26 70.66 69.80 69.18 68.90 68.77 67.88
53.06 46.32 43.99 45.51 45.83 47.24 50.41 49.40 52.86 53.86 52.49 53.51 54.66 55.03 57.02 58.50 59.58 63.79 66.20 68.74 71.45 72.37 73.63 74.47 74.22 74.31 74.35 74.28 72.85 69.51 69.25 69.04 69.16 70.37 69.59 69.54 73.29 73.59 73.08 71.05 70.03 70.25 70.38 69.79 69.25 68.79 68.14 67.54 67.07
48.02 44.49 44.05 48.36 48.75 47.64 49.28 49.25 49.86 49.68 50.36 50.93 52.32 55.55 57.02 56.77 56.79 56.58 57.81 63.07 68.27 70.87 72.28 73.41 73.78 73.90 74.26 73.38 74.21 73.47 73.17 72.44 72.48 72.90 73.09 73.03 73.05 73.35 72.37 70.63 69.04 69.16 69.16 68.97 68.52 68.14 67.36 67.44 71.13
45.83 43.02 46.29 47.18 48.14 46.86 46.40 46.98 49.75 47.29 46.68 49.81 49.42 50.89 52.97 53.35 54.23 54.55 55.67 57.58 63.10 70.33 71.35 72.28 73.23 73.80 73.45 72.82 73.03 72.36 73.04 72.87 72.54 73.03 73.20 73.06 72.77 73.09 72.62 72.75 72.02 72.54 69.45 71.65 69.91 69.72 70.68 70.78 70.94
40.18 42.93 44.05 44.25 44.81 43.91 42.95 45.00 43.65 44.79 45.50 48.48 48.99 49.18 49.74 50.54 51.96 53.23 54.50 56.42 59.99 66.03 70.26 71.42 72.44 72.75 73.16 72.65 72.17 72.55 72.34 71.47 71.52 72.44 73.50 72.79 72.42 72.54 71.89 71.93 71.83 71.56 71.92 71.45 71.06 70.56 70.64 70.79 70.93
41.81 43.17 43.82 44.09 43.46 43.31 43.63 42.11 42.43 43.05 46.13 47.12 48.06 48.85 49.43 50.22 51.20 52.63 53.73 55.27 57.41 60.75 68.54 70.23 71.54 71.85 72.04 72.01 71.70 71.78 71.91 71.61 70.73 70.61 71.57 72.18 72.31 71.99 72.12 72.25 71.90 71.62 71.74 71.28 70.86 70.59 70.48 70.13 70.03
42.10 41.75 42.15 43.16 42.94 43.28 41.19 42.18 42.37 43.58 46.41 46.21 46.96 47.29 48.38 49.16 50.86 53.08 54.17 54.49 56.08 58.84 65.94 70.19 70.43 70.85 70.98 70.93 71.61 71.35 71.42 71.50 70.94 70.15 70.49 71.02 72.17 71.86 71.84 71.83 70.92 71.75 71.94 71.38 70.73 70.37 69.75 69.55 69.35
42.06 39.34 41.73 42.10 41.27 41.09 42.47 39.10 40.89 44.72 45.17 44.15 45.32 46.27 46.83 47.66 49.12 50.12 53.19 55.09 56.63 57.54 61.92 68.11 69.92 70.82 70.43 69.94 70.80 70.95 70.85 70.96 70.46 70.43 69.95 70.37 71.60 71.55 70.32 70.38 70.78 70.34 71.23 71.25 70.98 70.22 69.71 69.15 68.86
39.97 40.60 37.08 39.88 41.52 41.52 40.16 36.79 42.34 44.28 43.78 43.54 44.71 45.59 46.01 47.26 48.56 49.69 51.46 54.28 56.32 57.37 58.25 62.77 68.80 69.73 70.44 70.20 70.35 70.27 70.58 70.01 70.48 70.37 71.50 69.76 70.40 71.40 69.95 68.88 69.65 71.56 70.70 70.32 69.24 68.48 67.76 68.49 67.92
39.68 35.68 36.42 37.57 41.06 40.76 39.39 37.23 41.83 44.58 43.86 43.43 44.82 45.06 45.60 46.78 48.32 49.22 49.97 52.21 54.86 56.67 58.39 60.49 68.25 69.43 69.84 70.27 70.14 70.19 70.28 68.59 69.78 70.16 70.62 70.62 69.64 70.78 69.43 68.44 68.56 70.74 68.27 67.95 67.75 66.96 68.05 67.04 67.81
34.67 34.65 36.46 35.93 39.15 40.14 38.39 38.14 41.32 43.53 43.50 43.40 43.87 44.71 45.52 46.57 48.09 49.60 50.11 51.28 55.28 58.48 59.20 59.47 65.25 70.03 69.91 70.15 70.08 69.73 69.37 68.94 69.38 68.25 68.72 69.46 68.57 68.98 68.73 68.05 67.96 68.38 68.06 67.13 66.85 66.12 66.14 67.21 67.39
36.22 34.75 34.43 37.70 40.50 37.98 37.39 38.00 40.38 43.03 43.38 43.68 45.12 45.98 47.01 47.73 49.82 50.11 50.68 53.56 57.00 58.04 59.16 59.03 62.92 69.13 69.91 68.76 67.90 67.85 67.40 68.29 68.56 69.10 69.48 69.73 67.98 67.78 67.78 68.34 67.57 67.21 66.76 67.08 67.06 66.04 65.00 65.20 66.68
35.72 34.22 34.68 38.04 39.20 38.40 37.73 37.54 40.99 42.55 44.26 45.82 45.31 45.81 46.48 46.87 47.80 49.83 52.42 53.53 54.57 55.51 56.72 58.16 63.26 66.64 69.90 69.50 68.50 68.55 68.33 68.24 68.67 69.31 69.31 69.69 69.63 68.64 67.16 67.87 67.05 66.39 68.16 66.43 66.48 66.19 63.82 65.02 65.47
36.23 34.32 34.80 34.54 37.80 39.20 37.53 36.17 38.36 42.38 44.93 41.67 43.60 43.81 43.58 41.82 43.13 46.43 48.61 50.92 52.18 52.77 53.78 55.53 60.35 67.11 69.28 69.41 69.62 68.69 68.79 68.87 67.98 68.41 68.27 68.84 69.39 69.68 68.57 69.33 69.52 68.47 68.14 66.19 65.89 65.46 64.42 62.61 63.77
32.65 38.24 36.39 35.02 34.21 30.66 38.25 28.31 36.71 39.97 40.82 39.70 38.42 38.82 38.76 39.05 40.08 41.79 43.97 46.24 47.17 48.37 50.62 54.34 58.87 60.86 65.40 67.09 68.07 68.59 67.84 66.99 68.41 68.60 69.32 68.97 69.05 69.03 69.43 69.41 69.42 68.93 66.90 67.33 65.85 65.37 65.38 64.74 61.48
34.92 37.99 36.36 35.92 34.83 34.18 34.46 31.88 36.24 37.99 33.88 34.47 36.05 35.61 36.33 37.90 38.58 39.09 40.58 42.77 43.79 44.98 46.33 49.40 53.40 57.45 60.58 64.33 62.48 66.47 67.46 69.05 69.52 68.23 67.83 67.55 67.61 68.73 69.11 69.18 69.56 68.39 66.71 67.14 66.19 65.04 65.09 66.55 65.85
39.42 36.72 37.13 36.97 35.16 28.38 33.41 33.12 32.42 29.79 30.63 32.30 34.51 34.88 35.96 34.78 36.91 38.24 39.74 41.26 41.89 43.73 44.07 46.17 48.01 50.12 54.04 57.72 57.39 59.84 65.00 67.90 67.25 67.32 66.81 66.30 66.40 66.69 67.22 69.05 68.50 68.04 66.91 66.24 66.55 65.68 65.92 66.21 66.62
37.10 34.51 30.13 27.10 27.51 27.76 35.21 32.67 26.93 31.99 33.06 33.14 32.63 33.60 34.42 35.18 33.78 35.89 36.89 38.56 39.81 41.48 42.53 44.70 44.87 45.63 48.39 51.61 52.52 54.18 56.15 58.74 60.34 61.29 63.62 65.77 65.51 66.06 66.13 66.46 66.29 66.17 66.45 66.28 66.75 67.04 65.65 66.13 65.88
36.18 35.00 29.27 21.06 25.34 28.63 34.57 29.02 28.47 34.51 34.99 34.89 34.07 34.20 34.00 34.09 33.06 33.36 35.31 36.73 38.05 39.42 41.47 41.85 42.30 43.42 45.30 47.52 49.36 50.57 52.65 53.99 55.13 55.22 57.67 58.64 62.01 65.77 66.16 66.00 65.93 65.93 65.64 66.83 67.63 67.91 67.24 67.20 67.38
35.40 31.84 37.36 30.82 32.65 28.39 33.75 30.55 33.81 34.54 32.67 32.91 32.02 31.95 31.50 32.05 31.93 32.73 33.77 34.81 36.08 38.17 38.69 40.35 41.14 40.85 42.57 44.99 47.35 47.84 48.82 51.53 53.52 54.79 57.88 57.74 59.79 61.23 65.82 65.75 65.09 64.17 64.52 65.26 66.35 65.40 64.58 65.09 66.53
38.36 40.18 31.00 32.85 23.78 22.84 30.29 26.76 26.56 29.01 29.49 31.18 29.75 29.88 30.81 31.60 31.17 31.44 31.91 33.89 34.31 36.66 38.85 39.60 40.64 40.73 41.26 41.84 44.66 45.70 46.61 47.87 48.69 50.42 50.44 49.94 53.13 55.63 61.28 64.91 64.75 64.18 64.19 64.02 64.08 64.04 64.47 64.23 64.40
36.49 35.27 35.25 35.16 33.54 26.87 26.01 25.69 31.44 29.11 30.08 29.13 29.60 29.69 30.02 30.72 30.93 30.24 31.19 32.07 33.75 33.94 35.57 37.61 38.77 39.58 39.85 40.68 41.31 42.21 43.23 44.94 44.94 45.21 44.91 45.73 47.85 51.79 56.64 63.57 64.25 64.25 63.42 63.74 64.12 63.48 63.74 62.71 62.96
40.09 36.65 36.53 30.29 28.34 32.87 32.08 26.52 32.68 31.32 31.78 31.49 30.43 30.07 30.70 30.95 30.96 30.81 30.94 31.23 32.24 32.08 33.63 34.79 36.54 38.04 39.47 39.57 39.93 39.87 40.46 40.85 41.21 41.79 42.26 43.43 44.69 46.31 48.45 52.30 62.89 62.44 62.78 63.97 63.22 62.54 62.25 61.43 60.60

GFSSGP_sfc_wetblb_129.txt.gz
Wetbulb
62.54 61.68 60.36 56.80 49.52 48.33 46.61 47.08 51.64 48.80 49.52 52.96 53.88 51.77 50.42 51.20 51.61 52.04 67.50 73.47 73.70 72.85 75.79 74.03 72.17 73.07 73.36 73.82 73.99 74.21 74.43 74.29 74.24 74.12 74.04 74.08 74.21 74.26 74.43 74.36 74.33 74.78 74.89 73.82 73.48 73.45 72.91 73.33 73.84
61.97 58.86 58.32 55.59 47.55 46.23 47.64 50.56 48.26 50.20 51.27 51.87 51.62 51.49 50.91 51.46 56.73 60.83 65.12 71.70 73.23 73.22 75.78 74.91 71.99 72.61 73.03 73.31 73.80 74.34 74.80 74.51 74.13 74.13 74.09 74.14 74.12 74.29 74.36 74.11 73.92 74.39 74.79 73.98 73.32 73.04 73.02 72.75 72.80
60.07 59.01 55.28 52.15 49.48 46.58 48.19 49.71 50.24 50.62 50.95 51.11 50.92 53.02 51.96 52.09 59.19 63.97 68.29 71.71 72.85 73.72 75.62 74.66 71.40 71.86 72.65 72.89 73.49 73.89 74.28 73.94 73.66 73.76 74.25 74.32 74.32 74.42 74.31 73.60 73.45 74.21 74.59 73.86 73.35 73.17 72.65 72.08 71.71
58.33 57.19 55.51 49.22 48.05 50.96 50.14 50.00 50.76 50.79 52.88 53.08 52.59 51.55 54.42 57.60 62.00 65.11 69.51 73.83 72.86 73.99 75.14 71.21 70.66 71.35 72.11 72.56 73.20 73.53 73.42 73.01 73.06 73.36 73.99 74.32 74.37 74.44 73.87 72.91 73.32 74.08 74.43 74.24 73.87 73.01 71.88 71.10 70.85
58.08 56.27 50.54 49.24 49.33 52.21 53.07 53.04 53.84 52.14 52.88 53.21 54.08 52.86 54.25 58.26 63.15 66.96 69.44 73.53 72.69 73.77 75.11 74.36 70.01 70.85 71.84 72.66 73.09 73.07 72.66 72.45 72.85 73.33 73.48 73.90 74.13 73.97 73.08 72.55 73.02 73.61 73.84 73.87 73.45 72.22 71.05 70.67 70.39
53.34 54.21 48.31 47.25 49.69 52.67 53.28 53.92 53.89 52.79 53.78 54.59 54.31 53.67 54.84 61.38 64.31 66.67 70.24 72.61 73.37 73.83 75.29 75.54 71.23 71.06 71.15 71.83 71.82 71.50 71.59 71.77 72.11 72.85 73.05 73.52 73.34 73.03 72.54 72.35 72.59 72.85 72.41 72.25 72.24 71.04 70.44 70.17 70.10
50.48 50.38 47.68 48.19 48.74 50.48 52.06 54.91 53.00 52.92 53.11 53.46 55.14 51.88 56.48 59.04 62.74 65.98 70.23 72.89 74.65 74.58 75.43 76.05 73.80 72.44 70.25 70.10 70.05 69.85 70.56 70.94 71.35 71.84 71.96 72.21 71.92 71.53 71.98 71.95 72.09 72.30 71.42 71.28 71.21 70.29 69.79 69.70 69.64
53.57 50.81 46.75 47.92 47.25 48.06 52.34 52.67 53.75 52.71 52.32 56.05 56.11 52.54 54.07 58.72 61.10 61.36 64.74 70.47 73.40 74.66 74.99 75.03 74.25 73.67 73.06 72.95 69.18 68.93 69.42 69.76 70.43 70.93 70.94 70.63 70.65 70.86 71.10 71.07 71.39 71.62 71.18 71.07 70.36 69.47 69.19 69.21 68.70
53.58 46.78 44.98 46.57 47.10 48.68 51.98 50.21 53.45 54.83 52.83 53.60 55.31 55.39 57.25 59.35 60.08 59.32 60.25 61.42 69.25 73.04 74.47 75.04 73.78 74.11 73.73 73.55 72.06 69.34 69.51 69.69 69.61 70.69 70.11 69.93 72.90 73.15 72.70 70.85 70.18 71.02 70.62 69.94 69.40 68.96 68.72 68.06 67.56
48.15 45.29 45.57 48.93 49.85 49.09 50.53 50.24 50.60 49.63 50.03 50.91 52.93 55.32 57.36 57.67 56.62 55.97 56.60 58.00 59.98 66.35 72.74 74.30 74.00 74.28 74.04 73.57 73.97 72.65 72.25 71.92 72.21 72.46 73.15 72.87 72.85 72.90 72.07 70.55 69.33 69.38 69.87 69.19 68.67 68.38 67.86 67.63 70.13
46.74 43.99 47.14 47.44 48.59 49.30 47.88 46.62 48.67 46.69 45.51 48.52 48.72 50.33 52.09 52.50 52.26 52.79 54.50 57.11 58.58 60.37 69.70 73.70 73.88 74.82 74.38 73.62 73.56 73.03 72.75 72.16 72.51 72.99 73.44 73.20 72.95 73.61 72.58 72.64 71.95 72.63 70.02 71.36 69.59 69.55 70.03 69.90 69.59
41.72 44.82 44.71 45.48 46.08 45.78 44.54 46.07 44.68 45.70 46.19 48.80 49.03 49.71 49.51 50.03 51.58 52.57 53.50 55.02 56.87 58.83 63.38 71.86 73.68 73.90 75.11 73.58 72.70 72.97 73.05 73.34 72.90 72.67 74.39 73.58 72.79 73.72 72.79 71.77 72.33 72.24 71.53 71.08 70.35 70.14 70.23 70.31 70.66
43.94 44.98 45.88 46.48 45.53 45.18 45.66 44.00 44.19 44.73 47.61 48.54 48.75 48.93 49.44 50.11 51.19 52.61 54.03 55.44 56.56 56.70 59.60 64.91 72.62 73.40 74.28 74.44 72.80 72.96 73.18 72.50 73.18 73.40 74.01 73.63 72.18 73.48 72.63 72.52 72.12 71.40 71.81 70.65 70.71 70.25 69.72 70.12 69.93
45.43 44.60 44.61 45.33 45.28 45.51 43.74 44.05 44.68 45.77 47.90 47.45 47.80 47.46 48.46 49.09 49.83 50.64 51.50 52.59 55.06 57.25 58.23 62.84 69.48 72.49 73.15 73.20 74.26 73.32 73.31 72.68 72.18 72.48 72.90 74.48 73.31 74.03 72.36 71.48 71.64 71.47 71.58 71.45 71.02 69.87 68.85 69.83 68.98
44.75 41.74 44.18 45.03 44.29 43.09 45.18 41.23 43.08 46.70 47.63 46.37 46.63 47.75 48.36 49.16 50.14 50.09 51.29 52.40 53.37 54.36 57.56 62.21 68.67 72.27 71.93 73.23 72.86 72.60 71.62 72.41 72.36 71.90 72.84 72.40 73.35 73.96 72.96 72.47 71.26 71.57 72.51 72.20 71.28 70.49 70.51 69.19 69.14
42.68 43.96 40.41 43.62 43.72 44.72 43.08 38.60 44.63 46.96 45.98 45.42 46.23 47.19 48.02 49.06 49.34 50.52 51.74 52.50 53.00 53.11 55.43 60.23 61.16 71.24 72.92 72.02 72.09 71.76 71.55 72.16 71.33 71.59 71.82 70.38 72.12 73.31 72.80 71.37 71.62 72.12 71.96 71.37 71.08 69.99 69.31 69.09 67.85
43.37 39.02 40.09 41.35 44.76 43.32 42.38 39.67 44.17 46.45 45.53 45.01 46.12 47.10 47.45 47.86 49.02 50.77 52.23 53.10 53.08 53.11 54.00 57.81 61.92 63.84 72.31 72.24 71.94 72.12 72.40 71.90 71.45 71.48 71.43 71.48 70.80 72.12 71.83 69.45 70.49 72.98 70.90 71.09 70.43 69.72 69.65 67.90 68.09
38.16 38.09 39.41 38.72 42.28 42.49 41.39 41.10 43.79 45.33 45.18 45.18 46.53 48.74 49.70 50.19 51.04 52.92 53.49 54.30 53.61 54.34 57.69 60.12 61.33 63.68 70.93 71.99 71.36 71.31 71.55 71.31 71.27 70.66 70.40 72.05 70.88 70.66 72.21 70.15 69.65 70.03 70.71 69.61 68.97 68.05 68.22 68.09 67.58
39.57 38.06 37.62 40.62 42.87 41.07 40.51 40.79 42.43 44.74 45.87 47.26 47.51 47.56 47.47 47.97 49.66 50.84 51.89 53.30 54.28 56.21 56.70 57.86 59.07 61.54 64.03 69.89 68.67 69.82 68.94 69.99 70.15 70.31 70.35 71.50 71.28 70.26 69.70 69.71 68.96 68.43 68.24 68.32 68.16 67.20 66.94 66.71 67.95
39.14 37.95 38.27 41.21 42.18 41.06 40.56 39.85 42.77 44.41 46.29 45.79 44.68 44.40 44.60 44.83 44.89 46.45 47.85 49.79 52.24 53.73 55.34 55.92 56.77 58.43 61.13 67.53 69.80 69.96 70.25 70.16 70.32 70.14 70.31 70.34 70.85 71.11 69.20 68.96 69.67 67.68 66.83 67.68 66.92 66.33 65.66 67.01 67.01
39.72 38.31 38.33 37.55 40.05 41.56 40.34 38.60 40.48 43.13 45.48 44.92 44.16 43.59 43.01 41.25 39.76 41.73 43.39 44.96 46.87 48.32 50.36 51.89 54.67 58.04 60.15 62.62 68.50 68.77 71.15 70.38 69.61 69.21 69.26 70.11 70.99 70.52 68.63 68.15 70.09 68.01 67.87 68.28 66.41 66.40 65.51 64.17 65.11
36.40 40.93 39.13 37.84 37.20 33.90 40.29 31.49 39.64 42.31 42.12 40.67 40.26 40.20 38.90 38.04 38.63 38.79 39.74 40.37 42.06 44.79 46.37 47.34 50.79 54.98 59.78 61.20 61.55 67.17 66.98 67.33 68.36 68.61 69.16 69.25 70.75 70.32 69.71 68.93 69.78 69.57 68.94 68.64 68.40 66.19 65.58 64.98 62.65
37.89 41.13 39.28 38.69 37.18 37.22 37.45 34.73 37.38 39.70 35.24 35.89 36.75 36.98 36.14 36.50 37.33 36.15 37.43 38.07 41.12 42.96 43.45 44.54 47.67 51.56 54.68 55.03 58.78 66.85 65.94 68.59 68.22 67.89 67.55 69.32 70.13 70.23 70.08 69.26 69.77 70.32 70.36 69.45 69.91 66.37 65.19 65.64 65.39
42.23 40.20 40.67 40.47 38.62 31.88 36.63 35.64 34.49 31.34 30.84 33.29 34.52 35.68 34.96 35.24 36.09 36.73 36.53 37.33 37.93 40.88 41.99 43.75 44.87 47.04 52.23 52.53 54.00 61.10 66.44 64.66 63.04 63.47 65.79 67.61 67.81 68.15 68.60 69.23 69.08 70.27 70.67 69.23 68.68 68.72 64.95 65.99 65.85
40.84 38.97 33.04 30.87 31.31 30.56 37.91 35.35 30.54 33.44 34.22 33.75 32.66 33.77 34.26 34.93 34.25 35.34 34.04 33.77 35.24 37.35 39.58 42.80 43.53 43.69 47.23 49.70 50.56 53.14 57.10 60.22 60.08 58.29 59.26 64.96 66.35 66.64 67.39 67.93 67.97 68.17 69.63 69.02 68.25 68.05 66.90 65.89 66.12
39.27 38.34 32.56 24.70 28.11 31.29 38.17 32.83 31.24 36.51 36.57 36.15 35.27 34.73 34.32 33.46 33.77 34.01 33.96 33.08 33.92 35.04 38.59 40.61 42.67 42.61 44.27 47.70 48.22 50.24 52.47 55.32 56.43 56.93 58.37 58.86 60.75 62.65 67.17 68.10 67.84 66.93 65.96 65.89 66.24 67.21 66.89 66.69 66.76
38.36 35.31 41.11 33.36 35.04 31.17 35.18 31.32 35.82 37.79 35.00 33.69 32.64 33.08 32.25 32.67 33.05 33.14 34.11 32.39 33.45 34.37 36.12 38.89 41.49 42.32 43.24 44.40 45.82 47.16 48.80 49.61 50.98 51.99 52.98 54.85 56.16 56.84 60.29 63.93 66.31 66.72 65.91 64.95 65.13 65.20 66.79 66.56 66.29
40.99 42.43 33.42 34.20 25.51 25.32 33.17 30.89 31.14 30.61 29.74 31.05 31.23 30.65 30.95 32.28 31.96 32.57 32.84 31.76 32.85 33.24 34.95 37.26 39.77 40.65 41.92 43.19 44.25 44.94 44.98 46.30 46.94 47.94 47.74 49.58 51.71 53.07 55.80 58.50 64.12 66.38 66.22 65.16 64.26 64.21 65.29 65.60 65.75
38.77 36.85 36.55 37.63 35.00 28.19 27.71 29.10 32.11 29.60 30.68 29.94 30.80 31.04 30.69 31.02 31.23 31.40 32.32 31.80 32.05 32.63 33.59 34.58 37.20 39.11 40.96 41.32 42.25 42.37 42.16 44.01 44.33 43.68 43.61 44.98 46.37 47.12 48.30 50.31 51.16 62.23 64.69 65.21 64.02 63.39 63.55 62.91 64.07
41.06 37.84 37.53 32.37 31.44 34.68 33.88 28.91 33.33 32.78 31.92 31.41 30.40 30.96 31.58 31.78 31.42 31.23 31.60 31.76 31.15 32.06 32.38 33.16 36.52 37.80 39.12 40.17 40.12 39.51 41.38 41.83 41.60 41.33 41.21 42.02 41.88 43.19 43.21 43.06 43.84 43.74 43.69 43.69 46.67 58.77 62.82 62.54 62.51

GFSSGP_sfc_wetblb_132.txt.gz
Wetbulb
61.39 61.16 60.94 56.86 47.80 48.12 44.90 46.93 50.96 48.82 49.21 52.25 52.93 50.88 48.67 50.03 48.92 51.85 68.66 70.60 74.01 74.45 73.08 72.23 72.55 73.32 73.96 74.17 74.15 73.99 74.23 74.18 74.28 74.15 73.97 74.05 74.10 74.38 74.52 74.34 74.40 74.85 74.82 74.01 73.91 74.06 73.42 74.34 73.56
59.73 60.35 57.81 53.77 47.00 43.96 46.11 50.67 48.10 49.25 50.24 51.60 51.45 51.07 50.02 49.46 58.68 60.85 65.07 70.52 72.12 74.33 73.45 72.45 72.19 72.83 73.63 73.77 73.87 73.94 74.34 74.46 74.07 74.06 74.15 74.15 74.08 74.38 74.43 74.14 73.85 74.35 74.74 74.09 73.38 73.32 73.15 73.53 72.68
58.13 59.73 53.50 51.17 47.91 44.40 46.19 49.64 49.19 49.89 51.56 52.25 51.42 53.20 52.23 51.07 59.84 62.22 66.95 71.96 72.64 73.22 74.39 73.53 71.64 72.11 72.99 73.35 73.70 73.93 73.99 73.76 73.75 73.84 74.23 74.21 74.23 74.33 74.35 73.58 73.46 74.23 74.64 74.14 73.50 73.20 72.69 72.16 71.60
57.85 56.60 54.09 48.28 46.62 49.67 50.55 50.21 51.00 51.40 53.21 53.74 53.24 51.40 55.51 59.52 60.44 65.19 68.31 72.44 72.82 73.82 74.84 70.33 70.75 71.59 72.62 73.26 73.71 73.82 73.47 72.97 73.05 73.45 73.95 74.14 74.32 74.23 73.84 73.09 73.35 74.20 74.31 74.12 74.02 72.91 71.98 71.08 70.69
57.19 54.58 48.84 47.64 48.27 50.95 53.07 54.24 53.17 52.03 52.97 53.38 54.08 51.82 54.49 60.72 64.48 65.63 69.64 71.95 72.85 74.15 73.10 71.81 69.96 71.07 72.25 73.25 73.51 73.29 72.91 72.57 72.58 73.27 73.63 73.87 74.13 74.09 73.21 72.56 72.96 73.48 73.91 73.78 73.49 72.12 71.01 70.53 70.46
51.61 52.95 45.93 44.95 48.02 51.58 53.85 54.36 53.41 52.97 53.42 54.18 53.74 53.69 55.44 62.04 61.48 64.11 70.61 71.75 74.60 74.96 74.85 72.03 70.90 71.05 71.20 72.11 72.39 71.95 71.87 72.13 72.19 72.70 73.13 73.62 73.46 73.06 72.63 72.43 72.70 72.94 73.01 72.65 72.02 70.95 70.33 70.19 70.27
49.18 47.93 45.68 46.80 47.27 48.73 51.57 54.93 52.57 52.38 52.31 52.72 54.91 51.71 56.59 58.25 60.81 62.53 64.61 73.36 75.17 75.68 75.51 73.85 72.28 71.33 70.41 70.19 70.24 70.27 70.81 71.44 71.70 71.91 72.11 72.49 71.95 71.72 71.99 72.09 72.27 72.51 71.74 71.68 71.15 70.05 69.65 69.57 69.64
51.69 49.24 45.76 46.25 45.17 46.35 51.63 52.43 53.67 52.07 51.03 56.12 55.83 51.04 53.28 57.16 60.79 59.99 60.66 62.70 74.18 75.38 75.10 74.02 72.84 72.11 71.71 71.62 69.26 69.39 69.95 70.20 70.59 71.05 71.17 70.93 70.88 71.05 71.13 71.21 71.61 71.86 71.22 71.01 70.46 69.50 69.08 69.20 68.58
51.92 44.21 42.19 44.92 45.56 47.26 51.72 50.03 53.14 53.48 51.20 51.78 53.21 54.16 56.21 57.46 58.65 57.02 57.49 59.05 62.90 73.24 74.28 72.92 72.01 72.45 72.29 71.69 70.90 69.42 69.95 69.86 69.96 70.83 70.48 69.38 72.18 71.67 71.40 70.55 69.99 70.93 70.52 70.24 69.50 68.83 68.60 68.00 67.86
46.29 43.31 43.58 47.10 47.21 46.81 49.45 49.25 48.56 47.13 47.41 47.87 49.79 53.31 52.56 53.27 53.34 52.10 51.87 53.55 58.93 62.32 70.55 73.57 72.71 71.66 72.22 71.74 71.48 70.72 70.83 70.96 71.43 71.88 71.57 72.00 71.59 71.54 71.26 70.26 69.29 70.23 69.83 69.37 68.81 68.41 67.89 67.03 67.62
45.22 41.84 45.66 46.26 47.17 46.55 45.31 45.56 46.56 44.11 42.87 45.96 46.18 48.16 49.39 50.49 50.37 50.77 52.13 53.87 55.76 59.01 60.92 72.97 73.31 72.60 71.88 71.79 72.05 70.53 70.68 70.08 70.53 71.07 71.74 71.74 71.13 71.05 69.92 70.38 70.09 70.43 69.24 69.10 68.03 67.64 67.96 67.55 67.32
42.14 44.64 44.79 44.83 45.47 44.87 43.92 45.46 43.68 44.27 45.01 47.79 47.73 48.48 48.58 48.59 50.11 50.47 51.47 52.02 53.01 55.79 59.16 59.88 73.35 72.22 72.41 71.79 72.36 71.88 70.74 70.47 70.31 70.80 71.74 70.87 70.88 70.89 69.92 70.58 70.50 70.57 69.91 69.60 68.07 67.84 67.35 67.77 67.90
43.66 44.52 45.74 46.54 46.30 45.39 45.55 43.79 43.93 44.47 47.91 48.39 48.36 48.52 48.39 48.33 48.91 50.21 50.74 51.23 51.91 52.66 55.43 60.30 65.58 72.15 71.62 71.87 72.37 72.04 70.99 71.07 70.89 70.97 71.44 71.71 70.38 70.34 70.46 70.22 70.46 69.87 69.89 68.82 68.25 67.88 67.56 67.24 67.58
45.16 44.61 44.55 45.26 44.86 45.19 43.83 43.78 44.17 45.05 47.77 47.43 47.40 47.11 47.95 48.49 49.13 49.94 50.68 50.70 52.66 53.34 53.91 56.27 59.83 66.40 71.64 70.65 71.54 70.99 71.74 71.67 71.22 71.06 71.22 71.75 70.81 70.38 70.56 70.31 69.90 69.53 69.58 69.16 68.79 67.97 67.60 67.32 66.91
45.62 41.83 43.15 44.15 45.15 43.52 44.91 41.10 42.49 46.94 47.30 46.21 46.66 47.31 47.87 48.65 49.58 50.04 51.00 51.66 52.11 52.96 53.46 54.84 56.72 61.05 71.41 70.77 70.37 71.00 70.12 70.22 70.85 70.81 71.85 71.42 71.28 70.94 70.57 70.24 69.77 69.70 69.51 69.25 68.90 69.00 67.29 67.12 67.51
41.87 42.36 38.54 43.92 44.31 44.66 43.64 37.65 44.46 46.82 46.13 45.16 45.71 46.71 47.95 49.47 50.59 52.17 52.99 53.12 53.58 54.29 54.95 55.84 56.61 58.44 62.08 70.83 69.99 70.16 70.55 70.14 70.60 70.40 70.49 71.17 71.35 71.13 70.58 69.95 69.21 69.85 69.90 69.01 68.06 66.99 66.05 66.03 65.74
42.49 37.67 40.40 41.82 45.48 43.78 42.49 39.24 44.01 46.56 45.56 44.65 46.32 48.63 48.97 49.23 50.00 50.20 50.32 50.60 51.36 52.61 53.96 55.45 57.54 58.17 60.10 60.78 68.31 69.65 69.73 70.35 69.86 70.72 70.20 70.35 70.14 70.93 70.63 69.21 69.82 69.72 69.17 68.86 68.03 67.22 66.44 65.32 65.25
37.60 37.87 38.87 38.34 41.77 42.51 40.77 40.30 43.61 45.21 44.91 46.74 46.85 46.41 46.10 45.98 46.17 47.58 47.62 48.54 49.37 50.30 52.41 52.91 54.87 57.18 57.83 58.35 60.08 68.22 69.04 69.60 70.00 69.27 69.49 70.19 69.65 69.24 69.96 69.58 69.08 69.75 68.65 67.97 67.82 66.99 67.01 65.77 64.77
39.63 37.68 36.95 39.78 42.96 41.36 40.19 40.13 41.98 44.26 46.45 44.65 44.27 43.71 43.01 43.23 45.08 45.65 45.44 45.52 46.64 47.57 48.04 50.23 51.83 52.91 54.05 55.21 56.77 61.12 65.84 67.21 67.92 68.62 69.05 69.89 69.19 68.87 68.77 69.56 68.40 67.81 68.02 67.71 67.47 66.70 64.80 64.11 65.03
39.34 37.49 37.68 41.04 43.15 41.69 40.16 39.33 42.25 45.15 43.93 42.83 41.61 40.93 40.78 40.28 40.64 41.78 42.38 42.46 43.19 44.04 44.96 46.59 48.40 49.85 50.57 53.07 56.74 59.11 62.46 66.76 67.63 68.64 68.48 68.86 69.92 68.73 68.41 69.12 67.87 67.41 66.56 67.07 66.30 65.94 64.62 64.57 65.30
39.43 38.33 38.52 37.93 40.31 41.26 39.82 38.05 40.09 43.50 42.78 42.35 41.38 40.64 39.81 37.66 37.47 38.69 39.23 38.89 39.51 40.17 42.31 44.00 45.33 46.67 48.59 51.00 54.83 57.18 60.07 64.48 66.20 67.12 67.16 68.06 69.34 69.37 68.53 68.31 67.99 66.72 66.35 65.30 65.81 65.62 64.65 62.48 64.11
36.42 41.80 39.79 38.52 36.94 32.64 40.39 30.25 38.47 41.98 39.52 38.96 38.25 37.93 36.80 36.27 37.04 37.30 37.27 36.33 36.79 38.44 40.54 41.66 43.56 45.22 47.83 50.34 52.44 53.74 55.02 57.68 64.52 66.06 67.09 67.44 68.01 68.86 68.65 67.65 67.33 67.43 66.08 65.15 65.29 65.93 64.58 63.64 61.78
38.47 41.93 39.79 39.09 36.50 36.12 37.02 33.90 36.73 39.97 34.53 34.81 35.79 36.18 35.54 35.55 35.43 35.19 35.56 35.84 35.87 37.51 37.57 39.91 41.68 44.73 46.54 47.94 51.11 53.03 54.86 60.02 64.36 66.12 66.20 66.81 66.75 67.50 68.17 66.82 66.48 67.21 65.91 65.50 66.18 65.97 64.79 64.47 62.91
42.80 40.13 40.72 40.78 38.16 30.72 37.24 35.48 31.30 30.90 31.02 33.10 34.45 34.99 34.44 34.22 34.42 34.36 35.30 35.45 34.62 36.42 36.60 37.46 39.68 43.50 44.41 45.68 50.29 51.98 52.94 58.31 62.66 61.19 64.42 65.54 66.48 66.90 67.54 66.75 66.43 66.60 66.75 66.26 65.84 66.19 65.60 63.95 63.93
41.25 37.93 31.84 30.65 30.49 29.06 38.50 35.26 30.51 32.94 33.79 33.57 32.23 33.26 33.60 33.33 33.32 33.23 33.22 33.16 33.50 33.50 34.63 36.31 37.05 41.77 43.68 44.66 48.58 50.29 51.70 56.01 56.73 58.27 57.85 57.31 58.30 61.58 63.34 66.42 66.56 66.53 67.14 67.52 67.12 66.28 65.40 64.74 63.56
40.01 38.78 31.57 24.44 26.79 30.39 37.87 31.33 28.85 35.20 35.40 35.37 34.72 34.15 33.13 31.93 33.08 32.61 33.07 32.55 32.81 33.42 33.84 34.63 35.37 39.56 42.77 43.63 46.21 48.20 49.21 50.66 51.26 51.85 52.61 52.59 56.85 57.18 57.67 59.15 65.09 65.85 65.83 66.30 66.63 66.04 65.74 64.88 63.90
39.25 35.49 40.93 34.01 34.68 30.04 32.56 31.20 36.26 36.50 33.71 33.09 31.72 31.60 30.36 31.21 31.69 31.96 32.64 32.61 32.50 32.91 33.39 33.67 34.26 34.45 41.80 43.80 44.65 46.12 46.37 46.21 46.81 48.62 50.30 50.32 49.13 52.14 53.58 54.74 54.32 59.85 65.12 65.04 64.45 63.65 64.45 64.92 64.83
40.41 42.92 33.56 34.91 24.84 24.81 32.00 30.71 28.18 29.79 29.56 31.25 30.20 29.56 29.93 31.80 31.26 31.55 31.71 32.10 32.58 32.55 33.46 33.67 33.75 33.07 39.61 41.50 42.87 43.76 43.10 43.55 44.35 44.01 44.12 45.43 45.52 46.13 46.29 48.15 48.23 48.97 50.98 57.41 63.65 63.60 64.22 63.99 64.61
38.55 36.34 37.27 36.45 34.56 27.21 26.04 26.98 31.69 28.99 30.30 29.22 29.69 30.21 30.16 30.99 30.62 30.71 30.92 32.11 31.86 32.26 33.03 32.92 33.04 32.38 35.33 41.25 42.38 41.48 41.39 41.60 42.21 42.02 41.47 42.20 41.97 42.01 42.17 42.75 42.41 43.05 43.37 43.23 45.96 48.64 58.46 62.42 63.37
42.42 38.97 38.51 31.31 30.31 34.12 32.77 26.80 33.50 32.46 31.68 30.80 29.64 29.84 30.73 31.09 31.06 30.58 30.88 31.29 31.48 31.58 32.12 32.24 32.89 33.82 33.25 40.43 40.54 40.28 39.60 40.55 40.46 40.51 40.24 40.76 40.17 40.44 39.80 39.57 39.47 38.93 39.33 40.49 40.95 42.72 45.23 48.55 52.72

GFSSGP_sfc_wetblb_135.txt.gz
Wetbulb
57.88 56.59 54.58 52.24 41.12 39.16 35.91 40.67 43.45 42.34 43.21 45.76 47.80 47.00 44.16 45.36 48.27 52.30 63.80 69.46 72.10 70.85 71.72 72.33 72.37 73.41 73.75 73.84 73.62 73.63 73.97 74.15 74.09 73.96 73.86 73.76 73.99 74.11 74.08 74.24 74.22 74.55 74.85 73.88 73.93 74.08 74.11 74.12 72.62
56.99 56.30 52.31 46.73 38.62 33.79 37.05 42.65 41.07 43.14 46.87 48.76 49.16 48.93 46.85 51.28 58.52 60.90 63.29 69.64 72.30 71.44 71.09 72.03 71.87 72.96 73.60 73.39 73.43 73.62 74.08 74.08 73.92 73.92 74.01 74.01 74.06 74.20 74.06 73.81 73.59 74.07 74.47 74.08 73.60 73.18 73.46 73.23 71.89
56.48 55.65 46.10 42.24 37.87 35.96 37.23 42.33 43.15 45.83 50.07 49.77 48.26 50.22 49.52 51.68 60.39 61.38 65.95 70.95 71.15 71.47 71.00 72.06 71.31 72.05 73.08 73.19 73.25 73.33 73.39 73.19 73.39 73.55 73.99 74.12 74.19 74.38 74.08 73.23 72.95 73.93 74.42 74.21 73.33 73.18 72.76 71.63 71.10
53.54 49.82 46.97 39.68 38.43 43.52 44.44 47.59 45.80 49.31 49.62 50.50 50.45 48.29 54.76 60.83 61.40 64.97 67.78 71.49 71.82 72.01 72.00 70.36 70.57 71.41 72.59 73.24 73.20 73.16 72.87 72.36 72.44 72.87 73.78 74.17 74.21 74.20 73.52 72.56 72.97 73.75 74.13 74.17 73.89 72.68 71.38 70.53 70.32
52.01 46.76 39.90 37.78 40.82 45.34 49.10 49.40 49.68 49.27 50.08 51.83 50.99 49.85 54.37 58.69 61.30 67.67 68.13 71.72 71.29 70.69 70.82 70.76 69.90 71.00 72.34 73.08 73.32 72.92 72.13 71.82 72.18 72.74 73.12 73.54 73.82 73.79 72.66 72.10 72.70 73.05 73.34 73.64 72.98 71.38 70.46 70.18 69.85
45.41 45.20 36.95 35.21 40.78 46.22 48.47 50.09 51.23 50.83 50.96 51.64 50.80 52.28 53.52 56.88 56.74 62.62 69.01 70.00 72.63 71.34 70.43 70.92 70.92 70.88 71.28 72.03 72.15 71.75 71.43 71.47 71.65 72.23 72.55 72.99 73.04 72.65 72.30 71.99 72.29 72.70 72.73 72.18 71.41 70.35 69.86 69.76 69.70
42.61 40.11 36.81 38.82 40.88 42.97 46.75 49.88 48.80 48.97 49.85 50.68 51.30 48.62 52.68 54.73 55.33 55.47 61.30 69.46 71.28 72.50 70.66 70.41 69.98 70.87 70.28 70.31 70.39 70.16 70.88 70.85 71.07 71.43 71.66 71.88 71.50 71.34 71.35 71.73 72.02 72.15 71.87 71.44 70.52 69.67 69.18 69.37 69.31
45.40 42.26 39.42 39.97 40.94 41.07 47.43 49.01 48.04 47.06 47.63 52.62 51.43 47.05 47.67 51.12 52.89 51.59 51.51 51.88 69.34 71.34 71.45 70.16 69.71 69.79 68.97 68.83 69.15 69.42 69.76 70.12 70.32 70.72 70.79 70.47 70.43 70.69 70.95 70.86 71.42 71.52 71.09 70.89 70.08 69.28 68.79 68.77 68.37
44.37 36.89 36.55 39.53 39.76 41.72 47.27 45.48 46.14 45.11 44.22 47.12 49.20 48.28 47.05 49.43 49.29 48.05 48.27 49.10 51.11 67.65 70.85 70.24 69.86 69.58 69.20 68.91 69.37 69.30 69.91 69.76 69.64 70.25 70.09 68.88 70.62 70.54 70.64 70.15 69.90 70.77 70.09 69.98 69.48 68.68 68.13 67.66 67.68
39.64 35.01 39.09 44.12 41.73 41.76 44.09 43.96 44.31 42.08 41.75 43.39 45.27 47.68 47.53 47.90 46.35 46.04 46.67 47.42 48.67 49.93 56.71 69.60 69.53 69.41 69.43 70.41 68.99 68.11 69.40 69.10 69.65 70.21 70.45 70.21 69.85 70.14 70.84 69.76 68.94 69.81 69.18 69.03 68.51 68.13 67.55 66.85 66.58
39.51 38.19 42.44 42.72 43.05 42.69 41.71 41.55 43.68 41.52 39.16 42.36 43.00 44.65 45.80 46.45 46.41 46.81 46.75 46.54 45.46 47.44 50.09 66.46 69.86 69.85 69.55 69.78 68.77 68.41 68.16 68.45 69.29 69.60 69.65 69.89 70.06 69.91 69.46 68.78 68.91 69.04 68.97 68.22 67.42 67.26 67.19 66.51 65.98
38.23 41.91 41.99 42.33 43.72 40.74 40.14 42.04 40.63 38.49 42.53 45.74 44.04 44.98 45.82 45.44 45.54 45.83 46.29 46.66 46.75 47.17 49.07 49.81 61.68 69.72 69.32 69.90 69.76 68.31 68.19 68.15 68.33 69.03 69.78 69.83 68.83 68.29 68.23 68.19 68.40 68.86 68.74 67.21 66.47 66.37 66.33 66.25 66.30
39.07 41.12 43.06 43.43 43.23 41.75 42.76 40.53 41.12 41.79 45.37 45.95 46.10 46.12 44.62 44.69 45.20 47.46 49.26 49.62 49.86 50.11 51.13 52.78 51.97 58.50 67.16 69.29 69.70 69.33 68.26 68.38 68.22 68.64 69.63 69.71 68.98 67.94 68.00 68.56 68.69 69.12 68.61 68.20 66.20 66.16 66.01 65.91 65.90
42.70 42.47 41.83 42.37 41.80 42.08 41.26 40.11 40.87 42.34 44.46 45.68 46.06 43.64 42.51 45.29 46.52 47.00 47.15 47.17 47.89 49.20 49.98 51.72 53.92 55.57 56.46 61.03 68.74 69.87 69.37 69.04 68.73 68.77 69.35 69.97 68.88 68.11 68.62 67.93 68.66 68.84 68.55 67.90 66.94 66.09 65.52 65.42 65.40
43.35 38.77 40.19 41.17 41.41 40.44 41.48 37.34 38.52 44.11 45.72 44.19 44.60 45.47 46.90 46.81 46.44 44.89 45.35 44.88 46.03 46.81 48.39 49.82 51.15 52.60 54.79 56.33 57.38 63.05 69.92 69.59 69.27 69.20 69.34 69.75 69.43 68.14 68.83 68.01 67.92 68.38 68.03 67.21 66.56 65.52 65.65 64.78 64.85
38.78 37.94 33.28 41.03 41.82 41.34 39.70 32.87 41.47 42.47 42.51 41.89 44.60 44.95 45.17 44.25 44.13 44.29 44.09 43.49 43.80 44.64 45.36 46.96 49.82 50.65 52.23 52.78 55.77 57.94 60.79 68.40 68.93 69.51 69.63 69.80 69.93 69.10 68.32 68.25 68.28 68.08 67.75 67.53 66.82 65.37 64.12 64.46 64.24
35.98 30.45 33.98 37.02 41.05 39.78 37.88 34.02 40.11 42.26 42.89 42.52 41.94 41.28 41.68 41.44 41.14 41.99 42.70 42.28 42.30 42.56 43.53 44.41 45.52 47.00 49.21 50.54 52.65 55.64 58.19 61.87 68.76 68.82 69.34 69.76 69.68 69.26 68.60 68.86 68.52 68.07 68.02 67.03 66.76 64.73 64.00 62.97 63.15
32.11 32.39 30.93 31.23 35.87 36.92 34.39 33.30 37.84 41.04 41.92 39.60 38.76 39.12 38.50 38.20 38.67 40.96 41.34 41.68 41.05 40.53 41.60 42.59 44.06 45.10 46.58 47.86 49.99 52.47 56.60 58.71 64.78 68.08 68.30 68.16 69.79 69.49 69.02 68.11 68.15 68.28 67.58 67.11 66.25 65.27 64.09 63.52 63.10
36.70 34.53 32.40 34.34 38.66 37.50 35.80 33.63 36.57 39.58 38.84 36.75 36.88 36.53 36.01 36.43 38.69 39.75 40.16 40.17 39.20 39.06 39.10 40.67 41.28 42.84 43.84 44.70 45.54 48.24 49.08 55.47 58.62 63.51 67.88 68.35 68.56 68.97 68.83 68.03 67.01 67.85 66.84 66.75 66.54 64.43 63.78 62.77 63.03
36.52 33.90 32.41 36.54 40.19 37.43 34.13 33.03 36.55 38.43 37.13 36.59 35.75 34.71 34.44 34.86 35.97 37.14 37.70 37.82 37.44 37.12 37.56 38.66 39.04 41.05 42.00 43.74 45.23 47.24 49.75 53.90 56.41 59.13 62.93 68.28 68.66 68.33 68.26 68.10 67.06 67.14 66.93 65.47 65.56 65.29 62.22 62.06 62.87
35.39 33.92 33.95 34.37 37.06 35.94 34.11 32.05 34.57 37.62 37.94 37.41 36.46 35.57 34.73 33.47 33.22 34.34 35.21 35.21 35.28 35.56 36.07 36.65 37.45 39.71 41.52 43.59 45.58 47.36 50.07 52.08 54.12 56.73 62.09 66.33 68.13 68.09 67.03 67.18 68.03 66.49 66.00 65.34 66.10 66.29 65.03 62.49 61.80
32.65 39.61 38.63 36.84 33.10 26.44 34.90 22.19 33.03 34.71 34.06 34.50 33.99 32.66 32.00 32.27 33.18 33.59 33.42 33.30 33.35 34.21 35.37 35.27 36.71 38.92 41.52 44.84 44.06 45.06 46.14 47.50 51.03 54.46 57.87 61.17 67.13 67.91 67.61 66.64 67.78 67.52 65.80 64.88 64.69 65.71 64.99 63.70 61.06
36.62 40.86 37.98 36.70 32.22 30.29 31.99 26.46 30.35 34.96 30.87 31.72 32.02 33.29 32.31 32.01 32.08 32.03 32.29 32.65 33.91 34.06 33.82 34.77 36.19 37.99 39.29 43.93 44.55 45.19 46.47 50.63 51.54 55.01 58.20 61.93 64.56 67.45 67.59 66.71 67.10 66.02 65.93 64.72 64.55 64.53 64.54 64.06 62.65
41.71 38.40 37.21 35.74 32.38 23.21 32.61 30.64 26.34 27.44 30.18 31.58 32.73 33.42 32.52 31.83 32.74 32.38 33.72 33.42 32.81 34.02 33.96 34.18 35.82 36.27 38.41 40.41 44.42 44.64 47.22 49.24 51.55 54.83 58.86 60.57 62.20 65.49 67.13 66.88 66.89 66.03 65.27 64.39 64.09 64.76 64.61 63.84 63.07
38.25 32.72 24.00 22.67 22.38 23.57 35.89 30.14 27.14 31.60 31.97 32.00 30.63 31.37 31.63 32.17 31.37 31.48 31.29 30.60 31.87 32.46 33.80 33.85 34.92 34.91 36.30 38.12 43.38 45.07 46.33 47.65 52.95 55.67 57.74 57.42 56.70 56.12 55.34 61.57 60.35 62.29 65.23 65.12 64.60 64.60 65.16 64.52 63.37
35.44 34.72 25.58 20.88 21.53 24.92 34.99 26.79 28.44 32.21 33.16 33.42 32.61 31.37 31.38 31.28 31.40 30.98 31.11 30.79 31.08 32.15 33.55 33.97 33.71 34.00 34.97 36.54 41.15 44.33 44.59 46.09 50.08 49.58 49.36 51.28 54.93 52.29 51.69 50.43 55.22 53.03 53.55 64.41 65.01 64.60 65.31 64.78 63.86
36.74 33.29 38.58 31.37 31.14 24.59 27.12 29.50 32.80 33.38 31.84 31.84 30.62 30.11 30.34 30.69 30.39 29.92 30.18 30.78 31.47 32.02 32.87 33.34 33.23 33.16 33.83 35.78 40.57 42.66 43.57 44.36 45.32 45.40 45.39 45.07 45.75 48.76 48.12 46.26 46.61 48.69 48.37 49.00 58.12 63.15 62.68 63.49 63.35
38.78 40.78 30.01 30.71 22.81 20.82 23.91 25.79 23.35 28.26 28.67 30.04 29.02 28.52 29.82 30.79 27.42 28.58 29.64 30.29 31.81 32.30 33.11 33.36 33.21 32.28 33.13 34.28 39.00 39.88 42.40 43.42 43.46 42.41 40.98 42.24 42.14 42.76 42.62 42.96 43.02 43.53 44.46 45.42 47.92 50.46 51.32 57.46 60.44
35.67 33.77 34.43 34.24 29.88 21.27 14.26 22.40 31.66 25.62 29.89 28.23 28.93 29.62 29.48 29.76 28.01 27.81 28.80 30.27 31.75 31.83 32.53 32.17 32.19 32.08 32.30 33.37 35.71 37.52 40.14 41.03 41.23 40.38 39.15 39.17 39.20 39.62 39.49 39.62 39.52 39.99 41.45 44.49 46.09 46.86 47.77 49.27 50.67
40.98 37.68 36.92 26.66 27.67 30.39 25.22 21.93 32.41 30.30 31.14 30.20 29.19 29.69 30.72 31.08 29.33 27.51 28.91 29.40 30.31 30.63 31.42 31.72 31.79 31.92 32.19 32.65 34.09 35.33 39.10 37.84 37.96 37.47 38.41 38.25 37.21 37.22 37.27 37.17 37.05 37.57 38.51 41.72 42.48 42.24 42.63 42.80 42.73

GFSSGP_sfc_wetblb_138.txt.gz
Wetbulb
57.33 53.94 52.15 50.69 40.52 37.27 34.50 38.52 41.20 40.27 41.28 43.80 46.38 48.65 49.13 48.71 55.25 50.52 63.35 70.42 71.24 70.38 71.65 72.35 72.36 73.29 73.70 73.44 73.19 73.36 73.66 73.89 73.71 73.51 73.44 73.51 73.91 73.79 73.84 73.98 74.16 74.36 74.34 73.70 73.68 73.43 73.83 72.63 72.69
56.17 55.36 50.42 44.29 37.11 32.77 36.11 40.65 38.39 41.79 45.57 48.07 48.71 47.76 50.33 52.71 59.52 61.74 65.09 69.10 71.15 70.73 71.35 71.79 72.14 72.76 73.25 73.18 72.97 73.25 73.94 73.77 73.55 73.51 73.51 73.59 73.91 73.80 73.90 73.72 73.42 73.90 74.38 73.85 73.52 73.48 73.57 72.36 71.68
54.07 54.37 45.40 40.54 34.51 33.38 35.97 41.00 43.15 44.98 48.12 48.12 47.54 53.41 52.82 54.46 60.54 62.92 65.81 70.92 71.44 69.97 71.03 71.84 71.55 72.21 72.90 72.85 72.96 73.13 73.28 72.89 72.85 73.21 73.74 73.81 73.96 73.96 73.74 73.03 72.91 73.59 74.18 73.85 73.58 73.03 72.62 71.47 70.64
51.72 47.64 44.74 38.91 36.58 40.30 42.08 45.94 48.34 47.04 48.45 49.92 51.79 51.62 56.12 60.70 63.17 65.36 69.91 71.75 70.41 69.96 71.19 70.19 70.24 71.56 72.51 72.85 72.96 73.00 72.68 72.15 72.11 72.68 73.43 73.79 74.00 73.87 73.18 72.52 72.70 73.56 73.92 74.19 73.36 72.25 71.36 70.19 69.85
49.18 43.88 38.31 36.43 38.57 42.26 46.37 47.04 48.38 47.39 49.10 51.21 52.70 49.76 51.14 55.23 65.65 67.25 69.48 71.41 70.27 69.98 70.32 70.47 69.43 70.84 72.31 72.96 73.06 72.57 71.90 71.48 71.80 72.27 72.85 73.29 73.56 73.48 72.52 72.05 72.50 72.89 73.14 73.73 72.60 71.31 70.30 69.77 69.41
43.24 42.07 35.13 33.95 38.79 43.58 44.51 45.22 48.62 48.91 48.92 50.21 50.98 50.56 50.26 53.27 54.71 63.39 66.81 70.55 70.58 69.85 69.91 70.31 70.60 70.39 71.31 72.05 72.02 71.18 70.84 70.95 71.19 71.73 72.17 72.79 72.73 72.37 72.07 71.76 72.08 72.21 72.23 72.10 70.93 70.03 69.86 69.42 69.15
40.48 37.37 34.16 35.05 38.77 41.67 44.84 46.79 43.20 45.45 44.46 48.27 51.03 46.92 48.52 47.67 49.35 51.31 53.86 66.28 70.74 69.88 69.32 69.22 69.80 70.63 69.94 69.86 70.02 69.79 69.99 70.39 70.52 70.77 70.98 71.40 70.93 70.81 71.30 71.30 71.64 71.90 71.52 71.23 70.09 69.28 68.87 69.16 68.91
42.90 40.05 36.04 35.24 38.91 38.78 45.36 46.99 45.04 42.16 43.52 48.09 48.38 41.87 41.01 45.69 47.56 48.03 48.65 49.85 57.75 70.14 70.30 68.46 68.35 69.07 69.11 69.30 68.87 69.12 69.59 69.45 69.63 70.15 69.93 69.64 69.66 70.05 70.43 70.34 70.98 71.44 71.17 70.83 69.87 68.80 68.40 68.29 67.96
41.80 35.31 32.17 35.35 37.40 39.32 43.96 42.97 43.73 43.10 41.96 44.39 46.72 43.75 44.97 47.19 47.39 47.35 46.86 47.23 47.97 50.71 53.81 69.65 68.46 68.53 68.12 68.06 69.15 68.94 69.68 69.48 69.03 69.70 69.48 68.87 70.36 69.97 70.05 69.90 69.74 70.30 70.03 69.71 69.26 68.45 67.65 67.18 67.09
38.14 33.44 36.03 40.96 39.19 39.41 42.78 43.52 42.67 40.86 41.10 42.56 44.61 46.73 46.71 46.52 45.74 45.43 46.10 46.87 48.33 49.09 50.74 52.37 55.92 65.51 68.65 69.49 68.35 68.03 69.11 69.16 69.34 70.02 70.18 70.59 69.59 69.55 70.25 69.34 68.69 69.50 69.00 68.66 68.35 67.81 67.09 66.66 66.14
36.86 36.59 40.42 40.26 39.70 41.36 40.96 41.56 42.67 39.86 38.77 41.57 42.49 43.58 45.03 46.69 46.85 46.56 46.78 47.24 47.29 49.12 50.35 51.45 53.41 54.59 56.48 64.69 68.79 67.15 67.88 68.62 69.03 69.37 70.36 69.78 69.50 69.03 69.28 68.71 68.82 68.76 68.44 68.15 67.40 66.64 66.22 65.71 65.21
36.17 39.81 40.47 38.75 39.67 39.86 40.04 40.27 40.23 39.71 41.28 44.23 41.62 44.07 45.27 44.85 44.76 44.84 44.93 45.37 45.78 46.84 47.83 49.18 50.74 52.39 53.30 57.02 58.62 65.78 67.85 67.58 68.57 69.39 69.66 69.15 68.85 68.35 68.24 68.10 67.69 68.24 68.89 66.88 66.04 65.57 65.32 65.17 65.56
37.82 40.43 41.77 42.06 41.41 40.03 41.86 39.66 39.92 40.26 43.85 44.74 45.76 45.53 43.99 43.80 43.67 43.97 43.99 43.89 43.64 43.67 44.98 46.50 47.81 49.85 51.08 53.67 55.28 57.32 59.42 67.52 67.27 68.75 69.38 69.72 68.96 68.10 68.08 67.67 67.67 68.39 68.59 67.02 65.36 65.07 65.06 64.94 64.88
40.60 40.61 40.66 41.55 40.72 40.21 39.33 39.35 40.03 41.04 43.44 45.18 45.55 43.17 42.33 42.00 41.75 41.57 41.35 41.07 41.47 42.48 42.59 44.00 45.31 46.86 48.36 49.74 50.84 53.09 57.44 59.57 67.07 67.67 68.50 69.58 69.20 68.35 67.99 67.43 67.45 67.92 68.24 67.92 66.25 65.42 64.45 64.37 64.55
41.50 37.69 39.29 40.83 40.66 39.19 40.42 36.47 37.90 42.89 44.89 44.49 43.92 42.73 41.17 40.81 40.76 39.61 40.55 39.91 40.04 40.23 41.27 41.78 43.51 44.81 45.26 46.84 48.58 50.07 54.04 57.32 59.19 67.25 67.93 68.82 68.70 68.31 68.06 67.43 67.47 67.85 68.19 67.70 66.57 65.20 64.65 63.91 63.87
36.66 35.93 31.51 39.43 39.75 40.20 39.27 32.68 39.99 42.17 42.42 39.92 40.17 40.38 39.56 39.30 39.22 39.81 40.06 39.91 39.63 38.99 38.91 40.15 42.76 42.02 42.93 44.11 45.81 48.40 50.62 53.97 58.75 61.72 68.01 68.43 69.02 68.07 68.01 67.78 67.75 68.20 67.99 67.52 66.60 65.47 64.65 64.15 63.59
32.87 28.06 31.60 35.76 38.70 37.86 36.63 33.61 39.25 41.91 40.17 37.73 37.12 36.60 37.07 37.09 37.68 38.44 38.74 38.84 38.70 38.16 38.15 38.14 39.91 39.87 40.67 42.08 44.21 46.30 47.73 51.56 54.11 58.38 59.92 65.48 68.63 68.70 67.77 68.21 68.03 68.15 67.45 67.09 66.31 65.64 65.24 63.67 63.34
28.92 29.51 28.11 29.43 33.57 35.72 33.30 32.55 35.89 38.23 37.26 35.67 34.68 34.80 34.69 34.84 35.37 37.53 37.60 37.80 37.58 36.89 37.49 37.58 38.59 38.67 39.05 40.89 42.41 44.54 46.37 48.38 50.31 54.97 59.13 59.47 62.99 68.57 67.77 68.13 68.02 67.68 67.33 66.73 66.15 65.31 64.42 63.32 63.25
34.24 31.97 30.83 30.75 36.81 34.65 33.63 31.19 32.92 35.25 34.95 33.16 32.92 32.60 32.80 33.46 35.46 36.65 36.73 36.20 35.64 35.42 35.40 35.77 36.14 36.75 37.68 38.50 39.65 41.33 43.04 45.87 48.66 51.80 54.89 56.48 59.80 63.72 67.77 67.46 67.67 67.61 67.20 66.65 66.02 65.20 63.23 61.78 62.25
35.22 32.31 30.57 33.87 37.62 35.44 32.22 29.59 32.94 34.42 33.43 32.90 32.01 31.39 31.53 32.15 33.04 34.41 34.85 34.54 33.87 33.72 34.30 34.61 34.95 36.10 37.20 38.26 40.29 42.53 44.27 45.95 48.62 50.18 53.32 56.63 58.37 62.51 66.62 66.97 67.13 67.30 67.06 66.53 65.70 65.02 63.24 63.16 62.91
34.16 32.13 31.95 32.59 35.23 33.78 33.07 28.18 31.61 34.26 34.49 34.39 33.25 32.60 32.01 31.18 31.13 32.09 32.95 32.74 32.65 32.20 32.93 34.43 35.27 36.23 37.29 39.33 40.68 43.09 44.66 45.16 46.02 48.06 50.28 53.21 56.57 58.20 64.23 66.26 67.34 67.09 67.28 65.71 65.77 65.64 64.40 62.87 61.08
31.98 37.24 37.22 35.64 31.81 26.78 33.93 21.78 29.69 32.01 31.76 31.96 32.13 30.43 30.51 31.97 31.76 31.80 31.49 31.36 31.17 31.78 33.77 34.56 35.06 35.28 37.18 38.11 39.18 41.15 42.24 42.40 44.59 47.82 49.57 50.95 54.73 58.83 60.52 63.61 66.27 66.76 67.08 66.26 66.07 66.40 65.54 64.67 62.15
34.92 39.52 37.00 35.87 31.29 28.47 30.29 25.74 26.76 33.14 29.96 29.88 30.48 31.59 30.31 32.31 30.77 30.26 30.51 31.10 31.46 31.91 33.31 34.38 35.30 35.63 36.06 37.68 38.34 39.52 42.66 44.77 47.30 49.23 49.27 50.49 52.96 57.16 61.36 63.19 65.11 66.00 66.86 66.84 66.17 65.84 65.53 64.64 63.65
40.38 37.31 36.82 33.87 30.35 22.94 31.23 29.03 25.02 26.02 28.40 29.90 31.19 31.70 31.25 31.77 31.38 31.26 31.05 31.18 31.22 32.22 33.39 33.90 34.62 35.13 36.05 36.27 37.24 40.62 42.38 44.17 45.65 46.51 47.96 50.78 54.01 58.79 58.89 58.21 58.43 63.18 65.93 65.99 65.57 65.51 65.83 64.49 63.38
37.55 32.85 22.69 21.83 21.55 22.81 34.85 29.24 25.80 29.59 30.30 30.17 30.05 30.51 30.97 31.56 30.81 29.33 28.46 29.05 30.47 31.09 32.46 33.46 33.32 34.10 34.77 35.89 36.43 40.25 42.68 43.54 44.45 46.92 49.30 53.08 55.80 53.81 53.80 55.28 56.76 56.22 54.35 63.57 64.91 63.99 63.71 62.90 63.28
34.18 33.35 25.28 21.64 21.91 24.51 33.36 26.38 25.14 31.21 32.02 32.75 32.08 31.21 31.67 29.83 28.45 27.95 28.36 29.16 30.45 31.23 31.77 32.29 33.17 33.87 34.44 35.49 35.51 39.08 40.58 43.07 43.94 45.06 46.08 47.51 51.41 49.35 49.59 50.88 53.79 53.37 52.58 54.06 56.72 62.25 61.97 62.14 62.49
34.35 29.90 37.55 29.55 30.24 23.65 25.73 27.71 31.23 31.55 31.01 31.86 30.08 29.98 30.45 25.53 26.88 27.03 28.13 28.80 30.57 31.27 31.42 32.78 32.65 33.26 33.95 35.07 35.21 36.68 37.94 38.58 41.77 42.14 43.17 44.06 45.54 46.01 44.65 45.54 47.31 48.91 51.11 50.09 52.85 53.23 53.81 57.74 62.71
38.26 40.82 29.52 30.34 23.74 20.30 24.31 24.45 21.22 28.52 28.21 29.65 28.55 28.33 29.63 29.24 24.48 26.52 27.36 28.63 30.58 30.95 32.59 32.90 32.64 32.22 33.58 34.17 34.49 35.75 35.68 36.54 38.97 39.63 38.82 40.66 41.11 41.90 41.03 41.99 42.80 44.60 45.90 47.39 48.86 49.92 49.91 48.56 48.32
35.43 32.61 33.23 33.48 29.76 23.27 16.73 21.42 30.76 28.36 26.92 24.87 28.40 29.48 29.51 29.38 22.22 24.39 25.94 28.07 30.71 30.41 31.33 31.91 32.00 31.72 31.70 33.02 33.56 34.09 33.88 34.88 35.97 37.46 36.82 37.71 39.02 38.31 37.97 38.93 40.14 41.08 40.81 42.36 43.21 43.74 43.71 43.80 44.57
39.69 35.00 34.77 27.85 27.69 28.87 22.56 22.32 30.29 28.19 29.19 29.46 28.95 29.60 30.43 29.74 24.28 25.24 24.10 26.80 28.03 29.26 29.76 31.10 31.52 31.55 31.82 32.05 32.36 32.70 32.76 32.61 33.31 34.03 35.25 35.84 35.19 35.58 35.65 36.49 36.94 38.11 38.25 38.32 38.16 38.87 39.20 39.41 40.40

GFSSGP_sfc_wetblb_141.txt.gz
Wetbulb
57.51 53.64 50.72 47.69 40.40 36.43 33.37 36.70 38.86 40.33 40.50 43.23 48.30 52.43 50.25 51.97 53.52 51.43 62.67 68.95 70.17 70.22 71.41 72.24 72.20 72.98 72.91 72.78 72.79 72.94 73.26 73.41 73.44 73.16 73.12 73.45 73.73 73.93 73.75 73.78 73.99 74.18 74.03 73.16 73.21 73.51 72.86 72.29 72.21
56.37 54.37 48.39 42.52 36.26 32.20 34.97 38.92 41.59 42.57 43.94 47.45 50.51 50.00 52.26 52.57 58.78 61.79 65.14 68.53 70.17 70.59 71.09 71.70 71.92 72.56 73.05 72.65 72.73 72.98 73.67 73.58 73.23 73.14 73.35 73.49 73.62 73.63 73.78 73.66 73.39 73.63 73.94 73.16 73.21 73.43 72.56 72.04 71.78
51.87 52.06 44.73 38.85 32.59 32.65 34.05 41.41 43.98 46.62 47.34 46.27 48.77 54.32 53.80 53.77 61.28 62.70 67.86 70.25 70.27 69.83 70.91 71.66 71.49 71.83 72.71 72.63 72.44 72.74 73.05 72.84 72.82 72.74 73.43 73.69 73.69 73.84 73.72 72.99 72.78 73.61 74.11 73.48 73.23 73.28 72.19 71.11 70.55
50.81 47.06 43.83 38.29 35.73 37.67 39.64 43.14 43.62 45.53 48.79 51.97 52.55 48.79 55.63 58.84 63.47 66.12 70.39 70.32 69.16 69.81 70.55 69.92 70.41 71.49 72.44 72.60 72.50 72.50 72.50 71.87 71.97 72.34 73.06 73.64 73.76 73.80 73.05 72.28 72.62 73.59 73.80 73.77 72.95 72.58 71.41 70.10 69.76
46.45 42.55 37.36 34.79 35.96 39.94 42.42 42.58 46.49 47.12 48.57 49.79 49.15 44.58 47.27 50.85 58.54 62.21 69.81 70.54 69.03 69.03 69.49 70.11 69.45 70.84 72.19 72.70 72.70 72.26 71.86 71.32 71.55 72.10 72.64 73.06 73.44 73.21 72.41 71.92 72.43 72.71 73.43 73.53 72.38 71.33 70.36 69.56 69.32
42.50 40.56 34.42 33.13 35.84 41.18 43.19 43.65 43.91 46.09 49.25 48.94 45.81 45.63 45.95 50.70 48.78 49.66 64.07 69.39 69.88 69.21 69.33 69.66 70.67 70.57 70.93 71.82 71.97 71.18 70.86 70.83 70.96 71.38 71.93 72.62 72.61 72.07 71.82 71.76 71.86 72.18 72.25 72.01 70.76 70.08 69.79 69.21 68.94
39.53 36.11 33.90 33.81 36.21 38.80 42.82 44.75 40.81 41.84 41.38 43.17 48.54 43.51 45.01 44.82 46.27 48.44 51.02 53.33 53.39 54.70 64.99 68.81 68.72 69.37 69.80 69.20 69.38 69.63 70.05 70.14 70.36 70.54 70.90 71.10 70.95 70.65 71.20 71.43 71.54 71.61 71.46 71.14 69.99 69.46 68.84 68.82 68.55
40.72 38.44 33.79 34.26 36.93 36.31 41.83 44.54 43.51 41.50 41.47 46.06 44.60 39.70 39.25 44.05 46.11 46.90 50.32 50.17 51.03 51.66 51.78 53.27 55.18 56.66 67.06 68.57 68.34 68.48 69.16 69.22 69.38 69.94 69.76 69.43 69.65 70.03 70.30 70.21 70.70 71.08 71.10 70.63 69.82 68.55 68.18 68.33 67.87
39.86 34.79 31.31 34.04 35.20 37.17 41.04 40.09 42.13 40.97 40.97 42.74 44.85 41.88 44.98 47.69 48.95 48.26 47.82 47.98 48.60 49.92 49.74 51.38 51.73 52.90 54.96 62.11 68.62 69.20 68.70 68.77 68.75 69.36 69.27 68.46 69.41 69.34 69.60 69.49 69.58 70.39 70.21 69.83 69.21 68.24 67.51 66.93 66.93
36.80 32.52 34.28 38.98 37.50 37.25 40.06 40.94 41.30 40.29 40.19 41.30 42.95 46.08 47.55 47.53 46.91 45.32 44.65 44.15 45.38 45.91 47.02 48.14 48.27 50.67 52.14 57.06 58.66 63.12 67.85 68.37 68.25 69.45 68.95 70.30 70.04 68.59 69.65 69.07 68.68 69.49 69.31 69.02 68.45 67.85 66.84 66.41 65.38
34.19 34.32 37.19 39.43 39.66 38.98 39.83 39.54 41.81 38.50 37.21 39.66 41.45 42.82 44.13 44.12 43.14 42.98 42.55 42.43 42.72 43.91 44.60 45.08 46.25 48.63 49.01 51.81 55.32 56.45 58.86 63.70 68.46 68.45 69.04 69.78 69.30 69.44 69.27 68.82 68.95 69.09 68.82 68.03 67.64 66.56 65.77 65.16 64.52
33.51 37.50 37.98 37.26 40.07 40.04 37.50 38.19 38.45 36.03 40.03 43.14 42.79 43.61 42.28 40.70 40.44 40.37 40.46 40.26 40.37 40.84 41.76 42.83 44.17 45.28 46.10 48.61 50.27 52.69 56.26 58.33 59.67 67.29 68.96 69.04 68.50 68.27 68.44 68.83 68.65 68.92 68.90 67.96 66.58 65.56 64.93 64.48 64.47
34.97 37.69 39.64 39.42 40.13 39.43 41.27 38.57 38.09 39.01 43.35 43.89 43.04 41.92 40.03 39.67 39.50 39.95 39.96 39.98 39.26 38.83 39.87 40.60 41.84 43.21 44.06 45.15 47.11 48.75 50.81 55.44 58.37 59.93 67.84 69.04 68.56 67.91 67.99 68.04 67.88 68.45 68.49 67.74 66.74 64.95 64.66 64.48 64.03
38.61 38.48 38.40 39.43 39.64 39.41 38.72 38.65 39.43 40.92 44.08 42.59 40.98 38.93 38.69 38.20 38.24 38.21 38.19 37.74 37.92 38.53 38.42 39.52 39.99 41.84 41.50 42.58 43.56 45.11 47.70 52.27 53.64 58.01 60.47 64.73 68.43 68.28 68.39 67.62 67.33 67.76 67.72 67.42 66.88 65.41 64.37 64.13 63.83
39.28 35.81 37.44 37.39 37.36 38.36 39.34 34.02 35.29 42.52 42.88 40.38 39.67 38.84 37.83 37.68 37.58 36.42 37.50 36.96 37.06 37.20 37.98 38.25 39.48 40.45 39.71 39.33 41.04 42.83 45.37 48.16 49.60 55.14 59.10 59.82 64.33 68.00 68.03 67.82 67.31 67.50 67.74 67.07 66.54 65.18 63.76 63.06 62.86
35.43 34.26 30.52 36.94 37.38 37.25 37.10 29.95 37.64 40.25 38.96 36.46 37.03 37.01 36.58 36.43 36.54 36.58 37.03 36.20 36.20 35.68 36.07 37.24 38.42 38.58 38.26 38.22 39.55 41.96 43.59 45.47 47.36 51.26 53.53 57.13 59.12 61.94 67.77 67.33 67.19 67.61 67.67 66.74 66.07 65.70 64.63 63.43 62.64
31.39 26.74 29.34 33.78 36.64 35.16 34.22 29.58 35.75 38.08 37.37 34.38 33.81 33.50 34.32 34.57 34.89 36.06 36.15 35.52 35.39 34.79 35.28 35.37 36.44 36.49 36.89 37.88 39.28 40.59 42.50 44.26 46.63 48.99 50.28 54.15 58.13 60.21 58.12 65.63 67.02 67.38 67.57 66.92 66.23 65.52 64.93 63.63 62.61
27.27 27.86 27.18 28.57 32.42 33.80 31.42 28.24 32.54 34.64 34.13 32.37 31.50 31.80 32.09 32.50 33.11 35.11 35.41 35.47 35.06 34.34 35.01 35.19 35.87 36.25 36.64 37.45 38.07 39.97 41.67 42.81 45.58 47.18 49.05 51.74 54.89 56.18 58.39 58.91 65.14 67.39 67.24 66.88 66.50 65.73 65.25 64.31 63.64
32.72 30.09 29.45 31.08 34.73 33.22 30.79 29.45 30.32 32.70 32.22 30.22 30.27 30.13 30.76 31.39 33.82 34.61 34.60 34.35 33.61 33.50 33.43 34.11 34.58 35.64 36.11 35.81 35.82 37.37 38.85 41.64 44.06 46.02 48.74 49.32 50.99 54.87 58.28 57.60 61.05 66.57 66.06 66.54 66.68 65.79 63.99 62.91 63.47
33.51 30.77 29.67 32.98 35.78 34.25 29.93 27.46 29.50 31.73 30.80 30.50 29.93 29.54 29.98 31.07 31.84 32.69 33.07 32.88 32.21 32.11 32.34 33.58 34.39 35.89 36.02 36.35 36.87 37.59 39.33 41.92 44.06 45.26 46.52 48.36 50.21 53.71 58.27 59.70 58.63 64.38 65.54 65.39 65.83 65.34 64.33 63.38 62.81
32.74 30.47 30.34 31.46 32.99 32.04 30.79 26.93 29.38 32.37 32.54 32.72 31.61 31.07 30.86 30.29 29.54 30.64 31.31 31.15 31.49 30.83 31.41 33.74 34.62 35.52 36.12 37.08 37.26 38.20 39.53 41.45 42.65 44.23 45.48 47.33 49.87 51.35 53.14 55.81 56.01 58.85 63.85 64.33 65.30 65.54 64.59 62.83 62.40
30.18 35.59 34.91 33.38 30.24 25.18 30.90 23.15 28.03 30.27 29.96 30.53 30.12 28.97 28.64 29.72 30.38 30.64 30.09 29.75 30.22 31.41 32.33 33.15 34.45 34.80 36.69 37.12 36.38 36.29 36.61 37.55 41.24 43.69 45.54 47.89 49.66 50.12 51.77 54.88 57.76 56.65 61.64 62.27 63.87 65.50 65.03 63.83 61.73
34.12 37.74 35.84 34.28 29.77 26.97 27.95 24.43 24.40 30.59 28.30 28.42 28.77 29.40 29.35 29.40 29.38 29.19 29.18 29.39 31.49 32.68 32.38 33.10 33.93 34.73 35.81 36.04 36.50 36.77 36.70 40.13 42.40 44.81 46.03 46.51 48.08 50.50 51.51 53.28 55.84 57.96 58.84 62.89 62.13 63.19 64.61 64.68 63.24
39.13 35.95 35.18 32.26 28.72 21.76 28.18 27.88 23.26 26.33 28.59 29.24 30.11 30.16 30.57 29.60 28.83 28.91 29.62 29.97 31.22 32.45 32.15 32.71 33.14 33.78 34.98 35.57 36.43 36.78 36.85 39.10 40.49 42.95 44.52 46.14 48.88 51.23 53.33 55.04 57.68 58.41 58.09 58.19 61.88 64.30 64.37 65.06 64.44
35.46 30.75 22.63 21.03 20.12 21.86 31.57 27.37 24.51 28.53 29.60 29.63 28.45 28.67 31.05 28.57 27.51 27.18 27.18 28.22 30.13 30.50 31.24 32.49 32.58 32.44 33.56 34.22 34.66 36.10 37.14 37.67 38.58 42.33 43.46 44.82 46.72 51.17 50.68 54.27 55.89 54.75 55.77 59.00 61.03 63.05 64.33 64.52 64.14
33.41 33.74 26.36 19.84 20.92 23.35 31.39 24.66 24.68 30.86 31.26 31.30 30.50 30.70 31.54 27.19 26.62 26.30 27.13 27.75 29.34 30.38 31.63 32.04 31.68 31.69 33.03 34.22 34.55 35.34 35.99 36.29 38.27 39.42 39.80 42.35 43.61 46.09 46.52 51.52 54.45 52.97 55.39 55.95 59.64 62.77 58.52 62.47 61.67
32.45 29.87 35.61 29.65 27.37 23.25 24.92 25.47 30.45 30.51 30.06 29.77 29.29 29.45 27.29 29.14 25.04 25.46 26.74 28.28 29.64 30.02 30.97 31.59 32.02 32.24 32.64 33.53 34.27 34.78 34.78 35.10 35.88 36.39 37.04 38.54 40.58 43.27 44.82 48.39 48.90 49.45 50.22 50.85 52.11 55.65 52.18 52.84 51.73
36.79 37.43 29.94 27.79 22.29 20.24 20.67 22.57 23.31 27.92 28.65 28.47 22.14 22.48 29.48 29.52 22.84 24.85 25.82 26.48 30.17 28.85 30.06 31.31 31.80 31.40 32.43 33.23 33.61 34.16 34.09 34.00 34.64 34.50 33.67 34.67 36.81 39.63 42.09 43.65 44.03 44.38 44.70 44.15 43.98 45.37 47.40 46.36 45.71
34.48 32.97 33.56 33.82 28.86 20.96 14.05 20.65 30.02 30.59 29.68 24.72 23.05 28.79 27.84 24.03 19.42 21.81 24.09 25.41 25.88 27.20 28.53 30.08 30.76 30.90 31.08 32.18 32.87 32.95 33.26 33.08 32.84 32.74 32.35 32.84 34.42 36.69 39.32 39.30 39.51 39.77 39.92 40.32 39.63 40.06 40.03 39.43 38.73
37.62 34.53 34.50 27.88 25.96 28.84 20.19 19.74 29.95 29.44 28.31 27.93 27.27 29.65 27.39 24.43 20.24 20.12 21.17 22.15 23.83 25.39 26.69 28.08 30.49 30.22 31.11 31.68 32.04 31.91 32.16 31.70 30.88 30.24 31.16 31.70 32.13 35.06 36.26 38.82 37.86 37.14 37.02 36.71 36.22 35.47 35.95 35.43 35.24